<?xml version="1.0" encoding="UTF-8" standalone="no" ?>
<gpx xmlns="http://www.topografix.com/GPX/1/1" xmlns:xsi="http://www.w3.org/2001/XMLSchema-instance" xsi:schemaLocation="http://www.topografix.com/GPX/1/1 http://www.topografix.com/GPX/1/1/gpx.xsd" version="1.1" creator="VisuGPX - https://www.visugpx.com">
  <metadata>
    <name>Fourchu-Grenoniere-Facteur</name>
    <desc><![CDATA[Tentative avec Etienne et Xav147]]></desc>
  </metadata>
  <trk>
    <name><![CDATA[2016_06_26-FourchuGrenoniereFacteur]]></name>
    <trkseg>
      <trkpt lat="45.0728" lon="6.01737">
        <ele>722.7</ele>
        <time>2015-07-04T05:35:07Z</time>
      </trkpt>
      <trkpt lat="45.07269" lon="6.01745">
        <ele>722.5</ele>
        <time>2015-07-04T05:35:09Z</time>
      </trkpt>
      <trkpt lat="45.07258" lon="6.01753">
        <ele>722.4</ele>
        <time>2015-07-04T05:35:11Z</time>
      </trkpt>
      <trkpt lat="45.07248" lon="6.01761">
        <ele>722.2</ele>
        <time>2015-07-04T05:35:13Z</time>
      </trkpt>
      <trkpt lat="45.07239" lon="6.01768">
        <ele>722</ele>
        <time>2015-07-04T05:35:15Z</time>
      </trkpt>
      <trkpt lat="45.07228" lon="6.01773">
        <ele>721.8</ele>
        <time>2015-07-04T05:35:18Z</time>
      </trkpt>
      <trkpt lat="45.07215" lon="6.01769">
        <ele>721.5</ele>
        <time>2015-07-04T05:35:21Z</time>
      </trkpt>
      <trkpt lat="45.07208" lon="6.01758">
        <ele>721.3</ele>
        <time>2015-07-04T05:35:23Z</time>
      </trkpt>
      <trkpt lat="45.07205" lon="6.01744">
        <ele>721</ele>
        <time>2015-07-04T05:35:25Z</time>
      </trkpt>
      <trkpt lat="45.07208" lon="6.01732">
        <ele>720.7</ele>
        <time>2015-07-04T05:35:27Z</time>
      </trkpt>
      <trkpt lat="45.07215" lon="6.01717">
        <ele>720.3</ele>
        <time>2015-07-04T05:35:30Z</time>
      </trkpt>
      <trkpt lat="45.07224" lon="6.01705">
        <ele>720</ele>
        <time>2015-07-04T05:35:33Z</time>
      </trkpt>
      <trkpt lat="45.07234" lon="6.01694">
        <ele>719.8</ele>
        <time>2015-07-04T05:35:36Z</time>
      </trkpt>
      <trkpt lat="45.07244" lon="6.01684">
        <ele>719.9</ele>
        <time>2015-07-04T05:35:39Z</time>
      </trkpt>
      <trkpt lat="45.07254" lon="6.01674">
        <ele>719.9</ele>
        <time>2015-07-04T05:35:42Z</time>
      </trkpt>
      <trkpt lat="45.07264" lon="6.01663">
        <ele>720</ele>
        <time>2015-07-04T05:35:45Z</time>
      </trkpt>
      <trkpt lat="45.07273" lon="6.01653">
        <ele>720</ele>
        <time>2015-07-04T05:35:48Z</time>
      </trkpt>
      <trkpt lat="45.07283" lon="6.01642">
        <ele>720.1</ele>
        <time>2015-07-04T05:35:51Z</time>
      </trkpt>
      <trkpt lat="45.07293" lon="6.01632">
        <ele>720.3</ele>
        <time>2015-07-04T05:35:54Z</time>
      </trkpt>
      <trkpt lat="45.07304" lon="6.01623">
        <ele>720.5</ele>
        <time>2015-07-04T05:35:57Z</time>
      </trkpt>
      <trkpt lat="45.07315" lon="6.01614">
        <ele>720.8</ele>
        <time>2015-07-04T05:36:00Z</time>
      </trkpt>
      <trkpt lat="45.07325" lon="6.01606">
        <ele>721.1</ele>
        <time>2015-07-04T05:36:03Z</time>
      </trkpt>
      <trkpt lat="45.07336" lon="6.01599">
        <ele>721.3</ele>
        <time>2015-07-04T05:36:06Z</time>
      </trkpt>
      <trkpt lat="45.07347" lon="6.01592">
        <ele>721.6</ele>
        <time>2015-07-04T05:36:09Z</time>
      </trkpt>
      <trkpt lat="45.07357" lon="6.01586">
        <ele>721.8</ele>
        <time>2015-07-04T05:36:12Z</time>
      </trkpt>
      <trkpt lat="45.07366" lon="6.01579">
        <ele>722</ele>
        <time>2015-07-04T05:36:15Z</time>
      </trkpt>
      <trkpt lat="45.07374" lon="6.01569">
        <ele>722.3</ele>
        <time>2015-07-04T05:36:18Z</time>
      </trkpt>
      <trkpt lat="45.07382" lon="6.01556">
        <ele>722.5</ele>
        <time>2015-07-04T05:36:21Z</time>
      </trkpt>
      <trkpt lat="45.07388" lon="6.0154">
        <ele>722.7</ele>
        <time>2015-07-04T05:36:24Z</time>
      </trkpt>
      <trkpt lat="45.07389" lon="6.01527">
        <ele>722.8</ele>
        <time>2015-07-04T05:36:26Z</time>
      </trkpt>
      <trkpt lat="45.07386" lon="6.01514">
        <ele>722.9</ele>
        <time>2015-07-04T05:36:28Z</time>
      </trkpt>
      <trkpt lat="45.07382" lon="6.015">
        <ele>723</ele>
        <time>2015-07-04T05:36:30Z</time>
      </trkpt>
      <trkpt lat="45.07377" lon="6.01486">
        <ele>723.1</ele>
        <time>2015-07-04T05:36:32Z</time>
      </trkpt>
      <trkpt lat="45.07371" lon="6.01473">
        <ele>723.2</ele>
        <time>2015-07-04T05:36:34Z</time>
      </trkpt>
      <trkpt lat="45.07364" lon="6.0146">
        <ele>723.2</ele>
        <time>2015-07-04T05:36:36Z</time>
      </trkpt>
      <trkpt lat="45.07357" lon="6.01447">
        <ele>723.2</ele>
        <time>2015-07-04T05:36:38Z</time>
      </trkpt>
      <trkpt lat="45.07351" lon="6.01435">
        <ele>723.2</ele>
        <time>2015-07-04T05:36:40Z</time>
      </trkpt>
      <trkpt lat="45.07346" lon="6.01423">
        <ele>723</ele>
        <time>2015-07-04T05:36:42Z</time>
      </trkpt>
      <trkpt lat="45.07341" lon="6.01411">
        <ele>722.9</ele>
        <time>2015-07-04T05:36:44Z</time>
      </trkpt>
      <trkpt lat="45.07337" lon="6.01399">
        <ele>722.8</ele>
        <time>2015-07-04T05:36:46Z</time>
      </trkpt>
      <trkpt lat="45.07332" lon="6.01387">
        <ele>722.7</ele>
        <time>2015-07-04T05:36:48Z</time>
      </trkpt>
      <trkpt lat="45.07327" lon="6.01375">
        <ele>722.6</ele>
        <time>2015-07-04T05:36:50Z</time>
      </trkpt>
      <trkpt lat="45.07323" lon="6.01362">
        <ele>722.5</ele>
        <time>2015-07-04T05:36:52Z</time>
      </trkpt>
      <trkpt lat="45.07318" lon="6.0135">
        <ele>722.5</ele>
        <time>2015-07-04T05:36:54Z</time>
      </trkpt>
      <trkpt lat="45.07314" lon="6.01338">
        <ele>722.4</ele>
        <time>2015-07-04T05:36:56Z</time>
      </trkpt>
      <trkpt lat="45.0731" lon="6.01326">
        <ele>722.3</ele>
        <time>2015-07-04T05:36:58Z</time>
      </trkpt>
      <trkpt lat="45.07305" lon="6.01313">
        <ele>722.3</ele>
        <time>2015-07-04T05:37:00Z</time>
      </trkpt>
      <trkpt lat="45.07301" lon="6.01301">
        <ele>722.3</ele>
        <time>2015-07-04T05:37:02Z</time>
      </trkpt>
      <trkpt lat="45.07297" lon="6.0129">
        <ele>722.2</ele>
        <time>2015-07-04T05:37:04Z</time>
      </trkpt>
      <trkpt lat="45.07292" lon="6.01278">
        <ele>722.2</ele>
        <time>2015-07-04T05:37:06Z</time>
      </trkpt>
      <trkpt lat="45.07288" lon="6.01266">
        <ele>722.2</ele>
        <time>2015-07-04T05:37:08Z</time>
      </trkpt>
      <trkpt lat="45.07284" lon="6.01254">
        <ele>722.1</ele>
        <time>2015-07-04T05:37:10Z</time>
      </trkpt>
      <trkpt lat="45.07279" lon="6.01243">
        <ele>722.1</ele>
        <time>2015-07-04T05:37:12Z</time>
      </trkpt>
      <trkpt lat="45.07276" lon="6.01231">
        <ele>722.1</ele>
        <time>2015-07-04T05:37:14Z</time>
      </trkpt>
      <trkpt lat="45.07272" lon="6.0122">
        <ele>722.1</ele>
        <time>2015-07-04T05:37:16Z</time>
      </trkpt>
      <trkpt lat="45.07266" lon="6.01203">
        <ele>722.1</ele>
        <time>2015-07-04T05:37:19Z</time>
      </trkpt>
      <trkpt lat="45.0726" lon="6.01186">
        <ele>722.1</ele>
        <time>2015-07-04T05:37:22Z</time>
      </trkpt>
      <trkpt lat="45.07254" lon="6.01171">
        <ele>722.1</ele>
        <time>2015-07-04T05:37:25Z</time>
      </trkpt>
      <trkpt lat="45.07248" lon="6.01155">
        <ele>722.3</ele>
        <time>2015-07-04T05:37:28Z</time>
      </trkpt>
      <trkpt lat="45.07242" lon="6.01139">
        <ele>722.4</ele>
        <time>2015-07-04T05:37:31Z</time>
      </trkpt>
      <trkpt lat="45.07237" lon="6.01123">
        <ele>722.5</ele>
        <time>2015-07-04T05:37:34Z</time>
      </trkpt>
      <trkpt lat="45.07231" lon="6.01108">
        <ele>722.6</ele>
        <time>2015-07-04T05:37:37Z</time>
      </trkpt>
      <trkpt lat="45.07226" lon="6.01094">
        <ele>722.6</ele>
        <time>2015-07-04T05:37:40Z</time>
      </trkpt>
      <trkpt lat="45.07221" lon="6.0108">
        <ele>723</ele>
        <time>2015-07-04T05:37:43Z</time>
      </trkpt>
      <trkpt lat="45.07217" lon="6.01066">
        <ele>723.5</ele>
        <time>2015-07-04T05:37:46Z</time>
      </trkpt>
      <trkpt lat="45.07213" lon="6.01054">
        <ele>723.9</ele>
        <time>2015-07-04T05:37:49Z</time>
      </trkpt>
      <trkpt lat="45.07209" lon="6.01038">
        <ele>724.3</ele>
        <time>2015-07-04T05:37:53Z</time>
      </trkpt>
      <trkpt lat="45.07205" lon="6.01024">
        <ele>724.7</ele>
        <time>2015-07-04T05:37:57Z</time>
      </trkpt>
      <trkpt lat="45.07203" lon="6.01009">
        <ele>725.4</ele>
        <time>2015-07-04T05:38:01Z</time>
      </trkpt>
      <trkpt lat="45.072" lon="6.00995">
        <ele>726.1</ele>
        <time>2015-07-04T05:38:05Z</time>
      </trkpt>
      <trkpt lat="45.072" lon="6.00982">
        <ele>726.8</ele>
        <time>2015-07-04T05:38:09Z</time>
      </trkpt>
      <trkpt lat="45.072" lon="6.00968">
        <ele>727.5</ele>
        <time>2015-07-04T05:38:13Z</time>
      </trkpt>
      <trkpt lat="45.07201" lon="6.00954">
        <ele>728.1</ele>
        <time>2015-07-04T05:38:17Z</time>
      </trkpt>
      <trkpt lat="45.07201" lon="6.0094">
        <ele>729</ele>
        <time>2015-07-04T05:38:21Z</time>
      </trkpt>
      <trkpt lat="45.07201" lon="6.00927">
        <ele>729.7</ele>
        <time>2015-07-04T05:38:25Z</time>
      </trkpt>
      <trkpt lat="45.072" lon="6.00914">
        <ele>730.7</ele>
        <time>2015-07-04T05:38:29Z</time>
      </trkpt>
      <trkpt lat="45.07197" lon="6.00902">
        <ele>731.4</ele>
        <time>2015-07-04T05:38:33Z</time>
      </trkpt>
      <trkpt lat="45.07192" lon="6.00887">
        <ele>732.2</ele>
        <time>2015-07-04T05:38:38Z</time>
      </trkpt>
      <trkpt lat="45.07189" lon="6.00874">
        <ele>733.1</ele>
        <time>2015-07-04T05:38:42Z</time>
      </trkpt>
      <trkpt lat="45.07186" lon="6.00862">
        <ele>734</ele>
        <time>2015-07-04T05:38:46Z</time>
      </trkpt>
      <trkpt lat="45.07183" lon="6.0085">
        <ele>734.5</ele>
        <time>2015-07-04T05:38:50Z</time>
      </trkpt>
      <trkpt lat="45.0718" lon="6.00835">
        <ele>735.2</ele>
        <time>2015-07-04T05:38:55Z</time>
      </trkpt>
      <trkpt lat="45.07176" lon="6.0082">
        <ele>736.1</ele>
        <time>2015-07-04T05:39:00Z</time>
      </trkpt>
      <trkpt lat="45.07172" lon="6.00805">
        <ele>737.1</ele>
        <time>2015-07-04T05:39:05Z</time>
      </trkpt>
      <trkpt lat="45.07169" lon="6.00793">
        <ele>737.7</ele>
        <time>2015-07-04T05:39:09Z</time>
      </trkpt>
      <trkpt lat="45.07165" lon="6.0078">
        <ele>738.3</ele>
        <time>2015-07-04T05:39:13Z</time>
      </trkpt>
      <trkpt lat="45.0716" lon="6.00766">
        <ele>739.4</ele>
        <time>2015-07-04T05:39:18Z</time>
      </trkpt>
      <trkpt lat="45.07157" lon="6.00754">
        <ele>740.2</ele>
        <time>2015-07-04T05:39:22Z</time>
      </trkpt>
      <trkpt lat="45.07155" lon="6.00738">
        <ele>741.4</ele>
        <time>2015-07-04T05:39:27Z</time>
      </trkpt>
      <trkpt lat="45.07157" lon="6.00725">
        <ele>742.2</ele>
        <time>2015-07-04T05:39:31Z</time>
      </trkpt>
      <trkpt lat="45.07161" lon="6.00712">
        <ele>742.9</ele>
        <time>2015-07-04T05:39:35Z</time>
      </trkpt>
      <trkpt lat="45.07166" lon="6.00702">
        <ele>743.7</ele>
        <time>2015-07-04T05:39:39Z</time>
      </trkpt>
      <trkpt lat="45.07172" lon="6.00691">
        <ele>744.4</ele>
        <time>2015-07-04T05:39:43Z</time>
      </trkpt>
      <trkpt lat="45.07177" lon="6.00679">
        <ele>745</ele>
        <time>2015-07-04T05:39:47Z</time>
      </trkpt>
      <trkpt lat="45.07182" lon="6.0066">
        <ele>745</ele>
        <time>2015-07-04T05:39:52Z</time>
      </trkpt>
      <trkpt lat="45.07182" lon="6.00645">
        <ele>746</ele>
        <time>2015-07-04T05:39:56Z</time>
      </trkpt>
      <trkpt lat="45.07182" lon="6.00631">
        <ele>747</ele>
        <time>2015-07-04T05:40:00Z</time>
      </trkpt>
      <trkpt lat="45.07179" lon="6.00617">
        <ele>748.2</ele>
        <time>2015-07-04T05:40:05Z</time>
      </trkpt>
      <trkpt lat="45.07175" lon="6.00602">
        <ele>748.9</ele>
        <time>2015-07-04T05:40:10Z</time>
      </trkpt>
      <trkpt lat="45.07172" lon="6.00589">
        <ele>749.8</ele>
        <time>2015-07-04T05:40:15Z</time>
      </trkpt>
      <trkpt lat="45.0717" lon="6.00575">
        <ele>750.7</ele>
        <time>2015-07-04T05:40:20Z</time>
      </trkpt>
      <trkpt lat="45.07167" lon="6.00557">
        <ele>752</ele>
        <time>2015-07-04T05:40:26Z</time>
      </trkpt>
      <trkpt lat="45.07164" lon="6.00543">
        <ele>753.2</ele>
        <time>2015-07-04T05:40:31Z</time>
      </trkpt>
      <trkpt lat="45.0716" lon="6.00529">
        <ele>754.2</ele>
        <time>2015-07-04T05:40:36Z</time>
      </trkpt>
      <trkpt lat="45.07155" lon="6.00517">
        <ele>755.1</ele>
        <time>2015-07-04T05:40:41Z</time>
      </trkpt>
      <trkpt lat="45.07148" lon="6.00505">
        <ele>755.9</ele>
        <time>2015-07-04T05:40:46Z</time>
      </trkpt>
      <trkpt lat="45.07143" lon="6.00494">
        <ele>756.7</ele>
        <time>2015-07-04T05:40:50Z</time>
      </trkpt>
      <trkpt lat="45.07136" lon="6.00482">
        <ele>757.3</ele>
        <time>2015-07-04T05:40:55Z</time>
      </trkpt>
      <trkpt lat="45.07132" lon="6.00468">
        <ele>758.5</ele>
        <time>2015-07-04T05:41:00Z</time>
      </trkpt>
      <trkpt lat="45.07132" lon="6.00455">
        <ele>759.2</ele>
        <time>2015-07-04T05:41:04Z</time>
      </trkpt>
      <trkpt lat="45.07133" lon="6.00442">
        <ele>759.9</ele>
        <time>2015-07-04T05:41:08Z</time>
      </trkpt>
      <trkpt lat="45.07135" lon="6.00429">
        <ele>761</ele>
        <time>2015-07-04T05:41:12Z</time>
      </trkpt>
      <trkpt lat="45.07135" lon="6.00416">
        <ele>761.8</ele>
        <time>2015-07-04T05:41:16Z</time>
      </trkpt>
      <trkpt lat="45.07133" lon="6.00394">
        <ele>762</ele>
        <time>2015-07-04T05:41:22Z</time>
      </trkpt>
      <trkpt lat="45.07132" lon="6.00381">
        <ele>763</ele>
        <time>2015-07-04T05:41:26Z</time>
      </trkpt>
      <trkpt lat="45.07129" lon="6.00366">
        <ele>764</ele>
        <time>2015-07-04T05:41:31Z</time>
      </trkpt>
      <trkpt lat="45.07124" lon="6.00354">
        <ele>765.2</ele>
        <time>2015-07-04T05:41:36Z</time>
      </trkpt>
      <trkpt lat="45.07116" lon="6.0034">
        <ele>766.2</ele>
        <time>2015-07-04T05:41:42Z</time>
      </trkpt>
      <trkpt lat="45.07107" lon="6.00329">
        <ele>766</ele>
        <time>2015-07-04T05:41:47Z</time>
      </trkpt>
      <trkpt lat="45.071" lon="6.0032">
        <ele>767.8</ele>
        <time>2015-07-04T05:41:52Z</time>
      </trkpt>
      <trkpt lat="45.07092" lon="6.0031">
        <ele>768.6</ele>
        <time>2015-07-04T05:41:57Z</time>
      </trkpt>
      <trkpt lat="45.07084" lon="6.003">
        <ele>769.5</ele>
        <time>2015-07-04T05:42:02Z</time>
      </trkpt>
      <trkpt lat="45.07077" lon="6.00288">
        <ele>770.4</ele>
        <time>2015-07-04T05:42:07Z</time>
      </trkpt>
      <trkpt lat="45.07071" lon="6.00276">
        <ele>771.2</ele>
        <time>2015-07-04T05:42:12Z</time>
      </trkpt>
      <trkpt lat="45.07064" lon="6.00259">
        <ele>771</ele>
        <time>2015-07-04T05:42:18Z</time>
      </trkpt>
      <trkpt lat="45.07055" lon="6.00241">
        <ele>772</ele>
        <time>2015-07-04T05:42:26Z</time>
      </trkpt>
      <trkpt lat="45.07043" lon="6.00231">
        <ele>774</ele>
        <time>2015-07-04T05:42:34Z</time>
      </trkpt>
      <trkpt lat="45.07033" lon="6.0023">
        <ele>775.4</ele>
        <time>2015-07-04T05:42:41Z</time>
      </trkpt>
      <trkpt lat="45.07022" lon="6.0023">
        <ele>776.9</ele>
        <time>2015-07-04T05:42:48Z</time>
      </trkpt>
      <trkpt lat="45.07013" lon="6.00227">
        <ele>777.8</ele>
        <time>2015-07-04T05:42:53Z</time>
      </trkpt>
      <trkpt lat="45.07002" lon="6.00224">
        <ele>778.6</ele>
        <time>2015-07-04T05:42:58Z</time>
      </trkpt>
      <trkpt lat="45.06993" lon="6.00221">
        <ele>779.3</ele>
        <time>2015-07-04T05:43:02Z</time>
      </trkpt>
      <trkpt lat="45.06983" lon="6.00215">
        <ele>779</ele>
        <time>2015-07-04T05:43:06Z</time>
      </trkpt>
      <trkpt lat="45.06974" lon="6.00207">
        <ele>780.8</ele>
        <time>2015-07-04T05:43:11Z</time>
      </trkpt>
      <trkpt lat="45.06968" lon="6.00194">
        <ele>781.6</ele>
        <time>2015-07-04T05:43:16Z</time>
      </trkpt>
      <trkpt lat="45.06963" lon="6.0018">
        <ele>782.9</ele>
        <time>2015-07-04T05:43:21Z</time>
      </trkpt>
      <trkpt lat="45.06961" lon="6.00166">
        <ele>784</ele>
        <time>2015-07-04T05:43:26Z</time>
      </trkpt>
      <trkpt lat="45.0696" lon="6.00153">
        <ele>785</ele>
        <time>2015-07-04T05:43:31Z</time>
      </trkpt>
      <trkpt lat="45.06961" lon="6.00137">
        <ele>785.9</ele>
        <time>2015-07-04T05:43:36Z</time>
      </trkpt>
      <trkpt lat="45.06961" lon="6.00124">
        <ele>786.6</ele>
        <time>2015-07-04T05:43:40Z</time>
      </trkpt>
      <trkpt lat="45.06961" lon="6.0011">
        <ele>787.3</ele>
        <time>2015-07-04T05:43:44Z</time>
      </trkpt>
      <trkpt lat="45.06961" lon="6.00097">
        <ele>788</ele>
        <time>2015-07-04T05:43:48Z</time>
      </trkpt>
      <trkpt lat="45.06962" lon="6.00081">
        <ele>788.8</ele>
        <time>2015-07-04T05:43:53Z</time>
      </trkpt>
      <trkpt lat="45.06963" lon="6.00066">
        <ele>789.8</ele>
        <time>2015-07-04T05:43:58Z</time>
      </trkpt>
      <trkpt lat="45.06966" lon="6.00054">
        <ele>790.7</ele>
        <time>2015-07-04T05:44:03Z</time>
      </trkpt>
      <trkpt lat="45.06972" lon="6.00043">
        <ele>791.4</ele>
        <time>2015-07-04T05:44:08Z</time>
      </trkpt>
      <trkpt lat="45.06977" lon="6.00032">
        <ele>792.2</ele>
        <time>2015-07-04T05:44:13Z</time>
      </trkpt>
      <trkpt lat="45.06982" lon="6.00021">
        <ele>793.1</ele>
        <time>2015-07-04T05:44:18Z</time>
      </trkpt>
      <trkpt lat="45.06986" lon="6.00009">
        <ele>793.8</ele>
        <time>2015-07-04T05:44:23Z</time>
      </trkpt>
      <trkpt lat="45.06986" lon="5.99993">
        <ele>794.8</ele>
        <time>2015-07-04T05:44:28Z</time>
      </trkpt>
      <trkpt lat="45.06982" lon="5.99981">
        <ele>795.6</ele>
        <time>2015-07-04T05:44:32Z</time>
      </trkpt>
      <trkpt lat="45.06975" lon="5.99972">
        <ele>796.5</ele>
        <time>2015-07-04T05:44:37Z</time>
      </trkpt>
      <trkpt lat="45.06965" lon="5.99973">
        <ele>797.3</ele>
        <time>2015-07-04T05:44:43Z</time>
      </trkpt>
      <trkpt lat="45.06957" lon="5.99978">
        <ele>798.2</ele>
        <time>2015-07-04T05:44:48Z</time>
      </trkpt>
      <trkpt lat="45.06947" lon="5.99982">
        <ele>798.9</ele>
        <time>2015-07-04T05:44:54Z</time>
      </trkpt>
      <trkpt lat="45.06936" lon="5.99983">
        <ele>799.8</ele>
        <time>2015-07-04T05:45:00Z</time>
      </trkpt>
      <trkpt lat="45.06927" lon="5.9999">
        <ele>800.8</ele>
        <time>2015-07-04T05:45:07Z</time>
      </trkpt>
      <trkpt lat="45.06922" lon="6.00004">
        <ele>801.4</ele>
        <time>2015-07-04T05:45:13Z</time>
      </trkpt>
      <trkpt lat="45.0692" lon="6.00019">
        <ele>801.9</ele>
        <time>2015-07-04T05:45:18Z</time>
      </trkpt>
      <trkpt lat="45.06917" lon="6.00032">
        <ele>802.2</ele>
        <time>2015-07-04T05:45:23Z</time>
      </trkpt>
      <trkpt lat="45.06912" lon="6.00045">
        <ele>803.3</ele>
        <time>2015-07-04T05:45:29Z</time>
      </trkpt>
      <trkpt lat="45.06906" lon="6.00056">
        <ele>804.2</ele>
        <time>2015-07-04T05:45:35Z</time>
      </trkpt>
      <trkpt lat="45.06895" lon="6.00059">
        <ele>805</ele>
        <time>2015-07-04T05:45:41Z</time>
      </trkpt>
      <trkpt lat="45.06886" lon="6.00057">
        <ele>805.5</ele>
        <time>2015-07-04T05:45:45Z</time>
      </trkpt>
      <trkpt lat="45.06874" lon="6.00054">
        <ele>806.1</ele>
        <time>2015-07-04T05:45:49Z</time>
      </trkpt>
      <trkpt lat="45.06864" lon="6.0005">
        <ele>806.7</ele>
        <time>2015-07-04T05:45:53Z</time>
      </trkpt>
      <trkpt lat="45.06853" lon="6.00045">
        <ele>807.6</ele>
        <time>2015-07-04T05:45:57Z</time>
      </trkpt>
      <trkpt lat="45.06843" lon="6.00039">
        <ele>808.6</ele>
        <time>2015-07-04T05:46:01Z</time>
      </trkpt>
      <trkpt lat="45.06834" lon="6.00032">
        <ele>809.3</ele>
        <time>2015-07-04T05:46:05Z</time>
      </trkpt>
      <trkpt lat="45.06825" lon="6.00025">
        <ele>809.9</ele>
        <time>2015-07-04T05:46:09Z</time>
      </trkpt>
      <trkpt lat="45.06817" lon="6.00016">
        <ele>810.5</ele>
        <time>2015-07-04T05:46:13Z</time>
      </trkpt>
      <trkpt lat="45.06809" lon="6.00004">
        <ele>811</ele>
        <time>2015-07-04T05:46:17Z</time>
      </trkpt>
      <trkpt lat="45.06802" lon="5.99995">
        <ele>812</ele>
        <time>2015-07-04T05:46:21Z</time>
      </trkpt>
      <trkpt lat="45.06789" lon="5.99985">
        <ele>813</ele>
        <time>2015-07-04T05:46:27Z</time>
      </trkpt>
      <trkpt lat="45.06775" lon="5.99977">
        <ele>814</ele>
        <time>2015-07-04T05:46:33Z</time>
      </trkpt>
      <trkpt lat="45.06766" lon="5.99971">
        <ele>815</ele>
        <time>2015-07-04T05:46:37Z</time>
      </trkpt>
      <trkpt lat="45.06757" lon="5.99966">
        <ele>815</ele>
        <time>2015-07-04T05:46:41Z</time>
      </trkpt>
      <trkpt lat="45.06748" lon="5.99961">
        <ele>816</ele>
        <time>2015-07-04T05:46:45Z</time>
      </trkpt>
      <trkpt lat="45.06739" lon="5.99957">
        <ele>816</ele>
        <time>2015-07-04T05:46:49Z</time>
      </trkpt>
      <trkpt lat="45.0673" lon="5.99953">
        <ele>817</ele>
        <time>2015-07-04T05:46:53Z</time>
      </trkpt>
      <trkpt lat="45.06721" lon="5.99948">
        <ele>817</ele>
        <time>2015-07-04T05:46:57Z</time>
      </trkpt>
      <trkpt lat="45.06712" lon="5.99944">
        <ele>818</ele>
        <time>2015-07-04T05:47:01Z</time>
      </trkpt>
      <trkpt lat="45.06695" lon="5.99944">
        <ele>819</ele>
        <time>2015-07-04T05:47:09Z</time>
      </trkpt>
      <trkpt lat="45.0668" lon="5.99952">
        <ele>820</ele>
        <time>2015-07-04T05:47:17Z</time>
      </trkpt>
      <trkpt lat="45.0667" lon="5.99953">
        <ele>821</ele>
        <time>2015-07-04T05:47:21Z</time>
      </trkpt>
      <trkpt lat="45.0666" lon="5.99951">
        <ele>821</ele>
        <time>2015-07-04T05:47:25Z</time>
      </trkpt>
      <trkpt lat="45.06651" lon="5.99946">
        <ele>822</ele>
        <time>2015-07-04T05:47:29Z</time>
      </trkpt>
      <trkpt lat="45.06643" lon="5.99942">
        <ele>823</ele>
        <time>2015-07-04T05:47:33Z</time>
      </trkpt>
      <trkpt lat="45.06626" lon="5.99932">
        <ele>824</ele>
        <time>2015-07-04T05:47:41Z</time>
      </trkpt>
      <trkpt lat="45.06618" lon="5.99928">
        <ele>824</ele>
        <time>2015-07-04T05:47:45Z</time>
      </trkpt>
      <trkpt lat="45.0661" lon="5.99922">
        <ele>825</ele>
        <time>2015-07-04T05:47:49Z</time>
      </trkpt>
      <trkpt lat="45.06602" lon="5.99916">
        <ele>826</ele>
        <time>2015-07-04T05:47:53Z</time>
      </trkpt>
      <trkpt lat="45.06594" lon="5.99908">
        <ele>827</ele>
        <time>2015-07-04T05:47:57Z</time>
      </trkpt>
      <trkpt lat="45.06587" lon="5.999">
        <ele>827</ele>
        <time>2015-07-04T05:48:01Z</time>
      </trkpt>
      <trkpt lat="45.06579" lon="5.9989">
        <ele>828.3</ele>
        <time>2015-07-04T05:48:06Z</time>
      </trkpt>
      <trkpt lat="45.06573" lon="5.99881">
        <ele>828.9</ele>
        <time>2015-07-04T05:48:10Z</time>
      </trkpt>
      <trkpt lat="45.06566" lon="5.99871">
        <ele>829.8</ele>
        <time>2015-07-04T05:48:14Z</time>
      </trkpt>
      <trkpt lat="45.06556" lon="5.99858">
        <ele>830.6</ele>
        <time>2015-07-04T05:48:20Z</time>
      </trkpt>
      <trkpt lat="45.06548" lon="5.9985">
        <ele>830.9</ele>
        <time>2015-07-04T05:48:24Z</time>
      </trkpt>
      <trkpt lat="45.06537" lon="5.9984">
        <ele>831</ele>
        <time>2015-07-04T05:48:29Z</time>
      </trkpt>
      <trkpt lat="45.06529" lon="5.99833">
        <ele>831</ele>
        <time>2015-07-04T05:48:33Z</time>
      </trkpt>
      <trkpt lat="45.06521" lon="5.99827">
        <ele>832</ele>
        <time>2015-07-04T05:48:37Z</time>
      </trkpt>
      <trkpt lat="45.06513" lon="5.99822">
        <ele>833</ele>
        <time>2015-07-04T05:48:41Z</time>
      </trkpt>
      <trkpt lat="45.06504" lon="5.99817">
        <ele>833</ele>
        <time>2015-07-04T05:48:45Z</time>
      </trkpt>
      <trkpt lat="45.06496" lon="5.99813">
        <ele>834</ele>
        <time>2015-07-04T05:48:49Z</time>
      </trkpt>
      <trkpt lat="45.06487" lon="5.99807">
        <ele>834</ele>
        <time>2015-07-04T05:48:53Z</time>
      </trkpt>
      <trkpt lat="45.06472" lon="5.99794">
        <ele>835</ele>
        <time>2015-07-04T05:49:01Z</time>
      </trkpt>
      <trkpt lat="45.06463" lon="5.99785">
        <ele>836</ele>
        <time>2015-07-04T05:49:06Z</time>
      </trkpt>
      <trkpt lat="45.0645" lon="5.99771">
        <ele>837</ele>
        <time>2015-07-04T05:49:14Z</time>
      </trkpt>
      <trkpt lat="45.06437" lon="5.99757">
        <ele>839</ele>
        <time>2015-07-04T05:49:22Z</time>
      </trkpt>
      <trkpt lat="45.06428" lon="5.99751">
        <ele>840</ele>
        <time>2015-07-04T05:49:27Z</time>
      </trkpt>
      <trkpt lat="45.06419" lon="5.99745">
        <ele>840.8</ele>
        <time>2015-07-04T05:49:33Z</time>
      </trkpt>
      <trkpt lat="45.0641" lon="5.99751">
        <ele>842.4</ele>
        <time>2015-07-04T05:49:41Z</time>
      </trkpt>
      <trkpt lat="45.06401" lon="5.99763">
        <ele>843</ele>
        <time>2015-07-04T05:49:48Z</time>
      </trkpt>
      <trkpt lat="45.06384" lon="5.99761">
        <ele>844</ele>
        <time>2015-07-04T05:49:56Z</time>
      </trkpt>
      <trkpt lat="45.06374" lon="5.99759">
        <ele>845</ele>
        <time>2015-07-04T05:50:00Z</time>
      </trkpt>
      <trkpt lat="45.06364" lon="5.99756">
        <ele>846</ele>
        <time>2015-07-04T05:50:04Z</time>
      </trkpt>
      <trkpt lat="45.06354" lon="5.99753">
        <ele>847</ele>
        <time>2015-07-04T05:50:08Z</time>
      </trkpt>
      <trkpt lat="45.06345" lon="5.99747">
        <ele>847</ele>
        <time>2015-07-04T05:50:12Z</time>
      </trkpt>
      <trkpt lat="45.06336" lon="5.99742">
        <ele>848</ele>
        <time>2015-07-04T05:50:16Z</time>
      </trkpt>
      <trkpt lat="45.06326" lon="5.99737">
        <ele>849.8</ele>
        <time>2015-07-04T05:50:21Z</time>
      </trkpt>
      <trkpt lat="45.06317" lon="5.99732">
        <ele>850.4</ele>
        <time>2015-07-04T05:50:25Z</time>
      </trkpt>
      <trkpt lat="45.06308" lon="5.9973">
        <ele>851.1</ele>
        <time>2015-07-04T05:50:29Z</time>
      </trkpt>
      <trkpt lat="45.06299" lon="5.99728">
        <ele>851.7</ele>
        <time>2015-07-04T05:50:33Z</time>
      </trkpt>
      <trkpt lat="45.06288" lon="5.99724">
        <ele>852.4</ele>
        <time>2015-07-04T05:50:38Z</time>
      </trkpt>
      <trkpt lat="45.06279" lon="5.9972">
        <ele>853</ele>
        <time>2015-07-04T05:50:42Z</time>
      </trkpt>
      <trkpt lat="45.0627" lon="5.99715">
        <ele>853.7</ele>
        <time>2015-07-04T05:50:46Z</time>
      </trkpt>
      <trkpt lat="45.06261" lon="5.99709">
        <ele>854.5</ele>
        <time>2015-07-04T05:50:50Z</time>
      </trkpt>
      <trkpt lat="45.06252" lon="5.99704">
        <ele>855.4</ele>
        <time>2015-07-04T05:50:54Z</time>
      </trkpt>
      <trkpt lat="45.06244" lon="5.99699">
        <ele>856.1</ele>
        <time>2015-07-04T05:50:58Z</time>
      </trkpt>
      <trkpt lat="45.06235" lon="5.99693">
        <ele>856.7</ele>
        <time>2015-07-04T05:51:02Z</time>
      </trkpt>
      <trkpt lat="45.06225" lon="5.99682">
        <ele>857</ele>
        <time>2015-07-04T05:51:07Z</time>
      </trkpt>
      <trkpt lat="45.06212" lon="5.99667">
        <ele>858</ele>
        <time>2015-07-04T05:51:15Z</time>
      </trkpt>
      <trkpt lat="45.06197" lon="5.99653">
        <ele>860</ele>
        <time>2015-07-04T05:51:23Z</time>
      </trkpt>
      <trkpt lat="45.06189" lon="5.99647">
        <ele>860</ele>
        <time>2015-07-04T05:51:27Z</time>
      </trkpt>
      <trkpt lat="45.0618" lon="5.99643">
        <ele>861</ele>
        <time>2015-07-04T05:51:31Z</time>
      </trkpt>
      <trkpt lat="45.06172" lon="5.99637">
        <ele>861</ele>
        <time>2015-07-04T05:51:35Z</time>
      </trkpt>
      <trkpt lat="45.06155" lon="5.99629">
        <ele>863</ele>
        <time>2015-07-04T05:51:45Z</time>
      </trkpt>
      <trkpt lat="45.06139" lon="5.99633">
        <ele>865</ele>
        <time>2015-07-04T05:51:53Z</time>
      </trkpt>
      <trkpt lat="45.06128" lon="5.99635">
        <ele>866</ele>
        <time>2015-07-04T05:51:59Z</time>
      </trkpt>
      <trkpt lat="45.06113" lon="5.9964">
        <ele>867</ele>
        <time>2015-07-04T05:52:07Z</time>
      </trkpt>
      <trkpt lat="45.06096" lon="5.99636">
        <ele>868</ele>
        <time>2015-07-04T05:52:15Z</time>
      </trkpt>
      <trkpt lat="45.06087" lon="5.99631">
        <ele>868</ele>
        <time>2015-07-04T05:52:19Z</time>
      </trkpt>
      <trkpt lat="45.06078" lon="5.99627">
        <ele>869</ele>
        <time>2015-07-04T05:52:23Z</time>
      </trkpt>
      <trkpt lat="45.06068" lon="5.99625">
        <ele>869</ele>
        <time>2015-07-04T05:52:27Z</time>
      </trkpt>
      <trkpt lat="45.06059" lon="5.99624">
        <ele>870</ele>
        <time>2015-07-04T05:52:31Z</time>
      </trkpt>
      <trkpt lat="45.0605" lon="5.99619">
        <ele>871</ele>
        <time>2015-07-04T05:52:35Z</time>
      </trkpt>
      <trkpt lat="45.06042" lon="5.99613">
        <ele>871</ele>
        <time>2015-07-04T05:52:39Z</time>
      </trkpt>
      <trkpt lat="45.06034" lon="5.99605">
        <ele>872</ele>
        <time>2015-07-04T05:52:43Z</time>
      </trkpt>
      <trkpt lat="45.06025" lon="5.99597">
        <ele>872.8</ele>
        <time>2015-07-04T05:52:48Z</time>
      </trkpt>
      <trkpt lat="45.06016" lon="5.99589">
        <ele>872</ele>
        <time>2015-07-04T05:52:52Z</time>
      </trkpt>
      <trkpt lat="45.06009" lon="5.99581">
        <ele>873</ele>
        <time>2015-07-04T05:52:56Z</time>
      </trkpt>
      <trkpt lat="45.06001" lon="5.99574">
        <ele>874</ele>
        <time>2015-07-04T05:53:00Z</time>
      </trkpt>
      <trkpt lat="45.05993" lon="5.99566">
        <ele>874</ele>
        <time>2015-07-04T05:53:04Z</time>
      </trkpt>
      <trkpt lat="45.05985" lon="5.99561">
        <ele>875</ele>
        <time>2015-07-04T05:53:08Z</time>
      </trkpt>
      <trkpt lat="45.0597" lon="5.9956">
        <ele>876</ele>
        <time>2015-07-04T05:53:16Z</time>
      </trkpt>
      <trkpt lat="45.05955" lon="5.99567">
        <ele>877</ele>
        <time>2015-07-04T05:53:24Z</time>
      </trkpt>
      <trkpt lat="45.05937" lon="5.99563">
        <ele>879</ele>
        <time>2015-07-04T05:53:32Z</time>
      </trkpt>
      <trkpt lat="45.05928" lon="5.99557">
        <ele>880.1</ele>
        <time>2015-07-04T05:53:37Z</time>
      </trkpt>
      <trkpt lat="45.05919" lon="5.9955">
        <ele>880.7</ele>
        <time>2015-07-04T05:53:41Z</time>
      </trkpt>
      <trkpt lat="45.05911" lon="5.99543">
        <ele>881.2</ele>
        <time>2015-07-04T05:53:45Z</time>
      </trkpt>
      <trkpt lat="45.05903" lon="5.99536">
        <ele>881.7</ele>
        <time>2015-07-04T05:53:49Z</time>
      </trkpt>
      <trkpt lat="45.05895" lon="5.99528">
        <ele>882.1</ele>
        <time>2015-07-04T05:53:53Z</time>
      </trkpt>
      <trkpt lat="45.05887" lon="5.9952">
        <ele>882.5</ele>
        <time>2015-07-04T05:53:57Z</time>
      </trkpt>
      <trkpt lat="45.05879" lon="5.99512">
        <ele>883</ele>
        <time>2015-07-04T05:54:01Z</time>
      </trkpt>
      <trkpt lat="45.05871" lon="5.99504">
        <ele>883.6</ele>
        <time>2015-07-04T05:54:05Z</time>
      </trkpt>
      <trkpt lat="45.05863" lon="5.99497">
        <ele>884.3</ele>
        <time>2015-07-04T05:54:09Z</time>
      </trkpt>
      <trkpt lat="45.05853" lon="5.99489">
        <ele>885.2</ele>
        <time>2015-07-04T05:54:14Z</time>
      </trkpt>
      <trkpt lat="45.05845" lon="5.99479">
        <ele>886.2</ele>
        <time>2015-07-04T05:54:19Z</time>
      </trkpt>
      <trkpt lat="45.05838" lon="5.99467">
        <ele>887</ele>
        <time>2015-07-04T05:54:24Z</time>
      </trkpt>
      <trkpt lat="45.05831" lon="5.99455">
        <ele>888</ele>
        <time>2015-07-04T05:54:29Z</time>
      </trkpt>
      <trkpt lat="45.05825" lon="5.99443">
        <ele>888.9</ele>
        <time>2015-07-04T05:54:34Z</time>
      </trkpt>
      <trkpt lat="45.05815" lon="5.9944">
        <ele>889.5</ele>
        <time>2015-07-04T05:54:38Z</time>
      </trkpt>
      <trkpt lat="45.05804" lon="5.99441">
        <ele>890</ele>
        <time>2015-07-04T05:54:43Z</time>
      </trkpt>
      <trkpt lat="45.05794" lon="5.99441">
        <ele>891</ele>
        <time>2015-07-04T05:54:48Z</time>
      </trkpt>
      <trkpt lat="45.05783" lon="5.99438">
        <ele>891.7</ele>
        <time>2015-07-04T05:54:53Z</time>
      </trkpt>
      <trkpt lat="45.05774" lon="5.99435">
        <ele>892.1</ele>
        <time>2015-07-04T05:54:57Z</time>
      </trkpt>
      <trkpt lat="45.05765" lon="5.99432">
        <ele>892.5</ele>
        <time>2015-07-04T05:55:01Z</time>
      </trkpt>
      <trkpt lat="45.05756" lon="5.99428">
        <ele>893</ele>
        <time>2015-07-04T05:55:06Z</time>
      </trkpt>
      <trkpt lat="45.05747" lon="5.99426">
        <ele>894</ele>
        <time>2015-07-04T05:55:10Z</time>
      </trkpt>
      <trkpt lat="45.05737" lon="5.99424">
        <ele>894.9</ele>
        <time>2015-07-04T05:55:14Z</time>
      </trkpt>
      <trkpt lat="45.05727" lon="5.99421">
        <ele>895.7</ele>
        <time>2015-07-04T05:55:18Z</time>
      </trkpt>
      <trkpt lat="45.05718" lon="5.99418">
        <ele>896.2</ele>
        <time>2015-07-04T05:55:22Z</time>
      </trkpt>
      <trkpt lat="45.05708" lon="5.99412">
        <ele>896.7</ele>
        <time>2015-07-04T05:55:27Z</time>
      </trkpt>
      <trkpt lat="45.05699" lon="5.99403">
        <ele>897.3</ele>
        <time>2015-07-04T05:55:32Z</time>
      </trkpt>
      <trkpt lat="45.0569" lon="5.99395">
        <ele>898.1</ele>
        <time>2015-07-04T05:55:37Z</time>
      </trkpt>
      <trkpt lat="45.05682" lon="5.99387">
        <ele>898.6</ele>
        <time>2015-07-04T05:55:42Z</time>
      </trkpt>
      <trkpt lat="45.05674" lon="5.99378">
        <ele>899.6</ele>
        <time>2015-07-04T05:55:48Z</time>
      </trkpt>
      <trkpt lat="45.05666" lon="5.99369">
        <ele>900.7</ele>
        <time>2015-07-04T05:55:53Z</time>
      </trkpt>
      <trkpt lat="45.05657" lon="5.9936">
        <ele>901.7</ele>
        <time>2015-07-04T05:55:58Z</time>
      </trkpt>
      <trkpt lat="45.05649" lon="5.99353">
        <ele>902.2</ele>
        <time>2015-07-04T05:56:02Z</time>
      </trkpt>
      <trkpt lat="45.0564" lon="5.99347">
        <ele>902.6</ele>
        <time>2015-07-04T05:56:06Z</time>
      </trkpt>
      <trkpt lat="45.05631" lon="5.99339">
        <ele>903</ele>
        <time>2015-07-04T05:56:10Z</time>
      </trkpt>
      <trkpt lat="45.0562" lon="5.99332">
        <ele>903.4</ele>
        <time>2015-07-04T05:56:14Z</time>
      </trkpt>
      <trkpt lat="45.0561" lon="5.99324">
        <ele>903.7</ele>
        <time>2015-07-04T05:56:18Z</time>
      </trkpt>
      <trkpt lat="45.05601" lon="5.99314">
        <ele>903.9</ele>
        <time>2015-07-04T05:56:22Z</time>
      </trkpt>
      <trkpt lat="45.05592" lon="5.99303">
        <ele>904.2</ele>
        <time>2015-07-04T05:56:26Z</time>
      </trkpt>
      <trkpt lat="45.05583" lon="5.99293">
        <ele>904.4</ele>
        <time>2015-07-04T05:56:30Z</time>
      </trkpt>
      <trkpt lat="45.05573" lon="5.99283">
        <ele>904.6</ele>
        <time>2015-07-04T05:56:34Z</time>
      </trkpt>
      <trkpt lat="45.05563" lon="5.99277">
        <ele>904.9</ele>
        <time>2015-07-04T05:56:38Z</time>
      </trkpt>
      <trkpt lat="45.05552" lon="5.99272">
        <ele>905.4</ele>
        <time>2015-07-04T05:56:42Z</time>
      </trkpt>
      <trkpt lat="45.05543" lon="5.99265">
        <ele>905.9</ele>
        <time>2015-07-04T05:56:47Z</time>
      </trkpt>
      <trkpt lat="45.05539" lon="5.99252">
        <ele>906.2</ele>
        <time>2015-07-04T05:56:51Z</time>
      </trkpt>
      <trkpt lat="45.0554" lon="5.99239">
        <ele>906.4</ele>
        <time>2015-07-04T05:56:54Z</time>
      </trkpt>
      <trkpt lat="45.05543" lon="5.99227">
        <ele>906.5</ele>
        <time>2015-07-04T05:56:57Z</time>
      </trkpt>
      <trkpt lat="45.05548" lon="5.99214">
        <ele>906.8</ele>
        <time>2015-07-04T05:57:00Z</time>
      </trkpt>
      <trkpt lat="45.05552" lon="5.992">
        <ele>907</ele>
        <time>2015-07-04T05:57:03Z</time>
      </trkpt>
      <trkpt lat="45.05556" lon="5.99186">
        <ele>907.2</ele>
        <time>2015-07-04T05:57:06Z</time>
      </trkpt>
      <trkpt lat="45.05558" lon="5.99171">
        <ele>907.3</ele>
        <time>2015-07-04T05:57:09Z</time>
      </trkpt>
      <trkpt lat="45.05561" lon="5.99155">
        <ele>907.3</ele>
        <time>2015-07-04T05:57:12Z</time>
      </trkpt>
      <trkpt lat="45.05562" lon="5.99139">
        <ele>907.4</ele>
        <time>2015-07-04T05:57:15Z</time>
      </trkpt>
      <trkpt lat="45.05565" lon="5.99123">
        <ele>907.3</ele>
        <time>2015-07-04T05:57:18Z</time>
      </trkpt>
      <trkpt lat="45.05568" lon="5.99106">
        <ele>907.3</ele>
        <time>2015-07-04T05:57:21Z</time>
      </trkpt>
      <trkpt lat="45.05571" lon="5.99089">
        <ele>907.3</ele>
        <time>2015-07-04T05:57:24Z</time>
      </trkpt>
      <trkpt lat="45.05574" lon="5.99072">
        <ele>907.3</ele>
        <time>2015-07-04T05:57:27Z</time>
      </trkpt>
      <trkpt lat="45.05578" lon="5.99054">
        <ele>907.3</ele>
        <time>2015-07-04T05:57:30Z</time>
      </trkpt>
      <trkpt lat="45.0558" lon="5.99037">
        <ele>907.3</ele>
        <time>2015-07-04T05:57:33Z</time>
      </trkpt>
      <trkpt lat="45.05583" lon="5.99019">
        <ele>907.2</ele>
        <time>2015-07-04T05:57:36Z</time>
      </trkpt>
      <trkpt lat="45.05583" lon="5.99">
        <ele>907.2</ele>
        <time>2015-07-04T05:57:39Z</time>
      </trkpt>
      <trkpt lat="45.05583" lon="5.98981">
        <ele>907.2</ele>
        <time>2015-07-04T05:57:42Z</time>
      </trkpt>
      <trkpt lat="45.05579" lon="5.98963">
        <ele>907.2</ele>
        <time>2015-07-04T05:57:45Z</time>
      </trkpt>
      <trkpt lat="45.05574" lon="5.98947">
        <ele>907.2</ele>
        <time>2015-07-04T05:57:48Z</time>
      </trkpt>
      <trkpt lat="45.05565" lon="5.98935">
        <ele>907.2</ele>
        <time>2015-07-04T05:57:51Z</time>
      </trkpt>
      <trkpt lat="45.05555" lon="5.98929">
        <ele>907.2</ele>
        <time>2015-07-04T05:57:54Z</time>
      </trkpt>
      <trkpt lat="45.05544" lon="5.98924">
        <ele>907.3</ele>
        <time>2015-07-04T05:57:57Z</time>
      </trkpt>
      <trkpt lat="45.05533" lon="5.9892">
        <ele>907.3</ele>
        <time>2015-07-04T05:58:00Z</time>
      </trkpt>
      <trkpt lat="45.05522" lon="5.98916">
        <ele>907.3</ele>
        <time>2015-07-04T05:58:03Z</time>
      </trkpt>
      <trkpt lat="45.0551" lon="5.98912">
        <ele>907.3</ele>
        <time>2015-07-04T05:58:06Z</time>
      </trkpt>
      <trkpt lat="45.05498" lon="5.98906">
        <ele>907.4</ele>
        <time>2015-07-04T05:58:09Z</time>
      </trkpt>
      <trkpt lat="45.05487" lon="5.989">
        <ele>907.4</ele>
        <time>2015-07-04T05:58:12Z</time>
      </trkpt>
      <trkpt lat="45.05475" lon="5.98899">
        <ele>907.4</ele>
        <time>2015-07-04T05:58:15Z</time>
      </trkpt>
      <trkpt lat="45.05465" lon="5.989">
        <ele>907.4</ele>
        <time>2015-07-04T05:58:18Z</time>
      </trkpt>
      <trkpt lat="45.05455" lon="5.98904">
        <ele>907.7</ele>
        <time>2015-07-04T05:58:22Z</time>
      </trkpt>
      <trkpt lat="45.05446" lon="5.98908">
        <ele>908.3</ele>
        <time>2015-07-04T05:58:26Z</time>
      </trkpt>
      <trkpt lat="45.05436" lon="5.98914">
        <ele>908.8</ele>
        <time>2015-07-04T05:58:30Z</time>
      </trkpt>
      <trkpt lat="45.05426" lon="5.98919">
        <ele>909.2</ele>
        <time>2015-07-04T05:58:34Z</time>
      </trkpt>
      <trkpt lat="45.05416" lon="5.98925">
        <ele>909.4</ele>
        <time>2015-07-04T05:58:38Z</time>
      </trkpt>
      <trkpt lat="45.05406" lon="5.9893">
        <ele>909.7</ele>
        <time>2015-07-04T05:58:42Z</time>
      </trkpt>
      <trkpt lat="45.05396" lon="5.98934">
        <ele>910.1</ele>
        <time>2015-07-04T05:58:46Z</time>
      </trkpt>
      <trkpt lat="45.05387" lon="5.98939">
        <ele>910.5</ele>
        <time>2015-07-04T05:58:50Z</time>
      </trkpt>
      <trkpt lat="45.05378" lon="5.98946">
        <ele>911.1</ele>
        <time>2015-07-04T05:58:54Z</time>
      </trkpt>
      <trkpt lat="45.05371" lon="5.98954">
        <ele>911.8</ele>
        <time>2015-07-04T05:58:58Z</time>
      </trkpt>
      <trkpt lat="45.05363" lon="5.98964">
        <ele>912.5</ele>
        <time>2015-07-04T05:59:03Z</time>
      </trkpt>
      <trkpt lat="45.05354" lon="5.98971">
        <ele>913.2</ele>
        <time>2015-07-04T05:59:07Z</time>
      </trkpt>
      <trkpt lat="45.05345" lon="5.98974">
        <ele>914</ele>
        <time>2015-07-04T05:59:11Z</time>
      </trkpt>
      <trkpt lat="45.05334" lon="5.98974">
        <ele>914.8</ele>
        <time>2015-07-04T05:59:16Z</time>
      </trkpt>
      <trkpt lat="45.05323" lon="5.98971">
        <ele>916</ele>
        <time>2015-07-04T05:59:22Z</time>
      </trkpt>
      <trkpt lat="45.05314" lon="5.98972">
        <ele>916.7</ele>
        <time>2015-07-04T05:59:26Z</time>
      </trkpt>
      <trkpt lat="45.05304" lon="5.98975">
        <ele>917.4</ele>
        <time>2015-07-04T05:59:30Z</time>
      </trkpt>
      <trkpt lat="45.05295" lon="5.98978">
        <ele>918.3</ele>
        <time>2015-07-04T05:59:34Z</time>
      </trkpt>
      <trkpt lat="45.05283" lon="5.9898">
        <ele>918.9</ele>
        <time>2015-07-04T05:59:38Z</time>
      </trkpt>
      <trkpt lat="45.05272" lon="5.98981">
        <ele>919.4</ele>
        <time>2015-07-04T05:59:42Z</time>
      </trkpt>
      <trkpt lat="45.05261" lon="5.98981">
        <ele>920.1</ele>
        <time>2015-07-04T05:59:46Z</time>
      </trkpt>
      <trkpt lat="45.05251" lon="5.98979">
        <ele>920.7</ele>
        <time>2015-07-04T05:59:50Z</time>
      </trkpt>
      <trkpt lat="45.05241" lon="5.98975">
        <ele>921.3</ele>
        <time>2015-07-04T05:59:54Z</time>
      </trkpt>
      <trkpt lat="45.05232" lon="5.98969">
        <ele>922.1</ele>
        <time>2015-07-04T05:59:58Z</time>
      </trkpt>
      <trkpt lat="45.05224" lon="5.98961">
        <ele>922.9</ele>
        <time>2015-07-04T06:00:02Z</time>
      </trkpt>
      <trkpt lat="45.05217" lon="5.98953">
        <ele>923.6</ele>
        <time>2015-07-04T06:00:06Z</time>
      </trkpt>
      <trkpt lat="45.05209" lon="5.98944">
        <ele>924.2</ele>
        <time>2015-07-04T06:00:10Z</time>
      </trkpt>
      <trkpt lat="45.05201" lon="5.98936">
        <ele>924.8</ele>
        <time>2015-07-04T06:00:14Z</time>
      </trkpt>
      <trkpt lat="45.05193" lon="5.98928">
        <ele>925.4</ele>
        <time>2015-07-04T06:00:18Z</time>
      </trkpt>
      <trkpt lat="45.05184" lon="5.9892">
        <ele>926.1</ele>
        <time>2015-07-04T06:00:23Z</time>
      </trkpt>
      <trkpt lat="45.05176" lon="5.98913">
        <ele>926.5</ele>
        <time>2015-07-04T06:00:27Z</time>
      </trkpt>
      <trkpt lat="45.05169" lon="5.98902">
        <ele>927</ele>
        <time>2015-07-04T06:00:32Z</time>
      </trkpt>
      <trkpt lat="45.05162" lon="5.98889">
        <ele>927.4</ele>
        <time>2015-07-04T06:00:37Z</time>
      </trkpt>
      <trkpt lat="45.05158" lon="5.98878">
        <ele>928</ele>
        <time>2015-07-04T06:00:41Z</time>
      </trkpt>
      <trkpt lat="45.05152" lon="5.98864">
        <ele>928.9</ele>
        <time>2015-07-04T06:00:46Z</time>
      </trkpt>
      <trkpt lat="45.05148" lon="5.9885">
        <ele>929.8</ele>
        <time>2015-07-04T06:00:51Z</time>
      </trkpt>
      <trkpt lat="45.05145" lon="5.98837">
        <ele>930.4</ele>
        <time>2015-07-04T06:00:55Z</time>
      </trkpt>
      <trkpt lat="45.05144" lon="5.98824">
        <ele>931.1</ele>
        <time>2015-07-04T06:00:59Z</time>
      </trkpt>
      <trkpt lat="45.05143" lon="5.98808">
        <ele>931.9</ele>
        <time>2015-07-04T06:01:04Z</time>
      </trkpt>
      <trkpt lat="45.05143" lon="5.98792">
        <ele>932.6</ele>
        <time>2015-07-04T06:01:09Z</time>
      </trkpt>
      <trkpt lat="45.05143" lon="5.98779">
        <ele>933.2</ele>
        <time>2015-07-04T06:01:13Z</time>
      </trkpt>
      <trkpt lat="45.05143" lon="5.98766">
        <ele>933.8</ele>
        <time>2015-07-04T06:01:17Z</time>
      </trkpt>
      <trkpt lat="45.05143" lon="5.98753">
        <ele>934.3</ele>
        <time>2015-07-04T06:01:21Z</time>
      </trkpt>
      <trkpt lat="45.05141" lon="5.98739">
        <ele>934.6</ele>
        <time>2015-07-04T06:01:25Z</time>
      </trkpt>
      <trkpt lat="45.05137" lon="5.98728">
        <ele>935.4</ele>
        <time>2015-07-04T06:01:29Z</time>
      </trkpt>
      <trkpt lat="45.05129" lon="5.9872">
        <ele>936.1</ele>
        <time>2015-07-04T06:01:33Z</time>
      </trkpt>
      <trkpt lat="45.0512" lon="5.98715">
        <ele>936.7</ele>
        <time>2015-07-04T06:01:37Z</time>
      </trkpt>
      <trkpt lat="45.05111" lon="5.98713">
        <ele>937.4</ele>
        <time>2015-07-04T06:01:41Z</time>
      </trkpt>
      <trkpt lat="45.05101" lon="5.98714">
        <ele>938.1</ele>
        <time>2015-07-04T06:01:45Z</time>
      </trkpt>
      <trkpt lat="45.05092" lon="5.98715">
        <ele>938.7</ele>
        <time>2015-07-04T06:01:49Z</time>
      </trkpt>
      <trkpt lat="45.05083" lon="5.98716">
        <ele>939.3</ele>
        <time>2015-07-04T06:01:53Z</time>
      </trkpt>
      <trkpt lat="45.05073" lon="5.98716">
        <ele>939.8</ele>
        <time>2015-07-04T06:01:57Z</time>
      </trkpt>
      <trkpt lat="45.05064" lon="5.98714">
        <ele>940.2</ele>
        <time>2015-07-04T06:02:01Z</time>
      </trkpt>
      <trkpt lat="45.05055" lon="5.9871">
        <ele>940.9</ele>
        <time>2015-07-04T06:02:05Z</time>
      </trkpt>
      <trkpt lat="45.05046" lon="5.98705">
        <ele>941.6</ele>
        <time>2015-07-04T06:02:09Z</time>
      </trkpt>
      <trkpt lat="45.05038" lon="5.98699">
        <ele>942.1</ele>
        <time>2015-07-04T06:02:13Z</time>
      </trkpt>
      <trkpt lat="45.05031" lon="5.98691">
        <ele>942.5</ele>
        <time>2015-07-04T06:02:17Z</time>
      </trkpt>
      <trkpt lat="45.05024" lon="5.98679">
        <ele>943.5</ele>
        <time>2015-07-04T06:02:22Z</time>
      </trkpt>
      <trkpt lat="45.0502" lon="5.98664">
        <ele>944.6</ele>
        <time>2015-07-04T06:02:27Z</time>
      </trkpt>
      <trkpt lat="45.05017" lon="5.98652">
        <ele>945.2</ele>
        <time>2015-07-04T06:02:31Z</time>
      </trkpt>
      <trkpt lat="45.05014" lon="5.98639">
        <ele>945.9</ele>
        <time>2015-07-04T06:02:35Z</time>
      </trkpt>
      <trkpt lat="45.05012" lon="5.98626">
        <ele>946.6</ele>
        <time>2015-07-04T06:02:39Z</time>
      </trkpt>
      <trkpt lat="45.05012" lon="5.98613">
        <ele>947.2</ele>
        <time>2015-07-04T06:02:43Z</time>
      </trkpt>
      <trkpt lat="45.05014" lon="5.986">
        <ele>947.8</ele>
        <time>2015-07-04T06:02:47Z</time>
      </trkpt>
      <trkpt lat="45.05014" lon="5.98587">
        <ele>948.3</ele>
        <time>2015-07-04T06:02:51Z</time>
      </trkpt>
      <trkpt lat="45.05013" lon="5.98574">
        <ele>948.9</ele>
        <time>2015-07-04T06:02:55Z</time>
      </trkpt>
      <trkpt lat="45.05007" lon="5.98562">
        <ele>949.7</ele>
        <time>2015-07-04T06:03:00Z</time>
      </trkpt>
      <trkpt lat="45.04998" lon="5.98552">
        <ele>950.3</ele>
        <time>2015-07-04T06:03:05Z</time>
      </trkpt>
      <trkpt lat="45.04989" lon="5.98546">
        <ele>950.6</ele>
        <time>2015-07-04T06:03:09Z</time>
      </trkpt>
      <trkpt lat="45.04979" lon="5.98543">
        <ele>951.3</ele>
        <time>2015-07-04T06:03:13Z</time>
      </trkpt>
      <trkpt lat="45.04971" lon="5.98539">
        <ele>952.8</ele>
        <time>2015-07-04T06:03:18Z</time>
      </trkpt>
      <trkpt lat="45.04961" lon="5.98537">
        <ele>954</ele>
        <time>2015-07-04T06:03:23Z</time>
      </trkpt>
      <trkpt lat="45.04951" lon="5.98538">
        <ele>954.7</ele>
        <time>2015-07-04T06:03:28Z</time>
      </trkpt>
      <trkpt lat="45.04941" lon="5.98539">
        <ele>955.3</ele>
        <time>2015-07-04T06:03:33Z</time>
      </trkpt>
      <trkpt lat="45.04932" lon="5.98541">
        <ele>955.7</ele>
        <time>2015-07-04T06:03:37Z</time>
      </trkpt>
      <trkpt lat="45.04923" lon="5.98539">
        <ele>956.4</ele>
        <time>2015-07-04T06:03:42Z</time>
      </trkpt>
      <trkpt lat="45.04915" lon="5.98532">
        <ele>957.3</ele>
        <time>2015-07-04T06:03:47Z</time>
      </trkpt>
      <trkpt lat="45.04907" lon="5.98522">
        <ele>957.9</ele>
        <time>2015-07-04T06:03:52Z</time>
      </trkpt>
      <trkpt lat="45.04899" lon="5.98515">
        <ele>958.6</ele>
        <time>2015-07-04T06:03:56Z</time>
      </trkpt>
      <trkpt lat="45.04891" lon="5.98509">
        <ele>959.3</ele>
        <time>2015-07-04T06:04:00Z</time>
      </trkpt>
      <trkpt lat="45.04882" lon="5.98503">
        <ele>959.8</ele>
        <time>2015-07-04T06:04:04Z</time>
      </trkpt>
      <trkpt lat="45.04873" lon="5.98496">
        <ele>960.5</ele>
        <time>2015-07-04T06:04:09Z</time>
      </trkpt>
      <trkpt lat="45.04862" lon="5.98492">
        <ele>961.4</ele>
        <time>2015-07-04T06:04:14Z</time>
      </trkpt>
      <trkpt lat="45.04853" lon="5.98492">
        <ele>962.1</ele>
        <time>2015-07-04T06:04:19Z</time>
      </trkpt>
      <trkpt lat="45.04843" lon="5.98494">
        <ele>962.7</ele>
        <time>2015-07-04T06:04:25Z</time>
      </trkpt>
      <trkpt lat="45.04832" lon="5.98496">
        <ele>963.4</ele>
        <time>2015-07-04T06:04:31Z</time>
      </trkpt>
      <trkpt lat="45.04822" lon="5.98497">
        <ele>963.9</ele>
        <time>2015-07-04T06:04:35Z</time>
      </trkpt>
      <trkpt lat="45.04811" lon="5.98495">
        <ele>964.4</ele>
        <time>2015-07-04T06:04:39Z</time>
      </trkpt>
      <trkpt lat="45.048" lon="5.98492">
        <ele>965.1</ele>
        <time>2015-07-04T06:04:43Z</time>
      </trkpt>
      <trkpt lat="45.04789" lon="5.98488">
        <ele>965.8</ele>
        <time>2015-07-04T06:04:47Z</time>
      </trkpt>
      <trkpt lat="45.04778" lon="5.98485">
        <ele>966.4</ele>
        <time>2015-07-04T06:04:51Z</time>
      </trkpt>
      <trkpt lat="45.04768" lon="5.98483">
        <ele>966.8</ele>
        <time>2015-07-04T06:04:55Z</time>
      </trkpt>
      <trkpt lat="45.04757" lon="5.9848">
        <ele>967.5</ele>
        <time>2015-07-04T06:04:59Z</time>
      </trkpt>
      <trkpt lat="45.04747" lon="5.98476">
        <ele>968.2</ele>
        <time>2015-07-04T06:05:03Z</time>
      </trkpt>
      <trkpt lat="45.04737" lon="5.98473">
        <ele>968.9</ele>
        <time>2015-07-04T06:05:08Z</time>
      </trkpt>
      <trkpt lat="45.04728" lon="5.98471">
        <ele>969.4</ele>
        <time>2015-07-04T06:05:13Z</time>
      </trkpt>
      <trkpt lat="45.04718" lon="5.98473">
        <ele>969.9</ele>
        <time>2015-07-04T06:05:18Z</time>
      </trkpt>
      <trkpt lat="45.04706" lon="5.98476">
        <ele>970.3</ele>
        <time>2015-07-04T06:05:22Z</time>
      </trkpt>
      <trkpt lat="45.04696" lon="5.98477">
        <ele>970.9</ele>
        <time>2015-07-04T06:05:26Z</time>
      </trkpt>
      <trkpt lat="45.04686" lon="5.98478">
        <ele>971.5</ele>
        <time>2015-07-04T06:05:30Z</time>
      </trkpt>
      <trkpt lat="45.04675" lon="5.98479">
        <ele>972.2</ele>
        <time>2015-07-04T06:05:34Z</time>
      </trkpt>
      <trkpt lat="45.04664" lon="5.98481">
        <ele>972.6</ele>
        <time>2015-07-04T06:05:37Z</time>
      </trkpt>
      <trkpt lat="45.04655" lon="5.98482">
        <ele>972.9</ele>
        <time>2015-07-04T06:05:40Z</time>
      </trkpt>
      <trkpt lat="45.04643" lon="5.98483">
        <ele>973.3</ele>
        <time>2015-07-04T06:05:44Z</time>
      </trkpt>
      <trkpt lat="45.04632" lon="5.98484">
        <ele>973.6</ele>
        <time>2015-07-04T06:05:48Z</time>
      </trkpt>
      <trkpt lat="45.04622" lon="5.98484">
        <ele>973.8</ele>
        <time>2015-07-04T06:05:52Z</time>
      </trkpt>
      <trkpt lat="45.04611" lon="5.98482">
        <ele>974</ele>
        <time>2015-07-04T06:05:56Z</time>
      </trkpt>
      <trkpt lat="45.04602" lon="5.98482">
        <ele>974.5</ele>
        <time>2015-07-04T06:05:59Z</time>
      </trkpt>
      <trkpt lat="45.04593" lon="5.98482">
        <ele>974.9</ele>
        <time>2015-07-04T06:06:02Z</time>
      </trkpt>
      <trkpt lat="45.04581" lon="5.98482">
        <ele>975.6</ele>
        <time>2015-07-04T06:06:06Z</time>
      </trkpt>
      <trkpt lat="45.0457" lon="5.98483">
        <ele>976.2</ele>
        <time>2015-07-04T06:06:09Z</time>
      </trkpt>
      <trkpt lat="45.04559" lon="5.98482">
        <ele>976.7</ele>
        <time>2015-07-04T06:06:12Z</time>
      </trkpt>
      <trkpt lat="45.04549" lon="5.98482">
        <ele>977.1</ele>
        <time>2015-07-04T06:06:15Z</time>
      </trkpt>
      <trkpt lat="45.04538" lon="5.9848">
        <ele>977.6</ele>
        <time>2015-07-04T06:06:19Z</time>
      </trkpt>
      <trkpt lat="45.04528" lon="5.98479">
        <ele>977.8</ele>
        <time>2015-07-04T06:06:22Z</time>
      </trkpt>
      <trkpt lat="45.04519" lon="5.98477">
        <ele>978.1</ele>
        <time>2015-07-04T06:06:25Z</time>
      </trkpt>
      <trkpt lat="45.0451" lon="5.98475">
        <ele>978.3</ele>
        <time>2015-07-04T06:06:28Z</time>
      </trkpt>
      <trkpt lat="45.04501" lon="5.98472">
        <ele>978.4</ele>
        <time>2015-07-04T06:06:31Z</time>
      </trkpt>
      <trkpt lat="45.04492" lon="5.98468">
        <ele>978.6</ele>
        <time>2015-07-04T06:06:34Z</time>
      </trkpt>
      <trkpt lat="45.04483" lon="5.98464">
        <ele>979</ele>
        <time>2015-07-04T06:06:37Z</time>
      </trkpt>
      <trkpt lat="45.04475" lon="5.98457">
        <ele>979.5</ele>
        <time>2015-07-04T06:06:40Z</time>
      </trkpt>
      <trkpt lat="45.04467" lon="5.98451">
        <ele>979.9</ele>
        <time>2015-07-04T06:06:43Z</time>
      </trkpt>
      <trkpt lat="45.04459" lon="5.98443">
        <ele>980.2</ele>
        <time>2015-07-04T06:06:46Z</time>
      </trkpt>
      <trkpt lat="45.04452" lon="5.98435">
        <ele>980.6</ele>
        <time>2015-07-04T06:06:49Z</time>
      </trkpt>
      <trkpt lat="45.04446" lon="5.98425">
        <ele>981</ele>
        <time>2015-07-04T06:06:52Z</time>
      </trkpt>
      <trkpt lat="45.04439" lon="5.98416">
        <ele>981.3</ele>
        <time>2015-07-04T06:06:55Z</time>
      </trkpt>
      <trkpt lat="45.04434" lon="5.98406">
        <ele>981.6</ele>
        <time>2015-07-04T06:06:58Z</time>
      </trkpt>
      <trkpt lat="45.04426" lon="5.98394">
        <ele>981.9</ele>
        <time>2015-07-04T06:07:02Z</time>
      </trkpt>
      <trkpt lat="45.0442" lon="5.9838">
        <ele>982.3</ele>
        <time>2015-07-04T06:07:06Z</time>
      </trkpt>
      <trkpt lat="45.04414" lon="5.98366">
        <ele>982.9</ele>
        <time>2015-07-04T06:07:10Z</time>
      </trkpt>
      <trkpt lat="45.04407" lon="5.98353">
        <ele>983.4</ele>
        <time>2015-07-04T06:07:14Z</time>
      </trkpt>
      <trkpt lat="45.04398" lon="5.98342">
        <ele>984</ele>
        <time>2015-07-04T06:07:18Z</time>
      </trkpt>
      <trkpt lat="45.0439" lon="5.98336">
        <ele>984.3</ele>
        <time>2015-07-04T06:07:21Z</time>
      </trkpt>
      <trkpt lat="45.0438" lon="5.9833">
        <ele>984.7</ele>
        <time>2015-07-04T06:07:25Z</time>
      </trkpt>
      <trkpt lat="45.04371" lon="5.98327">
        <ele>985</ele>
        <time>2015-07-04T06:07:29Z</time>
      </trkpt>
      <trkpt lat="45.0436" lon="5.98325">
        <ele>985.4</ele>
        <time>2015-07-04T06:07:33Z</time>
      </trkpt>
      <trkpt lat="45.04351" lon="5.98322">
        <ele>985.7</ele>
        <time>2015-07-04T06:07:37Z</time>
      </trkpt>
      <trkpt lat="45.04342" lon="5.98321">
        <ele>985.9</ele>
        <time>2015-07-04T06:07:40Z</time>
      </trkpt>
      <trkpt lat="45.04332" lon="5.98319">
        <ele>986.2</ele>
        <time>2015-07-04T06:07:43Z</time>
      </trkpt>
      <trkpt lat="45.04322" lon="5.98317">
        <ele>986.4</ele>
        <time>2015-07-04T06:07:46Z</time>
      </trkpt>
      <trkpt lat="45.04312" lon="5.98314">
        <ele>986.7</ele>
        <time>2015-07-04T06:07:49Z</time>
      </trkpt>
      <trkpt lat="45.04302" lon="5.9831">
        <ele>987</ele>
        <time>2015-07-04T06:07:52Z</time>
      </trkpt>
      <trkpt lat="45.04294" lon="5.98305">
        <ele>987.3</ele>
        <time>2015-07-04T06:07:55Z</time>
      </trkpt>
      <trkpt lat="45.04286" lon="5.98298">
        <ele>987.6</ele>
        <time>2015-07-04T06:07:58Z</time>
      </trkpt>
      <trkpt lat="45.04278" lon="5.98291">
        <ele>987.9</ele>
        <time>2015-07-04T06:08:01Z</time>
      </trkpt>
      <trkpt lat="45.04269" lon="5.98284">
        <ele>988.3</ele>
        <time>2015-07-04T06:08:04Z</time>
      </trkpt>
      <trkpt lat="45.04261" lon="5.98277">
        <ele>988.8</ele>
        <time>2015-07-04T06:08:07Z</time>
      </trkpt>
      <trkpt lat="45.04253" lon="5.98269">
        <ele>989.3</ele>
        <time>2015-07-04T06:08:10Z</time>
      </trkpt>
      <trkpt lat="45.04245" lon="5.98261">
        <ele>989.8</ele>
        <time>2015-07-04T06:08:13Z</time>
      </trkpt>
      <trkpt lat="45.04238" lon="5.98254">
        <ele>990.1</ele>
        <time>2015-07-04T06:08:16Z</time>
      </trkpt>
      <trkpt lat="45.0423" lon="5.98246">
        <ele>990.4</ele>
        <time>2015-07-04T06:08:19Z</time>
      </trkpt>
      <trkpt lat="45.04223" lon="5.98239">
        <ele>990.7</ele>
        <time>2015-07-04T06:08:22Z</time>
      </trkpt>
      <trkpt lat="45.04215" lon="5.98232">
        <ele>991</ele>
        <time>2015-07-04T06:08:25Z</time>
      </trkpt>
      <trkpt lat="45.04205" lon="5.98223">
        <ele>991.4</ele>
        <time>2015-07-04T06:08:29Z</time>
      </trkpt>
      <trkpt lat="45.04195" lon="5.98214">
        <ele>991.7</ele>
        <time>2015-07-04T06:08:33Z</time>
      </trkpt>
      <trkpt lat="45.04187" lon="5.98203">
        <ele>992.4</ele>
        <time>2015-07-04T06:08:37Z</time>
      </trkpt>
      <trkpt lat="45.0418" lon="5.98195">
        <ele>992.8</ele>
        <time>2015-07-04T06:08:40Z</time>
      </trkpt>
      <trkpt lat="45.04173" lon="5.98186">
        <ele>993.2</ele>
        <time>2015-07-04T06:08:43Z</time>
      </trkpt>
      <trkpt lat="45.04164" lon="5.98176">
        <ele>993.7</ele>
        <time>2015-07-04T06:08:47Z</time>
      </trkpt>
      <trkpt lat="45.04155" lon="5.98166">
        <ele>994.2</ele>
        <time>2015-07-04T06:08:51Z</time>
      </trkpt>
      <trkpt lat="45.04147" lon="5.98157">
        <ele>994.5</ele>
        <time>2015-07-04T06:08:55Z</time>
      </trkpt>
      <trkpt lat="45.04138" lon="5.98148">
        <ele>994.9</ele>
        <time>2015-07-04T06:08:59Z</time>
      </trkpt>
      <trkpt lat="45.04131" lon="5.98138">
        <ele>995.6</ele>
        <time>2015-07-04T06:09:03Z</time>
      </trkpt>
      <trkpt lat="45.04124" lon="5.98131">
        <ele>996.1</ele>
        <time>2015-07-04T06:09:06Z</time>
      </trkpt>
      <trkpt lat="45.04116" lon="5.98123">
        <ele>996.4</ele>
        <time>2015-07-04T06:09:09Z</time>
      </trkpt>
      <trkpt lat="45.04107" lon="5.98113">
        <ele>996.9</ele>
        <time>2015-07-04T06:09:13Z</time>
      </trkpt>
      <trkpt lat="45.041" lon="5.98105">
        <ele>997.3</ele>
        <time>2015-07-04T06:09:16Z</time>
      </trkpt>
      <trkpt lat="45.04094" lon="5.98095">
        <ele>997.6</ele>
        <time>2015-07-04T06:09:19Z</time>
      </trkpt>
      <trkpt lat="45.04088" lon="5.98085">
        <ele>998</ele>
        <time>2015-07-04T06:09:22Z</time>
      </trkpt>
      <trkpt lat="45.04085" lon="5.98073">
        <ele>998.4</ele>
        <time>2015-07-04T06:09:25Z</time>
      </trkpt>
      <trkpt lat="45.04083" lon="5.9806">
        <ele>998.8</ele>
        <time>2015-07-04T06:09:28Z</time>
      </trkpt>
      <trkpt lat="45.04082" lon="5.98047">
        <ele>999</ele>
        <time>2015-07-04T06:09:31Z</time>
      </trkpt>
      <trkpt lat="45.04082" lon="5.98033">
        <ele>999.3</ele>
        <time>2015-07-04T06:09:34Z</time>
      </trkpt>
      <trkpt lat="45.04082" lon="5.98021">
        <ele>999.7</ele>
        <time>2015-07-04T06:09:37Z</time>
      </trkpt>
      <trkpt lat="45.04081" lon="5.98005">
        <ele>1000.2</ele>
        <time>2015-07-04T06:09:41Z</time>
      </trkpt>
      <trkpt lat="45.04079" lon="5.97992">
        <ele>1000.7</ele>
        <time>2015-07-04T06:09:45Z</time>
      </trkpt>
      <trkpt lat="45.04073" lon="5.97977">
        <ele>1001.3</ele>
        <time>2015-07-04T06:09:49Z</time>
      </trkpt>
      <trkpt lat="45.04067" lon="5.97967">
        <ele>1001.7</ele>
        <time>2015-07-04T06:09:52Z</time>
      </trkpt>
      <trkpt lat="45.04061" lon="5.97956">
        <ele>1002</ele>
        <time>2015-07-04T06:09:55Z</time>
      </trkpt>
      <trkpt lat="45.04055" lon="5.97945">
        <ele>1002.4</ele>
        <time>2015-07-04T06:09:58Z</time>
      </trkpt>
      <trkpt lat="45.04052" lon="5.97933">
        <ele>1002.8</ele>
        <time>2015-07-04T06:10:01Z</time>
      </trkpt>
      <trkpt lat="45.04049" lon="5.9792">
        <ele>1003.1</ele>
        <time>2015-07-04T06:10:04Z</time>
      </trkpt>
      <trkpt lat="45.04046" lon="5.97908">
        <ele>1003.4</ele>
        <time>2015-07-04T06:10:07Z</time>
      </trkpt>
      <trkpt lat="45.0404" lon="5.97896">
        <ele>1003.7</ele>
        <time>2015-07-04T06:10:10Z</time>
      </trkpt>
      <trkpt lat="45.04034" lon="5.97886">
        <ele>1004.1</ele>
        <time>2015-07-04T06:10:13Z</time>
      </trkpt>
      <trkpt lat="45.04026" lon="5.97879">
        <ele>1004.5</ele>
        <time>2015-07-04T06:10:16Z</time>
      </trkpt>
      <trkpt lat="45.04019" lon="5.97871">
        <ele>1004.9</ele>
        <time>2015-07-04T06:10:19Z</time>
      </trkpt>
      <trkpt lat="45.0401" lon="5.9786">
        <ele>1005.3</ele>
        <time>2015-07-04T06:10:23Z</time>
      </trkpt>
      <trkpt lat="45.04003" lon="5.97853">
        <ele>1005.5</ele>
        <time>2015-07-04T06:10:26Z</time>
      </trkpt>
      <trkpt lat="45.03993" lon="5.97844">
        <ele>1005.7</ele>
        <time>2015-07-04T06:10:30Z</time>
      </trkpt>
      <trkpt lat="45.03982" lon="5.97838">
        <ele>1006.3</ele>
        <time>2015-07-04T06:10:34Z</time>
      </trkpt>
      <trkpt lat="45.0397" lon="5.97833">
        <ele>1006.7</ele>
        <time>2015-07-04T06:10:38Z</time>
      </trkpt>
      <trkpt lat="45.03959" lon="5.97829">
        <ele>1007</ele>
        <time>2015-07-04T06:10:42Z</time>
      </trkpt>
      <trkpt lat="45.03948" lon="5.97825">
        <ele>1007.4</ele>
        <time>2015-07-04T06:10:46Z</time>
      </trkpt>
      <trkpt lat="45.03939" lon="5.97818">
        <ele>1007.7</ele>
        <time>2015-07-04T06:10:50Z</time>
      </trkpt>
      <trkpt lat="45.03946" lon="5.97808">
        <ele>1008.4</ele>
        <time>2015-07-04T06:10:58Z</time>
      </trkpt>
      <trkpt lat="45.03954" lon="5.97813">
        <ele>1009.2</ele>
        <time>2015-07-04T06:11:06Z</time>
      </trkpt>
      <trkpt lat="45.03964" lon="5.97814">
        <ele>1009.9</ele>
        <time>2015-07-04T06:11:15Z</time>
      </trkpt>
      <trkpt lat="45.03973" lon="5.97818">
        <ele>1010.7</ele>
        <time>2015-07-04T06:11:23Z</time>
      </trkpt>
      <trkpt lat="45.03982" lon="5.97821">
        <ele>1011.3</ele>
        <time>2015-07-04T06:11:30Z</time>
      </trkpt>
      <trkpt lat="45.03991" lon="5.97824">
        <ele>1011.8</ele>
        <time>2015-07-04T06:11:36Z</time>
      </trkpt>
      <trkpt lat="45.04001" lon="5.97828">
        <ele>1012.3</ele>
        <time>2015-07-04T06:11:42Z</time>
      </trkpt>
      <trkpt lat="45.04009" lon="5.97833">
        <ele>1012.8</ele>
        <time>2015-07-04T06:11:47Z</time>
      </trkpt>
      <trkpt lat="45.04017" lon="5.97842">
        <ele>1013.4</ele>
        <time>2015-07-04T06:11:53Z</time>
      </trkpt>
      <trkpt lat="45.04027" lon="5.97848">
        <ele>1014.3</ele>
        <time>2015-07-04T06:11:59Z</time>
      </trkpt>
      <trkpt lat="45.04035" lon="5.97854">
        <ele>1015.3</ele>
        <time>2015-07-04T06:12:05Z</time>
      </trkpt>
      <trkpt lat="45.04044" lon="5.97859">
        <ele>1016.3</ele>
        <time>2015-07-04T06:12:11Z</time>
      </trkpt>
      <trkpt lat="45.04053" lon="5.97865">
        <ele>1017.2</ele>
        <time>2015-07-04T06:12:17Z</time>
      </trkpt>
      <trkpt lat="45.04061" lon="5.97871">
        <ele>1018.1</ele>
        <time>2015-07-04T06:12:22Z</time>
      </trkpt>
      <trkpt lat="45.04069" lon="5.97878">
        <ele>1019</ele>
        <time>2015-07-04T06:12:27Z</time>
      </trkpt>
      <trkpt lat="45.04078" lon="5.97884">
        <ele>1019.9</ele>
        <time>2015-07-04T06:12:32Z</time>
      </trkpt>
      <trkpt lat="45.04087" lon="5.97889">
        <ele>1021</ele>
        <time>2015-07-04T06:12:37Z</time>
      </trkpt>
      <trkpt lat="45.04095" lon="5.97895">
        <ele>1022</ele>
        <time>2015-07-04T06:12:42Z</time>
      </trkpt>
      <trkpt lat="45.04105" lon="5.97901">
        <ele>1023</ele>
        <time>2015-07-04T06:12:47Z</time>
      </trkpt>
      <trkpt lat="45.04114" lon="5.97908">
        <ele>1023.9</ele>
        <time>2015-07-04T06:12:52Z</time>
      </trkpt>
      <trkpt lat="45.04122" lon="5.97916">
        <ele>1024.8</ele>
        <time>2015-07-04T06:12:57Z</time>
      </trkpt>
      <trkpt lat="45.04129" lon="5.97925">
        <ele>1026</ele>
        <time>2015-07-04T06:13:02Z</time>
      </trkpt>
      <trkpt lat="45.04136" lon="5.97935">
        <ele>1026.8</ele>
        <time>2015-07-04T06:13:07Z</time>
      </trkpt>
      <trkpt lat="45.04141" lon="5.97947">
        <ele>1028.5</ele>
        <time>2015-07-04T06:13:13Z</time>
      </trkpt>
      <trkpt lat="45.04144" lon="5.97959">
        <ele>1029.6</ele>
        <time>2015-07-04T06:13:19Z</time>
      </trkpt>
      <trkpt lat="45.04147" lon="5.97972">
        <ele>1030.6</ele>
        <time>2015-07-04T06:13:25Z</time>
      </trkpt>
      <trkpt lat="45.04148" lon="5.97985">
        <ele>1031.9</ele>
        <time>2015-07-04T06:13:31Z</time>
      </trkpt>
      <trkpt lat="45.04149" lon="5.97999">
        <ele>1033</ele>
        <time>2015-07-04T06:13:37Z</time>
      </trkpt>
      <trkpt lat="45.04155" lon="5.98008">
        <ele>1033.9</ele>
        <time>2015-07-04T06:13:43Z</time>
      </trkpt>
      <trkpt lat="45.04161" lon="5.97997">
        <ele>1035.1</ele>
        <time>2015-07-04T06:13:49Z</time>
      </trkpt>
      <trkpt lat="45.04159" lon="5.97982">
        <ele>1036.1</ele>
        <time>2015-07-04T06:13:55Z</time>
      </trkpt>
      <trkpt lat="45.0416" lon="5.97968">
        <ele>1037.1</ele>
        <time>2015-07-04T06:14:01Z</time>
      </trkpt>
      <trkpt lat="45.04162" lon="5.97955">
        <ele>1038</ele>
        <time>2015-07-04T06:14:07Z</time>
      </trkpt>
      <trkpt lat="45.04164" lon="5.97942">
        <ele>1038.6</ele>
        <time>2015-07-04T06:14:13Z</time>
      </trkpt>
      <trkpt lat="45.04167" lon="5.97929">
        <ele>1039.5</ele>
        <time>2015-07-04T06:14:19Z</time>
      </trkpt>
      <trkpt lat="45.04169" lon="5.97915">
        <ele>1040.3</ele>
        <time>2015-07-04T06:14:25Z</time>
      </trkpt>
      <trkpt lat="45.04171" lon="5.97902">
        <ele>1041.1</ele>
        <time>2015-07-04T06:14:31Z</time>
      </trkpt>
      <trkpt lat="45.04173" lon="5.97888">
        <ele>1042.2</ele>
        <time>2015-07-04T06:14:37Z</time>
      </trkpt>
      <trkpt lat="45.04173" lon="5.97875">
        <ele>1043</ele>
        <time>2015-07-04T06:14:43Z</time>
      </trkpt>
      <trkpt lat="45.04169" lon="5.97862">
        <ele>1043.8</ele>
        <time>2015-07-04T06:14:50Z</time>
      </trkpt>
      <trkpt lat="45.04163" lon="5.9785">
        <ele>1045</ele>
        <time>2015-07-04T06:14:57Z</time>
      </trkpt>
      <trkpt lat="45.04156" lon="5.97842">
        <ele>1046.1</ele>
        <time>2015-07-04T06:15:03Z</time>
      </trkpt>
      <trkpt lat="45.04147" lon="5.97835">
        <ele>1047.5</ele>
        <time>2015-07-04T06:15:09Z</time>
      </trkpt>
      <trkpt lat="45.04139" lon="5.97831">
        <ele>1048.5</ele>
        <time>2015-07-04T06:15:15Z</time>
      </trkpt>
      <trkpt lat="45.0413" lon="5.97827">
        <ele>1050</ele>
        <time>2015-07-04T06:15:21Z</time>
      </trkpt>
      <trkpt lat="45.04121" lon="5.97823">
        <ele>1051</ele>
        <time>2015-07-04T06:15:27Z</time>
      </trkpt>
      <trkpt lat="45.04111" lon="5.97817">
        <ele>1051.9</ele>
        <time>2015-07-04T06:15:34Z</time>
      </trkpt>
      <trkpt lat="45.04102" lon="5.97812">
        <ele>1052.8</ele>
        <time>2015-07-04T06:15:40Z</time>
      </trkpt>
      <trkpt lat="45.04093" lon="5.97807">
        <ele>1053.5</ele>
        <time>2015-07-04T06:15:46Z</time>
      </trkpt>
      <trkpt lat="45.04086" lon="5.97799">
        <ele>1054.6</ele>
        <time>2015-07-04T06:15:52Z</time>
      </trkpt>
      <trkpt lat="45.04082" lon="5.97785">
        <ele>1055.6</ele>
        <time>2015-07-04T06:15:58Z</time>
      </trkpt>
      <trkpt lat="45.04084" lon="5.97772">
        <ele>1056.5</ele>
        <time>2015-07-04T06:16:03Z</time>
      </trkpt>
      <trkpt lat="45.04092" lon="5.97762">
        <ele>1057.6</ele>
        <time>2015-07-04T06:16:09Z</time>
      </trkpt>
      <trkpt lat="45.04101" lon="5.97757">
        <ele>1058.6</ele>
        <time>2015-07-04T06:16:15Z</time>
      </trkpt>
      <trkpt lat="45.04112" lon="5.97755">
        <ele>1059.4</ele>
        <time>2015-07-04T06:16:22Z</time>
      </trkpt>
      <trkpt lat="45.04121" lon="5.97755">
        <ele>1060.7</ele>
        <time>2015-07-04T06:16:28Z</time>
      </trkpt>
      <trkpt lat="45.04131" lon="5.97754">
        <ele>1061.9</ele>
        <time>2015-07-04T06:16:34Z</time>
      </trkpt>
      <trkpt lat="45.04141" lon="5.97752">
        <ele>1063</ele>
        <time>2015-07-04T06:16:40Z</time>
      </trkpt>
      <trkpt lat="45.04151" lon="5.97749">
        <ele>1064.1</ele>
        <time>2015-07-04T06:16:47Z</time>
      </trkpt>
      <trkpt lat="45.0416" lon="5.97746">
        <ele>1064.8</ele>
        <time>2015-07-04T06:16:53Z</time>
      </trkpt>
      <trkpt lat="45.04169" lon="5.97743">
        <ele>1066.4</ele>
        <time>2015-07-04T06:16:59Z</time>
      </trkpt>
      <trkpt lat="45.0418" lon="5.97742">
        <ele>1067.9</ele>
        <time>2015-07-04T06:17:06Z</time>
      </trkpt>
      <trkpt lat="45.0419" lon="5.9774">
        <ele>1069</ele>
        <time>2015-07-04T06:17:13Z</time>
      </trkpt>
      <trkpt lat="45.04199" lon="5.97739">
        <ele>1069.9</ele>
        <time>2015-07-04T06:17:19Z</time>
      </trkpt>
      <trkpt lat="45.04209" lon="5.97736">
        <ele>1071.4</ele>
        <time>2015-07-04T06:17:25Z</time>
      </trkpt>
      <trkpt lat="45.04219" lon="5.97733">
        <ele>1072.5</ele>
        <time>2015-07-04T06:17:31Z</time>
      </trkpt>
      <trkpt lat="45.04228" lon="5.9773">
        <ele>1073.4</ele>
        <time>2015-07-04T06:17:37Z</time>
      </trkpt>
      <trkpt lat="45.04237" lon="5.97726">
        <ele>1074.3</ele>
        <time>2015-07-04T06:17:43Z</time>
      </trkpt>
      <trkpt lat="45.04246" lon="5.97723">
        <ele>1075.3</ele>
        <time>2015-07-04T06:17:50Z</time>
      </trkpt>
      <trkpt lat="45.04256" lon="5.97719">
        <ele>1076.3</ele>
        <time>2015-07-04T06:17:57Z</time>
      </trkpt>
      <trkpt lat="45.04265" lon="5.97715">
        <ele>1077.2</ele>
        <time>2015-07-04T06:18:03Z</time>
      </trkpt>
      <trkpt lat="45.04273" lon="5.9771">
        <ele>1078.3</ele>
        <time>2015-07-04T06:18:09Z</time>
      </trkpt>
      <trkpt lat="45.04282" lon="5.97703">
        <ele>1079.3</ele>
        <time>2015-07-04T06:18:16Z</time>
      </trkpt>
      <trkpt lat="45.04291" lon="5.97694">
        <ele>1080.2</ele>
        <time>2015-07-04T06:18:22Z</time>
      </trkpt>
      <trkpt lat="45.04299" lon="5.97686">
        <ele>1081.1</ele>
        <time>2015-07-04T06:18:27Z</time>
      </trkpt>
      <trkpt lat="45.04308" lon="5.97688">
        <ele>1082.2</ele>
        <time>2015-07-04T06:18:33Z</time>
      </trkpt>
      <trkpt lat="45.04304" lon="5.977">
        <ele>1083</ele>
        <time>2015-07-04T06:18:39Z</time>
      </trkpt>
      <trkpt lat="45.04297" lon="5.9771">
        <ele>1083.8</ele>
        <time>2015-07-04T06:18:45Z</time>
      </trkpt>
      <trkpt lat="45.04289" lon="5.97719">
        <ele>1084.8</ele>
        <time>2015-07-04T06:18:51Z</time>
      </trkpt>
      <trkpt lat="45.04282" lon="5.97729">
        <ele>1085.5</ele>
        <time>2015-07-04T06:18:57Z</time>
      </trkpt>
      <trkpt lat="45.04274" lon="5.97739">
        <ele>1086.5</ele>
        <time>2015-07-04T06:19:03Z</time>
      </trkpt>
      <trkpt lat="45.04267" lon="5.97749">
        <ele>1087.5</ele>
        <time>2015-07-04T06:19:08Z</time>
      </trkpt>
      <trkpt lat="45.04263" lon="5.9776">
        <ele>1088.3</ele>
        <time>2015-07-04T06:19:13Z</time>
      </trkpt>
      <trkpt lat="45.04267" lon="5.97772">
        <ele>1089.5</ele>
        <time>2015-07-04T06:19:20Z</time>
      </trkpt>
      <trkpt lat="45.04277" lon="5.97768">
        <ele>1090.6</ele>
        <time>2015-07-04T06:19:26Z</time>
      </trkpt>
      <trkpt lat="45.04283" lon="5.97758">
        <ele>1091.4</ele>
        <time>2015-07-04T06:19:31Z</time>
      </trkpt>
      <trkpt lat="45.0429" lon="5.97749">
        <ele>1092.2</ele>
        <time>2015-07-04T06:19:36Z</time>
      </trkpt>
      <trkpt lat="45.04298" lon="5.97741">
        <ele>1093.2</ele>
        <time>2015-07-04T06:19:42Z</time>
      </trkpt>
      <trkpt lat="45.04306" lon="5.97733">
        <ele>1094.4</ele>
        <time>2015-07-04T06:19:48Z</time>
      </trkpt>
      <trkpt lat="45.04314" lon="5.97726">
        <ele>1095.3</ele>
        <time>2015-07-04T06:19:53Z</time>
      </trkpt>
      <trkpt lat="45.04322" lon="5.9772">
        <ele>1096.3</ele>
        <time>2015-07-04T06:19:58Z</time>
      </trkpt>
      <trkpt lat="45.04331" lon="5.97715">
        <ele>1097.2</ele>
        <time>2015-07-04T06:20:03Z</time>
      </trkpt>
      <trkpt lat="45.0434" lon="5.97709">
        <ele>1098.1</ele>
        <time>2015-07-04T06:20:09Z</time>
      </trkpt>
      <trkpt lat="45.04349" lon="5.97703">
        <ele>1099.2</ele>
        <time>2015-07-04T06:20:15Z</time>
      </trkpt>
      <trkpt lat="45.04357" lon="5.97696">
        <ele>1100.4</ele>
        <time>2015-07-04T06:20:21Z</time>
      </trkpt>
      <trkpt lat="45.04364" lon="5.97688">
        <ele>1102</ele>
        <time>2015-07-04T06:20:27Z</time>
      </trkpt>
      <trkpt lat="45.04372" lon="5.9768">
        <ele>1103.2</ele>
        <time>2015-07-04T06:20:33Z</time>
      </trkpt>
      <trkpt lat="45.04381" lon="5.97673">
        <ele>1104.3</ele>
        <time>2015-07-04T06:20:39Z</time>
      </trkpt>
      <trkpt lat="45.0439" lon="5.97667">
        <ele>1105</ele>
        <time>2015-07-04T06:20:45Z</time>
      </trkpt>
      <trkpt lat="45.044" lon="5.97664">
        <ele>1105.7</ele>
        <time>2015-07-04T06:20:51Z</time>
      </trkpt>
      <trkpt lat="45.04409" lon="5.97661">
        <ele>1106.4</ele>
        <time>2015-07-04T06:20:57Z</time>
      </trkpt>
      <trkpt lat="45.04419" lon="5.97659">
        <ele>1107.6</ele>
        <time>2015-07-04T06:21:03Z</time>
      </trkpt>
      <trkpt lat="45.04429" lon="5.97659">
        <ele>1108.8</ele>
        <time>2015-07-04T06:21:09Z</time>
      </trkpt>
      <trkpt lat="45.04439" lon="5.9766">
        <ele>1110</ele>
        <time>2015-07-04T06:21:15Z</time>
      </trkpt>
      <trkpt lat="45.04449" lon="5.97663">
        <ele>1111.1</ele>
        <time>2015-07-04T06:21:21Z</time>
      </trkpt>
      <trkpt lat="45.04459" lon="5.97666">
        <ele>1112</ele>
        <time>2015-07-04T06:21:27Z</time>
      </trkpt>
      <trkpt lat="45.04468" lon="5.97668">
        <ele>1112.7</ele>
        <time>2015-07-04T06:21:33Z</time>
      </trkpt>
      <trkpt lat="45.04478" lon="5.9767">
        <ele>1113.9</ele>
        <time>2015-07-04T06:21:39Z</time>
      </trkpt>
      <trkpt lat="45.04489" lon="5.97672">
        <ele>1115</ele>
        <time>2015-07-04T06:21:45Z</time>
      </trkpt>
      <trkpt lat="45.04498" lon="5.97673">
        <ele>1115.7</ele>
        <time>2015-07-04T06:21:50Z</time>
      </trkpt>
      <trkpt lat="45.04508" lon="5.97674">
        <ele>1116.5</ele>
        <time>2015-07-04T06:21:56Z</time>
      </trkpt>
      <trkpt lat="45.04518" lon="5.97674">
        <ele>1117.6</ele>
        <time>2015-07-04T06:22:02Z</time>
      </trkpt>
      <trkpt lat="45.04529" lon="5.97673">
        <ele>1118.7</ele>
        <time>2015-07-04T06:22:08Z</time>
      </trkpt>
      <trkpt lat="45.04539" lon="5.97672">
        <ele>1119.9</ele>
        <time>2015-07-04T06:22:14Z</time>
      </trkpt>
      <trkpt lat="45.04548" lon="5.9767">
        <ele>1120.9</ele>
        <time>2015-07-04T06:22:20Z</time>
      </trkpt>
      <trkpt lat="45.04558" lon="5.97669">
        <ele>1121.9</ele>
        <time>2015-07-04T06:22:26Z</time>
      </trkpt>
      <trkpt lat="45.04568" lon="5.97667">
        <ele>1122.7</ele>
        <time>2015-07-04T06:22:32Z</time>
      </trkpt>
      <trkpt lat="45.04577" lon="5.97666">
        <ele>1123.9</ele>
        <time>2015-07-04T06:22:38Z</time>
      </trkpt>
      <trkpt lat="45.04587" lon="5.97664">
        <ele>1125.6</ele>
        <time>2015-07-04T06:22:46Z</time>
      </trkpt>
      <trkpt lat="45.04596" lon="5.97659">
        <ele>1127</ele>
        <time>2015-07-04T06:22:54Z</time>
      </trkpt>
      <trkpt lat="45.04606" lon="5.97654">
        <ele>1128.2</ele>
        <time>2015-07-04T06:23:01Z</time>
      </trkpt>
      <trkpt lat="45.04614" lon="5.97648">
        <ele>1129.4</ele>
        <time>2015-07-04T06:23:08Z</time>
      </trkpt>
      <trkpt lat="45.04625" lon="5.97645">
        <ele>1130.5</ele>
        <time>2015-07-04T06:23:15Z</time>
      </trkpt>
      <trkpt lat="45.04635" lon="5.9764">
        <ele>1131.4</ele>
        <time>2015-07-04T06:23:21Z</time>
      </trkpt>
      <trkpt lat="45.04643" lon="5.97636">
        <ele>1132.2</ele>
        <time>2015-07-04T06:23:26Z</time>
      </trkpt>
      <trkpt lat="45.04652" lon="5.97629">
        <ele>1133.5</ele>
        <time>2015-07-04T06:23:32Z</time>
      </trkpt>
      <trkpt lat="45.0466" lon="5.97623">
        <ele>1134.4</ele>
        <time>2015-07-04T06:23:37Z</time>
      </trkpt>
      <trkpt lat="45.04669" lon="5.97617">
        <ele>1135</ele>
        <time>2015-07-04T06:23:42Z</time>
      </trkpt>
      <trkpt lat="45.04678" lon="5.97611">
        <ele>1135.6</ele>
        <time>2015-07-04T06:23:47Z</time>
      </trkpt>
      <trkpt lat="45.04687" lon="5.97604">
        <ele>1136.7</ele>
        <time>2015-07-04T06:23:53Z</time>
      </trkpt>
      <trkpt lat="45.04696" lon="5.97598">
        <ele>1137.7</ele>
        <time>2015-07-04T06:23:59Z</time>
      </trkpt>
      <trkpt lat="45.04705" lon="5.97591">
        <ele>1138.9</ele>
        <time>2015-07-04T06:24:05Z</time>
      </trkpt>
      <trkpt lat="45.04713" lon="5.97584">
        <ele>1140.2</ele>
        <time>2015-07-04T06:24:11Z</time>
      </trkpt>
      <trkpt lat="45.04721" lon="5.97577">
        <ele>1141.5</ele>
        <time>2015-07-04T06:24:17Z</time>
      </trkpt>
      <trkpt lat="45.04729" lon="5.97571">
        <ele>1142.5</ele>
        <time>2015-07-04T06:24:23Z</time>
      </trkpt>
      <trkpt lat="45.04739" lon="5.97564">
        <ele>1143.3</ele>
        <time>2015-07-04T06:24:30Z</time>
      </trkpt>
      <trkpt lat="45.04747" lon="5.97555">
        <ele>1144.7</ele>
        <time>2015-07-04T06:24:37Z</time>
      </trkpt>
      <trkpt lat="45.04755" lon="5.97546">
        <ele>1145.8</ele>
        <time>2015-07-04T06:24:44Z</time>
      </trkpt>
      <trkpt lat="45.04762" lon="5.97537">
        <ele>1146.8</ele>
        <time>2015-07-04T06:24:50Z</time>
      </trkpt>
      <trkpt lat="45.04769" lon="5.97528">
        <ele>1147.7</ele>
        <time>2015-07-04T06:24:56Z</time>
      </trkpt>
      <trkpt lat="45.04777" lon="5.97519">
        <ele>1148.5</ele>
        <time>2015-07-04T06:25:02Z</time>
      </trkpt>
      <trkpt lat="45.04784" lon="5.97511">
        <ele>1149.5</ele>
        <time>2015-07-04T06:25:08Z</time>
      </trkpt>
      <trkpt lat="45.04792" lon="5.97503">
        <ele>1150.5</ele>
        <time>2015-07-04T06:25:14Z</time>
      </trkpt>
      <trkpt lat="45.048" lon="5.97496">
        <ele>1151.4</ele>
        <time>2015-07-04T06:25:20Z</time>
      </trkpt>
      <trkpt lat="45.04807" lon="5.97489">
        <ele>1152.9</ele>
        <time>2015-07-04T06:25:27Z</time>
      </trkpt>
      <trkpt lat="45.04815" lon="5.97479">
        <ele>1154.1</ele>
        <time>2015-07-04T06:25:35Z</time>
      </trkpt>
      <trkpt lat="45.04822" lon="5.97471">
        <ele>1155.1</ele>
        <time>2015-07-04T06:25:43Z</time>
      </trkpt>
      <trkpt lat="45.0483" lon="5.97467">
        <ele>1156.2</ele>
        <time>2015-07-04T06:25:51Z</time>
      </trkpt>
      <trkpt lat="45.04839" lon="5.97464">
        <ele>1158</ele>
        <time>2015-07-04T06:25:58Z</time>
      </trkpt>
      <trkpt lat="45.04848" lon="5.97457">
        <ele>1159.4</ele>
        <time>2015-07-04T06:26:06Z</time>
      </trkpt>
      <trkpt lat="45.04857" lon="5.9745">
        <ele>1160.3</ele>
        <time>2015-07-04T06:26:12Z</time>
      </trkpt>
      <trkpt lat="45.04866" lon="5.97443">
        <ele>1161.1</ele>
        <time>2015-07-04T06:26:18Z</time>
      </trkpt>
      <trkpt lat="45.04876" lon="5.97436">
        <ele>1161.8</ele>
        <time>2015-07-04T06:26:24Z</time>
      </trkpt>
      <trkpt lat="45.04885" lon="5.97429">
        <ele>1162.8</ele>
        <time>2015-07-04T06:26:30Z</time>
      </trkpt>
      <trkpt lat="45.04893" lon="5.97422">
        <ele>1164.2</ele>
        <time>2015-07-04T06:26:36Z</time>
      </trkpt>
      <trkpt lat="45.04901" lon="5.97415">
        <ele>1165.2</ele>
        <time>2015-07-04T06:26:42Z</time>
      </trkpt>
      <trkpt lat="45.04909" lon="5.97408">
        <ele>1166.1</ele>
        <time>2015-07-04T06:26:48Z</time>
      </trkpt>
      <trkpt lat="45.04918" lon="5.97401">
        <ele>1166.8</ele>
        <time>2015-07-04T06:26:54Z</time>
      </trkpt>
      <trkpt lat="45.04926" lon="5.97396">
        <ele>1168.2</ele>
        <time>2015-07-04T06:27:00Z</time>
      </trkpt>
      <trkpt lat="45.04936" lon="5.97388">
        <ele>1169.4</ele>
        <time>2015-07-04T06:27:07Z</time>
      </trkpt>
      <trkpt lat="45.04944" lon="5.97381">
        <ele>1170.4</ele>
        <time>2015-07-04T06:27:13Z</time>
      </trkpt>
      <trkpt lat="45.04951" lon="5.97373">
        <ele>1171.2</ele>
        <time>2015-07-04T06:27:19Z</time>
      </trkpt>
      <trkpt lat="45.04959" lon="5.97365">
        <ele>1172.2</ele>
        <time>2015-07-04T06:27:25Z</time>
      </trkpt>
      <trkpt lat="45.04967" lon="5.97357">
        <ele>1173.3</ele>
        <time>2015-07-04T06:27:32Z</time>
      </trkpt>
      <trkpt lat="45.04973" lon="5.97348">
        <ele>1174.3</ele>
        <time>2015-07-04T06:27:39Z</time>
      </trkpt>
      <trkpt lat="45.04982" lon="5.97344">
        <ele>1175.7</ele>
        <time>2015-07-04T06:27:47Z</time>
      </trkpt>
      <trkpt lat="45.04981" lon="5.97357">
        <ele>1177.4</ele>
        <time>2015-07-04T06:27:56Z</time>
      </trkpt>
      <trkpt lat="45.04975" lon="5.97369">
        <ele>1178.3</ele>
        <time>2015-07-04T06:28:02Z</time>
      </trkpt>
      <trkpt lat="45.0497" lon="5.97381">
        <ele>1179.3</ele>
        <time>2015-07-04T06:28:08Z</time>
      </trkpt>
      <trkpt lat="45.04966" lon="5.97395">
        <ele>1180.3</ele>
        <time>2015-07-04T06:28:14Z</time>
      </trkpt>
      <trkpt lat="45.04962" lon="5.97409">
        <ele>1181.1</ele>
        <time>2015-07-04T06:28:20Z</time>
      </trkpt>
      <trkpt lat="45.04957" lon="5.97421">
        <ele>1181.8</ele>
        <time>2015-07-04T06:28:26Z</time>
      </trkpt>
      <trkpt lat="45.0495" lon="5.97432">
        <ele>1182.6</ele>
        <time>2015-07-04T06:28:32Z</time>
      </trkpt>
      <trkpt lat="45.04945" lon="5.97442">
        <ele>1183.4</ele>
        <time>2015-07-04T06:28:38Z</time>
      </trkpt>
      <trkpt lat="45.04938" lon="5.97452">
        <ele>1184.2</ele>
        <time>2015-07-04T06:28:44Z</time>
      </trkpt>
      <trkpt lat="45.04931" lon="5.97463">
        <ele>1185.5</ele>
        <time>2015-07-04T06:28:50Z</time>
      </trkpt>
      <trkpt lat="45.04925" lon="5.97473">
        <ele>1186.6</ele>
        <time>2015-07-04T06:28:56Z</time>
      </trkpt>
      <trkpt lat="45.04919" lon="5.97485">
        <ele>1187.6</ele>
        <time>2015-07-04T06:29:02Z</time>
      </trkpt>
      <trkpt lat="45.04915" lon="5.97497">
        <ele>1188.7</ele>
        <time>2015-07-04T06:29:08Z</time>
      </trkpt>
      <trkpt lat="45.04909" lon="5.9751">
        <ele>1189.4</ele>
        <time>2015-07-04T06:29:14Z</time>
      </trkpt>
      <trkpt lat="45.04904" lon="5.97521">
        <ele>1190.2</ele>
        <time>2015-07-04T06:29:19Z</time>
      </trkpt>
      <trkpt lat="45.04899" lon="5.97534">
        <ele>1191.3</ele>
        <time>2015-07-04T06:29:25Z</time>
      </trkpt>
      <trkpt lat="45.04894" lon="5.97545">
        <ele>1192.1</ele>
        <time>2015-07-04T06:29:31Z</time>
      </trkpt>
      <trkpt lat="45.04889" lon="5.97557">
        <ele>1193.9</ele>
        <time>2015-07-04T06:29:38Z</time>
      </trkpt>
      <trkpt lat="45.04884" lon="5.97569">
        <ele>1194.8</ele>
        <time>2015-07-04T06:29:44Z</time>
      </trkpt>
      <trkpt lat="45.04879" lon="5.97581">
        <ele>1196</ele>
        <time>2015-07-04T06:29:54Z</time>
      </trkpt>
      <trkpt lat="45.04873" lon="5.97592">
        <ele>1197.4</ele>
        <time>2015-07-04T06:30:02Z</time>
      </trkpt>
      <trkpt lat="45.04866" lon="5.97602">
        <ele>1199</ele>
        <time>2015-07-04T06:30:09Z</time>
      </trkpt>
      <trkpt lat="45.04858" lon="5.97613">
        <ele>1200.1</ele>
        <time>2015-07-04T06:30:15Z</time>
      </trkpt>
      <trkpt lat="45.0485" lon="5.97623">
        <ele>1201.2</ele>
        <time>2015-07-04T06:30:20Z</time>
      </trkpt>
      <trkpt lat="45.04843" lon="5.97632">
        <ele>1202.2</ele>
        <time>2015-07-04T06:30:24Z</time>
      </trkpt>
      <trkpt lat="45.04837" lon="5.97641">
        <ele>1203.2</ele>
        <time>2015-07-04T06:30:28Z</time>
      </trkpt>
      <trkpt lat="45.04829" lon="5.97651">
        <ele>1204.1</ele>
        <time>2015-07-04T06:30:33Z</time>
      </trkpt>
      <trkpt lat="45.04822" lon="5.97659">
        <ele>1204.7</ele>
        <time>2015-07-04T06:30:38Z</time>
      </trkpt>
      <trkpt lat="45.04814" lon="5.97669">
        <ele>1205.7</ele>
        <time>2015-07-04T06:30:43Z</time>
      </trkpt>
      <trkpt lat="45.04806" lon="5.97677">
        <ele>1206.5</ele>
        <time>2015-07-04T06:30:48Z</time>
      </trkpt>
      <trkpt lat="45.04799" lon="5.97687">
        <ele>1207.4</ele>
        <time>2015-07-04T06:30:54Z</time>
      </trkpt>
      <trkpt lat="45.04794" lon="5.97698">
        <ele>1208.2</ele>
        <time>2015-07-04T06:31:00Z</time>
      </trkpt>
      <trkpt lat="45.04804" lon="5.97697">
        <ele>1209.4</ele>
        <time>2015-07-04T06:31:09Z</time>
      </trkpt>
      <trkpt lat="45.04812" lon="5.97689">
        <ele>1210.2</ele>
        <time>2015-07-04T06:31:16Z</time>
      </trkpt>
      <trkpt lat="45.0482" lon="5.97681">
        <ele>1210.9</ele>
        <time>2015-07-04T06:31:23Z</time>
      </trkpt>
      <trkpt lat="45.04829" lon="5.97676">
        <ele>1211.8</ele>
        <time>2015-07-04T06:31:29Z</time>
      </trkpt>
      <trkpt lat="45.04838" lon="5.97671">
        <ele>1213</ele>
        <time>2015-07-04T06:31:35Z</time>
      </trkpt>
      <trkpt lat="45.04847" lon="5.97665">
        <ele>1214</ele>
        <time>2015-07-04T06:31:41Z</time>
      </trkpt>
      <trkpt lat="45.04856" lon="5.9766">
        <ele>1215.1</ele>
        <time>2015-07-04T06:31:47Z</time>
      </trkpt>
      <trkpt lat="45.04864" lon="5.97654">
        <ele>1215.8</ele>
        <time>2015-07-04T06:31:53Z</time>
      </trkpt>
      <trkpt lat="45.04873" lon="5.97647">
        <ele>1216.8</ele>
        <time>2015-07-04T06:31:59Z</time>
      </trkpt>
      <trkpt lat="45.04882" lon="5.97642">
        <ele>1218.2</ele>
        <time>2015-07-04T06:32:05Z</time>
      </trkpt>
      <trkpt lat="45.04892" lon="5.97637">
        <ele>1219.4</ele>
        <time>2015-07-04T06:32:11Z</time>
      </trkpt>
      <trkpt lat="45.04901" lon="5.97632">
        <ele>1220.6</ele>
        <time>2015-07-04T06:32:17Z</time>
      </trkpt>
      <trkpt lat="45.0491" lon="5.97627">
        <ele>1221.3</ele>
        <time>2015-07-04T06:32:23Z</time>
      </trkpt>
      <trkpt lat="45.04919" lon="5.97621">
        <ele>1222.2</ele>
        <time>2015-07-04T06:32:29Z</time>
      </trkpt>
      <trkpt lat="45.04928" lon="5.97616">
        <ele>1223.5</ele>
        <time>2015-07-04T06:32:35Z</time>
      </trkpt>
      <trkpt lat="45.04937" lon="5.9761">
        <ele>1224.8</ele>
        <time>2015-07-04T06:32:42Z</time>
      </trkpt>
      <trkpt lat="45.04946" lon="5.97606">
        <ele>1225.5</ele>
        <time>2015-07-04T06:32:48Z</time>
      </trkpt>
      <trkpt lat="45.04955" lon="5.97601">
        <ele>1226.8</ele>
        <time>2015-07-04T06:32:54Z</time>
      </trkpt>
      <trkpt lat="45.04963" lon="5.97597">
        <ele>1228</ele>
        <time>2015-07-04T06:33:00Z</time>
      </trkpt>
      <trkpt lat="45.04973" lon="5.97591">
        <ele>1228.8</ele>
        <time>2015-07-04T06:33:06Z</time>
      </trkpt>
      <trkpt lat="45.04981" lon="5.97586">
        <ele>1229.9</ele>
        <time>2015-07-04T06:33:12Z</time>
      </trkpt>
      <trkpt lat="45.0499" lon="5.97579">
        <ele>1231.5</ele>
        <time>2015-07-04T06:33:18Z</time>
      </trkpt>
      <trkpt lat="45.04999" lon="5.97573">
        <ele>1232.7</ele>
        <time>2015-07-04T06:33:24Z</time>
      </trkpt>
      <trkpt lat="45.05009" lon="5.97567">
        <ele>1233.7</ele>
        <time>2015-07-04T06:33:30Z</time>
      </trkpt>
      <trkpt lat="45.05018" lon="5.97561">
        <ele>1234.6</ele>
        <time>2015-07-04T06:33:36Z</time>
      </trkpt>
      <trkpt lat="45.05026" lon="5.97556">
        <ele>1235.7</ele>
        <time>2015-07-04T06:33:42Z</time>
      </trkpt>
      <trkpt lat="45.05034" lon="5.9755">
        <ele>1237.2</ele>
        <time>2015-07-04T06:33:48Z</time>
      </trkpt>
      <trkpt lat="45.05043" lon="5.97544">
        <ele>1238.3</ele>
        <time>2015-07-04T06:33:54Z</time>
      </trkpt>
      <trkpt lat="45.05052" lon="5.97539">
        <ele>1239.3</ele>
        <time>2015-07-04T06:34:01Z</time>
      </trkpt>
      <trkpt lat="45.05062" lon="5.97535">
        <ele>1240.6</ele>
        <time>2015-07-04T06:34:08Z</time>
      </trkpt>
      <trkpt lat="45.05072" lon="5.97531">
        <ele>1241.5</ele>
        <time>2015-07-04T06:34:14Z</time>
      </trkpt>
      <trkpt lat="45.05082" lon="5.97528">
        <ele>1242.6</ele>
        <time>2015-07-04T06:34:21Z</time>
      </trkpt>
      <trkpt lat="45.05091" lon="5.97527">
        <ele>1243.7</ele>
        <time>2015-07-04T06:34:27Z</time>
      </trkpt>
      <trkpt lat="45.051" lon="5.97526">
        <ele>1244.8</ele>
        <time>2015-07-04T06:34:33Z</time>
      </trkpt>
      <trkpt lat="45.0511" lon="5.97524">
        <ele>1246.2</ele>
        <time>2015-07-04T06:34:40Z</time>
      </trkpt>
      <trkpt lat="45.0512" lon="5.97522">
        <ele>1247.3</ele>
        <time>2015-07-04T06:34:46Z</time>
      </trkpt>
      <trkpt lat="45.05128" lon="5.97518">
        <ele>1248.5</ele>
        <time>2015-07-04T06:34:52Z</time>
      </trkpt>
      <trkpt lat="45.05138" lon="5.97515">
        <ele>1249.5</ele>
        <time>2015-07-04T06:34:58Z</time>
      </trkpt>
      <trkpt lat="45.05147" lon="5.97513">
        <ele>1250.8</ele>
        <time>2015-07-04T06:35:04Z</time>
      </trkpt>
      <trkpt lat="45.05157" lon="5.97513">
        <ele>1252.3</ele>
        <time>2015-07-04T06:35:11Z</time>
      </trkpt>
      <trkpt lat="45.05154" lon="5.97526">
        <ele>1254.3</ele>
        <time>2015-07-04T06:35:26Z</time>
      </trkpt>
      <trkpt lat="45.05145" lon="5.97531">
        <ele>1255.7</ele>
        <time>2015-07-04T06:35:34Z</time>
      </trkpt>
      <trkpt lat="45.05136" lon="5.97537">
        <ele>1256.6</ele>
        <time>2015-07-04T06:35:41Z</time>
      </trkpt>
      <trkpt lat="45.05128" lon="5.97543">
        <ele>1257.3</ele>
        <time>2015-07-04T06:35:47Z</time>
      </trkpt>
      <trkpt lat="45.05119" lon="5.97548">
        <ele>1257.9</ele>
        <time>2015-07-04T06:35:53Z</time>
      </trkpt>
      <trkpt lat="45.05111" lon="5.97554">
        <ele>1258.5</ele>
        <time>2015-07-04T06:35:59Z</time>
      </trkpt>
      <trkpt lat="45.05103" lon="5.97561">
        <ele>1259.4</ele>
        <time>2015-07-04T06:36:05Z</time>
      </trkpt>
      <trkpt lat="45.05094" lon="5.97569">
        <ele>1260.1</ele>
        <time>2015-07-04T06:36:11Z</time>
      </trkpt>
      <trkpt lat="45.05085" lon="5.97579">
        <ele>1260.6</ele>
        <time>2015-07-04T06:36:17Z</time>
      </trkpt>
      <trkpt lat="45.05078" lon="5.97589">
        <ele>1261.1</ele>
        <time>2015-07-04T06:36:23Z</time>
      </trkpt>
      <trkpt lat="45.0507" lon="5.97599">
        <ele>1262.2</ele>
        <time>2015-07-04T06:36:29Z</time>
      </trkpt>
      <trkpt lat="45.05063" lon="5.97609">
        <ele>1263.1</ele>
        <time>2015-07-04T06:36:35Z</time>
      </trkpt>
      <trkpt lat="45.05056" lon="5.97619">
        <ele>1263.7</ele>
        <time>2015-07-04T06:36:41Z</time>
      </trkpt>
      <trkpt lat="45.05048" lon="5.97628">
        <ele>1264.6</ele>
        <time>2015-07-04T06:36:47Z</time>
      </trkpt>
      <trkpt lat="45.0504" lon="5.97637">
        <ele>1265.4</ele>
        <time>2015-07-04T06:36:53Z</time>
      </trkpt>
      <trkpt lat="45.05033" lon="5.97647">
        <ele>1266.5</ele>
        <time>2015-07-04T06:36:59Z</time>
      </trkpt>
      <trkpt lat="45.05026" lon="5.97657">
        <ele>1267.5</ele>
        <time>2015-07-04T06:37:05Z</time>
      </trkpt>
      <trkpt lat="45.05028" lon="5.9767">
        <ele>1268.6</ele>
        <time>2015-07-04T06:37:11Z</time>
      </trkpt>
      <trkpt lat="45.05037" lon="5.97667">
        <ele>1270.1</ele>
        <time>2015-07-04T06:37:18Z</time>
      </trkpt>
      <trkpt lat="45.05045" lon="5.97658">
        <ele>1271.4</ele>
        <time>2015-07-04T06:37:25Z</time>
      </trkpt>
      <trkpt lat="45.05053" lon="5.97651">
        <ele>1272.3</ele>
        <time>2015-07-04T06:37:32Z</time>
      </trkpt>
      <trkpt lat="45.05063" lon="5.97644">
        <ele>1273.3</ele>
        <time>2015-07-04T06:37:39Z</time>
      </trkpt>
      <trkpt lat="45.05072" lon="5.97637">
        <ele>1274.6</ele>
        <time>2015-07-04T06:37:46Z</time>
      </trkpt>
      <trkpt lat="45.0508" lon="5.97632">
        <ele>1275.5</ele>
        <time>2015-07-04T06:37:52Z</time>
      </trkpt>
      <trkpt lat="45.05088" lon="5.97626">
        <ele>1276.1</ele>
        <time>2015-07-04T06:37:58Z</time>
      </trkpt>
      <trkpt lat="45.05098" lon="5.9762">
        <ele>1277.5</ele>
        <time>2015-07-04T06:38:05Z</time>
      </trkpt>
      <trkpt lat="45.05107" lon="5.97617">
        <ele>1278.7</ele>
        <time>2015-07-04T06:38:11Z</time>
      </trkpt>
      <trkpt lat="45.05116" lon="5.97614">
        <ele>1279.6</ele>
        <time>2015-07-04T06:38:17Z</time>
      </trkpt>
      <trkpt lat="45.05132" lon="5.97607">
        <ele>1280</ele>
        <time>2015-07-04T06:38:25Z</time>
      </trkpt>
      <trkpt lat="45.05144" lon="5.97602">
        <ele>1282</ele>
        <time>2015-07-04T06:38:33Z</time>
      </trkpt>
      <trkpt lat="45.05156" lon="5.97598">
        <ele>1283.5</ele>
        <time>2015-07-04T06:38:40Z</time>
      </trkpt>
      <trkpt lat="45.05166" lon="5.97597">
        <ele>1284.6</ele>
        <time>2015-07-04T06:38:46Z</time>
      </trkpt>
      <trkpt lat="45.05175" lon="5.97597">
        <ele>1285.5</ele>
        <time>2015-07-04T06:38:52Z</time>
      </trkpt>
      <trkpt lat="45.05185" lon="5.97595">
        <ele>1286.5</ele>
        <time>2015-07-04T06:38:58Z</time>
      </trkpt>
      <trkpt lat="45.05195" lon="5.97592">
        <ele>1287.2</ele>
        <time>2015-07-04T06:39:04Z</time>
      </trkpt>
      <trkpt lat="45.05205" lon="5.97589">
        <ele>1288.1</ele>
        <time>2015-07-04T06:39:10Z</time>
      </trkpt>
      <trkpt lat="45.05219" lon="5.97584">
        <ele>1288</ele>
        <time>2015-07-04T06:39:18Z</time>
      </trkpt>
      <trkpt lat="45.05229" lon="5.97581">
        <ele>1290.5</ele>
        <time>2015-07-04T06:39:25Z</time>
      </trkpt>
      <trkpt lat="45.05239" lon="5.97579">
        <ele>1291.5</ele>
        <time>2015-07-04T06:39:31Z</time>
      </trkpt>
      <trkpt lat="45.05249" lon="5.97577">
        <ele>1292.4</ele>
        <time>2015-07-04T06:39:37Z</time>
      </trkpt>
      <trkpt lat="45.05259" lon="5.97574">
        <ele>1293.8</ele>
        <time>2015-07-04T06:39:43Z</time>
      </trkpt>
      <trkpt lat="45.05269" lon="5.97569">
        <ele>1294.8</ele>
        <time>2015-07-04T06:39:49Z</time>
      </trkpt>
      <trkpt lat="45.05278" lon="5.97562">
        <ele>1295.6</ele>
        <time>2015-07-04T06:39:55Z</time>
      </trkpt>
      <trkpt lat="45.05286" lon="5.97553">
        <ele>1296.7</ele>
        <time>2015-07-04T06:40:01Z</time>
      </trkpt>
      <trkpt lat="45.05294" lon="5.97545">
        <ele>1298.2</ele>
        <time>2015-07-04T06:40:07Z</time>
      </trkpt>
      <trkpt lat="45.05303" lon="5.97539">
        <ele>1299.5</ele>
        <time>2015-07-04T06:40:13Z</time>
      </trkpt>
      <trkpt lat="45.05313" lon="5.97535">
        <ele>1300.3</ele>
        <time>2015-07-04T06:40:19Z</time>
      </trkpt>
      <trkpt lat="45.05323" lon="5.97534">
        <ele>1301.1</ele>
        <time>2015-07-04T06:40:25Z</time>
      </trkpt>
      <trkpt lat="45.05333" lon="5.97535">
        <ele>1301.7</ele>
        <time>2015-07-04T06:40:30Z</time>
      </trkpt>
      <trkpt lat="45.05342" lon="5.97535">
        <ele>1302.4</ele>
        <time>2015-07-04T06:40:35Z</time>
      </trkpt>
      <trkpt lat="45.05351" lon="5.97536">
        <ele>1303.1</ele>
        <time>2015-07-04T06:40:40Z</time>
      </trkpt>
      <trkpt lat="45.05361" lon="5.97532">
        <ele>1304.1</ele>
        <time>2015-07-04T06:40:46Z</time>
      </trkpt>
      <trkpt lat="45.05369" lon="5.97524">
        <ele>1305.1</ele>
        <time>2015-07-04T06:40:52Z</time>
      </trkpt>
      <trkpt lat="45.05376" lon="5.97513">
        <ele>1306.1</ele>
        <time>2015-07-04T06:40:58Z</time>
      </trkpt>
      <trkpt lat="45.05382" lon="5.97502">
        <ele>1306.9</ele>
        <time>2015-07-04T06:41:04Z</time>
      </trkpt>
      <trkpt lat="45.05388" lon="5.9749">
        <ele>1308</ele>
        <time>2015-07-04T06:41:10Z</time>
      </trkpt>
      <trkpt lat="45.05394" lon="5.97478">
        <ele>1308.8</ele>
        <time>2015-07-04T06:41:16Z</time>
      </trkpt>
      <trkpt lat="45.05399" lon="5.97466">
        <ele>1309.6</ele>
        <time>2015-07-04T06:41:22Z</time>
      </trkpt>
      <trkpt lat="45.05404" lon="5.97454">
        <ele>1310.8</ele>
        <time>2015-07-04T06:41:28Z</time>
      </trkpt>
      <trkpt lat="45.05409" lon="5.97443">
        <ele>1311.7</ele>
        <time>2015-07-04T06:41:34Z</time>
      </trkpt>
      <trkpt lat="45.05414" lon="5.97432">
        <ele>1312.5</ele>
        <time>2015-07-04T06:41:40Z</time>
      </trkpt>
      <trkpt lat="45.0542" lon="5.97421">
        <ele>1314.2</ele>
        <time>2015-07-04T06:41:46Z</time>
      </trkpt>
      <trkpt lat="45.05426" lon="5.97412">
        <ele>1315.5</ele>
        <time>2015-07-04T06:41:52Z</time>
      </trkpt>
      <trkpt lat="45.05433" lon="5.97403">
        <ele>1316.5</ele>
        <time>2015-07-04T06:41:58Z</time>
      </trkpt>
      <trkpt lat="45.05439" lon="5.97393">
        <ele>1317.5</ele>
        <time>2015-07-04T06:42:04Z</time>
      </trkpt>
      <trkpt lat="45.05445" lon="5.97384">
        <ele>1318.5</ele>
        <time>2015-07-04T06:42:10Z</time>
      </trkpt>
      <trkpt lat="45.05452" lon="5.97373">
        <ele>1320.6</ele>
        <time>2015-07-04T06:42:17Z</time>
      </trkpt>
      <trkpt lat="45.05458" lon="5.97362">
        <ele>1321.4</ele>
        <time>2015-07-04T06:42:24Z</time>
      </trkpt>
      <trkpt lat="45.05465" lon="5.97353">
        <ele>1322.4</ele>
        <time>2015-07-04T06:42:31Z</time>
      </trkpt>
      <trkpt lat="45.05474" lon="5.97357">
        <ele>1323.7</ele>
        <time>2015-07-04T06:42:39Z</time>
      </trkpt>
      <trkpt lat="45.0547" lon="5.97369">
        <ele>1324.4</ele>
        <time>2015-07-04T06:42:45Z</time>
      </trkpt>
      <trkpt lat="45.05465" lon="5.9738">
        <ele>1325.3</ele>
        <time>2015-07-04T06:42:51Z</time>
      </trkpt>
      <trkpt lat="45.05461" lon="5.97392">
        <ele>1326.4</ele>
        <time>2015-07-04T06:42:57Z</time>
      </trkpt>
      <trkpt lat="45.05458" lon="5.97406">
        <ele>1327.4</ele>
        <time>2015-07-04T06:43:03Z</time>
      </trkpt>
      <trkpt lat="45.05456" lon="5.97419">
        <ele>1328.3</ele>
        <time>2015-07-04T06:43:09Z</time>
      </trkpt>
      <trkpt lat="45.05454" lon="5.97432">
        <ele>1329.1</ele>
        <time>2015-07-04T06:43:15Z</time>
      </trkpt>
      <trkpt lat="45.05452" lon="5.97446">
        <ele>1330</ele>
        <time>2015-07-04T06:43:21Z</time>
      </trkpt>
      <trkpt lat="45.0545" lon="5.97461">
        <ele>1331</ele>
        <time>2015-07-04T06:43:27Z</time>
      </trkpt>
      <trkpt lat="45.05448" lon="5.97475">
        <ele>1331.9</ele>
        <time>2015-07-04T06:43:33Z</time>
      </trkpt>
      <trkpt lat="45.05447" lon="5.97489">
        <ele>1332.7</ele>
        <time>2015-07-04T06:43:39Z</time>
      </trkpt>
      <trkpt lat="45.05446" lon="5.97503">
        <ele>1333.4</ele>
        <time>2015-07-04T06:43:45Z</time>
      </trkpt>
      <trkpt lat="45.05445" lon="5.97518">
        <ele>1334.1</ele>
        <time>2015-07-04T06:43:51Z</time>
      </trkpt>
      <trkpt lat="45.05444" lon="5.97531">
        <ele>1335.2</ele>
        <time>2015-07-04T06:43:57Z</time>
      </trkpt>
      <trkpt lat="45.05443" lon="5.97545">
        <ele>1336.2</ele>
        <time>2015-07-04T06:44:03Z</time>
      </trkpt>
      <trkpt lat="45.05452" lon="5.97552">
        <ele>1337.2</ele>
        <time>2015-07-04T06:44:10Z</time>
      </trkpt>
      <trkpt lat="45.05456" lon="5.97539">
        <ele>1337</ele>
        <time>2015-07-04T06:44:16Z</time>
      </trkpt>
      <trkpt lat="45.05459" lon="5.97527">
        <ele>1338.9</ele>
        <time>2015-07-04T06:44:23Z</time>
      </trkpt>
      <trkpt lat="45.05464" lon="5.97515">
        <ele>1340.2</ele>
        <time>2015-07-04T06:44:30Z</time>
      </trkpt>
      <trkpt lat="45.0547" lon="5.97503">
        <ele>1341.1</ele>
        <time>2015-07-04T06:44:37Z</time>
      </trkpt>
      <trkpt lat="45.05475" lon="5.9749">
        <ele>1342.1</ele>
        <time>2015-07-04T06:44:44Z</time>
      </trkpt>
      <trkpt lat="45.0548" lon="5.97477">
        <ele>1343.5</ele>
        <time>2015-07-04T06:44:51Z</time>
      </trkpt>
      <trkpt lat="45.05484" lon="5.97464">
        <ele>1344.7</ele>
        <time>2015-07-04T06:44:58Z</time>
      </trkpt>
      <trkpt lat="45.05489" lon="5.97452">
        <ele>1345.7</ele>
        <time>2015-07-04T06:45:05Z</time>
      </trkpt>
      <trkpt lat="45.05493" lon="5.97439">
        <ele>1346.7</ele>
        <time>2015-07-04T06:45:12Z</time>
      </trkpt>
      <trkpt lat="45.05499" lon="5.97428">
        <ele>1348</ele>
        <time>2015-07-04T06:45:19Z</time>
      </trkpt>
      <trkpt lat="45.05507" lon="5.97422">
        <ele>1348.7</ele>
        <time>2015-07-04T06:45:25Z</time>
      </trkpt>
      <trkpt lat="45.05518" lon="5.97422">
        <ele>1349.9</ele>
        <time>2015-07-04T06:45:32Z</time>
      </trkpt>
      <trkpt lat="45.05527" lon="5.97422">
        <ele>1351.1</ele>
        <time>2015-07-04T06:45:38Z</time>
      </trkpt>
      <trkpt lat="45.05537" lon="5.97423">
        <ele>1352.5</ele>
        <time>2015-07-04T06:45:45Z</time>
      </trkpt>
      <trkpt lat="45.05546" lon="5.97426">
        <ele>1353.3</ele>
        <time>2015-07-04T06:45:51Z</time>
      </trkpt>
      <trkpt lat="45.05555" lon="5.9743">
        <ele>1354.1</ele>
        <time>2015-07-04T06:45:58Z</time>
      </trkpt>
      <trkpt lat="45.05565" lon="5.97433">
        <ele>1355</ele>
        <time>2015-07-04T06:46:05Z</time>
      </trkpt>
      <trkpt lat="45.05575" lon="5.97433">
        <ele>1356.4</ele>
        <time>2015-07-04T06:46:12Z</time>
      </trkpt>
      <trkpt lat="45.05584" lon="5.9743">
        <ele>1357.5</ele>
        <time>2015-07-04T06:46:19Z</time>
      </trkpt>
      <trkpt lat="45.05595" lon="5.97427">
        <ele>1358.5</ele>
        <time>2015-07-04T06:46:26Z</time>
      </trkpt>
      <trkpt lat="45.05604" lon="5.97424">
        <ele>1359.9</ele>
        <time>2015-07-04T06:46:33Z</time>
      </trkpt>
      <trkpt lat="45.05615" lon="5.97424">
        <ele>1360.9</ele>
        <time>2015-07-04T06:46:40Z</time>
      </trkpt>
      <trkpt lat="45.05624" lon="5.97422">
        <ele>1361.9</ele>
        <time>2015-07-04T06:46:47Z</time>
      </trkpt>
      <trkpt lat="45.05633" lon="5.97425">
        <ele>1362.9</ele>
        <time>2015-07-04T06:46:53Z</time>
      </trkpt>
      <trkpt lat="45.05642" lon="5.97429">
        <ele>1364</ele>
        <time>2015-07-04T06:47:00Z</time>
      </trkpt>
      <trkpt lat="45.0565" lon="5.97425">
        <ele>1368.8</ele>
        <time>2015-07-04T06:54:19Z</time>
      </trkpt>
      <trkpt lat="45.0566" lon="5.97428">
        <ele>1368.2</ele>
        <time>2015-07-04T06:55:44Z</time>
      </trkpt>
      <trkpt lat="45.05668" lon="5.97434">
        <ele>1368.2</ele>
        <time>2015-07-04T06:55:51Z</time>
      </trkpt>
      <trkpt lat="45.05677" lon="5.9744">
        <ele>1368.7</ele>
        <time>2015-07-04T06:55:58Z</time>
      </trkpt>
      <trkpt lat="45.05687" lon="5.97444">
        <ele>1369.3</ele>
        <time>2015-07-04T06:56:05Z</time>
      </trkpt>
      <trkpt lat="45.05699" lon="5.97448">
        <ele>1370.1</ele>
        <time>2015-07-04T06:56:14Z</time>
      </trkpt>
      <trkpt lat="45.05708" lon="5.97449">
        <ele>1371</ele>
        <time>2015-07-04T06:56:20Z</time>
      </trkpt>
      <trkpt lat="45.05718" lon="5.97448">
        <ele>1372.2</ele>
        <time>2015-07-04T06:56:27Z</time>
      </trkpt>
      <trkpt lat="45.05728" lon="5.97448">
        <ele>1373.7</ele>
        <time>2015-07-04T06:56:35Z</time>
      </trkpt>
      <trkpt lat="45.05738" lon="5.97446">
        <ele>1374.9</ele>
        <time>2015-07-04T06:56:42Z</time>
      </trkpt>
      <trkpt lat="45.05747" lon="5.97445">
        <ele>1376.1</ele>
        <time>2015-07-04T06:56:49Z</time>
      </trkpt>
      <trkpt lat="45.05757" lon="5.97443">
        <ele>1377.3</ele>
        <time>2015-07-04T06:56:56Z</time>
      </trkpt>
      <trkpt lat="45.05766" lon="5.9744">
        <ele>1378.1</ele>
        <time>2015-07-04T06:57:03Z</time>
      </trkpt>
      <trkpt lat="45.05776" lon="5.97438">
        <ele>1378.7</ele>
        <time>2015-07-04T06:57:10Z</time>
      </trkpt>
      <trkpt lat="45.05785" lon="5.97438">
        <ele>1379.3</ele>
        <time>2015-07-04T06:57:17Z</time>
      </trkpt>
      <trkpt lat="45.05794" lon="5.97439">
        <ele>1380.5</ele>
        <time>2015-07-04T06:57:24Z</time>
      </trkpt>
      <trkpt lat="45.05803" lon="5.97439">
        <ele>1381.6</ele>
        <time>2015-07-04T06:57:31Z</time>
      </trkpt>
      <trkpt lat="45.05813" lon="5.97438">
        <ele>1382.5</ele>
        <time>2015-07-04T06:57:38Z</time>
      </trkpt>
      <trkpt lat="45.05822" lon="5.97434">
        <ele>1383.4</ele>
        <time>2015-07-04T06:57:45Z</time>
      </trkpt>
      <trkpt lat="45.0583" lon="5.97427">
        <ele>1384.1</ele>
        <time>2015-07-04T06:57:52Z</time>
      </trkpt>
      <trkpt lat="45.05835" lon="5.97414">
        <ele>1385.4</ele>
        <time>2015-07-04T06:58:00Z</time>
      </trkpt>
      <trkpt lat="45.05838" lon="5.97402">
        <ele>1386.5</ele>
        <time>2015-07-04T06:58:07Z</time>
      </trkpt>
      <trkpt lat="45.05839" lon="5.97388">
        <ele>1387.6</ele>
        <time>2015-07-04T06:58:14Z</time>
      </trkpt>
      <trkpt lat="45.05839" lon="5.97374">
        <ele>1388.9</ele>
        <time>2015-07-04T06:58:21Z</time>
      </trkpt>
      <trkpt lat="45.05838" lon="5.97361">
        <ele>1390.1</ele>
        <time>2015-07-04T06:58:28Z</time>
      </trkpt>
      <trkpt lat="45.05837" lon="5.97347">
        <ele>1391.5</ele>
        <time>2015-07-04T06:58:36Z</time>
      </trkpt>
      <trkpt lat="45.05834" lon="5.97334">
        <ele>1392.7</ele>
        <time>2015-07-04T06:58:43Z</time>
      </trkpt>
      <trkpt lat="45.05826" lon="5.97325">
        <ele>1393.7</ele>
        <time>2015-07-04T06:58:50Z</time>
      </trkpt>
      <trkpt lat="45.05819" lon="5.97317">
        <ele>1394.5</ele>
        <time>2015-07-04T06:58:57Z</time>
      </trkpt>
      <trkpt lat="45.05812" lon="5.97306">
        <ele>1395.7</ele>
        <time>2015-07-04T06:59:04Z</time>
      </trkpt>
      <trkpt lat="45.05805" lon="5.97296">
        <ele>1396.6</ele>
        <time>2015-07-04T06:59:11Z</time>
      </trkpt>
      <trkpt lat="45.05798" lon="5.97287">
        <ele>1397.2</ele>
        <time>2015-07-04T06:59:18Z</time>
      </trkpt>
      <trkpt lat="45.05792" lon="5.97277">
        <ele>1398.6</ele>
        <time>2015-07-04T06:59:25Z</time>
      </trkpt>
      <trkpt lat="45.05788" lon="5.97265">
        <ele>1399.8</ele>
        <time>2015-07-04T06:59:32Z</time>
      </trkpt>
      <trkpt lat="45.05788" lon="5.97251">
        <ele>1400.9</ele>
        <time>2015-07-04T06:59:40Z</time>
      </trkpt>
      <trkpt lat="45.05793" lon="5.9724">
        <ele>1401.8</ele>
        <time>2015-07-04T06:59:47Z</time>
      </trkpt>
      <trkpt lat="45.05798" lon="5.9723">
        <ele>1402.9</ele>
        <time>2015-07-04T06:59:54Z</time>
      </trkpt>
      <trkpt lat="45.05805" lon="5.97219">
        <ele>1403.7</ele>
        <time>2015-07-04T07:00:01Z</time>
      </trkpt>
      <trkpt lat="45.05806" lon="5.97205">
        <ele>1405.1</ele>
        <time>2015-07-04T07:00:08Z</time>
      </trkpt>
      <trkpt lat="45.05801" lon="5.97193">
        <ele>1406</ele>
        <time>2015-07-04T07:00:15Z</time>
      </trkpt>
      <trkpt lat="45.05794" lon="5.97183">
        <ele>1406.7</ele>
        <time>2015-07-04T07:00:22Z</time>
      </trkpt>
      <trkpt lat="45.05787" lon="5.97173">
        <ele>1408</ele>
        <time>2015-07-04T07:00:30Z</time>
      </trkpt>
      <trkpt lat="45.0578" lon="5.97165">
        <ele>1408.8</ele>
        <time>2015-07-04T07:00:37Z</time>
      </trkpt>
      <trkpt lat="45.05773" lon="5.97155">
        <ele>1409.6</ele>
        <time>2015-07-04T07:00:44Z</time>
      </trkpt>
      <trkpt lat="45.05769" lon="5.97143">
        <ele>1410.5</ele>
        <time>2015-07-04T07:00:51Z</time>
      </trkpt>
      <trkpt lat="45.05764" lon="5.97131">
        <ele>1411.7</ele>
        <time>2015-07-04T07:00:57Z</time>
      </trkpt>
      <trkpt lat="45.05758" lon="5.97121">
        <ele>1412.7</ele>
        <time>2015-07-04T07:01:04Z</time>
      </trkpt>
      <trkpt lat="45.05752" lon="5.97109">
        <ele>1413.7</ele>
        <time>2015-07-04T07:01:11Z</time>
      </trkpt>
      <trkpt lat="45.05746" lon="5.97098">
        <ele>1414.9</ele>
        <time>2015-07-04T07:01:18Z</time>
      </trkpt>
      <trkpt lat="45.05741" lon="5.97086">
        <ele>1415.8</ele>
        <time>2015-07-04T07:01:25Z</time>
      </trkpt>
      <trkpt lat="45.05735" lon="5.97075">
        <ele>1416.9</ele>
        <time>2015-07-04T07:01:32Z</time>
      </trkpt>
      <trkpt lat="45.0573" lon="5.97064">
        <ele>1417.7</ele>
        <time>2015-07-04T07:01:38Z</time>
      </trkpt>
      <trkpt lat="45.05726" lon="5.97051">
        <ele>1418.5</ele>
        <time>2015-07-04T07:01:45Z</time>
      </trkpt>
      <trkpt lat="45.0572" lon="5.9704">
        <ele>1419.6</ele>
        <time>2015-07-04T07:01:52Z</time>
      </trkpt>
      <trkpt lat="45.05713" lon="5.97031">
        <ele>1420.7</ele>
        <time>2015-07-04T07:01:59Z</time>
      </trkpt>
      <trkpt lat="45.05706" lon="5.97021">
        <ele>1421.6</ele>
        <time>2015-07-04T07:02:06Z</time>
      </trkpt>
      <trkpt lat="45.057" lon="5.97011">
        <ele>1422.9</ele>
        <time>2015-07-04T07:02:13Z</time>
      </trkpt>
      <trkpt lat="45.05694" lon="5.97">
        <ele>1423.8</ele>
        <time>2015-07-04T07:02:20Z</time>
      </trkpt>
      <trkpt lat="45.05689" lon="5.96989">
        <ele>1424.7</ele>
        <time>2015-07-04T07:02:27Z</time>
      </trkpt>
      <trkpt lat="45.05685" lon="5.96976">
        <ele>1425.8</ele>
        <time>2015-07-04T07:02:34Z</time>
      </trkpt>
      <trkpt lat="45.05684" lon="5.96962">
        <ele>1426.8</ele>
        <time>2015-07-04T07:02:42Z</time>
      </trkpt>
      <trkpt lat="45.05688" lon="5.96951">
        <ele>1427.9</ele>
        <time>2015-07-04T07:02:49Z</time>
      </trkpt>
      <trkpt lat="45.05695" lon="5.96941">
        <ele>1428.9</ele>
        <time>2015-07-04T07:02:56Z</time>
      </trkpt>
      <trkpt lat="45.05704" lon="5.96933">
        <ele>1429.7</ele>
        <time>2015-07-04T07:03:03Z</time>
      </trkpt>
      <trkpt lat="45.05712" lon="5.96925">
        <ele>1430.5</ele>
        <time>2015-07-04T07:03:10Z</time>
      </trkpt>
      <trkpt lat="45.0572" lon="5.96918">
        <ele>1431.8</ele>
        <time>2015-07-04T07:03:17Z</time>
      </trkpt>
      <trkpt lat="45.05728" lon="5.9691">
        <ele>1433.1</ele>
        <time>2015-07-04T07:03:24Z</time>
      </trkpt>
      <trkpt lat="45.05736" lon="5.96902">
        <ele>1434</ele>
        <time>2015-07-04T07:03:31Z</time>
      </trkpt>
      <trkpt lat="45.05743" lon="5.96895">
        <ele>1434.7</ele>
        <time>2015-07-04T07:03:38Z</time>
      </trkpt>
      <trkpt lat="45.05752" lon="5.96886">
        <ele>1435.7</ele>
        <time>2015-07-04T07:03:46Z</time>
      </trkpt>
      <trkpt lat="45.05759" lon="5.96878">
        <ele>1436.6</ele>
        <time>2015-07-04T07:03:53Z</time>
      </trkpt>
      <trkpt lat="45.05762" lon="5.96865">
        <ele>1438.1</ele>
        <time>2015-07-04T07:03:59Z</time>
      </trkpt>
      <trkpt lat="45.05758" lon="5.96852">
        <ele>1439.3</ele>
        <time>2015-07-04T07:04:06Z</time>
      </trkpt>
      <trkpt lat="45.05751" lon="5.96843">
        <ele>1440.2</ele>
        <time>2015-07-04T07:04:13Z</time>
      </trkpt>
      <trkpt lat="45.05743" lon="5.96836">
        <ele>1441.1</ele>
        <time>2015-07-04T07:04:20Z</time>
      </trkpt>
      <trkpt lat="45.05736" lon="5.96827">
        <ele>1442.2</ele>
        <time>2015-07-04T07:04:28Z</time>
      </trkpt>
      <trkpt lat="45.05729" lon="5.96818">
        <ele>1443.1</ele>
        <time>2015-07-04T07:04:36Z</time>
      </trkpt>
      <trkpt lat="45.05727" lon="5.96805">
        <ele>1443.7</ele>
        <time>2015-07-04T07:04:43Z</time>
      </trkpt>
      <trkpt lat="45.05727" lon="5.96791">
        <ele>1444.8</ele>
        <time>2015-07-04T07:04:50Z</time>
      </trkpt>
      <trkpt lat="45.05725" lon="5.96777">
        <ele>1446.1</ele>
        <time>2015-07-04T07:04:57Z</time>
      </trkpt>
      <trkpt lat="45.05721" lon="5.96766">
        <ele>1447.2</ele>
        <time>2015-07-04T07:05:05Z</time>
      </trkpt>
      <trkpt lat="45.05716" lon="5.96754">
        <ele>1448.1</ele>
        <time>2015-07-04T07:05:12Z</time>
      </trkpt>
      <trkpt lat="45.05713" lon="5.96742">
        <ele>1449.1</ele>
        <time>2015-07-04T07:05:19Z</time>
      </trkpt>
      <trkpt lat="45.05709" lon="5.96729">
        <ele>1450</ele>
        <time>2015-07-04T07:05:26Z</time>
      </trkpt>
      <trkpt lat="45.05704" lon="5.96716">
        <ele>1451.1</ele>
        <time>2015-07-04T07:05:33Z</time>
      </trkpt>
      <trkpt lat="45.05702" lon="5.96703">
        <ele>1452.4</ele>
        <time>2015-07-04T07:05:40Z</time>
      </trkpt>
      <trkpt lat="45.05701" lon="5.9669">
        <ele>1453.2</ele>
        <time>2015-07-04T07:05:47Z</time>
      </trkpt>
      <trkpt lat="45.057" lon="5.96678">
        <ele>1454</ele>
        <time>2015-07-04T07:05:54Z</time>
      </trkpt>
      <trkpt lat="45.057" lon="5.96664">
        <ele>1454.9</ele>
        <time>2015-07-04T07:06:01Z</time>
      </trkpt>
      <trkpt lat="45.05703" lon="5.96652">
        <ele>1455.6</ele>
        <time>2015-07-04T07:06:07Z</time>
      </trkpt>
      <trkpt lat="45.05705" lon="5.96638">
        <ele>1456.4</ele>
        <time>2015-07-04T07:06:14Z</time>
      </trkpt>
      <trkpt lat="45.05703" lon="5.96625">
        <ele>1457</ele>
        <time>2015-07-04T07:06:21Z</time>
      </trkpt>
      <trkpt lat="45.05697" lon="5.96616">
        <ele>1458.4</ele>
        <time>2015-07-04T07:06:29Z</time>
      </trkpt>
      <trkpt lat="45.05688" lon="5.96614">
        <ele>1459.7</ele>
        <time>2015-07-04T07:06:37Z</time>
      </trkpt>
      <trkpt lat="45.05678" lon="5.96613">
        <ele>1461.2</ele>
        <time>2015-07-04T07:06:44Z</time>
      </trkpt>
      <trkpt lat="45.05669" lon="5.96612">
        <ele>1462.4</ele>
        <time>2015-07-04T07:06:51Z</time>
      </trkpt>
      <trkpt lat="45.0566" lon="5.96607">
        <ele>1463.3</ele>
        <time>2015-07-04T07:06:58Z</time>
      </trkpt>
      <trkpt lat="45.05655" lon="5.96594">
        <ele>1464.5</ele>
        <time>2015-07-04T07:07:05Z</time>
      </trkpt>
      <trkpt lat="45.05655" lon="5.96581">
        <ele>1465.2</ele>
        <time>2015-07-04T07:07:11Z</time>
      </trkpt>
      <trkpt lat="45.05658" lon="5.96567">
        <ele>1465.7</ele>
        <time>2015-07-04T07:07:17Z</time>
      </trkpt>
      <trkpt lat="45.05655" lon="5.96554">
        <ele>1466.2</ele>
        <time>2015-07-04T07:07:24Z</time>
      </trkpt>
      <trkpt lat="45.05649" lon="5.96545">
        <ele>1467</ele>
        <time>2015-07-04T07:07:30Z</time>
      </trkpt>
      <trkpt lat="45.05643" lon="5.96534">
        <ele>1468.2</ele>
        <time>2015-07-04T07:07:37Z</time>
      </trkpt>
      <trkpt lat="45.0564" lon="5.96521">
        <ele>1469.5</ele>
        <time>2015-07-04T07:07:44Z</time>
      </trkpt>
      <trkpt lat="45.05639" lon="5.96509">
        <ele>1470.5</ele>
        <time>2015-07-04T07:07:51Z</time>
      </trkpt>
      <trkpt lat="45.05637" lon="5.96495">
        <ele>1471.4</ele>
        <time>2015-07-04T07:07:58Z</time>
      </trkpt>
      <trkpt lat="45.05634" lon="5.96482">
        <ele>1472.2</ele>
        <time>2015-07-04T07:08:05Z</time>
      </trkpt>
      <trkpt lat="45.05631" lon="5.96469">
        <ele>1473.4</ele>
        <time>2015-07-04T07:08:12Z</time>
      </trkpt>
      <trkpt lat="45.05629" lon="5.96456">
        <ele>1474.3</ele>
        <time>2015-07-04T07:08:19Z</time>
      </trkpt>
      <trkpt lat="45.05626" lon="5.96443">
        <ele>1475</ele>
        <time>2015-07-04T07:08:25Z</time>
      </trkpt>
      <trkpt lat="45.05621" lon="5.96432">
        <ele>1475.9</ele>
        <time>2015-07-04T07:08:31Z</time>
      </trkpt>
      <trkpt lat="45.05614" lon="5.96422">
        <ele>1476.8</ele>
        <time>2015-07-04T07:08:37Z</time>
      </trkpt>
      <trkpt lat="45.05607" lon="5.96412">
        <ele>1477.7</ele>
        <time>2015-07-04T07:08:44Z</time>
      </trkpt>
      <trkpt lat="45.05601" lon="5.96403">
        <ele>1478.3</ele>
        <time>2015-07-04T07:08:50Z</time>
      </trkpt>
      <trkpt lat="45.05596" lon="5.96391">
        <ele>1479</ele>
        <time>2015-07-04T07:08:56Z</time>
      </trkpt>
      <trkpt lat="45.05592" lon="5.9638">
        <ele>1480.1</ele>
        <time>2015-07-04T07:09:03Z</time>
      </trkpt>
      <trkpt lat="45.05587" lon="5.96368">
        <ele>1481.4</ele>
        <time>2015-07-04T07:09:11Z</time>
      </trkpt>
      <trkpt lat="45.0558" lon="5.96358">
        <ele>1482.7</ele>
        <time>2015-07-04T07:09:18Z</time>
      </trkpt>
      <trkpt lat="45.05572" lon="5.9635">
        <ele>1483.6</ele>
        <time>2015-07-04T07:09:25Z</time>
      </trkpt>
      <trkpt lat="45.05565" lon="5.96341">
        <ele>1484.6</ele>
        <time>2015-07-04T07:09:31Z</time>
      </trkpt>
      <trkpt lat="45.0556" lon="5.96328">
        <ele>1485.5</ele>
        <time>2015-07-04T07:09:38Z</time>
      </trkpt>
      <trkpt lat="45.05556" lon="5.96316">
        <ele>1486.2</ele>
        <time>2015-07-04T07:09:44Z</time>
      </trkpt>
      <trkpt lat="45.05553" lon="5.96303">
        <ele>1487.4</ele>
        <time>2015-07-04T07:09:51Z</time>
      </trkpt>
      <trkpt lat="45.05546" lon="5.96294">
        <ele>1488.5</ele>
        <time>2015-07-04T07:09:59Z</time>
      </trkpt>
      <trkpt lat="45.05536" lon="5.96292">
        <ele>1489</ele>
        <time>2015-07-04T07:10:06Z</time>
      </trkpt>
      <trkpt lat="45.05527" lon="5.96285">
        <ele>1489.8</ele>
        <time>2015-07-04T07:10:13Z</time>
      </trkpt>
      <trkpt lat="45.0552" lon="5.96277">
        <ele>1490.9</ele>
        <time>2015-07-04T07:10:19Z</time>
      </trkpt>
      <trkpt lat="45.05514" lon="5.96267">
        <ele>1492.6</ele>
        <time>2015-07-04T07:10:26Z</time>
      </trkpt>
      <trkpt lat="45.05508" lon="5.96257">
        <ele>1493.8</ele>
        <time>2015-07-04T07:10:33Z</time>
      </trkpt>
      <trkpt lat="45.05503" lon="5.96245">
        <ele>1495.2</ele>
        <time>2015-07-04T07:10:41Z</time>
      </trkpt>
      <trkpt lat="45.05498" lon="5.96233">
        <ele>1496</ele>
        <time>2015-07-04T07:10:48Z</time>
      </trkpt>
      <trkpt lat="45.05493" lon="5.96221">
        <ele>1496.5</ele>
        <time>2015-07-04T07:10:54Z</time>
      </trkpt>
      <trkpt lat="45.0549" lon="5.96207">
        <ele>1497.4</ele>
        <time>2015-07-04T07:11:01Z</time>
      </trkpt>
      <trkpt lat="45.05486" lon="5.96195">
        <ele>1498</ele>
        <time>2015-07-04T07:11:07Z</time>
      </trkpt>
      <trkpt lat="45.05483" lon="5.96181">
        <ele>1499</ele>
        <time>2015-07-04T07:11:14Z</time>
      </trkpt>
      <trkpt lat="45.05482" lon="5.96167">
        <ele>1500</ele>
        <time>2015-07-04T07:11:21Z</time>
      </trkpt>
      <trkpt lat="45.05481" lon="5.96153">
        <ele>1500.9</ele>
        <time>2015-07-04T07:11:27Z</time>
      </trkpt>
      <trkpt lat="45.05481" lon="5.96141">
        <ele>1501.5</ele>
        <time>2015-07-04T07:11:33Z</time>
      </trkpt>
      <trkpt lat="45.05484" lon="5.96127">
        <ele>1502.5</ele>
        <time>2015-07-04T07:11:40Z</time>
      </trkpt>
      <trkpt lat="45.05487" lon="5.96114">
        <ele>1503.4</ele>
        <time>2015-07-04T07:11:47Z</time>
      </trkpt>
      <trkpt lat="45.05487" lon="5.961">
        <ele>1504.2</ele>
        <time>2015-07-04T07:11:53Z</time>
      </trkpt>
      <trkpt lat="45.05489" lon="5.96087">
        <ele>1505.4</ele>
        <time>2015-07-04T07:11:59Z</time>
      </trkpt>
      <trkpt lat="45.05489" lon="5.96072">
        <ele>1506.2</ele>
        <time>2015-07-04T07:12:06Z</time>
      </trkpt>
      <trkpt lat="45.05487" lon="5.96058">
        <ele>1507.3</ele>
        <time>2015-07-04T07:12:12Z</time>
      </trkpt>
      <trkpt lat="45.05479" lon="5.96045">
        <ele>1507.9</ele>
        <time>2015-07-04T07:12:17Z</time>
      </trkpt>
      <trkpt lat="45.05472" lon="5.96038">
        <ele>1508.2</ele>
        <time>2015-07-04T07:12:20Z</time>
      </trkpt>
      <trkpt lat="45.05463" lon="5.96035">
        <ele>1508.7</ele>
        <time>2015-07-04T07:12:24Z</time>
      </trkpt>
      <trkpt lat="45.05453" lon="5.96037">
        <ele>1509.4</ele>
        <time>2015-07-04T07:12:30Z</time>
      </trkpt>
      <trkpt lat="45.05447" lon="5.96049">
        <ele>1509.9</ele>
        <time>2015-07-04T07:12:36Z</time>
      </trkpt>
      <trkpt lat="45.05442" lon="5.96061">
        <ele>1510.3</ele>
        <time>2015-07-04T07:12:42Z</time>
      </trkpt>
      <trkpt lat="45.05435" lon="5.9607">
        <ele>1511</ele>
        <time>2015-07-04T07:12:50Z</time>
      </trkpt>
      <trkpt lat="45.05426" lon="5.96073">
        <ele>1511.8</ele>
        <time>2015-07-04T07:12:58Z</time>
      </trkpt>
      <trkpt lat="45.05417" lon="5.96077">
        <ele>1512.5</ele>
        <time>2015-07-04T07:13:05Z</time>
      </trkpt>
      <trkpt lat="45.05407" lon="5.96081">
        <ele>1513.4</ele>
        <time>2015-07-04T07:13:12Z</time>
      </trkpt>
      <trkpt lat="45.05398" lon="5.96085">
        <ele>1514.2</ele>
        <time>2015-07-04T07:13:18Z</time>
      </trkpt>
      <trkpt lat="45.05389" lon="5.96088">
        <ele>1514.9</ele>
        <time>2015-07-04T07:13:24Z</time>
      </trkpt>
      <trkpt lat="45.05382" lon="5.96095">
        <ele>1515</ele>
        <time>2015-07-04T07:13:29Z</time>
      </trkpt>
      <trkpt lat="45.05371" lon="5.96108">
        <ele>1516</ele>
        <time>2015-07-04T07:13:37Z</time>
      </trkpt>
      <trkpt lat="45.05359" lon="5.96115">
        <ele>1517</ele>
        <time>2015-07-04T07:13:45Z</time>
      </trkpt>
      <trkpt lat="45.05347" lon="5.96121">
        <ele>1518</ele>
        <time>2015-07-04T07:13:53Z</time>
      </trkpt>
      <trkpt lat="45.05334" lon="5.96129">
        <ele>1520</ele>
        <time>2015-07-04T07:14:01Z</time>
      </trkpt>
      <trkpt lat="45.05323" lon="5.96137">
        <ele>1521</ele>
        <time>2015-07-04T07:14:09Z</time>
      </trkpt>
      <trkpt lat="45.05327" lon="5.9615">
        <ele>1522.8</ele>
        <time>2015-07-04T07:14:16Z</time>
      </trkpt>
      <trkpt lat="45.05322" lon="5.96162">
        <ele>1523.9</ele>
        <time>2015-07-04T07:14:25Z</time>
      </trkpt>
      <trkpt lat="45.05315" lon="5.96173">
        <ele>1525.3</ele>
        <time>2015-07-04T07:14:33Z</time>
      </trkpt>
      <trkpt lat="45.05309" lon="5.96183">
        <ele>1526.2</ele>
        <time>2015-07-04T07:14:40Z</time>
      </trkpt>
      <trkpt lat="45.05302" lon="5.96192">
        <ele>1527.1</ele>
        <time>2015-07-04T07:14:47Z</time>
      </trkpt>
      <trkpt lat="45.05295" lon="5.96201">
        <ele>1528.2</ele>
        <time>2015-07-04T07:14:54Z</time>
      </trkpt>
      <trkpt lat="45.05288" lon="5.96211">
        <ele>1528.9</ele>
        <time>2015-07-04T07:15:01Z</time>
      </trkpt>
      <trkpt lat="45.05279" lon="5.96217">
        <ele>1529.9</ele>
        <time>2015-07-04T07:15:08Z</time>
      </trkpt>
      <trkpt lat="45.05271" lon="5.96225">
        <ele>1531.4</ele>
        <time>2015-07-04T07:15:15Z</time>
      </trkpt>
      <trkpt lat="45.05262" lon="5.96231">
        <ele>1533</ele>
        <time>2015-07-04T07:15:22Z</time>
      </trkpt>
      <trkpt lat="45.05253" lon="5.96235">
        <ele>1534.1</ele>
        <time>2015-07-04T07:15:29Z</time>
      </trkpt>
      <trkpt lat="45.05244" lon="5.96231">
        <ele>1535.4</ele>
        <time>2015-07-04T07:15:36Z</time>
      </trkpt>
      <trkpt lat="45.05245" lon="5.96217">
        <ele>1536.6</ele>
        <time>2015-07-04T07:15:44Z</time>
      </trkpt>
      <trkpt lat="45.05255" lon="5.96216">
        <ele>1537.4</ele>
        <time>2015-07-04T07:15:51Z</time>
      </trkpt>
      <trkpt lat="45.05264" lon="5.96211">
        <ele>1538.1</ele>
        <time>2015-07-04T07:15:58Z</time>
      </trkpt>
      <trkpt lat="45.05271" lon="5.96202">
        <ele>1539.3</ele>
        <time>2015-07-04T07:16:06Z</time>
      </trkpt>
      <trkpt lat="45.05277" lon="5.96192">
        <ele>1540.5</ele>
        <time>2015-07-04T07:16:13Z</time>
      </trkpt>
      <trkpt lat="45.05284" lon="5.96182">
        <ele>1541.5</ele>
        <time>2015-07-04T07:16:20Z</time>
      </trkpt>
      <trkpt lat="45.05291" lon="5.96171">
        <ele>1542.5</ele>
        <time>2015-07-04T07:16:27Z</time>
      </trkpt>
      <trkpt lat="45.05296" lon="5.9616">
        <ele>1543.9</ele>
        <time>2015-07-04T07:16:34Z</time>
      </trkpt>
      <trkpt lat="45.05302" lon="5.96148">
        <ele>1545</ele>
        <time>2015-07-04T07:16:41Z</time>
      </trkpt>
      <trkpt lat="45.05307" lon="5.96137">
        <ele>1545.9</ele>
        <time>2015-07-04T07:16:48Z</time>
      </trkpt>
      <trkpt lat="45.0531" lon="5.96125">
        <ele>1546.7</ele>
        <time>2015-07-04T07:16:55Z</time>
      </trkpt>
      <trkpt lat="45.05314" lon="5.96113">
        <ele>1547.2</ele>
        <time>2015-07-04T07:17:02Z</time>
      </trkpt>
      <trkpt lat="45.05318" lon="5.961">
        <ele>1548.5</ele>
        <time>2015-07-04T07:17:09Z</time>
      </trkpt>
      <trkpt lat="45.05321" lon="5.96086">
        <ele>1549.3</ele>
        <time>2015-07-04T07:17:16Z</time>
      </trkpt>
      <trkpt lat="45.05326" lon="5.96075">
        <ele>1550.1</ele>
        <time>2015-07-04T07:17:23Z</time>
      </trkpt>
      <trkpt lat="45.05331" lon="5.96063">
        <ele>1551</ele>
        <time>2015-07-04T07:17:30Z</time>
      </trkpt>
      <trkpt lat="45.05338" lon="5.96053">
        <ele>1552.2</ele>
        <time>2015-07-04T07:17:38Z</time>
      </trkpt>
      <trkpt lat="45.05346" lon="5.96045">
        <ele>1553.2</ele>
        <time>2015-07-04T07:17:45Z</time>
      </trkpt>
      <trkpt lat="45.05353" lon="5.96036">
        <ele>1554.2</ele>
        <time>2015-07-04T07:17:52Z</time>
      </trkpt>
      <trkpt lat="45.05361" lon="5.96028">
        <ele>1555.4</ele>
        <time>2015-07-04T07:17:59Z</time>
      </trkpt>
      <trkpt lat="45.05368" lon="5.96017">
        <ele>1556.5</ele>
        <time>2015-07-04T07:18:06Z</time>
      </trkpt>
      <trkpt lat="45.05374" lon="5.96006">
        <ele>1557.6</ele>
        <time>2015-07-04T07:18:13Z</time>
      </trkpt>
      <trkpt lat="45.0538" lon="5.95995">
        <ele>1558.6</ele>
        <time>2015-07-04T07:18:20Z</time>
      </trkpt>
      <trkpt lat="45.05387" lon="5.95985">
        <ele>1559.7</ele>
        <time>2015-07-04T07:18:26Z</time>
      </trkpt>
      <trkpt lat="45.05393" lon="5.95975">
        <ele>1561.1</ele>
        <time>2015-07-04T07:18:33Z</time>
      </trkpt>
      <trkpt lat="45.054" lon="5.95966">
        <ele>1562</ele>
        <time>2015-07-04T07:18:39Z</time>
      </trkpt>
      <trkpt lat="45.05409" lon="5.9596">
        <ele>1563.2</ele>
        <time>2015-07-04T07:18:46Z</time>
      </trkpt>
      <trkpt lat="45.05418" lon="5.95955">
        <ele>1564.6</ele>
        <time>2015-07-04T07:18:53Z</time>
      </trkpt>
      <trkpt lat="45.05426" lon="5.95948">
        <ele>1565.5</ele>
        <time>2015-07-04T07:18:59Z</time>
      </trkpt>
      <trkpt lat="45.05433" lon="5.95939">
        <ele>1566.2</ele>
        <time>2015-07-04T07:19:07Z</time>
      </trkpt>
      <trkpt lat="45.05442" lon="5.95931">
        <ele>1567.1</ele>
        <time>2015-07-04T07:19:15Z</time>
      </trkpt>
      <trkpt lat="45.05449" lon="5.9592">
        <ele>1568.4</ele>
        <time>2015-07-04T07:19:22Z</time>
      </trkpt>
      <trkpt lat="45.05445" lon="5.95908">
        <ele>1569.6</ele>
        <time>2015-07-04T07:19:30Z</time>
      </trkpt>
      <trkpt lat="45.05435" lon="5.95912">
        <ele>1570.7</ele>
        <time>2015-07-04T07:19:38Z</time>
      </trkpt>
      <trkpt lat="45.05427" lon="5.95916">
        <ele>1571.9</ele>
        <time>2015-07-04T07:19:46Z</time>
      </trkpt>
      <trkpt lat="45.05417" lon="5.95918">
        <ele>1572</ele>
        <time>2015-07-04T07:19:54Z</time>
      </trkpt>
      <trkpt lat="45.05407" lon="5.9592">
        <ele>1574.3</ele>
        <time>2015-07-04T07:20:02Z</time>
      </trkpt>
      <trkpt lat="45.05398" lon="5.95922">
        <ele>1576</ele>
        <time>2015-07-04T07:20:10Z</time>
      </trkpt>
      <trkpt lat="45.05389" lon="5.95927">
        <ele>1577.2</ele>
        <time>2015-07-04T07:20:18Z</time>
      </trkpt>
      <trkpt lat="45.05381" lon="5.95933">
        <ele>1578.3</ele>
        <time>2015-07-04T07:20:25Z</time>
      </trkpt>
      <trkpt lat="45.05373" lon="5.95939">
        <ele>1579.6</ele>
        <time>2015-07-04T07:20:32Z</time>
      </trkpt>
      <trkpt lat="45.05365" lon="5.95945">
        <ele>1580.6</ele>
        <time>2015-07-04T07:20:39Z</time>
      </trkpt>
      <trkpt lat="45.05356" lon="5.95952">
        <ele>1581.2</ele>
        <time>2015-07-04T07:20:46Z</time>
      </trkpt>
      <trkpt lat="45.05347" lon="5.95958">
        <ele>1582.1</ele>
        <time>2015-07-04T07:20:53Z</time>
      </trkpt>
      <trkpt lat="45.05338" lon="5.95963">
        <ele>1583.3</ele>
        <time>2015-07-04T07:21:00Z</time>
      </trkpt>
      <trkpt lat="45.05329" lon="5.95968">
        <ele>1584.5</ele>
        <time>2015-07-04T07:21:07Z</time>
      </trkpt>
      <trkpt lat="45.05319" lon="5.95973">
        <ele>1585.6</ele>
        <time>2015-07-04T07:21:14Z</time>
      </trkpt>
      <trkpt lat="45.05309" lon="5.95976">
        <ele>1586.7</ele>
        <time>2015-07-04T07:21:21Z</time>
      </trkpt>
      <trkpt lat="45.05299" lon="5.9598">
        <ele>1587.4</ele>
        <time>2015-07-04T07:21:28Z</time>
      </trkpt>
      <trkpt lat="45.05291" lon="5.95984">
        <ele>1588.5</ele>
        <time>2015-07-04T07:21:35Z</time>
      </trkpt>
      <trkpt lat="45.05281" lon="5.95987">
        <ele>1589.9</ele>
        <time>2015-07-04T07:21:44Z</time>
      </trkpt>
      <trkpt lat="45.05282" lon="5.95973">
        <ele>1591.1</ele>
        <time>2015-07-04T07:21:55Z</time>
      </trkpt>
      <trkpt lat="45.05291" lon="5.95967">
        <ele>1592</ele>
        <time>2015-07-04T07:22:02Z</time>
      </trkpt>
      <trkpt lat="45.053" lon="5.95963">
        <ele>1593</ele>
        <time>2015-07-04T07:22:09Z</time>
      </trkpt>
      <trkpt lat="45.05309" lon="5.9596">
        <ele>1593.6</ele>
        <time>2015-07-04T07:22:16Z</time>
      </trkpt>
      <trkpt lat="45.05318" lon="5.95956">
        <ele>1594.2</ele>
        <time>2015-07-04T07:22:22Z</time>
      </trkpt>
      <trkpt lat="45.05326" lon="5.95949">
        <ele>1595</ele>
        <time>2015-07-04T07:22:28Z</time>
      </trkpt>
      <trkpt lat="45.05333" lon="5.95941">
        <ele>1595.6</ele>
        <time>2015-07-04T07:22:33Z</time>
      </trkpt>
      <trkpt lat="45.0534" lon="5.95931">
        <ele>1596.2</ele>
        <time>2015-07-04T07:22:39Z</time>
      </trkpt>
      <trkpt lat="45.05346" lon="5.95921">
        <ele>1596.8</ele>
        <time>2015-07-04T07:22:46Z</time>
      </trkpt>
      <trkpt lat="45.05352" lon="5.9591">
        <ele>1597.8</ele>
        <time>2015-07-04T07:22:54Z</time>
      </trkpt>
      <trkpt lat="45.05359" lon="5.959">
        <ele>1599.1</ele>
        <time>2015-07-04T07:23:01Z</time>
      </trkpt>
      <trkpt lat="45.05367" lon="5.9589">
        <ele>1600.5</ele>
        <time>2015-07-04T07:23:08Z</time>
      </trkpt>
      <trkpt lat="45.05375" lon="5.95882">
        <ele>1601.7</ele>
        <time>2015-07-04T07:23:15Z</time>
      </trkpt>
      <trkpt lat="45.05383" lon="5.95875">
        <ele>1602.4</ele>
        <time>2015-07-04T07:23:22Z</time>
      </trkpt>
      <trkpt lat="45.05392" lon="5.95871">
        <ele>1603.3</ele>
        <time>2015-07-04T07:23:29Z</time>
      </trkpt>
      <trkpt lat="45.05403" lon="5.95867">
        <ele>1605</ele>
        <time>2015-07-04T07:23:38Z</time>
      </trkpt>
      <trkpt lat="45.05412" lon="5.9586">
        <ele>1606.1</ele>
        <time>2015-07-04T07:23:45Z</time>
      </trkpt>
      <trkpt lat="45.05421" lon="5.95855">
        <ele>1606.9</ele>
        <time>2015-07-04T07:23:51Z</time>
      </trkpt>
      <trkpt lat="45.0543" lon="5.95849">
        <ele>1607.7</ele>
        <time>2015-07-04T07:23:57Z</time>
      </trkpt>
      <trkpt lat="45.05438" lon="5.95843">
        <ele>1608.8</ele>
        <time>2015-07-04T07:24:03Z</time>
      </trkpt>
      <trkpt lat="45.05446" lon="5.95836">
        <ele>1609.8</ele>
        <time>2015-07-04T07:24:08Z</time>
      </trkpt>
      <trkpt lat="45.05455" lon="5.95828">
        <ele>1610.5</ele>
        <time>2015-07-04T07:24:13Z</time>
      </trkpt>
      <trkpt lat="45.05465" lon="5.95821">
        <ele>1611.1</ele>
        <time>2015-07-04T07:24:18Z</time>
      </trkpt>
      <trkpt lat="45.05473" lon="5.95814">
        <ele>1611.6</ele>
        <time>2015-07-04T07:24:23Z</time>
      </trkpt>
      <trkpt lat="45.05481" lon="5.95808">
        <ele>1611.7</ele>
        <time>2015-07-04T07:24:27Z</time>
      </trkpt>
      <trkpt lat="45.0549" lon="5.95801">
        <ele>1612</ele>
        <time>2015-07-04T07:24:31Z</time>
      </trkpt>
      <trkpt lat="45.05499" lon="5.9579">
        <ele>1612.2</ele>
        <time>2015-07-04T07:24:35Z</time>
      </trkpt>
      <trkpt lat="45.05507" lon="5.95781">
        <ele>1612.4</ele>
        <time>2015-07-04T07:24:39Z</time>
      </trkpt>
      <trkpt lat="45.05513" lon="5.9577">
        <ele>1612.2</ele>
        <time>2015-07-04T07:24:43Z</time>
      </trkpt>
      <trkpt lat="45.0552" lon="5.95758">
        <ele>1612.1</ele>
        <time>2015-07-04T07:24:48Z</time>
      </trkpt>
      <trkpt lat="45.05528" lon="5.95747">
        <ele>1611.8</ele>
        <time>2015-07-04T07:24:52Z</time>
      </trkpt>
      <trkpt lat="45.05534" lon="5.95736">
        <ele>1611.6</ele>
        <time>2015-07-04T07:24:55Z</time>
      </trkpt>
      <trkpt lat="45.0554" lon="5.95724">
        <ele>1611.4</ele>
        <time>2015-07-04T07:24:58Z</time>
      </trkpt>
      <trkpt lat="45.05543" lon="5.95711">
        <ele>1611.3</ele>
        <time>2015-07-04T07:25:01Z</time>
      </trkpt>
      <trkpt lat="45.05546" lon="5.95695">
        <ele>1611.2</ele>
        <time>2015-07-04T07:25:05Z</time>
      </trkpt>
      <trkpt lat="45.0555" lon="5.95682">
        <ele>1611.4</ele>
        <time>2015-07-04T07:25:09Z</time>
      </trkpt>
      <trkpt lat="45.05556" lon="5.95671">
        <ele>1611.6</ele>
        <time>2015-07-04T07:25:13Z</time>
      </trkpt>
      <trkpt lat="45.05564" lon="5.95664">
        <ele>1611.7</ele>
        <time>2015-07-04T07:25:19Z</time>
      </trkpt>
      <trkpt lat="45.05573" lon="5.95657">
        <ele>1611.7</ele>
        <time>2015-07-04T07:25:24Z</time>
      </trkpt>
      <trkpt lat="45.05582" lon="5.95651">
        <ele>1611.8</ele>
        <time>2015-07-04T07:25:33Z</time>
      </trkpt>
      <trkpt lat="45.05591" lon="5.95646">
        <ele>1612.9</ele>
        <time>2015-07-04T07:25:44Z</time>
      </trkpt>
      <trkpt lat="45.05601" lon="5.95645">
        <ele>1613.6</ele>
        <time>2015-07-04T07:25:51Z</time>
      </trkpt>
      <trkpt lat="45.0561" lon="5.9564">
        <ele>1614.2</ele>
        <time>2015-07-04T07:25:59Z</time>
      </trkpt>
      <trkpt lat="45.05613" lon="5.95628">
        <ele>1614.7</ele>
        <time>2015-07-04T07:26:08Z</time>
      </trkpt>
      <trkpt lat="45.05612" lon="5.95614">
        <ele>1615.3</ele>
        <time>2015-07-04T07:26:17Z</time>
      </trkpt>
      <trkpt lat="45.05613" lon="5.956">
        <ele>1616</ele>
        <time>2015-07-04T07:26:25Z</time>
      </trkpt>
      <trkpt lat="45.05611" lon="5.95586">
        <ele>1617.7</ele>
        <time>2015-07-04T07:26:34Z</time>
      </trkpt>
      <trkpt lat="45.0562" lon="5.95585">
        <ele>1622.3</ele>
        <time>2015-07-04T07:27:01Z</time>
      </trkpt>
      <trkpt lat="45.05629" lon="5.95586">
        <ele>1625.8</ele>
        <time>2015-07-04T07:28:23Z</time>
      </trkpt>
      <trkpt lat="45.0563" lon="5.95573">
        <ele>1627.6</ele>
        <time>2015-07-04T07:28:38Z</time>
      </trkpt>
      <trkpt lat="45.05635" lon="5.95563">
        <ele>1630.2</ele>
        <time>2015-07-04T07:29:01Z</time>
      </trkpt>
      <trkpt lat="45.05645" lon="5.95564">
        <ele>1631</ele>
        <time>2015-07-04T07:29:10Z</time>
      </trkpt>
      <trkpt lat="45.05654" lon="5.95567">
        <ele>1632</ele>
        <time>2015-07-04T07:29:20Z</time>
      </trkpt>
      <trkpt lat="45.05663" lon="5.95567">
        <ele>1634.8</ele>
        <time>2015-07-04T07:29:37Z</time>
      </trkpt>
      <trkpt lat="45.05671" lon="5.95561">
        <ele>1638.7</ele>
        <time>2015-07-04T07:30:02Z</time>
      </trkpt>
      <trkpt lat="45.05675" lon="5.95548">
        <ele>1640.2</ele>
        <time>2015-07-04T07:30:15Z</time>
      </trkpt>
      <trkpt lat="45.05675" lon="5.95534">
        <ele>1641.4</ele>
        <time>2015-07-04T07:30:24Z</time>
      </trkpt>
      <trkpt lat="45.05676" lon="5.95521">
        <ele>1642.1</ele>
        <time>2015-07-04T07:30:34Z</time>
      </trkpt>
      <trkpt lat="45.05678" lon="5.95508">
        <ele>1643.1</ele>
        <time>2015-07-04T07:30:44Z</time>
      </trkpt>
      <trkpt lat="45.05678" lon="5.95494">
        <ele>1644.2</ele>
        <time>2015-07-04T07:30:53Z</time>
      </trkpt>
      <trkpt lat="45.05683" lon="5.95483">
        <ele>1646.1</ele>
        <time>2015-07-04T07:31:08Z</time>
      </trkpt>
      <trkpt lat="45.05689" lon="5.95473">
        <ele>1647.3</ele>
        <time>2015-07-04T07:31:19Z</time>
      </trkpt>
      <trkpt lat="45.05695" lon="5.95463">
        <ele>1649.3</ele>
        <time>2015-07-04T07:31:33Z</time>
      </trkpt>
      <trkpt lat="45.057" lon="5.95449">
        <ele>1651</ele>
        <time>2015-07-04T07:31:48Z</time>
      </trkpt>
      <trkpt lat="45.05706" lon="5.95439">
        <ele>1653</ele>
        <time>2015-07-04T07:31:57Z</time>
      </trkpt>
      <trkpt lat="45.05708" lon="5.95426">
        <ele>1654.6</ele>
        <time>2015-07-04T07:32:10Z</time>
      </trkpt>
      <trkpt lat="45.05709" lon="5.95413">
        <ele>1656.2</ele>
        <time>2015-07-04T07:32:26Z</time>
      </trkpt>
      <trkpt lat="45.05714" lon="5.95401">
        <ele>1657.1</ele>
        <time>2015-07-04T07:32:43Z</time>
      </trkpt>
      <trkpt lat="45.05713" lon="5.95388">
        <ele>1658.4</ele>
        <time>2015-07-04T07:32:57Z</time>
      </trkpt>
      <trkpt lat="45.05721" lon="5.9538">
        <ele>1663.2</ele>
        <time>2015-07-04T07:33:27Z</time>
      </trkpt>
      <trkpt lat="45.0573" lon="5.95382">
        <ele>1665.5</ele>
        <time>2015-07-04T07:33:43Z</time>
      </trkpt>
      <trkpt lat="45.05738" lon="5.95389">
        <ele>1667.4</ele>
        <time>2015-07-04T07:33:57Z</time>
      </trkpt>
      <trkpt lat="45.05742" lon="5.95377">
        <ele>1670.9</ele>
        <time>2015-07-04T07:34:27Z</time>
      </trkpt>
      <trkpt lat="45.05745" lon="5.95365">
        <ele>1673.5</ele>
        <time>2015-07-04T07:34:44Z</time>
      </trkpt>
      <trkpt lat="45.05753" lon="5.95359">
        <ele>1677</ele>
        <time>2015-07-04T07:35:10Z</time>
      </trkpt>
      <trkpt lat="45.05754" lon="5.95346">
        <ele>1680.7</ele>
        <time>2015-07-04T07:35:35Z</time>
      </trkpt>
      <trkpt lat="45.05764" lon="5.95348">
        <ele>1684.3</ele>
        <time>2015-07-04T07:35:59Z</time>
      </trkpt>
      <trkpt lat="45.05772" lon="5.95353">
        <ele>1686.7</ele>
        <time>2015-07-04T07:36:12Z</time>
      </trkpt>
      <trkpt lat="45.05779" lon="5.95361">
        <ele>1688.5</ele>
        <time>2015-07-04T07:36:31Z</time>
      </trkpt>
      <trkpt lat="45.0579" lon="5.95365">
        <ele>1692</ele>
        <time>2015-07-04T07:36:59Z</time>
      </trkpt>
      <trkpt lat="45.05796" lon="5.95356">
        <ele>1695.8</ele>
        <time>2015-07-04T07:37:23Z</time>
      </trkpt>
      <trkpt lat="45.05797" lon="5.95343">
        <ele>1698.2</ele>
        <time>2015-07-04T07:37:40Z</time>
      </trkpt>
      <trkpt lat="45.05806" lon="5.9535">
        <ele>1701</ele>
        <time>2015-07-04T07:38:04Z</time>
      </trkpt>
      <trkpt lat="45.05813" lon="5.95341">
        <ele>1709.2</ele>
        <time>2015-07-04T07:38:59Z</time>
      </trkpt>
      <trkpt lat="45.05816" lon="5.95328">
        <ele>1711</ele>
        <time>2015-07-04T07:39:20Z</time>
      </trkpt>
      <trkpt lat="45.05825" lon="5.95332">
        <ele>1713.4</ele>
        <time>2015-07-04T07:39:35Z</time>
      </trkpt>
      <trkpt lat="45.05834" lon="5.95342">
        <ele>1714</ele>
        <time>2015-07-04T07:39:48Z</time>
      </trkpt>
      <trkpt lat="45.05844" lon="5.95344">
        <ele>1716.9</ele>
        <time>2015-07-04T07:40:00Z</time>
      </trkpt>
      <trkpt lat="45.05846" lon="5.95331">
        <ele>1722</ele>
        <time>2015-07-04T07:40:35Z</time>
      </trkpt>
      <trkpt lat="45.05841" lon="5.95319">
        <ele>1725.4</ele>
        <time>2015-07-04T07:40:55Z</time>
      </trkpt>
      <trkpt lat="45.05838" lon="5.95307">
        <ele>1726.9</ele>
        <time>2015-07-04T07:41:07Z</time>
      </trkpt>
      <trkpt lat="45.05838" lon="5.95294">
        <ele>1728.6</ele>
        <time>2015-07-04T07:41:20Z</time>
      </trkpt>
      <trkpt lat="45.05839" lon="5.95281">
        <ele>1731.1</ele>
        <time>2015-07-04T07:41:37Z</time>
      </trkpt>
      <trkpt lat="45.05838" lon="5.95268">
        <ele>1733.4</ele>
        <time>2015-07-04T07:41:52Z</time>
      </trkpt>
      <trkpt lat="45.05834" lon="5.95256">
        <ele>1735.6</ele>
        <time>2015-07-04T07:42:08Z</time>
      </trkpt>
      <trkpt lat="45.05827" lon="5.95248">
        <ele>1737.4</ele>
        <time>2015-07-04T07:42:22Z</time>
      </trkpt>
      <trkpt lat="45.05822" lon="5.95236">
        <ele>1740.1</ele>
        <time>2015-07-04T07:42:49Z</time>
      </trkpt>
      <trkpt lat="45.05816" lon="5.95228">
        <ele>1742</ele>
        <time>2015-07-04T07:43:03Z</time>
      </trkpt>
      <trkpt lat="45.05817" lon="5.95215">
        <ele>1745.3</ele>
        <time>2015-07-04T07:43:25Z</time>
      </trkpt>
      <trkpt lat="45.05817" lon="5.95202">
        <ele>1749.2</ele>
        <time>2015-07-04T07:43:55Z</time>
      </trkpt>
      <trkpt lat="45.05816" lon="5.95188">
        <ele>1751.5</ele>
        <time>2015-07-04T07:44:15Z</time>
      </trkpt>
      <trkpt lat="45.05814" lon="5.95175">
        <ele>1753.8</ele>
        <time>2015-07-04T07:44:35Z</time>
      </trkpt>
      <trkpt lat="45.05823" lon="5.9517">
        <ele>1757.9</ele>
        <time>2015-07-04T07:45:05Z</time>
      </trkpt>
      <trkpt lat="45.05832" lon="5.95171">
        <ele>1760</ele>
        <time>2015-07-04T07:45:24Z</time>
      </trkpt>
      <trkpt lat="45.05841" lon="5.95174">
        <ele>1762.6</ele>
        <time>2015-07-04T07:45:44Z</time>
      </trkpt>
      <trkpt lat="45.05849" lon="5.9518">
        <ele>1765.3</ele>
        <time>2015-07-04T07:46:02Z</time>
      </trkpt>
      <trkpt lat="45.05858" lon="5.95183">
        <ele>1767.6</ele>
        <time>2015-07-04T07:46:21Z</time>
      </trkpt>
      <trkpt lat="45.05867" lon="5.95186">
        <ele>1769.5</ele>
        <time>2015-07-04T07:46:42Z</time>
      </trkpt>
      <trkpt lat="45.05876" lon="5.95187">
        <ele>1771.4</ele>
        <time>2015-07-04T07:47:36Z</time>
      </trkpt>
      <trkpt lat="45.05884" lon="5.95182">
        <ele>1776.1</ele>
        <time>2015-07-04T07:48:10Z</time>
      </trkpt>
      <trkpt lat="45.05887" lon="5.95169">
        <ele>1779.7</ele>
        <time>2015-07-04T07:48:33Z</time>
      </trkpt>
      <trkpt lat="45.05885" lon="5.95156">
        <ele>1784</ele>
        <time>2015-07-04T07:49:06Z</time>
      </trkpt>
      <trkpt lat="45.05885" lon="5.95143">
        <ele>1788.5</ele>
        <time>2015-07-04T07:49:37Z</time>
      </trkpt>
      <trkpt lat="45.05877" lon="5.95136">
        <ele>1792.6</ele>
        <time>2015-07-04T07:50:01Z</time>
      </trkpt>
      <trkpt lat="45.05872" lon="5.95125">
        <ele>1794.6</ele>
        <time>2015-07-04T07:50:18Z</time>
      </trkpt>
      <trkpt lat="45.05864" lon="5.95118">
        <ele>1796.2</ele>
        <time>2015-07-04T07:50:29Z</time>
      </trkpt>
      <trkpt lat="45.05857" lon="5.9511">
        <ele>1797.8</ele>
        <time>2015-07-04T07:50:39Z</time>
      </trkpt>
      <trkpt lat="45.05851" lon="5.951">
        <ele>1798.8</ele>
        <time>2015-07-04T07:50:49Z</time>
      </trkpt>
      <trkpt lat="45.05843" lon="5.95094">
        <ele>1799.6</ele>
        <time>2015-07-04T07:51:00Z</time>
      </trkpt>
      <trkpt lat="45.05835" lon="5.95086">
        <ele>1801.3</ele>
        <time>2015-07-04T07:51:17Z</time>
      </trkpt>
      <trkpt lat="45.05829" lon="5.95076">
        <ele>1803.6</ele>
        <time>2015-07-04T07:51:34Z</time>
      </trkpt>
      <trkpt lat="45.05824" lon="5.95066">
        <ele>1806.2</ele>
        <time>2015-07-04T07:51:51Z</time>
      </trkpt>
      <trkpt lat="45.05821" lon="5.95054">
        <ele>1809.1</ele>
        <time>2015-07-04T07:52:09Z</time>
      </trkpt>
      <trkpt lat="45.05824" lon="5.95042">
        <ele>1814.9</ele>
        <time>2015-07-04T07:52:50Z</time>
      </trkpt>
      <trkpt lat="45.05817" lon="5.95034">
        <ele>1816.6</ele>
        <time>2015-07-04T07:53:05Z</time>
      </trkpt>
      <trkpt lat="45.05813" lon="5.95022">
        <ele>1819.3</ele>
        <time>2015-07-04T07:53:29Z</time>
      </trkpt>
      <trkpt lat="45.05814" lon="5.95009">
        <ele>1824.2</ele>
        <time>2015-07-04T07:54:00Z</time>
      </trkpt>
      <trkpt lat="45.05808" lon="5.94998">
        <ele>1826.8</ele>
        <time>2015-07-04T07:54:16Z</time>
      </trkpt>
      <trkpt lat="45.05807" lon="5.94985">
        <ele>1828.6</ele>
        <time>2015-07-04T07:54:32Z</time>
      </trkpt>
      <trkpt lat="45.05807" lon="5.94972">
        <ele>1831.6</ele>
        <time>2015-07-04T07:54:51Z</time>
      </trkpt>
      <trkpt lat="45.05817" lon="5.94972">
        <ele>1835.9</ele>
        <time>2015-07-04T07:55:14Z</time>
      </trkpt>
      <trkpt lat="45.05826" lon="5.94969">
        <ele>1838.1</ele>
        <time>2015-07-04T07:55:30Z</time>
      </trkpt>
      <trkpt lat="45.05835" lon="5.9497">
        <ele>1840.2</ele>
        <time>2015-07-04T07:55:46Z</time>
      </trkpt>
      <trkpt lat="45.0584" lon="5.9496">
        <ele>1842.7</ele>
        <time>2015-07-04T07:56:07Z</time>
      </trkpt>
      <trkpt lat="45.05835" lon="5.94949">
        <ele>1845.2</ele>
        <time>2015-07-04T07:56:22Z</time>
      </trkpt>
      <trkpt lat="45.05828" lon="5.9494">
        <ele>1848.7</ele>
        <time>2015-07-04T07:56:48Z</time>
      </trkpt>
      <trkpt lat="45.05826" lon="5.94928">
        <ele>1851.1</ele>
        <time>2015-07-04T07:57:07Z</time>
      </trkpt>
      <trkpt lat="45.0582" lon="5.94917">
        <ele>1853.2</ele>
        <time>2015-07-04T07:57:20Z</time>
      </trkpt>
      <trkpt lat="45.05814" lon="5.94907">
        <ele>1854.5</ele>
        <time>2015-07-04T07:57:30Z</time>
      </trkpt>
      <trkpt lat="45.05808" lon="5.94897">
        <ele>1855.4</ele>
        <time>2015-07-04T07:57:40Z</time>
      </trkpt>
      <trkpt lat="45.05803" lon="5.94885">
        <ele>1856.8</ele>
        <time>2015-07-04T07:57:52Z</time>
      </trkpt>
      <trkpt lat="45.05799" lon="5.94874">
        <ele>1858.8</ele>
        <time>2015-07-04T07:58:07Z</time>
      </trkpt>
      <trkpt lat="45.05796" lon="5.94861">
        <ele>1861.7</ele>
        <time>2015-07-04T07:58:24Z</time>
      </trkpt>
      <trkpt lat="45.05795" lon="5.94848">
        <ele>1862.9</ele>
        <time>2015-07-04T07:58:35Z</time>
      </trkpt>
      <trkpt lat="45.05791" lon="5.94835">
        <ele>1864.1</ele>
        <time>2015-07-04T07:58:46Z</time>
      </trkpt>
      <trkpt lat="45.05791" lon="5.94821">
        <ele>1865.6</ele>
        <time>2015-07-04T07:58:59Z</time>
      </trkpt>
      <trkpt lat="45.05788" lon="5.94809">
        <ele>1868.1</ele>
        <time>2015-07-04T07:59:14Z</time>
      </trkpt>
      <trkpt lat="45.05783" lon="5.94798">
        <ele>1870.1</ele>
        <time>2015-07-04T07:59:32Z</time>
      </trkpt>
      <trkpt lat="45.05779" lon="5.94786">
        <ele>1871.2</ele>
        <time>2015-07-04T07:59:44Z</time>
      </trkpt>
      <trkpt lat="45.05772" lon="5.94777">
        <ele>1873.1</ele>
        <time>2015-07-04T07:59:56Z</time>
      </trkpt>
      <trkpt lat="45.05763" lon="5.94771">
        <ele>1874.1</ele>
        <time>2015-07-04T08:00:07Z</time>
      </trkpt>
      <trkpt lat="45.05758" lon="5.9476">
        <ele>1876</ele>
        <time>2015-07-04T08:00:24Z</time>
      </trkpt>
      <trkpt lat="45.05752" lon="5.94749">
        <ele>1878.4</ele>
        <time>2015-07-04T08:00:40Z</time>
      </trkpt>
      <trkpt lat="45.05752" lon="5.94736">
        <ele>1880.3</ele>
        <time>2015-07-04T08:00:52Z</time>
      </trkpt>
      <trkpt lat="45.05753" lon="5.94723">
        <ele>1881.5</ele>
        <time>2015-07-04T08:01:03Z</time>
      </trkpt>
      <trkpt lat="45.05759" lon="5.94712">
        <ele>1883.2</ele>
        <time>2015-07-04T08:01:12Z</time>
      </trkpt>
      <trkpt lat="45.05764" lon="5.94702">
        <ele>1884.3</ele>
        <time>2015-07-04T08:01:23Z</time>
      </trkpt>
      <trkpt lat="45.0577" lon="5.94691">
        <ele>1885.7</ele>
        <time>2015-07-04T08:01:39Z</time>
      </trkpt>
      <trkpt lat="45.05771" lon="5.94678">
        <ele>1886.7</ele>
        <time>2015-07-04T08:01:52Z</time>
      </trkpt>
      <trkpt lat="45.05774" lon="5.94665">
        <ele>1888.2</ele>
        <time>2015-07-04T08:02:07Z</time>
      </trkpt>
      <trkpt lat="45.05773" lon="5.94652">
        <ele>1890.3</ele>
        <time>2015-07-04T08:02:24Z</time>
      </trkpt>
      <trkpt lat="45.05779" lon="5.94641">
        <ele>1893.3</ele>
        <time>2015-07-04T08:02:44Z</time>
      </trkpt>
      <trkpt lat="45.05781" lon="5.94628">
        <ele>1895.8</ele>
        <time>2015-07-04T08:04:51Z</time>
      </trkpt>
      <trkpt lat="45.05782" lon="5.94614">
        <ele>1896.3</ele>
        <time>2015-07-04T08:05:04Z</time>
      </trkpt>
      <trkpt lat="45.05782" lon="5.94601">
        <ele>1898.5</ele>
        <time>2015-07-04T08:05:18Z</time>
      </trkpt>
      <trkpt lat="45.05781" lon="5.94588">
        <ele>1900.9</ele>
        <time>2015-07-04T08:05:33Z</time>
      </trkpt>
      <trkpt lat="45.05783" lon="5.94575">
        <ele>1903.4</ele>
        <time>2015-07-04T08:05:49Z</time>
      </trkpt>
      <trkpt lat="45.05781" lon="5.94562">
        <ele>1906.8</ele>
        <time>2015-07-04T08:06:07Z</time>
      </trkpt>
      <trkpt lat="45.05774" lon="5.94552">
        <ele>1909.2</ele>
        <time>2015-07-04T08:06:22Z</time>
      </trkpt>
      <trkpt lat="45.05768" lon="5.94541">
        <ele>1910.7</ele>
        <time>2015-07-04T08:06:34Z</time>
      </trkpt>
      <trkpt lat="45.05759" lon="5.94537">
        <ele>1912.8</ele>
        <time>2015-07-04T08:06:47Z</time>
      </trkpt>
      <trkpt lat="45.05749" lon="5.94534">
        <ele>1913.4</ele>
        <time>2015-07-04T08:06:59Z</time>
      </trkpt>
      <trkpt lat="45.0574" lon="5.94532">
        <ele>1914.1</ele>
        <time>2015-07-04T08:07:09Z</time>
      </trkpt>
      <trkpt lat="45.05734" lon="5.9452">
        <ele>1915.5</ele>
        <time>2015-07-04T08:07:19Z</time>
      </trkpt>
      <trkpt lat="45.05728" lon="5.9451">
        <ele>1917.2</ele>
        <time>2015-07-04T08:07:29Z</time>
      </trkpt>
      <trkpt lat="45.05724" lon="5.94498">
        <ele>1918.5</ele>
        <time>2015-07-04T08:07:39Z</time>
      </trkpt>
      <trkpt lat="45.05724" lon="5.94486">
        <ele>1920.8</ele>
        <time>2015-07-04T08:12:01Z</time>
      </trkpt>
      <trkpt lat="45.0573" lon="5.94476">
        <ele>1921.2</ele>
        <time>2015-07-04T08:12:32Z</time>
      </trkpt>
      <trkpt lat="45.05736" lon="5.94467">
        <ele>1921.3</ele>
        <time>2015-07-04T08:12:44Z</time>
      </trkpt>
      <trkpt lat="45.0574" lon="5.94455">
        <ele>1921.5</ele>
        <time>2015-07-04T08:12:51Z</time>
      </trkpt>
      <trkpt lat="45.05736" lon="5.94441">
        <ele>1921.8</ele>
        <time>2015-07-04T08:12:59Z</time>
      </trkpt>
      <trkpt lat="45.0573" lon="5.9443">
        <ele>1922</ele>
        <time>2015-07-04T08:13:05Z</time>
      </trkpt>
      <trkpt lat="45.05727" lon="5.94417">
        <ele>1922.7</ele>
        <time>2015-07-04T08:13:12Z</time>
      </trkpt>
      <trkpt lat="45.05724" lon="5.94404">
        <ele>1923.3</ele>
        <time>2015-07-04T08:13:18Z</time>
      </trkpt>
      <trkpt lat="45.05723" lon="5.94391">
        <ele>1923.8</ele>
        <time>2015-07-04T08:13:25Z</time>
      </trkpt>
      <trkpt lat="45.05725" lon="5.94379">
        <ele>1924</ele>
        <time>2015-07-04T08:13:31Z</time>
      </trkpt>
      <trkpt lat="45.0572" lon="5.94367">
        <ele>1924.5</ele>
        <time>2015-07-04T08:13:44Z</time>
      </trkpt>
      <trkpt lat="45.05719" lon="5.94354">
        <ele>1925.2</ele>
        <time>2015-07-04T08:13:55Z</time>
      </trkpt>
      <trkpt lat="45.05711" lon="5.94344">
        <ele>1925</ele>
        <time>2015-07-04T08:14:05Z</time>
      </trkpt>
      <trkpt lat="45.05703" lon="5.94337">
        <ele>1924.8</ele>
        <time>2015-07-04T08:14:13Z</time>
      </trkpt>
      <trkpt lat="45.05702" lon="5.94324">
        <ele>1925.3</ele>
        <time>2015-07-04T08:14:21Z</time>
      </trkpt>
      <trkpt lat="45.05703" lon="5.94309">
        <ele>1925.7</ele>
        <time>2015-07-04T08:14:28Z</time>
      </trkpt>
      <trkpt lat="45.05704" lon="5.94296">
        <ele>1926.4</ele>
        <time>2015-07-04T08:14:35Z</time>
      </trkpt>
      <trkpt lat="45.05703" lon="5.94283">
        <ele>1929.2</ele>
        <time>2015-07-04T08:16:55Z</time>
      </trkpt>
      <trkpt lat="45.05708" lon="5.94268">
        <ele>1929.3</ele>
        <time>2015-07-04T08:16:59Z</time>
      </trkpt>
      <trkpt lat="45.05713" lon="5.94254">
        <ele>1929.4</ele>
        <time>2015-07-04T08:17:04Z</time>
      </trkpt>
      <trkpt lat="45.05718" lon="5.94241">
        <ele>1929.5</ele>
        <time>2015-07-04T08:17:10Z</time>
      </trkpt>
      <trkpt lat="45.05724" lon="5.9423">
        <ele>1929.6</ele>
        <time>2015-07-04T08:17:15Z</time>
      </trkpt>
      <trkpt lat="45.05729" lon="5.94218">
        <ele>1929.3</ele>
        <time>2015-07-04T08:17:20Z</time>
      </trkpt>
      <trkpt lat="45.05732" lon="5.94206">
        <ele>1928.6</ele>
        <time>2015-07-04T08:17:32Z</time>
      </trkpt>
      <trkpt lat="45.05737" lon="5.94193">
        <ele>1928.6</ele>
        <time>2015-07-04T08:17:38Z</time>
      </trkpt>
      <trkpt lat="45.05742" lon="5.94181">
        <ele>1928.6</ele>
        <time>2015-07-04T08:17:44Z</time>
      </trkpt>
      <trkpt lat="45.05742" lon="5.94168">
        <ele>1928.9</ele>
        <time>2015-07-04T08:18:03Z</time>
      </trkpt>
      <trkpt lat="45.05739" lon="5.94156">
        <ele>1930.7</ele>
        <time>2015-07-04T08:18:21Z</time>
      </trkpt>
      <trkpt lat="45.05732" lon="5.94147">
        <ele>1931.8</ele>
        <time>2015-07-04T08:18:34Z</time>
      </trkpt>
      <trkpt lat="45.05727" lon="5.94136">
        <ele>1934.3</ele>
        <time>2015-07-04T08:18:58Z</time>
      </trkpt>
      <trkpt lat="45.05719" lon="5.94128">
        <ele>1938.1</ele>
        <time>2015-07-04T08:19:31Z</time>
      </trkpt>
      <trkpt lat="45.05712" lon="5.9412">
        <ele>1939.7</ele>
        <time>2015-07-04T08:19:44Z</time>
      </trkpt>
      <trkpt lat="45.05708" lon="5.94107">
        <ele>1940.5</ele>
        <time>2015-07-04T08:19:53Z</time>
      </trkpt>
      <trkpt lat="45.05704" lon="5.94096">
        <ele>1940.7</ele>
        <time>2015-07-04T08:20:00Z</time>
      </trkpt>
      <trkpt lat="45.05697" lon="5.94085">
        <ele>1940.8</ele>
        <time>2015-07-04T08:20:09Z</time>
      </trkpt>
      <trkpt lat="45.05689" lon="5.94078">
        <ele>1941.7</ele>
        <time>2015-07-04T08:20:30Z</time>
      </trkpt>
      <trkpt lat="45.05682" lon="5.94071">
        <ele>1943.8</ele>
        <time>2015-07-04T08:20:47Z</time>
      </trkpt>
      <trkpt lat="45.05674" lon="5.94063">
        <ele>1944.3</ele>
        <time>2015-07-04T08:20:59Z</time>
      </trkpt>
      <trkpt lat="45.05669" lon="5.94052">
        <ele>1944.5</ele>
        <time>2015-07-04T08:21:06Z</time>
      </trkpt>
      <trkpt lat="45.05663" lon="5.94041">
        <ele>1944.8</ele>
        <time>2015-07-04T08:21:10Z</time>
      </trkpt>
      <trkpt lat="45.05657" lon="5.94028">
        <ele>1945.5</ele>
        <time>2015-07-04T08:21:16Z</time>
      </trkpt>
      <trkpt lat="45.05651" lon="5.94018">
        <ele>1945.7</ele>
        <time>2015-07-04T08:21:21Z</time>
      </trkpt>
      <trkpt lat="45.05646" lon="5.94005">
        <ele>1945.9</ele>
        <time>2015-07-04T08:21:28Z</time>
      </trkpt>
      <trkpt lat="45.0564" lon="5.93993">
        <ele>1945.9</ele>
        <time>2015-07-04T08:21:35Z</time>
      </trkpt>
      <trkpt lat="45.05635" lon="5.93981">
        <ele>1946.1</ele>
        <time>2015-07-04T08:21:42Z</time>
      </trkpt>
      <trkpt lat="45.0563" lon="5.9397">
        <ele>1946.5</ele>
        <time>2015-07-04T08:21:47Z</time>
      </trkpt>
      <trkpt lat="45.05621" lon="5.93964">
        <ele>1946.4</ele>
        <time>2015-07-04T08:21:53Z</time>
      </trkpt>
      <trkpt lat="45.05613" lon="5.93957">
        <ele>1946.7</ele>
        <time>2015-07-04T08:22:00Z</time>
      </trkpt>
      <trkpt lat="45.05606" lon="5.93949">
        <ele>1947</ele>
        <time>2015-07-04T08:22:06Z</time>
      </trkpt>
      <trkpt lat="45.05599" lon="5.93939">
        <ele>1947.6</ele>
        <time>2015-07-04T08:22:10Z</time>
      </trkpt>
      <trkpt lat="45.05591" lon="5.93931">
        <ele>1948.1</ele>
        <time>2015-07-04T08:22:15Z</time>
      </trkpt>
      <trkpt lat="45.05582" lon="5.93924">
        <ele>1948.4</ele>
        <time>2015-07-04T08:22:22Z</time>
      </trkpt>
      <trkpt lat="45.05575" lon="5.93916">
        <ele>1949.1</ele>
        <time>2015-07-04T08:22:29Z</time>
      </trkpt>
      <trkpt lat="45.05568" lon="5.93907">
        <ele>1949.8</ele>
        <time>2015-07-04T08:22:37Z</time>
      </trkpt>
      <trkpt lat="45.0556" lon="5.93898">
        <ele>1950.7</ele>
        <time>2015-07-04T08:22:44Z</time>
      </trkpt>
      <trkpt lat="45.05553" lon="5.93889">
        <ele>1951.4</ele>
        <time>2015-07-04T08:22:51Z</time>
      </trkpt>
      <trkpt lat="45.05546" lon="5.93879">
        <ele>1952.3</ele>
        <time>2015-07-04T08:22:58Z</time>
      </trkpt>
      <trkpt lat="45.0554" lon="5.93869">
        <ele>1953.3</ele>
        <time>2015-07-04T08:23:05Z</time>
      </trkpt>
      <trkpt lat="45.05534" lon="5.9386">
        <ele>1954</ele>
        <time>2015-07-04T08:23:12Z</time>
      </trkpt>
      <trkpt lat="45.05527" lon="5.9385">
        <ele>1954.6</ele>
        <time>2015-07-04T08:23:19Z</time>
      </trkpt>
      <trkpt lat="45.05522" lon="5.93837">
        <ele>1955.3</ele>
        <time>2015-07-04T08:23:26Z</time>
      </trkpt>
      <trkpt lat="45.0552" lon="5.93824">
        <ele>1956.1</ele>
        <time>2015-07-04T08:23:33Z</time>
      </trkpt>
      <trkpt lat="45.05516" lon="5.93809">
        <ele>1956.8</ele>
        <time>2015-07-04T08:23:40Z</time>
      </trkpt>
      <trkpt lat="45.05514" lon="5.93796">
        <ele>1957.6</ele>
        <time>2015-07-04T08:23:46Z</time>
      </trkpt>
      <trkpt lat="45.05511" lon="5.93782">
        <ele>1958.2</ele>
        <time>2015-07-04T08:23:52Z</time>
      </trkpt>
      <trkpt lat="45.05508" lon="5.93768">
        <ele>1958.7</ele>
        <time>2015-07-04T08:23:58Z</time>
      </trkpt>
      <trkpt lat="45.05506" lon="5.93755">
        <ele>1959.1</ele>
        <time>2015-07-04T08:24:03Z</time>
      </trkpt>
      <trkpt lat="45.05503" lon="5.93742">
        <ele>1959.6</ele>
        <time>2015-07-04T08:24:08Z</time>
      </trkpt>
      <trkpt lat="45.05498" lon="5.93729">
        <ele>1959.9</ele>
        <time>2015-07-04T08:24:13Z</time>
      </trkpt>
      <trkpt lat="45.05495" lon="5.93715">
        <ele>1960.2</ele>
        <time>2015-07-04T08:24:18Z</time>
      </trkpt>
      <trkpt lat="45.05492" lon="5.93702">
        <ele>1960.7</ele>
        <time>2015-07-04T08:24:23Z</time>
      </trkpt>
      <trkpt lat="45.05489" lon="5.9369">
        <ele>1961.1</ele>
        <time>2015-07-04T08:24:28Z</time>
      </trkpt>
      <trkpt lat="45.05485" lon="5.93678">
        <ele>1961.3</ele>
        <time>2015-07-04T08:24:33Z</time>
      </trkpt>
      <trkpt lat="45.05482" lon="5.93665">
        <ele>1961.8</ele>
        <time>2015-07-04T08:24:38Z</time>
      </trkpt>
      <trkpt lat="45.0548" lon="5.93651">
        <ele>1962.1</ele>
        <time>2015-07-04T08:24:43Z</time>
      </trkpt>
      <trkpt lat="45.05476" lon="5.93639">
        <ele>1962.8</ele>
        <time>2015-07-04T08:24:58Z</time>
      </trkpt>
      <trkpt lat="45.05472" lon="5.93627">
        <ele>1963.2</ele>
        <time>2015-07-04T08:25:08Z</time>
      </trkpt>
      <trkpt lat="45.05473" lon="5.93613">
        <ele>1964.1</ele>
        <time>2015-07-04T08:25:18Z</time>
      </trkpt>
      <trkpt lat="45.05475" lon="5.93599">
        <ele>1964.5</ele>
        <time>2015-07-04T08:25:23Z</time>
      </trkpt>
      <trkpt lat="45.05476" lon="5.93585">
        <ele>1964.8</ele>
        <time>2015-07-04T08:25:29Z</time>
      </trkpt>
      <trkpt lat="45.05478" lon="5.93571">
        <ele>1964.9</ele>
        <time>2015-07-04T08:25:35Z</time>
      </trkpt>
      <trkpt lat="45.05473" lon="5.93559">
        <ele>1965.1</ele>
        <time>2015-07-04T08:25:50Z</time>
      </trkpt>
      <trkpt lat="45.05471" lon="5.93544">
        <ele>1965.3</ele>
        <time>2015-07-04T08:25:56Z</time>
      </trkpt>
      <trkpt lat="45.05471" lon="5.93529">
        <ele>1965.5</ele>
        <time>2015-07-04T08:26:01Z</time>
      </trkpt>
      <trkpt lat="45.05471" lon="5.93514">
        <ele>1965.6</ele>
        <time>2015-07-04T08:26:05Z</time>
      </trkpt>
      <trkpt lat="45.05471" lon="5.93501">
        <ele>1965.6</ele>
        <time>2015-07-04T08:26:09Z</time>
      </trkpt>
      <trkpt lat="45.05467" lon="5.93479">
        <ele>1965</ele>
        <time>2015-07-04T08:26:15Z</time>
      </trkpt>
      <trkpt lat="45.05462" lon="5.93465">
        <ele>1965.6</ele>
        <time>2015-07-04T08:27:49Z</time>
      </trkpt>
      <trkpt lat="45.05457" lon="5.93451">
        <ele>1965.6</ele>
        <time>2015-07-04T08:27:54Z</time>
      </trkpt>
      <trkpt lat="45.05451" lon="5.9344">
        <ele>1965.9</ele>
        <time>2015-07-04T08:27:58Z</time>
      </trkpt>
      <trkpt lat="45.05443" lon="5.93427">
        <ele>1965.9</ele>
        <time>2015-07-04T08:28:02Z</time>
      </trkpt>
      <trkpt lat="45.05438" lon="5.93413">
        <ele>1965.6</ele>
        <time>2015-07-04T08:28:06Z</time>
      </trkpt>
      <trkpt lat="45.05434" lon="5.93401">
        <ele>1965.4</ele>
        <time>2015-07-04T08:28:10Z</time>
      </trkpt>
      <trkpt lat="45.05429" lon="5.93388">
        <ele>1965.4</ele>
        <time>2015-07-04T08:28:14Z</time>
      </trkpt>
      <trkpt lat="45.05425" lon="5.93376">
        <ele>1965.9</ele>
        <time>2015-07-04T08:28:20Z</time>
      </trkpt>
      <trkpt lat="45.05419" lon="5.93365">
        <ele>1966.2</ele>
        <time>2015-07-04T08:28:25Z</time>
      </trkpt>
      <trkpt lat="45.05417" lon="5.93352">
        <ele>1966.8</ele>
        <time>2015-07-04T08:28:37Z</time>
      </trkpt>
      <trkpt lat="45.05411" lon="5.9334">
        <ele>1967</ele>
        <time>2015-07-04T08:28:43Z</time>
      </trkpt>
      <trkpt lat="45.05405" lon="5.93327">
        <ele>1967.2</ele>
        <time>2015-07-04T08:28:49Z</time>
      </trkpt>
      <trkpt lat="45.05399" lon="5.93315">
        <ele>1967.4</ele>
        <time>2015-07-04T08:28:53Z</time>
      </trkpt>
      <trkpt lat="45.05393" lon="5.93303">
        <ele>1967.5</ele>
        <time>2015-07-04T08:28:58Z</time>
      </trkpt>
      <trkpt lat="45.05386" lon="5.93292">
        <ele>1967.8</ele>
        <time>2015-07-04T08:29:03Z</time>
      </trkpt>
      <trkpt lat="45.05381" lon="5.93279">
        <ele>1968.4</ele>
        <time>2015-07-04T08:29:09Z</time>
      </trkpt>
      <trkpt lat="45.05377" lon="5.93266">
        <ele>1968.8</ele>
        <time>2015-07-04T08:29:14Z</time>
      </trkpt>
      <trkpt lat="45.05375" lon="5.93253">
        <ele>1970.4</ele>
        <time>2015-07-04T08:29:31Z</time>
      </trkpt>
      <trkpt lat="45.0537" lon="5.93242">
        <ele>1973.7</ele>
        <time>2015-07-04T08:30:37Z</time>
      </trkpt>
      <trkpt lat="45.05367" lon="5.93228">
        <ele>1973.8</ele>
        <time>2015-07-04T08:30:44Z</time>
      </trkpt>
      <trkpt lat="45.05364" lon="5.93216">
        <ele>1974.1</ele>
        <time>2015-07-04T08:30:49Z</time>
      </trkpt>
      <trkpt lat="45.05361" lon="5.93202">
        <ele>1974.4</ele>
        <time>2015-07-04T08:30:54Z</time>
      </trkpt>
      <trkpt lat="45.05357" lon="5.9319">
        <ele>1974.6</ele>
        <time>2015-07-04T08:31:00Z</time>
      </trkpt>
      <trkpt lat="45.05356" lon="5.93176">
        <ele>1974.8</ele>
        <time>2015-07-04T08:31:10Z</time>
      </trkpt>
      <trkpt lat="45.05351" lon="5.93164">
        <ele>1976.4</ele>
        <time>2015-07-04T08:31:23Z</time>
      </trkpt>
      <trkpt lat="45.05346" lon="5.93152">
        <ele>1977</ele>
        <time>2015-07-04T08:31:30Z</time>
      </trkpt>
      <trkpt lat="45.0534" lon="5.93141">
        <ele>1977.9</ele>
        <time>2015-07-04T08:31:50Z</time>
      </trkpt>
      <trkpt lat="45.05334" lon="5.93131">
        <ele>1978.8</ele>
        <time>2015-07-04T08:32:00Z</time>
      </trkpt>
      <trkpt lat="45.05327" lon="5.9312">
        <ele>1981</ele>
        <time>2015-07-04T08:32:15Z</time>
      </trkpt>
      <trkpt lat="45.05319" lon="5.93113">
        <ele>1982.4</ele>
        <time>2015-07-04T08:32:30Z</time>
      </trkpt>
      <trkpt lat="45.05314" lon="5.93102">
        <ele>1982.9</ele>
        <time>2015-07-04T08:32:37Z</time>
      </trkpt>
      <trkpt lat="45.05309" lon="5.93092">
        <ele>1983.5</ele>
        <time>2015-07-04T08:32:43Z</time>
      </trkpt>
      <trkpt lat="45.05302" lon="5.9308">
        <ele>1984.2</ele>
        <time>2015-07-04T08:32:50Z</time>
      </trkpt>
      <trkpt lat="45.05297" lon="5.93069">
        <ele>1984.6</ele>
        <time>2015-07-04T08:32:57Z</time>
      </trkpt>
      <trkpt lat="45.05296" lon="5.93055">
        <ele>1985.8</ele>
        <time>2015-07-04T08:33:05Z</time>
      </trkpt>
      <trkpt lat="45.05302" lon="5.93045">
        <ele>1987.6</ele>
        <time>2015-07-04T08:33:18Z</time>
      </trkpt>
      <trkpt lat="45.05305" lon="5.93032">
        <ele>1988.9</ele>
        <time>2015-07-04T08:33:32Z</time>
      </trkpt>
      <trkpt lat="45.05308" lon="5.93019">
        <ele>1989.2</ele>
        <time>2015-07-04T08:33:39Z</time>
      </trkpt>
      <trkpt lat="45.0531" lon="5.93006">
        <ele>1989.4</ele>
        <time>2015-07-04T08:33:44Z</time>
      </trkpt>
      <trkpt lat="45.0531" lon="5.92992">
        <ele>1989.6</ele>
        <time>2015-07-04T08:33:50Z</time>
      </trkpt>
      <trkpt lat="45.05311" lon="5.92978">
        <ele>1990.1</ele>
        <time>2015-07-04T08:33:57Z</time>
      </trkpt>
      <trkpt lat="45.0531" lon="5.92965">
        <ele>1991.2</ele>
        <time>2015-07-04T08:34:04Z</time>
      </trkpt>
      <trkpt lat="45.05309" lon="5.92951">
        <ele>1992.3</ele>
        <time>2015-07-04T08:34:11Z</time>
      </trkpt>
      <trkpt lat="45.05314" lon="5.92939">
        <ele>1993.3</ele>
        <time>2015-07-04T08:34:18Z</time>
      </trkpt>
      <trkpt lat="45.0532" lon="5.92927">
        <ele>1994.3</ele>
        <time>2015-07-04T08:34:23Z</time>
      </trkpt>
      <trkpt lat="45.05321" lon="5.92914">
        <ele>1995.3</ele>
        <time>2015-07-04T08:34:29Z</time>
      </trkpt>
      <trkpt lat="45.05324" lon="5.92901">
        <ele>1995.7</ele>
        <time>2015-07-04T08:34:34Z</time>
      </trkpt>
      <trkpt lat="45.05327" lon="5.92886">
        <ele>1996</ele>
        <time>2015-07-04T08:34:40Z</time>
      </trkpt>
      <trkpt lat="45.0533" lon="5.92872">
        <ele>1996</ele>
        <time>2015-07-04T08:34:43Z</time>
      </trkpt>
      <trkpt lat="45.0533" lon="5.92856">
        <ele>1995.9</ele>
        <time>2015-07-04T08:34:47Z</time>
      </trkpt>
      <trkpt lat="45.05331" lon="5.92843">
        <ele>1995.2</ele>
        <time>2015-07-04T08:34:52Z</time>
      </trkpt>
      <trkpt lat="45.05334" lon="5.9283">
        <ele>1991.5</ele>
        <time>2015-07-04T08:35:20Z</time>
      </trkpt>
      <trkpt lat="45.05338" lon="5.92818">
        <ele>1989.5</ele>
        <time>2015-07-04T08:35:40Z</time>
      </trkpt>
      <trkpt lat="45.05336" lon="5.92806">
        <ele>1988.8</ele>
        <time>2015-07-04T08:35:45Z</time>
      </trkpt>
      <trkpt lat="45.05333" lon="5.92792">
        <ele>1988.1</ele>
        <time>2015-07-04T08:35:48Z</time>
      </trkpt>
      <trkpt lat="45.0533" lon="5.92778">
        <ele>1986.7</ele>
        <time>2015-07-04T08:35:53Z</time>
      </trkpt>
      <trkpt lat="45.05331" lon="5.92764">
        <ele>1985.1</ele>
        <time>2015-07-04T08:35:58Z</time>
      </trkpt>
      <trkpt lat="45.05333" lon="5.9275">
        <ele>1984.3</ele>
        <time>2015-07-04T08:36:02Z</time>
      </trkpt>
      <trkpt lat="45.05329" lon="5.92732">
        <ele>1983.7</ele>
        <time>2015-07-04T08:36:06Z</time>
      </trkpt>
      <trkpt lat="45.0533" lon="5.92719">
        <ele>1982.8</ele>
        <time>2015-07-04T08:36:11Z</time>
      </trkpt>
      <trkpt lat="45.05336" lon="5.92708">
        <ele>1981.5</ele>
        <time>2015-07-04T08:36:18Z</time>
      </trkpt>
      <trkpt lat="45.05337" lon="5.92695">
        <ele>1980.5</ele>
        <time>2015-07-04T08:36:23Z</time>
      </trkpt>
      <trkpt lat="45.05336" lon="5.9268">
        <ele>1979.8</ele>
        <time>2015-07-04T08:36:28Z</time>
      </trkpt>
      <trkpt lat="45.05335" lon="5.92666">
        <ele>1979</ele>
        <time>2015-07-04T08:36:35Z</time>
      </trkpt>
      <trkpt lat="45.05339" lon="5.92653">
        <ele>1978.5</ele>
        <time>2015-07-04T08:36:42Z</time>
      </trkpt>
      <trkpt lat="45.05348" lon="5.9265">
        <ele>1978.8</ele>
        <time>2015-07-04T08:36:50Z</time>
      </trkpt>
      <trkpt lat="45.05357" lon="5.92647">
        <ele>1979.7</ele>
        <time>2015-07-04T08:37:48Z</time>
      </trkpt>
      <trkpt lat="45.05364" lon="5.92657">
        <ele>1979.4</ele>
        <time>2015-07-04T08:38:00Z</time>
      </trkpt>
      <trkpt lat="45.05373" lon="5.92654">
        <ele>1978.9</ele>
        <time>2015-07-04T08:38:09Z</time>
      </trkpt>
      <trkpt lat="45.0538" lon="5.92665">
        <ele>1978.7</ele>
        <time>2015-07-04T08:38:15Z</time>
      </trkpt>
      <trkpt lat="45.05385" lon="5.92676">
        <ele>1978.5</ele>
        <time>2015-07-04T08:38:21Z</time>
      </trkpt>
      <trkpt lat="45.0539" lon="5.92688">
        <ele>1978.4</ele>
        <time>2015-07-04T08:38:26Z</time>
      </trkpt>
      <trkpt lat="45.05396" lon="5.92702">
        <ele>1978.5</ele>
        <time>2015-07-04T08:38:31Z</time>
      </trkpt>
      <trkpt lat="45.05403" lon="5.92709">
        <ele>1978.5</ele>
        <time>2015-07-04T08:38:35Z</time>
      </trkpt>
      <trkpt lat="45.05413" lon="5.92717">
        <ele>1978.1</ele>
        <time>2015-07-04T08:38:40Z</time>
      </trkpt>
      <trkpt lat="45.05421" lon="5.92725">
        <ele>1978.3</ele>
        <time>2015-07-04T08:38:44Z</time>
      </trkpt>
      <trkpt lat="45.05429" lon="5.92733">
        <ele>1978.4</ele>
        <time>2015-07-04T08:38:49Z</time>
      </trkpt>
      <trkpt lat="45.05439" lon="5.92738">
        <ele>1978.5</ele>
        <time>2015-07-04T08:38:54Z</time>
      </trkpt>
      <trkpt lat="45.05449" lon="5.92746">
        <ele>1978.6</ele>
        <time>2015-07-04T08:39:00Z</time>
      </trkpt>
      <trkpt lat="45.05458" lon="5.92753">
        <ele>1978.5</ele>
        <time>2015-07-04T08:39:03Z</time>
      </trkpt>
      <trkpt lat="45.05467" lon="5.9276">
        <ele>1978.3</ele>
        <time>2015-07-04T08:39:07Z</time>
      </trkpt>
      <trkpt lat="45.05475" lon="5.92767">
        <ele>1978.2</ele>
        <time>2015-07-04T08:39:13Z</time>
      </trkpt>
      <trkpt lat="45.05485" lon="5.92765">
        <ele>1978</ele>
        <time>2015-07-04T08:39:18Z</time>
      </trkpt>
      <trkpt lat="45.05495" lon="5.92765">
        <ele>1978</ele>
        <time>2015-07-04T08:39:22Z</time>
      </trkpt>
      <trkpt lat="45.05507" lon="5.92764">
        <ele>1977.9</ele>
        <time>2015-07-04T08:39:26Z</time>
      </trkpt>
      <trkpt lat="45.05516" lon="5.92767">
        <ele>1977.8</ele>
        <time>2015-07-04T08:39:29Z</time>
      </trkpt>
      <trkpt lat="45.05526" lon="5.92765">
        <ele>1977.4</ele>
        <time>2015-07-04T08:39:36Z</time>
      </trkpt>
      <trkpt lat="45.05535" lon="5.92762">
        <ele>1976.9</ele>
        <time>2015-07-04T08:39:43Z</time>
      </trkpt>
      <trkpt lat="45.05544" lon="5.92767">
        <ele>1976.3</ele>
        <time>2015-07-04T08:39:50Z</time>
      </trkpt>
      <trkpt lat="45.05545" lon="5.92781">
        <ele>1976.1</ele>
        <time>2015-07-04T08:39:56Z</time>
      </trkpt>
      <trkpt lat="45.05546" lon="5.92795">
        <ele>1975.9</ele>
        <time>2015-07-04T08:40:02Z</time>
      </trkpt>
      <trkpt lat="45.05547" lon="5.9281">
        <ele>1975.8</ele>
        <time>2015-07-04T08:40:07Z</time>
      </trkpt>
      <trkpt lat="45.05551" lon="5.92823">
        <ele>1975.7</ele>
        <time>2015-07-04T08:40:12Z</time>
      </trkpt>
      <trkpt lat="45.05559" lon="5.92832">
        <ele>1975.7</ele>
        <time>2015-07-04T08:40:16Z</time>
      </trkpt>
      <trkpt lat="45.05565" lon="5.92841">
        <ele>1975.9</ele>
        <time>2015-07-04T08:40:20Z</time>
      </trkpt>
      <trkpt lat="45.05572" lon="5.9285">
        <ele>1976.3</ele>
        <time>2015-07-04T08:40:25Z</time>
      </trkpt>
      <trkpt lat="45.05583" lon="5.92854">
        <ele>1976.8</ele>
        <time>2015-07-04T08:40:30Z</time>
      </trkpt>
      <trkpt lat="45.05592" lon="5.92858">
        <ele>1977.1</ele>
        <time>2015-07-04T08:40:34Z</time>
      </trkpt>
      <trkpt lat="45.05601" lon="5.92859">
        <ele>1977.2</ele>
        <time>2015-07-04T08:40:38Z</time>
      </trkpt>
      <trkpt lat="45.05611" lon="5.92862">
        <ele>1977.3</ele>
        <time>2015-07-04T08:40:43Z</time>
      </trkpt>
      <trkpt lat="45.05622" lon="5.92859">
        <ele>1977.2</ele>
        <time>2015-07-04T08:40:49Z</time>
      </trkpt>
      <trkpt lat="45.0563" lon="5.92863">
        <ele>1977</ele>
        <time>2015-07-04T08:40:58Z</time>
      </trkpt>
      <trkpt lat="45.0564" lon="5.92862">
        <ele>1977</ele>
        <time>2015-07-04T08:41:07Z</time>
      </trkpt>
      <trkpt lat="45.05648" lon="5.92868">
        <ele>1977.1</ele>
        <time>2015-07-04T08:41:17Z</time>
      </trkpt>
      <trkpt lat="45.05658" lon="5.92874">
        <ele>1977.9</ele>
        <time>2015-07-04T08:41:29Z</time>
      </trkpt>
      <trkpt lat="45.05665" lon="5.92883">
        <ele>1979.6</ele>
        <time>2015-07-04T08:42:14Z</time>
      </trkpt>
      <trkpt lat="45.05674" lon="5.92887">
        <ele>1979.6</ele>
        <time>2015-07-04T08:42:20Z</time>
      </trkpt>
      <trkpt lat="45.05683" lon="5.9289">
        <ele>1979.6</ele>
        <time>2015-07-04T08:42:26Z</time>
      </trkpt>
      <trkpt lat="45.05692" lon="5.92893">
        <ele>1979.5</ele>
        <time>2015-07-04T08:42:30Z</time>
      </trkpt>
      <trkpt lat="45.05703" lon="5.92894">
        <ele>1979</ele>
        <time>2015-07-04T08:42:34Z</time>
      </trkpt>
      <trkpt lat="45.05712" lon="5.92894">
        <ele>1978.5</ele>
        <time>2015-07-04T08:42:40Z</time>
      </trkpt>
      <trkpt lat="45.05721" lon="5.92896">
        <ele>1978.4</ele>
        <time>2015-07-04T08:42:45Z</time>
      </trkpt>
      <trkpt lat="45.05729" lon="5.92902">
        <ele>1978.4</ele>
        <time>2015-07-04T08:42:50Z</time>
      </trkpt>
      <trkpt lat="45.05737" lon="5.9291">
        <ele>1978.8</ele>
        <time>2015-07-04T08:42:56Z</time>
      </trkpt>
      <trkpt lat="45.05746" lon="5.9291">
        <ele>1978.7</ele>
        <time>2015-07-04T08:43:01Z</time>
      </trkpt>
      <trkpt lat="45.05756" lon="5.92909">
        <ele>1978.7</ele>
        <time>2015-07-04T08:43:05Z</time>
      </trkpt>
      <trkpt lat="45.05766" lon="5.92912">
        <ele>1978.6</ele>
        <time>2015-07-04T08:43:11Z</time>
      </trkpt>
      <trkpt lat="45.05775" lon="5.92914">
        <ele>1978.2</ele>
        <time>2015-07-04T08:43:17Z</time>
      </trkpt>
      <trkpt lat="45.05785" lon="5.92914">
        <ele>1978.1</ele>
        <time>2015-07-04T08:43:20Z</time>
      </trkpt>
      <trkpt lat="45.05796" lon="5.92913">
        <ele>1978</ele>
        <time>2015-07-04T08:43:23Z</time>
      </trkpt>
      <trkpt lat="45.05805" lon="5.92907">
        <ele>1977.4</ele>
        <time>2015-07-04T08:43:29Z</time>
      </trkpt>
      <trkpt lat="45.05812" lon="5.92899">
        <ele>1977.1</ele>
        <time>2015-07-04T08:43:38Z</time>
      </trkpt>
      <trkpt lat="45.05821" lon="5.92897">
        <ele>1977.3</ele>
        <time>2015-07-04T08:43:44Z</time>
      </trkpt>
      <trkpt lat="45.05831" lon="5.92896">
        <ele>1977.7</ele>
        <time>2015-07-04T08:43:50Z</time>
      </trkpt>
      <trkpt lat="45.05841" lon="5.9289">
        <ele>1978.4</ele>
        <time>2015-07-04T08:43:57Z</time>
      </trkpt>
      <trkpt lat="45.05849" lon="5.92885">
        <ele>1978.9</ele>
        <time>2015-07-04T08:44:08Z</time>
      </trkpt>
      <trkpt lat="45.05859" lon="5.92885">
        <ele>1978.8</ele>
        <time>2015-07-04T08:44:13Z</time>
      </trkpt>
      <trkpt lat="45.05869" lon="5.92889">
        <ele>1978.6</ele>
        <time>2015-07-04T08:44:17Z</time>
      </trkpt>
      <trkpt lat="45.05878" lon="5.92897">
        <ele>1978.5</ele>
        <time>2015-07-04T08:44:20Z</time>
      </trkpt>
      <trkpt lat="45.05887" lon="5.92902">
        <ele>1977.5</ele>
        <time>2015-07-04T08:44:31Z</time>
      </trkpt>
      <trkpt lat="45.05894" lon="5.9291">
        <ele>1977.1</ele>
        <time>2015-07-04T08:44:41Z</time>
      </trkpt>
      <trkpt lat="45.05899" lon="5.92923">
        <ele>1977.2</ele>
        <time>2015-07-04T08:44:47Z</time>
      </trkpt>
      <trkpt lat="45.05902" lon="5.92936">
        <ele>1977.6</ele>
        <time>2015-07-04T08:44:54Z</time>
      </trkpt>
      <trkpt lat="45.05895" lon="5.92947">
        <ele>1977.7</ele>
        <time>2015-07-04T08:45:00Z</time>
      </trkpt>
      <trkpt lat="45.05895" lon="5.92961">
        <ele>1977.8</ele>
        <time>2015-07-04T08:45:06Z</time>
      </trkpt>
      <trkpt lat="45.05894" lon="5.92974">
        <ele>1977.6</ele>
        <time>2015-07-04T08:45:13Z</time>
      </trkpt>
      <trkpt lat="45.05893" lon="5.92988">
        <ele>1977.4</ele>
        <time>2015-07-04T08:45:20Z</time>
      </trkpt>
      <trkpt lat="45.05897" lon="5.93">
        <ele>1976.2</ele>
        <time>2015-07-04T09:00:51Z</time>
      </trkpt>
      <trkpt lat="45.05893" lon="5.93012">
        <ele>1977.3</ele>
        <time>2015-07-04T09:03:36Z</time>
      </trkpt>
      <trkpt lat="45.05887" lon="5.93022">
        <ele>1978.3</ele>
        <time>2015-07-04T09:03:48Z</time>
      </trkpt>
      <trkpt lat="45.05884" lon="5.93035">
        <ele>1978.8</ele>
        <time>2015-07-04T09:03:57Z</time>
      </trkpt>
      <trkpt lat="45.0588" lon="5.93048">
        <ele>1978.8</ele>
        <time>2015-07-04T09:04:06Z</time>
      </trkpt>
      <trkpt lat="45.05877" lon="5.93061">
        <ele>1979.6</ele>
        <time>2015-07-04T09:04:15Z</time>
      </trkpt>
      <trkpt lat="45.05871" lon="5.93072">
        <ele>1980</ele>
        <time>2015-07-04T09:04:23Z</time>
      </trkpt>
      <trkpt lat="45.05862" lon="5.93079">
        <ele>1980.2</ele>
        <time>2015-07-04T09:04:31Z</time>
      </trkpt>
      <trkpt lat="45.05854" lon="5.93086">
        <ele>1981.5</ele>
        <time>2015-07-04T09:04:39Z</time>
      </trkpt>
      <trkpt lat="45.05845" lon="5.9309">
        <ele>1982.1</ele>
        <time>2015-07-04T09:04:45Z</time>
      </trkpt>
      <trkpt lat="45.05838" lon="5.93098">
        <ele>1982.4</ele>
        <time>2015-07-04T09:04:52Z</time>
      </trkpt>
      <trkpt lat="45.05832" lon="5.93109">
        <ele>1982.5</ele>
        <time>2015-07-04T09:04:59Z</time>
      </trkpt>
      <trkpt lat="45.05827" lon="5.93121">
        <ele>1982.9</ele>
        <time>2015-07-04T09:05:07Z</time>
      </trkpt>
      <trkpt lat="45.0582" lon="5.93129">
        <ele>1983.7</ele>
        <time>2015-07-04T09:05:14Z</time>
      </trkpt>
      <trkpt lat="45.05811" lon="5.93135">
        <ele>1984.3</ele>
        <time>2015-07-04T09:05:21Z</time>
      </trkpt>
      <trkpt lat="45.05803" lon="5.9314">
        <ele>1984.7</ele>
        <time>2015-07-04T09:05:27Z</time>
      </trkpt>
      <trkpt lat="45.05794" lon="5.93148">
        <ele>1984.6</ele>
        <time>2015-07-04T09:05:34Z</time>
      </trkpt>
      <trkpt lat="45.05787" lon="5.93156">
        <ele>1984.6</ele>
        <time>2015-07-04T09:05:39Z</time>
      </trkpt>
      <trkpt lat="45.05781" lon="5.93166">
        <ele>1984.6</ele>
        <time>2015-07-04T09:05:45Z</time>
      </trkpt>
      <trkpt lat="45.05777" lon="5.9318">
        <ele>1984.5</ele>
        <time>2015-07-04T09:05:51Z</time>
      </trkpt>
      <trkpt lat="45.05772" lon="5.93191">
        <ele>1984.2</ele>
        <time>2015-07-04T09:05:56Z</time>
      </trkpt>
      <trkpt lat="45.05766" lon="5.93201">
        <ele>1983.3</ele>
        <time>2015-07-04T09:06:17Z</time>
      </trkpt>
      <trkpt lat="45.0576" lon="5.93213">
        <ele>1983.2</ele>
        <time>2015-07-04T09:06:27Z</time>
      </trkpt>
      <trkpt lat="45.05756" lon="5.93225">
        <ele>1982.8</ele>
        <time>2015-07-04T09:06:39Z</time>
      </trkpt>
      <trkpt lat="45.0575" lon="5.93235">
        <ele>1982.6</ele>
        <time>2015-07-04T09:07:01Z</time>
      </trkpt>
      <trkpt lat="45.05745" lon="5.93246">
        <ele>1982.6</ele>
        <time>2015-07-04T09:07:09Z</time>
      </trkpt>
      <trkpt lat="45.05742" lon="5.93258">
        <ele>1983.3</ele>
        <time>2015-07-04T09:07:30Z</time>
      </trkpt>
      <trkpt lat="45.05739" lon="5.93271">
        <ele>1983.3</ele>
        <time>2015-07-04T09:07:38Z</time>
      </trkpt>
      <trkpt lat="45.05734" lon="5.93283">
        <ele>1983.6</ele>
        <time>2015-07-04T09:08:00Z</time>
      </trkpt>
      <trkpt lat="45.05731" lon="5.93295">
        <ele>1983.9</ele>
        <time>2015-07-04T09:08:07Z</time>
      </trkpt>
      <trkpt lat="45.05727" lon="5.93308">
        <ele>1984.5</ele>
        <time>2015-07-04T09:08:15Z</time>
      </trkpt>
      <trkpt lat="45.05726" lon="5.93321">
        <ele>1985.6</ele>
        <time>2015-07-04T09:08:22Z</time>
      </trkpt>
      <trkpt lat="45.05729" lon="5.93333">
        <ele>1987.6</ele>
        <time>2015-07-04T09:08:30Z</time>
      </trkpt>
      <trkpt lat="45.05732" lon="5.93346">
        <ele>1989.2</ele>
        <time>2015-07-04T09:08:37Z</time>
      </trkpt>
      <trkpt lat="45.05734" lon="5.93359">
        <ele>1991</ele>
        <time>2015-07-04T09:08:45Z</time>
      </trkpt>
      <trkpt lat="45.05737" lon="5.93372">
        <ele>1993.8</ele>
        <time>2015-07-04T09:08:54Z</time>
      </trkpt>
      <trkpt lat="45.05738" lon="5.93385">
        <ele>1999.2</ele>
        <time>2015-07-04T09:09:56Z</time>
      </trkpt>
      <trkpt lat="45.05739" lon="5.93398">
        <ele>1999.5</ele>
        <time>2015-07-04T09:10:04Z</time>
      </trkpt>
      <trkpt lat="45.05741" lon="5.93412">
        <ele>2000.6</ele>
        <time>2015-07-04T09:10:12Z</time>
      </trkpt>
      <trkpt lat="45.05742" lon="5.93426">
        <ele>2001.4</ele>
        <time>2015-07-04T09:10:20Z</time>
      </trkpt>
      <trkpt lat="45.05743" lon="5.93438">
        <ele>2002.1</ele>
        <time>2015-07-04T09:10:27Z</time>
      </trkpt>
      <trkpt lat="45.05745" lon="5.93451">
        <ele>2003</ele>
        <time>2015-07-04T09:10:34Z</time>
      </trkpt>
      <trkpt lat="45.05749" lon="5.93463">
        <ele>2003.8</ele>
        <time>2015-07-04T09:10:40Z</time>
      </trkpt>
      <trkpt lat="45.05753" lon="5.93477">
        <ele>2004.7</ele>
        <time>2015-07-04T09:10:47Z</time>
      </trkpt>
      <trkpt lat="45.05756" lon="5.93489">
        <ele>2005.2</ele>
        <time>2015-07-04T09:10:53Z</time>
      </trkpt>
      <trkpt lat="45.0576" lon="5.93502">
        <ele>2005.6</ele>
        <time>2015-07-04T09:10:59Z</time>
      </trkpt>
      <trkpt lat="45.05764" lon="5.93516">
        <ele>2005.8</ele>
        <time>2015-07-04T09:11:04Z</time>
      </trkpt>
      <trkpt lat="45.0577" lon="5.93528">
        <ele>2005.3</ele>
        <time>2015-07-04T09:11:08Z</time>
      </trkpt>
      <trkpt lat="45.05777" lon="5.93536">
        <ele>2004.8</ele>
        <time>2015-07-04T09:11:12Z</time>
      </trkpt>
      <trkpt lat="45.05784" lon="5.93547">
        <ele>2004.6</ele>
        <time>2015-07-04T09:11:16Z</time>
      </trkpt>
      <trkpt lat="45.05792" lon="5.93557">
        <ele>2004.3</ele>
        <time>2015-07-04T09:11:21Z</time>
      </trkpt>
      <trkpt lat="45.05801" lon="5.93561">
        <ele>2004.1</ele>
        <time>2015-07-04T09:11:26Z</time>
      </trkpt>
      <trkpt lat="45.05808" lon="5.93569">
        <ele>2004</ele>
        <time>2015-07-04T09:11:31Z</time>
      </trkpt>
      <trkpt lat="45.05815" lon="5.93579">
        <ele>2005.8</ele>
        <time>2015-07-04T09:11:49Z</time>
      </trkpt>
      <trkpt lat="45.05819" lon="5.93592">
        <ele>2007</ele>
        <time>2015-07-04T09:12:00Z</time>
      </trkpt>
      <trkpt lat="45.05827" lon="5.93599">
        <ele>2008.5</ele>
        <time>2015-07-04T09:12:15Z</time>
      </trkpt>
      <trkpt lat="45.05835" lon="5.93603">
        <ele>2010.4</ele>
        <time>2015-07-04T09:12:29Z</time>
      </trkpt>
      <trkpt lat="45.05843" lon="5.93611">
        <ele>2013.8</ele>
        <time>2015-07-04T09:12:47Z</time>
      </trkpt>
      <trkpt lat="45.05846" lon="5.93624">
        <ele>2017</ele>
        <time>2015-07-04T09:13:04Z</time>
      </trkpt>
      <trkpt lat="45.0585" lon="5.93636">
        <ele>2019.7</ele>
        <time>2015-07-04T09:13:22Z</time>
      </trkpt>
      <trkpt lat="45.05853" lon="5.93649">
        <ele>2021.3</ele>
        <time>2015-07-04T09:13:38Z</time>
      </trkpt>
      <trkpt lat="45.0586" lon="5.93657">
        <ele>2021.6</ele>
        <time>2015-07-04T09:13:44Z</time>
      </trkpt>
      <trkpt lat="45.05867" lon="5.93667">
        <ele>2021.9</ele>
        <time>2015-07-04T09:13:51Z</time>
      </trkpt>
      <trkpt lat="45.05873" lon="5.93677">
        <ele>2022.2</ele>
        <time>2015-07-04T09:13:57Z</time>
      </trkpt>
      <trkpt lat="45.05881" lon="5.93686">
        <ele>2023.2</ele>
        <time>2015-07-04T09:14:04Z</time>
      </trkpt>
      <trkpt lat="45.05887" lon="5.93697">
        <ele>2025</ele>
        <time>2015-07-04T09:14:14Z</time>
      </trkpt>
      <trkpt lat="45.0589" lon="5.93709">
        <ele>2026.2</ele>
        <time>2015-07-04T09:14:23Z</time>
      </trkpt>
      <trkpt lat="45.05892" lon="5.93721">
        <ele>2027.1</ele>
        <time>2015-07-04T09:14:32Z</time>
      </trkpt>
      <trkpt lat="45.05893" lon="5.93734">
        <ele>2028.5</ele>
        <time>2015-07-04T09:14:43Z</time>
      </trkpt>
      <trkpt lat="45.05894" lon="5.93747">
        <ele>2029.6</ele>
        <time>2015-07-04T09:14:55Z</time>
      </trkpt>
      <trkpt lat="45.05895" lon="5.93762">
        <ele>2032.3</ele>
        <time>2015-07-04T09:20:37Z</time>
      </trkpt>
      <trkpt lat="45.05894" lon="5.93777">
        <ele>2032.1</ele>
        <time>2015-07-04T09:20:42Z</time>
      </trkpt>
      <trkpt lat="45.05888" lon="5.93789">
        <ele>2031.9</ele>
        <time>2015-07-04T09:20:45Z</time>
      </trkpt>
      <trkpt lat="45.05882" lon="5.938">
        <ele>2031.4</ele>
        <time>2015-07-04T09:20:50Z</time>
      </trkpt>
      <trkpt lat="45.05874" lon="5.9381">
        <ele>2030.5</ele>
        <time>2015-07-04T09:20:55Z</time>
      </trkpt>
      <trkpt lat="45.05866" lon="5.93816">
        <ele>2028.4</ele>
        <time>2015-07-04T09:21:01Z</time>
      </trkpt>
      <trkpt lat="45.05869" lon="5.93829">
        <ele>2026.5</ele>
        <time>2015-07-04T09:21:08Z</time>
      </trkpt>
      <trkpt lat="45.05863" lon="5.93839">
        <ele>2022.9</ele>
        <time>2015-07-04T09:21:19Z</time>
      </trkpt>
      <trkpt lat="45.05864" lon="5.93856">
        <ele>2021.5</ele>
        <time>2015-07-04T09:21:24Z</time>
      </trkpt>
      <trkpt lat="45.05863" lon="5.9387">
        <ele>2020.8</ele>
        <time>2015-07-04T09:21:27Z</time>
      </trkpt>
      <trkpt lat="45.05863" lon="5.93882">
        <ele>2019.8</ele>
        <time>2015-07-04T09:21:30Z</time>
      </trkpt>
      <trkpt lat="45.05862" lon="5.93898">
        <ele>2018.6</ele>
        <time>2015-07-04T09:21:33Z</time>
      </trkpt>
      <trkpt lat="45.05862" lon="5.93912">
        <ele>2017.6</ele>
        <time>2015-07-04T09:21:36Z</time>
      </trkpt>
      <trkpt lat="45.05867" lon="5.93926">
        <ele>2016.6</ele>
        <time>2015-07-04T09:21:39Z</time>
      </trkpt>
      <trkpt lat="45.05866" lon="5.9394">
        <ele>2015.6</ele>
        <time>2015-07-04T09:21:42Z</time>
      </trkpt>
      <trkpt lat="45.05868" lon="5.93953">
        <ele>2015.1</ele>
        <time>2015-07-04T09:21:44Z</time>
      </trkpt>
      <trkpt lat="45.05872" lon="5.93965">
        <ele>2014.3</ele>
        <time>2015-07-04T09:21:47Z</time>
      </trkpt>
      <trkpt lat="45.05873" lon="5.9398">
        <ele>2013</ele>
        <time>2015-07-04T09:21:51Z</time>
      </trkpt>
      <trkpt lat="45.05878" lon="5.93995">
        <ele>2011.7</ele>
        <time>2015-07-04T09:21:55Z</time>
      </trkpt>
      <trkpt lat="45.05887" lon="5.94005">
        <ele>2010.6</ele>
        <time>2015-07-04T09:21:58Z</time>
      </trkpt>
      <trkpt lat="45.05894" lon="5.94012">
        <ele>2009.3</ele>
        <time>2015-07-04T09:22:02Z</time>
      </trkpt>
      <trkpt lat="45.05903" lon="5.9402">
        <ele>2008</ele>
        <time>2015-07-04T09:22:07Z</time>
      </trkpt>
      <trkpt lat="45.05909" lon="5.9403">
        <ele>2007.4</ele>
        <time>2015-07-04T09:22:11Z</time>
      </trkpt>
      <trkpt lat="45.05913" lon="5.94044">
        <ele>2006.7</ele>
        <time>2015-07-04T09:22:17Z</time>
      </trkpt>
      <trkpt lat="45.05922" lon="5.9405">
        <ele>2005.6</ele>
        <time>2015-07-04T09:22:22Z</time>
      </trkpt>
      <trkpt lat="45.05928" lon="5.94062">
        <ele>2004.2</ele>
        <time>2015-07-04T09:22:27Z</time>
      </trkpt>
      <trkpt lat="45.05937" lon="5.94073">
        <ele>2003.2</ele>
        <time>2015-07-04T09:22:31Z</time>
      </trkpt>
      <trkpt lat="45.05946" lon="5.94081">
        <ele>2002.2</ele>
        <time>2015-07-04T09:22:35Z</time>
      </trkpt>
      <trkpt lat="45.05956" lon="5.94091">
        <ele>2001.4</ele>
        <time>2015-07-04T09:22:39Z</time>
      </trkpt>
      <trkpt lat="45.05962" lon="5.94101">
        <ele>2000.8</ele>
        <time>2015-07-04T09:22:42Z</time>
      </trkpt>
      <trkpt lat="45.05969" lon="5.94111">
        <ele>2000</ele>
        <time>2015-07-04T09:22:46Z</time>
      </trkpt>
      <trkpt lat="45.05972" lon="5.94124">
        <ele>1998.6</ele>
        <time>2015-07-04T09:22:52Z</time>
      </trkpt>
      <trkpt lat="45.05975" lon="5.94136">
        <ele>1997.8</ele>
        <time>2015-07-04T09:22:56Z</time>
      </trkpt>
      <trkpt lat="45.0598" lon="5.94148">
        <ele>1996.6</ele>
        <time>2015-07-04T09:23:01Z</time>
      </trkpt>
      <trkpt lat="45.05984" lon="5.9416">
        <ele>1989.7</ele>
        <time>2015-07-04T09:24:13Z</time>
      </trkpt>
      <trkpt lat="45.05987" lon="5.94172">
        <ele>1989.7</ele>
        <time>2015-07-04T09:24:17Z</time>
      </trkpt>
      <trkpt lat="45.05993" lon="5.94186">
        <ele>1989.7</ele>
        <time>2015-07-04T09:24:22Z</time>
      </trkpt>
      <trkpt lat="45.05999" lon="5.94197">
        <ele>1989.7</ele>
        <time>2015-07-04T09:24:27Z</time>
      </trkpt>
      <trkpt lat="45.06005" lon="5.94208">
        <ele>1989.7</ele>
        <time>2015-07-04T09:24:32Z</time>
      </trkpt>
      <trkpt lat="45.06005" lon="5.94221">
        <ele>1989.6</ele>
        <time>2015-07-04T09:24:37Z</time>
      </trkpt>
      <trkpt lat="45.06006" lon="5.94237">
        <ele>1989.2</ele>
        <time>2015-07-04T09:24:44Z</time>
      </trkpt>
      <trkpt lat="45.0601" lon="5.94248">
        <ele>1988.1</ele>
        <time>2015-07-04T09:24:53Z</time>
      </trkpt>
      <trkpt lat="45.06015" lon="5.94259">
        <ele>1987.2</ele>
        <time>2015-07-04T09:25:02Z</time>
      </trkpt>
      <trkpt lat="45.06022" lon="5.94269">
        <ele>1986.4</ele>
        <time>2015-07-04T09:25:09Z</time>
      </trkpt>
      <trkpt lat="45.06028" lon="5.94279">
        <ele>1986.1</ele>
        <time>2015-07-04T09:25:21Z</time>
      </trkpt>
      <trkpt lat="45.06029" lon="5.94295">
        <ele>1986</ele>
        <time>2015-07-04T09:25:29Z</time>
      </trkpt>
      <trkpt lat="45.06029" lon="5.94308">
        <ele>1986</ele>
        <time>2015-07-04T09:25:33Z</time>
      </trkpt>
      <trkpt lat="45.06029" lon="5.94322">
        <ele>1985.8</ele>
        <time>2015-07-04T09:25:39Z</time>
      </trkpt>
      <trkpt lat="45.0603" lon="5.94337">
        <ele>1985.5</ele>
        <time>2015-07-04T09:25:45Z</time>
      </trkpt>
      <trkpt lat="45.06032" lon="5.9435">
        <ele>1985.3</ele>
        <time>2015-07-04T09:25:49Z</time>
      </trkpt>
      <trkpt lat="45.06038" lon="5.94359">
        <ele>1984.8</ele>
        <time>2015-07-04T09:25:57Z</time>
      </trkpt>
      <trkpt lat="45.06045" lon="5.94373">
        <ele>1984.2</ele>
        <time>2015-07-04T09:26:03Z</time>
      </trkpt>
      <trkpt lat="45.06048" lon="5.94388">
        <ele>1983.9</ele>
        <time>2015-07-04T09:26:06Z</time>
      </trkpt>
      <trkpt lat="45.06049" lon="5.94402">
        <ele>1983.4</ele>
        <time>2015-07-04T09:26:09Z</time>
      </trkpt>
      <trkpt lat="45.06054" lon="5.94416">
        <ele>1982.9</ele>
        <time>2015-07-04T09:26:13Z</time>
      </trkpt>
      <trkpt lat="45.06059" lon="5.94429">
        <ele>1982.5</ele>
        <time>2015-07-04T09:26:17Z</time>
      </trkpt>
      <trkpt lat="45.06061" lon="5.94441">
        <ele>1982.3</ele>
        <time>2015-07-04T09:26:21Z</time>
      </trkpt>
      <trkpt lat="45.06065" lon="5.94456">
        <ele>1982</ele>
        <time>2015-07-04T09:26:25Z</time>
      </trkpt>
      <trkpt lat="45.06068" lon="5.9447">
        <ele>1981.7</ele>
        <time>2015-07-04T09:26:29Z</time>
      </trkpt>
      <trkpt lat="45.06073" lon="5.94482">
        <ele>1981.3</ele>
        <time>2015-07-04T09:26:35Z</time>
      </trkpt>
      <trkpt lat="45.06076" lon="5.94494">
        <ele>1981.1</ele>
        <time>2015-07-04T09:26:42Z</time>
      </trkpt>
      <trkpt lat="45.06079" lon="5.9451">
        <ele>1980.9</ele>
        <time>2015-07-04T09:26:47Z</time>
      </trkpt>
      <trkpt lat="45.06086" lon="5.94518">
        <ele>1980.9</ele>
        <time>2015-07-04T09:26:50Z</time>
      </trkpt>
      <trkpt lat="45.06094" lon="5.94526">
        <ele>1981.2</ele>
        <time>2015-07-04T09:26:54Z</time>
      </trkpt>
      <trkpt lat="45.061" lon="5.94535">
        <ele>1982</ele>
        <time>2015-07-04T09:27:09Z</time>
      </trkpt>
      <trkpt lat="45.06106" lon="5.94545">
        <ele>1983.8</ele>
        <time>2015-07-04T09:27:31Z</time>
      </trkpt>
      <trkpt lat="45.06107" lon="5.94558">
        <ele>1983.8</ele>
        <time>2015-07-04T09:27:34Z</time>
      </trkpt>
      <trkpt lat="45.06109" lon="5.94571">
        <ele>1983.8</ele>
        <time>2015-07-04T09:27:38Z</time>
      </trkpt>
      <trkpt lat="45.06114" lon="5.94583">
        <ele>1983.7</ele>
        <time>2015-07-04T09:27:44Z</time>
      </trkpt>
      <trkpt lat="45.06121" lon="5.94592">
        <ele>1983.6</ele>
        <time>2015-07-04T09:27:49Z</time>
      </trkpt>
      <trkpt lat="45.06128" lon="5.94603">
        <ele>1983.6</ele>
        <time>2015-07-04T09:27:54Z</time>
      </trkpt>
      <trkpt lat="45.06131" lon="5.94616">
        <ele>1983.5</ele>
        <time>2015-07-04T09:27:58Z</time>
      </trkpt>
      <trkpt lat="45.06136" lon="5.94628">
        <ele>1983.5</ele>
        <time>2015-07-04T09:28:02Z</time>
      </trkpt>
      <trkpt lat="45.06143" lon="5.94638">
        <ele>1983.9</ele>
        <time>2015-07-04T09:28:08Z</time>
      </trkpt>
      <trkpt lat="45.06149" lon="5.94649">
        <ele>1984.1</ele>
        <time>2015-07-04T09:28:12Z</time>
      </trkpt>
      <trkpt lat="45.06155" lon="5.94659">
        <ele>1984.3</ele>
        <time>2015-07-04T09:28:17Z</time>
      </trkpt>
      <trkpt lat="45.06163" lon="5.94668">
        <ele>1984.3</ele>
        <time>2015-07-04T09:28:26Z</time>
      </trkpt>
      <trkpt lat="45.06169" lon="5.94678">
        <ele>1984.3</ele>
        <time>2015-07-04T09:28:31Z</time>
      </trkpt>
      <trkpt lat="45.06176" lon="5.94686">
        <ele>1984.3</ele>
        <time>2015-07-04T09:28:35Z</time>
      </trkpt>
      <trkpt lat="45.0618" lon="5.94698">
        <ele>1983.7</ele>
        <time>2015-07-04T09:28:42Z</time>
      </trkpt>
      <trkpt lat="45.06184" lon="5.94712">
        <ele>1983.3</ele>
        <time>2015-07-04T09:28:47Z</time>
      </trkpt>
      <trkpt lat="45.06188" lon="5.94724">
        <ele>1983.2</ele>
        <time>2015-07-04T09:28:50Z</time>
      </trkpt>
      <trkpt lat="45.06191" lon="5.94739">
        <ele>1982.5</ele>
        <time>2015-07-04T09:28:55Z</time>
      </trkpt>
      <trkpt lat="45.06191" lon="5.94753">
        <ele>1981.8</ele>
        <time>2015-07-04T09:29:00Z</time>
      </trkpt>
      <trkpt lat="45.06194" lon="5.94766">
        <ele>1981.4</ele>
        <time>2015-07-04T09:29:04Z</time>
      </trkpt>
      <trkpt lat="45.06199" lon="5.94777">
        <ele>1981.1</ele>
        <time>2015-07-04T09:29:07Z</time>
      </trkpt>
      <trkpt lat="45.06206" lon="5.94787">
        <ele>1981</ele>
        <time>2015-07-04T09:29:10Z</time>
      </trkpt>
      <trkpt lat="45.06211" lon="5.948">
        <ele>1980.9</ele>
        <time>2015-07-04T09:29:14Z</time>
      </trkpt>
      <trkpt lat="45.06217" lon="5.94809">
        <ele>1980.7</ele>
        <time>2015-07-04T09:29:19Z</time>
      </trkpt>
      <trkpt lat="45.06223" lon="5.9482">
        <ele>1980.6</ele>
        <time>2015-07-04T09:29:24Z</time>
      </trkpt>
      <trkpt lat="45.0623" lon="5.94833">
        <ele>1980.8</ele>
        <time>2015-07-04T09:29:28Z</time>
      </trkpt>
      <trkpt lat="45.06235" lon="5.94844">
        <ele>1980.8</ele>
        <time>2015-07-04T09:29:31Z</time>
      </trkpt>
      <trkpt lat="45.06243" lon="5.94855">
        <ele>1980.8</ele>
        <time>2015-07-04T09:29:35Z</time>
      </trkpt>
      <trkpt lat="45.0625" lon="5.94865">
        <ele>1980.5</ele>
        <time>2015-07-04T09:29:38Z</time>
      </trkpt>
      <trkpt lat="45.06253" lon="5.94878">
        <ele>1980.2</ele>
        <time>2015-07-04T09:29:42Z</time>
      </trkpt>
      <trkpt lat="45.06249" lon="5.9489">
        <ele>1979.8</ele>
        <time>2015-07-04T09:29:47Z</time>
      </trkpt>
      <trkpt lat="45.06246" lon="5.94904">
        <ele>1979.4</ele>
        <time>2015-07-04T09:29:52Z</time>
      </trkpt>
      <trkpt lat="45.06245" lon="5.94917">
        <ele>1979.2</ele>
        <time>2015-07-04T09:29:58Z</time>
      </trkpt>
      <trkpt lat="45.06244" lon="5.9493">
        <ele>1979.1</ele>
        <time>2015-07-04T09:30:04Z</time>
      </trkpt>
      <trkpt lat="45.06245" lon="5.94944">
        <ele>1979.3</ele>
        <time>2015-07-04T09:30:09Z</time>
      </trkpt>
      <trkpt lat="45.0625" lon="5.94955">
        <ele>1979.4</ele>
        <time>2015-07-04T09:30:14Z</time>
      </trkpt>
      <trkpt lat="45.06255" lon="5.94966">
        <ele>1979.5</ele>
        <time>2015-07-04T09:30:19Z</time>
      </trkpt>
      <trkpt lat="45.06259" lon="5.9498">
        <ele>1979.7</ele>
        <time>2015-07-04T09:30:24Z</time>
      </trkpt>
      <trkpt lat="45.06263" lon="5.94994">
        <ele>1980</ele>
        <time>2015-07-04T09:30:29Z</time>
      </trkpt>
      <trkpt lat="45.06266" lon="5.95007">
        <ele>1979.5</ele>
        <time>2015-07-04T09:30:35Z</time>
      </trkpt>
      <trkpt lat="45.0627" lon="5.95019">
        <ele>1979.5</ele>
        <time>2015-07-04T09:30:39Z</time>
      </trkpt>
      <trkpt lat="45.06273" lon="5.95034">
        <ele>1979.5</ele>
        <time>2015-07-04T09:30:43Z</time>
      </trkpt>
      <trkpt lat="45.06277" lon="5.95046">
        <ele>1979.3</ele>
        <time>2015-07-04T09:30:46Z</time>
      </trkpt>
      <trkpt lat="45.0628" lon="5.95059">
        <ele>1979.2</ele>
        <time>2015-07-04T09:30:49Z</time>
      </trkpt>
      <trkpt lat="45.06283" lon="5.95073">
        <ele>1979.1</ele>
        <time>2015-07-04T09:30:52Z</time>
      </trkpt>
      <trkpt lat="45.06291" lon="5.95086">
        <ele>1978.9</ele>
        <time>2015-07-04T09:30:56Z</time>
      </trkpt>
      <trkpt lat="45.06295" lon="5.95098">
        <ele>1978.6</ele>
        <time>2015-07-04T09:31:00Z</time>
      </trkpt>
      <trkpt lat="45.06302" lon="5.9511">
        <ele>1978.3</ele>
        <time>2015-07-04T09:31:06Z</time>
      </trkpt>
      <trkpt lat="45.06311" lon="5.95122">
        <ele>1978</ele>
        <time>2015-07-04T09:31:10Z</time>
      </trkpt>
      <trkpt lat="45.0632" lon="5.95128">
        <ele>1977.5</ele>
        <time>2015-07-04T09:31:14Z</time>
      </trkpt>
      <trkpt lat="45.06328" lon="5.95137">
        <ele>1976.8</ele>
        <time>2015-07-04T09:31:19Z</time>
      </trkpt>
      <trkpt lat="45.06333" lon="5.95149">
        <ele>1976.5</ele>
        <time>2015-07-04T09:31:25Z</time>
      </trkpt>
      <trkpt lat="45.06339" lon="5.95164">
        <ele>1975.8</ele>
        <time>2015-07-04T09:31:30Z</time>
      </trkpt>
      <trkpt lat="45.06344" lon="5.95178">
        <ele>1975.2</ele>
        <time>2015-07-04T09:31:33Z</time>
      </trkpt>
      <trkpt lat="45.06341" lon="5.9519">
        <ele>1974.3</ele>
        <time>2015-07-04T09:31:36Z</time>
      </trkpt>
      <trkpt lat="45.06338" lon="5.95203">
        <ele>1973.3</ele>
        <time>2015-07-04T09:31:40Z</time>
      </trkpt>
      <trkpt lat="45.06335" lon="5.95219">
        <ele>1972.4</ele>
        <time>2015-07-04T09:31:44Z</time>
      </trkpt>
      <trkpt lat="45.06337" lon="5.95233">
        <ele>1971.9</ele>
        <time>2015-07-04T09:31:47Z</time>
      </trkpt>
      <trkpt lat="45.06341" lon="5.95249">
        <ele>1971.3</ele>
        <time>2015-07-04T09:31:50Z</time>
      </trkpt>
      <trkpt lat="45.06345" lon="5.95264">
        <ele>1970.6</ele>
        <time>2015-07-04T09:31:53Z</time>
      </trkpt>
      <trkpt lat="45.06351" lon="5.95276">
        <ele>1970</ele>
        <time>2015-07-04T09:31:56Z</time>
      </trkpt>
      <trkpt lat="45.06354" lon="5.9529">
        <ele>1968.6</ele>
        <time>2015-07-04T09:32:03Z</time>
      </trkpt>
      <trkpt lat="45.06363" lon="5.95299">
        <ele>1967.9</ele>
        <time>2015-07-04T09:32:08Z</time>
      </trkpt>
      <trkpt lat="45.06371" lon="5.95308">
        <ele>1967.5</ele>
        <time>2015-07-04T09:32:12Z</time>
      </trkpt>
      <trkpt lat="45.0638" lon="5.95312">
        <ele>1967.1</ele>
        <time>2015-07-04T09:32:16Z</time>
      </trkpt>
      <trkpt lat="45.06389" lon="5.95316">
        <ele>1966.5</ele>
        <time>2015-07-04T09:32:20Z</time>
      </trkpt>
      <trkpt lat="45.06398" lon="5.95322">
        <ele>1965.8</ele>
        <time>2015-07-04T09:32:26Z</time>
      </trkpt>
      <trkpt lat="45.06402" lon="5.95334">
        <ele>1964.7</ele>
        <time>2015-07-04T09:32:37Z</time>
      </trkpt>
      <trkpt lat="45.06396" lon="5.95343">
        <ele>1964</ele>
        <time>2015-07-04T09:32:51Z</time>
      </trkpt>
      <trkpt lat="45.06386" lon="5.95342">
        <ele>1964.7</ele>
        <time>2015-07-04T09:33:08Z</time>
      </trkpt>
      <trkpt lat="45.06375" lon="5.95345">
        <ele>1964.9</ele>
        <time>2015-07-04T09:33:13Z</time>
      </trkpt>
      <trkpt lat="45.06367" lon="5.95351">
        <ele>1964.9</ele>
        <time>2015-07-04T09:33:17Z</time>
      </trkpt>
      <trkpt lat="45.06358" lon="5.95359">
        <ele>1964.9</ele>
        <time>2015-07-04T09:33:22Z</time>
      </trkpt>
      <trkpt lat="45.06351" lon="5.95367">
        <ele>1964.7</ele>
        <time>2015-07-04T09:33:27Z</time>
      </trkpt>
      <trkpt lat="45.06342" lon="5.95374">
        <ele>1964.6</ele>
        <time>2015-07-04T09:33:32Z</time>
      </trkpt>
      <trkpt lat="45.06333" lon="5.9538">
        <ele>1965</ele>
        <time>2015-07-04T09:33:37Z</time>
      </trkpt>
      <trkpt lat="45.06324" lon="5.95385">
        <ele>1965.4</ele>
        <time>2015-07-04T09:33:42Z</time>
      </trkpt>
      <trkpt lat="45.06316" lon="5.95391">
        <ele>1965.9</ele>
        <time>2015-07-04T09:33:48Z</time>
      </trkpt>
      <trkpt lat="45.06307" lon="5.95398">
        <ele>1967.7</ele>
        <time>2015-07-04T09:33:55Z</time>
      </trkpt>
      <trkpt lat="45.06298" lon="5.95401">
        <ele>1969.7</ele>
        <time>2015-07-04T09:34:03Z</time>
      </trkpt>
      <trkpt lat="45.0629" lon="5.95408">
        <ele>1977.8</ele>
        <time>2015-07-04T09:44:24Z</time>
      </trkpt>
      <trkpt lat="45.06281" lon="5.95418">
        <ele>1978</ele>
        <time>2015-07-04T09:44:27Z</time>
      </trkpt>
      <trkpt lat="45.06275" lon="5.95432">
        <ele>1978</ele>
        <time>2015-07-04T09:44:30Z</time>
      </trkpt>
      <trkpt lat="45.06268" lon="5.95442">
        <ele>1977.9</ele>
        <time>2015-07-04T09:44:34Z</time>
      </trkpt>
      <trkpt lat="45.06258" lon="5.95447">
        <ele>1977.5</ele>
        <time>2015-07-04T09:44:39Z</time>
      </trkpt>
      <trkpt lat="45.06248" lon="5.95454">
        <ele>1977.2</ele>
        <time>2015-07-04T09:44:42Z</time>
      </trkpt>
      <trkpt lat="45.06238" lon="5.95462">
        <ele>1976.7</ele>
        <time>2015-07-04T09:44:44Z</time>
      </trkpt>
      <trkpt lat="45.0623" lon="5.95472">
        <ele>1976.1</ele>
        <time>2015-07-04T09:44:46Z</time>
      </trkpt>
      <trkpt lat="45.06221" lon="5.9548">
        <ele>1975.6</ele>
        <time>2015-07-04T09:44:48Z</time>
      </trkpt>
      <trkpt lat="45.06212" lon="5.95488">
        <ele>1975</ele>
        <time>2015-07-04T09:44:50Z</time>
      </trkpt>
      <trkpt lat="45.06204" lon="5.95498">
        <ele>1974.5</ele>
        <time>2015-07-04T09:44:52Z</time>
      </trkpt>
      <trkpt lat="45.06198" lon="5.95511">
        <ele>1973.5</ele>
        <time>2015-07-04T09:44:54Z</time>
      </trkpt>
      <trkpt lat="45.06194" lon="5.95524">
        <ele>1972.7</ele>
        <time>2015-07-04T09:44:56Z</time>
      </trkpt>
      <trkpt lat="45.06189" lon="5.9554">
        <ele>1971.5</ele>
        <time>2015-07-04T09:44:59Z</time>
      </trkpt>
      <trkpt lat="45.06187" lon="5.95554">
        <ele>1970.2</ele>
        <time>2015-07-04T09:45:02Z</time>
      </trkpt>
      <trkpt lat="45.06186" lon="5.95568">
        <ele>1968.3</ele>
        <time>2015-07-04T09:45:06Z</time>
      </trkpt>
      <trkpt lat="45.06184" lon="5.95582">
        <ele>1966.4</ele>
        <time>2015-07-04T09:45:10Z</time>
      </trkpt>
      <trkpt lat="45.06186" lon="5.95597">
        <ele>1964.7</ele>
        <time>2015-07-04T09:45:14Z</time>
      </trkpt>
      <trkpt lat="45.06189" lon="5.95611">
        <ele>1962.7</ele>
        <time>2015-07-04T09:45:18Z</time>
      </trkpt>
      <trkpt lat="45.06193" lon="5.95624">
        <ele>1960.6</ele>
        <time>2015-07-04T09:45:23Z</time>
      </trkpt>
      <trkpt lat="45.06198" lon="5.95638">
        <ele>1958.6</ele>
        <time>2015-07-04T09:45:27Z</time>
      </trkpt>
      <trkpt lat="45.06204" lon="5.95647">
        <ele>1956.8</ele>
        <time>2015-07-04T09:45:31Z</time>
      </trkpt>
      <trkpt lat="45.06212" lon="5.95658">
        <ele>1955.5</ele>
        <time>2015-07-04T09:45:35Z</time>
      </trkpt>
      <trkpt lat="45.06219" lon="5.95667">
        <ele>1954.5</ele>
        <time>2015-07-04T09:45:39Z</time>
      </trkpt>
      <trkpt lat="45.06226" lon="5.95675">
        <ele>1953.8</ele>
        <time>2015-07-04T09:45:43Z</time>
      </trkpt>
      <trkpt lat="45.06233" lon="5.95686">
        <ele>1953.1</ele>
        <time>2015-07-04T09:45:48Z</time>
      </trkpt>
      <trkpt lat="45.06241" lon="5.95694">
        <ele>1952.5</ele>
        <time>2015-07-04T09:45:53Z</time>
      </trkpt>
      <trkpt lat="45.06248" lon="5.95702">
        <ele>1952.3</ele>
        <time>2015-07-04T09:45:58Z</time>
      </trkpt>
      <trkpt lat="45.06258" lon="5.95704">
        <ele>1952.6</ele>
        <time>2015-07-04T09:46:04Z</time>
      </trkpt>
      <trkpt lat="45.06268" lon="5.95702">
        <ele>1952.8</ele>
        <time>2015-07-04T09:46:10Z</time>
      </trkpt>
      <trkpt lat="45.06277" lon="5.957">
        <ele>1952.7</ele>
        <time>2015-07-04T09:46:16Z</time>
      </trkpt>
      <trkpt lat="45.06286" lon="5.95702">
        <ele>1952.3</ele>
        <time>2015-07-04T09:46:21Z</time>
      </trkpt>
      <trkpt lat="45.06295" lon="5.95703">
        <ele>1951.8</ele>
        <time>2015-07-04T09:46:24Z</time>
      </trkpt>
      <trkpt lat="45.06304" lon="5.95708">
        <ele>1951.5</ele>
        <time>2015-07-04T09:46:26Z</time>
      </trkpt>
      <trkpt lat="45.06313" lon="5.95716">
        <ele>1951.2</ele>
        <time>2015-07-04T09:46:28Z</time>
      </trkpt>
      <trkpt lat="45.06322" lon="5.95726">
        <ele>1950.8</ele>
        <time>2015-07-04T09:46:30Z</time>
      </trkpt>
      <trkpt lat="45.0633" lon="5.95736">
        <ele>1950.4</ele>
        <time>2015-07-04T09:46:32Z</time>
      </trkpt>
      <trkpt lat="45.06338" lon="5.95747">
        <ele>1950</ele>
        <time>2015-07-04T09:46:34Z</time>
      </trkpt>
      <trkpt lat="45.06345" lon="5.95757">
        <ele>1949.5</ele>
        <time>2015-07-04T09:46:36Z</time>
      </trkpt>
      <trkpt lat="45.06353" lon="5.95773">
        <ele>1948.8</ele>
        <time>2015-07-04T09:46:39Z</time>
      </trkpt>
      <trkpt lat="45.0636" lon="5.95786">
        <ele>1948.4</ele>
        <time>2015-07-04T09:46:41Z</time>
      </trkpt>
      <trkpt lat="45.06366" lon="5.95799">
        <ele>1948</ele>
        <time>2015-07-04T09:46:43Z</time>
      </trkpt>
      <trkpt lat="45.0637" lon="5.95812">
        <ele>1947.6</ele>
        <time>2015-07-04T09:46:45Z</time>
      </trkpt>
      <trkpt lat="45.06375" lon="5.95828">
        <ele>1946.8</ele>
        <time>2015-07-04T09:46:48Z</time>
      </trkpt>
      <trkpt lat="45.0638" lon="5.9584">
        <ele>1946.3</ele>
        <time>2015-07-04T09:46:51Z</time>
      </trkpt>
      <trkpt lat="45.06383" lon="5.95853">
        <ele>1944</ele>
        <time>2015-07-04T09:47:03Z</time>
      </trkpt>
      <trkpt lat="45.06385" lon="5.95866">
        <ele>1943.2</ele>
        <time>2015-07-04T09:47:08Z</time>
      </trkpt>
      <trkpt lat="45.06388" lon="5.95882">
        <ele>1942.6</ele>
        <time>2015-07-04T09:47:14Z</time>
      </trkpt>
      <trkpt lat="45.0639" lon="5.95898">
        <ele>1942.2</ele>
        <time>2015-07-04T09:47:17Z</time>
      </trkpt>
      <trkpt lat="45.06395" lon="5.95911">
        <ele>1941.4</ele>
        <time>2015-07-04T09:47:20Z</time>
      </trkpt>
      <trkpt lat="45.064" lon="5.95923">
        <ele>1940.4</ele>
        <time>2015-07-04T09:47:23Z</time>
      </trkpt>
      <trkpt lat="45.06402" lon="5.95936">
        <ele>1939.5</ele>
        <time>2015-07-04T09:47:26Z</time>
      </trkpt>
      <trkpt lat="45.06401" lon="5.95952">
        <ele>1938.8</ele>
        <time>2015-07-04T09:47:29Z</time>
      </trkpt>
      <trkpt lat="45.064" lon="5.95968">
        <ele>1937.9</ele>
        <time>2015-07-04T09:47:32Z</time>
      </trkpt>
      <trkpt lat="45.06401" lon="5.95986">
        <ele>1937.1</ele>
        <time>2015-07-04T09:47:35Z</time>
      </trkpt>
      <trkpt lat="45.06403" lon="5.96">
        <ele>1936.4</ele>
        <time>2015-07-04T09:47:37Z</time>
      </trkpt>
      <trkpt lat="45.06405" lon="5.96014">
        <ele>1935.7</ele>
        <time>2015-07-04T09:47:39Z</time>
      </trkpt>
      <trkpt lat="45.06406" lon="5.9603">
        <ele>1934.9</ele>
        <time>2015-07-04T09:47:42Z</time>
      </trkpt>
      <trkpt lat="45.06408" lon="5.96045">
        <ele>1933.7</ele>
        <time>2015-07-04T09:47:46Z</time>
      </trkpt>
      <trkpt lat="45.0641" lon="5.96058">
        <ele>1932.5</ele>
        <time>2015-07-04T09:47:49Z</time>
      </trkpt>
      <trkpt lat="45.06411" lon="5.96072">
        <ele>1930.8</ele>
        <time>2015-07-04T09:47:54Z</time>
      </trkpt>
      <trkpt lat="45.0641" lon="5.96087">
        <ele>1929.6</ele>
        <time>2015-07-04T09:47:58Z</time>
      </trkpt>
      <trkpt lat="45.06407" lon="5.96099">
        <ele>1928.6</ele>
        <time>2015-07-04T09:48:01Z</time>
      </trkpt>
      <trkpt lat="45.06403" lon="5.96113">
        <ele>1927.7</ele>
        <time>2015-07-04T09:48:04Z</time>
      </trkpt>
      <trkpt lat="45.06399" lon="5.96127">
        <ele>1927.1</ele>
        <time>2015-07-04T09:48:07Z</time>
      </trkpt>
      <trkpt lat="45.06396" lon="5.96143">
        <ele>1926.6</ele>
        <time>2015-07-04T09:48:10Z</time>
      </trkpt>
      <trkpt lat="45.06394" lon="5.96162">
        <ele>1925.9</ele>
        <time>2015-07-04T09:48:13Z</time>
      </trkpt>
      <trkpt lat="45.06393" lon="5.96176">
        <ele>1925.5</ele>
        <time>2015-07-04T09:48:15Z</time>
      </trkpt>
      <trkpt lat="45.06392" lon="5.96189">
        <ele>1925.1</ele>
        <time>2015-07-04T09:48:17Z</time>
      </trkpt>
      <trkpt lat="45.06391" lon="5.96202">
        <ele>1924.5</ele>
        <time>2015-07-04T09:48:19Z</time>
      </trkpt>
      <trkpt lat="45.06391" lon="5.96216">
        <ele>1923.9</ele>
        <time>2015-07-04T09:48:21Z</time>
      </trkpt>
      <trkpt lat="45.06391" lon="5.9623">
        <ele>1923.2</ele>
        <time>2015-07-04T09:48:23Z</time>
      </trkpt>
      <trkpt lat="45.06391" lon="5.96244">
        <ele>1922.6</ele>
        <time>2015-07-04T09:48:25Z</time>
      </trkpt>
      <trkpt lat="45.06391" lon="5.9626">
        <ele>1922.1</ele>
        <time>2015-07-04T09:48:27Z</time>
      </trkpt>
      <trkpt lat="45.06392" lon="5.96275">
        <ele>1921.5</ele>
        <time>2015-07-04T09:48:29Z</time>
      </trkpt>
      <trkpt lat="45.06393" lon="5.9629">
        <ele>1921.1</ele>
        <time>2015-07-04T09:48:31Z</time>
      </trkpt>
      <trkpt lat="45.06393" lon="5.96307">
        <ele>1920.7</ele>
        <time>2015-07-04T09:48:33Z</time>
      </trkpt>
      <trkpt lat="45.06395" lon="5.96321">
        <ele>1920.2</ele>
        <time>2015-07-04T09:48:35Z</time>
      </trkpt>
      <trkpt lat="45.06399" lon="5.96337">
        <ele>1919.3</ele>
        <time>2015-07-04T09:48:38Z</time>
      </trkpt>
      <trkpt lat="45.06401" lon="5.96356">
        <ele>1918.1</ele>
        <time>2015-07-04T09:48:41Z</time>
      </trkpt>
      <trkpt lat="45.06401" lon="5.9637">
        <ele>1917.3</ele>
        <time>2015-07-04T09:48:43Z</time>
      </trkpt>
      <trkpt lat="45.064" lon="5.96384">
        <ele>1916.7</ele>
        <time>2015-07-04T09:48:45Z</time>
      </trkpt>
      <trkpt lat="45.064" lon="5.96403">
        <ele>1915.6</ele>
        <time>2015-07-04T09:48:48Z</time>
      </trkpt>
      <trkpt lat="45.06397" lon="5.96419">
        <ele>1914.3</ele>
        <time>2015-07-04T09:48:51Z</time>
      </trkpt>
      <trkpt lat="45.06397" lon="5.96435">
        <ele>1912.7</ele>
        <time>2015-07-04T09:48:54Z</time>
      </trkpt>
      <trkpt lat="45.06403" lon="5.96448">
        <ele>1911.2</ele>
        <time>2015-07-04T09:48:57Z</time>
      </trkpt>
      <trkpt lat="45.06407" lon="5.96462">
        <ele>1910</ele>
        <time>2015-07-04T09:49:00Z</time>
      </trkpt>
      <trkpt lat="45.06414" lon="5.96477">
        <ele>1909</ele>
        <time>2015-07-04T09:49:03Z</time>
      </trkpt>
      <trkpt lat="45.06419" lon="5.9649">
        <ele>1908.1</ele>
        <time>2015-07-04T09:49:06Z</time>
      </trkpt>
      <trkpt lat="45.06422" lon="5.96505">
        <ele>1907</ele>
        <time>2015-07-04T09:49:09Z</time>
      </trkpt>
      <trkpt lat="45.06422" lon="5.96524">
        <ele>1905.6</ele>
        <time>2015-07-04T09:49:12Z</time>
      </trkpt>
      <trkpt lat="45.06423" lon="5.96537">
        <ele>1904.8</ele>
        <time>2015-07-04T09:49:14Z</time>
      </trkpt>
      <trkpt lat="45.06425" lon="5.96555">
        <ele>1903.8</ele>
        <time>2015-07-04T09:49:17Z</time>
      </trkpt>
      <trkpt lat="45.0643" lon="5.96571">
        <ele>1902.4</ele>
        <time>2015-07-04T09:49:20Z</time>
      </trkpt>
      <trkpt lat="45.06435" lon="5.96584">
        <ele>1900.9</ele>
        <time>2015-07-04T09:49:23Z</time>
      </trkpt>
      <trkpt lat="45.06442" lon="5.96595">
        <ele>1893.8</ele>
        <time>2015-07-04T09:49:51Z</time>
      </trkpt>
      <trkpt lat="45.0645" lon="5.96609">
        <ele>1893.4</ele>
        <time>2015-07-04T09:49:54Z</time>
      </trkpt>
      <trkpt lat="45.06454" lon="5.96622">
        <ele>1893.2</ele>
        <time>2015-07-04T09:49:56Z</time>
      </trkpt>
      <trkpt lat="45.06459" lon="5.96635">
        <ele>1893.1</ele>
        <time>2015-07-04T09:49:58Z</time>
      </trkpt>
      <trkpt lat="45.06461" lon="5.96647">
        <ele>1892.4</ele>
        <time>2015-07-04T09:50:01Z</time>
      </trkpt>
      <trkpt lat="45.06469" lon="5.96661">
        <ele>1891.6</ele>
        <time>2015-07-04T09:50:04Z</time>
      </trkpt>
      <trkpt lat="45.06468" lon="5.96675">
        <ele>1890.7</ele>
        <time>2015-07-04T09:50:07Z</time>
      </trkpt>
      <trkpt lat="45.06462" lon="5.96687">
        <ele>1889.6</ele>
        <time>2015-07-04T09:50:10Z</time>
      </trkpt>
      <trkpt lat="45.06457" lon="5.96703">
        <ele>1887.6</ele>
        <time>2015-07-04T09:50:14Z</time>
      </trkpt>
      <trkpt lat="45.06457" lon="5.96717">
        <ele>1886.1</ele>
        <time>2015-07-04T09:50:17Z</time>
      </trkpt>
      <trkpt lat="45.06463" lon="5.96729">
        <ele>1884.6</ele>
        <time>2015-07-04T09:50:20Z</time>
      </trkpt>
      <trkpt lat="45.06466" lon="5.96743">
        <ele>1883</ele>
        <time>2015-07-04T09:50:23Z</time>
      </trkpt>
      <trkpt lat="45.06474" lon="5.96755">
        <ele>1881.2</ele>
        <time>2015-07-04T09:50:26Z</time>
      </trkpt>
      <trkpt lat="45.06483" lon="5.96765">
        <ele>1878.6</ele>
        <time>2015-07-04T09:50:30Z</time>
      </trkpt>
      <trkpt lat="45.0649" lon="5.96777">
        <ele>1875.9</ele>
        <time>2015-07-04T09:50:34Z</time>
      </trkpt>
      <trkpt lat="45.06483" lon="5.96791">
        <ele>1873.4</ele>
        <time>2015-07-04T09:50:38Z</time>
      </trkpt>
      <trkpt lat="45.06473" lon="5.968">
        <ele>1870.5</ele>
        <time>2015-07-04T09:50:42Z</time>
      </trkpt>
      <trkpt lat="45.06466" lon="5.96809">
        <ele>1868.2</ele>
        <time>2015-07-04T09:50:45Z</time>
      </trkpt>
      <trkpt lat="45.06458" lon="5.96821">
        <ele>1866</ele>
        <time>2015-07-04T09:50:48Z</time>
      </trkpt>
      <trkpt lat="45.06449" lon="5.96831">
        <ele>1863.7</ele>
        <time>2015-07-04T09:50:51Z</time>
      </trkpt>
      <trkpt lat="45.06443" lon="5.96843">
        <ele>1861.3</ele>
        <time>2015-07-04T09:50:54Z</time>
      </trkpt>
      <trkpt lat="45.06443" lon="5.96856">
        <ele>1859.1</ele>
        <time>2015-07-04T09:50:57Z</time>
      </trkpt>
      <trkpt lat="45.06438" lon="5.96869">
        <ele>1856.8</ele>
        <time>2015-07-04T09:51:00Z</time>
      </trkpt>
      <trkpt lat="45.06429" lon="5.96883">
        <ele>1854.2</ele>
        <time>2015-07-04T09:51:03Z</time>
      </trkpt>
      <trkpt lat="45.0642" lon="5.96885">
        <ele>1851.8</ele>
        <time>2015-07-04T09:51:06Z</time>
      </trkpt>
      <trkpt lat="45.0641" lon="5.96892">
        <ele>1848.1</ele>
        <time>2015-07-04T09:51:10Z</time>
      </trkpt>
      <trkpt lat="45.064" lon="5.96901">
        <ele>1845</ele>
        <time>2015-07-04T09:51:14Z</time>
      </trkpt>
      <trkpt lat="45.06393" lon="5.96912">
        <ele>1842.1</ele>
        <time>2015-07-04T09:51:18Z</time>
      </trkpt>
      <trkpt lat="45.06389" lon="5.96925">
        <ele>1839.7</ele>
        <time>2015-07-04T09:51:22Z</time>
      </trkpt>
      <trkpt lat="45.06391" lon="5.96939">
        <ele>1836.9</ele>
        <time>2015-07-04T09:51:27Z</time>
      </trkpt>
      <trkpt lat="45.06399" lon="5.96948">
        <ele>1829.4</ele>
        <time>2015-07-04T09:52:47Z</time>
      </trkpt>
      <trkpt lat="45.06407" lon="5.96959">
        <ele>1829.2</ele>
        <time>2015-07-04T09:52:53Z</time>
      </trkpt>
      <trkpt lat="45.06416" lon="5.96966">
        <ele>1828.8</ele>
        <time>2015-07-04T09:52:57Z</time>
      </trkpt>
      <trkpt lat="45.06426" lon="5.96971">
        <ele>1827.8</ele>
        <time>2015-07-04T09:53:01Z</time>
      </trkpt>
      <trkpt lat="45.06435" lon="5.96974">
        <ele>1827.1</ele>
        <time>2015-07-04T09:53:04Z</time>
      </trkpt>
      <trkpt lat="45.06447" lon="5.96978">
        <ele>1826.5</ele>
        <time>2015-07-04T09:53:07Z</time>
      </trkpt>
      <trkpt lat="45.06458" lon="5.96979">
        <ele>1825.2</ele>
        <time>2015-07-04T09:53:10Z</time>
      </trkpt>
      <trkpt lat="45.06463" lon="5.9699">
        <ele>1822.9</ele>
        <time>2015-07-04T09:53:15Z</time>
      </trkpt>
      <trkpt lat="45.06455" lon="5.96999">
        <ele>1821.9</ele>
        <time>2015-07-04T09:53:17Z</time>
      </trkpt>
      <trkpt lat="45.06444" lon="5.97007">
        <ele>1821.1</ele>
        <time>2015-07-04T09:53:19Z</time>
      </trkpt>
      <trkpt lat="45.06434" lon="5.97015">
        <ele>1820.1</ele>
        <time>2015-07-04T09:53:21Z</time>
      </trkpt>
      <trkpt lat="45.06425" lon="5.97018">
        <ele>1818.9</ele>
        <time>2015-07-04T09:53:23Z</time>
      </trkpt>
      <trkpt lat="45.06412" lon="5.97025">
        <ele>1817</ele>
        <time>2015-07-04T09:53:26Z</time>
      </trkpt>
      <trkpt lat="45.06401" lon="5.97035">
        <ele>1815</ele>
        <time>2015-07-04T09:53:29Z</time>
      </trkpt>
      <trkpt lat="45.06391" lon="5.97043">
        <ele>1812.8</ele>
        <time>2015-07-04T09:53:32Z</time>
      </trkpt>
      <trkpt lat="45.06386" lon="5.97057">
        <ele>1808.6</ele>
        <time>2015-07-04T09:53:37Z</time>
      </trkpt>
      <trkpt lat="45.06393" lon="5.97071">
        <ele>1804.9</ele>
        <time>2015-07-04T09:53:42Z</time>
      </trkpt>
      <trkpt lat="45.06396" lon="5.97085">
        <ele>1802.6</ele>
        <time>2015-07-04T09:53:45Z</time>
      </trkpt>
      <trkpt lat="45.06403" lon="5.97098">
        <ele>1800.6</ele>
        <time>2015-07-04T09:53:48Z</time>
      </trkpt>
      <trkpt lat="45.06409" lon="5.97109">
        <ele>1799.4</ele>
        <time>2015-07-04T09:53:50Z</time>
      </trkpt>
      <trkpt lat="45.06405" lon="5.9712">
        <ele>1797.4</ele>
        <time>2015-07-04T09:53:53Z</time>
      </trkpt>
      <trkpt lat="45.06397" lon="5.97128">
        <ele>1795.7</ele>
        <time>2015-07-04T09:53:55Z</time>
      </trkpt>
      <trkpt lat="45.06388" lon="5.97132">
        <ele>1794.1</ele>
        <time>2015-07-04T09:53:57Z</time>
      </trkpt>
      <trkpt lat="45.06379" lon="5.97128">
        <ele>1791.8</ele>
        <time>2015-07-04T09:54:00Z</time>
      </trkpt>
      <trkpt lat="45.06378" lon="5.97143">
        <ele>1789</ele>
        <time>2015-07-04T09:54:04Z</time>
      </trkpt>
      <trkpt lat="45.06383" lon="5.97158">
        <ele>1786.6</ele>
        <time>2015-07-04T09:54:07Z</time>
      </trkpt>
      <trkpt lat="45.06406" lon="5.97191">
        <ele>1769</ele>
        <time>2015-07-04T05:14:16Z</time>
      </trkpt>
      <trkpt lat="45.06406" lon="5.97191">
        <ele>1769</ele>
        <time>2015-07-04T05:14:16Z</time>
      </trkpt>
      <trkpt lat="45.06276" lon="5.97093">
        <ele>1759</ele>
        <time>2015-07-04T05:14:16Z</time>
      </trkpt>
      <trkpt lat="45.06264" lon="5.97157">
        <ele>1741</ele>
        <time>2015-07-04T05:14:16Z</time>
      </trkpt>
      <trkpt lat="45.06115" lon="5.97011">
        <ele>1680</ele>
        <time>2015-07-04T05:14:16Z</time>
      </trkpt>
      <trkpt lat="45.06033" lon="5.9693">
        <ele>1656</ele>
        <time>2015-07-04T05:14:16Z</time>
      </trkpt>
      <trkpt lat="45.06024" lon="5.9696">
        <ele>1652</ele>
        <time>2015-07-04T05:14:16Z</time>
      </trkpt>
      <trkpt lat="45.05973" lon="5.96943">
        <ele>1614</ele>
        <time>2015-07-04T05:14:16Z</time>
      </trkpt>
      <trkpt lat="45.05976" lon="5.96994">
        <ele>1613</ele>
        <time>2015-07-04T05:14:16Z</time>
      </trkpt>
      <trkpt lat="45.05906" lon="5.96947">
        <ele>1569</ele>
        <time>2015-07-04T05:14:16Z</time>
      </trkpt>
      <trkpt lat="45.05873" lon="5.96964">
        <ele>1558</ele>
        <time>2015-07-04T05:14:16Z</time>
      </trkpt>
      <trkpt lat="45.05842" lon="5.96904">
        <ele>1549</ele>
        <time>2015-07-04T05:14:16Z</time>
      </trkpt>
      <trkpt lat="45.0577" lon="5.96973">
        <ele>1506</ele>
        <time>2015-07-04T05:14:16Z</time>
      </trkpt>
      <trkpt lat="45.05709" lon="5.96934">
        <ele>1472</ele>
        <time>2015-07-04T05:14:16Z</time>
      </trkpt>
      <trkpt lat="45.05767" lon="5.96883">
        <ele>1509</ele>
        <time>2015-07-04T05:14:16Z</time>
      </trkpt>
      <trkpt lat="45.05739" lon="5.96797">
        <ele>1490</ele>
        <time>2015-07-04T05:14:16Z</time>
      </trkpt>
      <trkpt lat="45.057" lon="5.96808">
        <ele>1479</ele>
        <time>2015-07-04T05:14:16Z</time>
      </trkpt>
      <trkpt lat="45.05655" lon="5.96816">
        <ele>1446</ele>
        <time>2015-07-04T05:14:16Z</time>
      </trkpt>
      <trkpt lat="45.05623" lon="5.96845">
        <ele>1434</ele>
        <time>2015-07-04T05:14:16Z</time>
      </trkpt>
      <trkpt lat="45.05578" lon="5.96852">
        <ele>1405</ele>
        <time>2015-07-04T05:14:16Z</time>
      </trkpt>
      <trkpt lat="45.05517" lon="5.9692">
        <ele>1389</ele>
        <time>2015-07-04T05:14:16Z</time>
      </trkpt>
      <trkpt lat="45.0549" lon="5.9698">
        <ele>1364</ele>
        <time>2015-07-04T05:14:16Z</time>
      </trkpt>
      <trkpt lat="45.05491" lon="5.97032">
        <ele>1355</ele>
        <time>2015-07-04T05:14:16Z</time>
      </trkpt>
      <trkpt lat="45.05506" lon="5.97129">
        <ele>1359</ele>
        <time>2015-07-04T05:14:16Z</time>
      </trkpt>
      <trkpt lat="45.05511" lon="5.97202">
        <ele>1347</ele>
        <time>2015-07-04T05:14:16Z</time>
      </trkpt>
      <trkpt lat="45.05367" lon="5.97278">
        <ele>1307</ele>
        <time>2015-07-04T05:14:16Z</time>
      </trkpt>
      <trkpt lat="45.05256" lon="5.97416">
        <ele>1291</ele>
        <time>2015-07-04T05:14:16Z</time>
      </trkpt>
      <trkpt lat="45.05256" lon="5.97416">
        <ele>1291</ele>
        <time>2015-07-04T05:14:16Z</time>
      </trkpt>
      <trkpt lat="45.05178" lon="5.97509">
        <ele>1294</ele>
        <time>2015-07-04T05:14:16Z</time>
      </trkpt>
      <trkpt lat="45.04957" lon="5.97659">
        <ele>1271</ele>
        <time>2015-07-04T05:14:16Z</time>
      </trkpt>
      <trkpt lat="45.04927" lon="5.97719">
        <ele>1274</ele>
        <time>2015-07-04T05:14:16Z</time>
      </trkpt>
      <trkpt lat="45.04875" lon="5.97745">
        <ele>1263</ele>
        <time>2015-07-04T05:14:16Z</time>
      </trkpt>
      <trkpt lat="45.04836" lon="5.97818">
        <ele>1255</ele>
        <time>2015-07-04T05:14:16Z</time>
      </trkpt>
      <trkpt lat="45.04808" lon="5.97831">
        <ele>1252</ele>
        <time>2015-07-04T05:14:16Z</time>
      </trkpt>
      <trkpt lat="45.04787" lon="5.97797">
        <ele>1250</ele>
        <time>2015-07-04T05:14:16Z</time>
      </trkpt>
      <trkpt lat="45.04742" lon="5.97797">
        <ele>1239</ele>
        <time>2015-07-04T05:14:16Z</time>
      </trkpt>
      <trkpt lat="45.04281" lon="5.9778">
        <ele>1122</ele>
        <time>2015-07-04T05:14:16Z</time>
      </trkpt>
      <trkpt lat="45.04281" lon="5.9778">
        <ele>1122</ele>
        <time>2015-07-04T05:14:16Z</time>
      </trkpt>
      <trkpt lat="45.04226" lon="5.97762">
        <ele>1104</ele>
        <time>2015-07-04T05:14:16Z</time>
      </trkpt>
      <trkpt lat="45.04198" lon="5.97813">
        <ele>1100</ele>
        <time>2015-07-04T05:14:16Z</time>
      </trkpt>
      <trkpt lat="45.04199" lon="5.97886">
        <ele>1092</ele>
        <time>2015-07-04T05:14:16Z</time>
      </trkpt>
      <trkpt lat="45.04205" lon="5.97912">
        <ele>1091</ele>
        <time>2015-07-04T05:14:16Z</time>
      </trkpt>
      <trkpt lat="45.04187" lon="5.98001">
        <ele>1070</ele>
        <time>2015-07-04T05:14:16Z</time>
      </trkpt>
      <trkpt lat="45.04185" lon="5.98042">
        <ele>1069</ele>
        <time>2015-07-04T05:14:16Z</time>
      </trkpt>
      <trkpt lat="45.04217" lon="5.9811">
        <ele>1056</ele>
        <time>2015-07-04T05:14:16Z</time>
      </trkpt>
      <trkpt lat="45.04262" lon="5.98183">
        <ele>1053</ele>
        <time>2015-07-04T05:14:16Z</time>
      </trkpt>
      <trkpt lat="45.04286" lon="5.98228">
        <ele>1050</ele>
        <time>2015-07-04T05:14:16Z</time>
      </trkpt>
      <trkpt lat="45.04399" lon="5.98295">
        <ele>1047</ele>
        <time>2015-07-04T05:14:16Z</time>
      </trkpt>
      <trkpt lat="45.04449" lon="5.98322">
        <ele>1062</ele>
        <time>2015-07-04T05:14:16Z</time>
      </trkpt>
      <trkpt lat="45.04472" lon="5.98384">
        <ele>1032</ele>
        <time>2015-07-04T05:14:16Z</time>
      </trkpt>
      <trkpt lat="45.04521" lon="5.98416">
        <ele>1040</ele>
        <time>2015-07-04T05:14:16Z</time>
      </trkpt>
      <trkpt lat="45.04701" lon="5.98434">
        <ele>1022</ele>
        <time>2015-07-04T05:14:16Z</time>
      </trkpt>
      <trkpt lat="45.0478" lon="5.98442">
        <ele>1016</ele>
        <time>2015-07-04T05:14:16Z</time>
      </trkpt>
      <trkpt lat="45.04842" lon="5.98473">
        <ele>1007</ele>
        <time>2015-07-04T05:14:16Z</time>
      </trkpt>
      <trkpt lat="45.04873" lon="5.98465">
        <ele>1010</ele>
        <time>2015-07-04T05:14:16Z</time>
      </trkpt>
      <trkpt lat="45.04918" lon="5.98499">
        <ele>994</ele>
        <time>2015-07-04T05:14:16Z</time>
      </trkpt>
      <trkpt lat="45.05004" lon="5.98442">
        <ele>1020</ele>
        <time>2015-07-04T05:14:16Z</time>
      </trkpt>
      <trkpt lat="45.05042" lon="5.98449">
        <ele>1018</ele>
        <time>2015-07-04T05:14:16Z</time>
      </trkpt>
      <trkpt lat="45.05078" lon="5.98473">
        <ele>1014</ele>
        <time>2015-07-04T05:14:16Z</time>
      </trkpt>
      <trkpt lat="45.05114" lon="5.98538">
        <ele>1011</ele>
        <time>2015-07-04T05:14:16Z</time>
      </trkpt>
      <trkpt lat="45.05153" lon="5.98572">
        <ele>1014</ele>
        <time>2015-07-04T05:14:16Z</time>
      </trkpt>
      <trkpt lat="45.05202" lon="5.98619">
        <ele>1012</ele>
        <time>2015-07-04T05:14:16Z</time>
      </trkpt>
      <trkpt lat="45.05252" lon="5.98635">
        <ele>1019</ele>
        <time>2015-07-04T05:14:16Z</time>
      </trkpt>
      <trkpt lat="45.05275" lon="5.98648">
        <ele>1017</ele>
        <time>2015-07-04T05:14:16Z</time>
      </trkpt>
      <trkpt lat="45.0526" lon="5.98744">
        <ele>983.1</ele>
        <time>2015-07-04T05:14:16Z</time>
      </trkpt>
      <trkpt lat="45.05223" lon="5.989">
        <ele>955.9</ele>
        <time>2015-07-04T05:14:16Z</time>
      </trkpt>
      <trkpt lat="45.05167" lon="5.98844">
        <ele>977.4</ele>
        <time>2015-07-04T05:14:16Z</time>
      </trkpt>
      <trkpt lat="45.05145" lon="5.98801">
        <ele>978.4</ele>
        <time>2015-07-04T05:14:16Z</time>
      </trkpt>
      <trkpt lat="45.05145" lon="5.98802">
        <ele>1040.3</ele>
        <time>2061-01-03T16:17:33Z</time>
      </trkpt>
      <trkpt lat="45.0514" lon="5.98789">
        <ele>1041.1</ele>
        <time>2061-01-03T16:17:38Z</time>
      </trkpt>
      <trkpt lat="45.05137" lon="5.98773">
        <ele>1041.8</ele>
        <time>2061-01-03T16:17:43Z</time>
      </trkpt>
      <trkpt lat="45.05135" lon="5.98759">
        <ele>1042.4</ele>
        <time>2061-01-03T16:17:47Z</time>
      </trkpt>
      <trkpt lat="45.0513" lon="5.98745">
        <ele>1042.5</ele>
        <time>2061-01-03T16:17:50Z</time>
      </trkpt>
      <trkpt lat="45.05122" lon="5.98739">
        <ele>1042.5</ele>
        <time>2061-01-03T16:17:52Z</time>
      </trkpt>
      <trkpt lat="45.05112" lon="5.98737">
        <ele>1042.5</ele>
        <time>2061-01-03T16:17:54Z</time>
      </trkpt>
      <trkpt lat="45.05102" lon="5.9874">
        <ele>1042.4</ele>
        <time>2061-01-03T16:17:56Z</time>
      </trkpt>
      <trkpt lat="45.05092" lon="5.98747">
        <ele>1042.3</ele>
        <time>2061-01-03T16:17:58Z</time>
      </trkpt>
      <trkpt lat="45.05081" lon="5.98755">
        <ele>1042.1</ele>
        <time>2061-01-03T16:18:00Z</time>
      </trkpt>
      <trkpt lat="45.05069" lon="5.98757">
        <ele>1042</ele>
        <time>2061-01-03T16:18:02Z</time>
      </trkpt>
      <trkpt lat="45.05056" lon="5.98758">
        <ele>1041.9</ele>
        <time>2061-01-03T16:18:04Z</time>
      </trkpt>
      <trkpt lat="45.05043" lon="5.98761">
        <ele>1041.4</ele>
        <time>2061-01-03T16:18:06Z</time>
      </trkpt>
      <trkpt lat="45.05032" lon="5.98754">
        <ele>1040.9</ele>
        <time>2061-01-03T16:18:08Z</time>
      </trkpt>
      <trkpt lat="45.05026" lon="5.98739">
        <ele>1040.4</ele>
        <time>2061-01-03T16:18:10Z</time>
      </trkpt>
      <trkpt lat="45.05019" lon="5.98722">
        <ele>1039.9</ele>
        <time>2061-01-03T16:18:12Z</time>
      </trkpt>
      <trkpt lat="45.05014" lon="5.98702">
        <ele>1039.5</ele>
        <time>2061-01-03T16:18:14Z</time>
      </trkpt>
      <trkpt lat="45.05008" lon="5.98681">
        <ele>1038.9</ele>
        <time>2061-01-03T16:18:16Z</time>
      </trkpt>
      <trkpt lat="45.04998" lon="5.98662">
        <ele>1038.2</ele>
        <time>2061-01-03T16:18:18Z</time>
      </trkpt>
      <trkpt lat="45.04983" lon="5.98647">
        <ele>1037.4</ele>
        <time>2061-01-03T16:18:20Z</time>
      </trkpt>
      <trkpt lat="45.04976" lon="5.98639">
        <ele>1037</ele>
        <time>2061-01-03T16:18:21Z</time>
      </trkpt>
      <trkpt lat="45.04967" lon="5.98632">
        <ele>1036.6</ele>
        <time>2061-01-03T16:18:22Z</time>
      </trkpt>
      <trkpt lat="45.04958" lon="5.98626">
        <ele>1036.3</ele>
        <time>2061-01-03T16:18:23Z</time>
      </trkpt>
      <trkpt lat="45.04948" lon="5.98621">
        <ele>1036</ele>
        <time>2061-01-03T16:18:24Z</time>
      </trkpt>
      <trkpt lat="45.04939" lon="5.98614">
        <ele>1035.5</ele>
        <time>2061-01-03T16:18:25Z</time>
      </trkpt>
      <trkpt lat="45.0493" lon="5.98606">
        <ele>1035.1</ele>
        <time>2061-01-03T16:18:26Z</time>
      </trkpt>
      <trkpt lat="45.04921" lon="5.98598">
        <ele>1034.7</ele>
        <time>2061-01-03T16:18:27Z</time>
      </trkpt>
      <trkpt lat="45.04911" lon="5.98591">
        <ele>1034.1</ele>
        <time>2061-01-03T16:18:28Z</time>
      </trkpt>
      <trkpt lat="45.049" lon="5.98586">
        <ele>1033.5</ele>
        <time>2061-01-03T16:18:29Z</time>
      </trkpt>
      <trkpt lat="45.04889" lon="5.98582">
        <ele>1033</ele>
        <time>2061-01-03T16:18:30Z</time>
      </trkpt>
      <trkpt lat="45.04878" lon="5.9858">
        <ele>1032.4</ele>
        <time>2061-01-03T16:18:31Z</time>
      </trkpt>
      <trkpt lat="45.04868" lon="5.9858">
        <ele>1031.8</ele>
        <time>2061-01-03T16:18:32Z</time>
      </trkpt>
      <trkpt lat="45.04852" lon="5.98587">
        <ele>1030.7</ele>
        <time>2061-01-03T16:18:34Z</time>
      </trkpt>
      <trkpt lat="45.04844" lon="5.98599">
        <ele>1029.8</ele>
        <time>2061-01-03T16:18:36Z</time>
      </trkpt>
      <trkpt lat="45.04844" lon="5.98612">
        <ele>1028.9</ele>
        <time>2061-01-03T16:18:38Z</time>
      </trkpt>
      <trkpt lat="45.04845" lon="5.9863">
        <ele>1027.6</ele>
        <time>2061-01-03T16:18:41Z</time>
      </trkpt>
      <trkpt lat="45.04845" lon="5.98645">
        <ele>1026.4</ele>
        <time>2061-01-03T16:18:44Z</time>
      </trkpt>
      <trkpt lat="45.04846" lon="5.98658">
        <ele>1025.5</ele>
        <time>2061-01-03T16:18:47Z</time>
      </trkpt>
      <trkpt lat="45.0485" lon="5.9867">
        <ele>1024.5</ele>
        <time>2061-01-03T16:18:51Z</time>
      </trkpt>
      <trkpt lat="45.04859" lon="5.98679">
        <ele>1023.5</ele>
        <time>2061-01-03T16:18:56Z</time>
      </trkpt>
      <trkpt lat="45.04867" lon="5.98687">
        <ele>1022.9</ele>
        <time>2061-01-03T16:19:00Z</time>
      </trkpt>
      <trkpt lat="45.04875" lon="5.98697">
        <ele>1022.8</ele>
        <time>2061-01-03T16:19:05Z</time>
      </trkpt>
      <trkpt lat="45.04882" lon="5.98708">
        <ele>1022.9</ele>
        <time>2061-01-03T16:19:10Z</time>
      </trkpt>
      <trkpt lat="45.04883" lon="5.98722">
        <ele>1022.9</ele>
        <time>2061-01-03T16:19:15Z</time>
      </trkpt>
      <trkpt lat="45.04885" lon="5.98736">
        <ele>1023.5</ele>
        <time>2061-01-03T16:19:20Z</time>
      </trkpt>
      <trkpt lat="45.04887" lon="5.9875">
        <ele>1023.9</ele>
        <time>2061-01-03T16:19:25Z</time>
      </trkpt>
      <trkpt lat="45.04891" lon="5.98762">
        <ele>1024.4</ele>
        <time>2061-01-03T16:19:30Z</time>
      </trkpt>
      <trkpt lat="45.04897" lon="5.98773">
        <ele>1025.1</ele>
        <time>2061-01-03T16:19:36Z</time>
      </trkpt>
      <trkpt lat="45.04902" lon="5.98785">
        <ele>1026.9</ele>
        <time>2061-01-03T16:19:44Z</time>
      </trkpt>
      <trkpt lat="45.04909" lon="5.98793">
        <ele>1027.8</ele>
        <time>2061-01-03T16:19:49Z</time>
      </trkpt>
      <trkpt lat="45.04917" lon="5.98803">
        <ele>1028.5</ele>
        <time>2061-01-03T16:19:54Z</time>
      </trkpt>
      <trkpt lat="45.0491" lon="5.98793">
        <ele>1030.1</ele>
        <time>2061-01-03T16:20:07Z</time>
      </trkpt>
      <trkpt lat="45.04903" lon="5.98784">
        <ele>1030.9</ele>
        <time>2061-01-03T16:20:13Z</time>
      </trkpt>
      <trkpt lat="45.04895" lon="5.98776">
        <ele>1031.7</ele>
        <time>2061-01-03T16:20:19Z</time>
      </trkpt>
      <trkpt lat="45.04886" lon="5.98767">
        <ele>1032.8</ele>
        <time>2061-01-03T16:20:25Z</time>
      </trkpt>
      <trkpt lat="45.04879" lon="5.98757">
        <ele>1033.9</ele>
        <time>2061-01-03T16:20:30Z</time>
      </trkpt>
      <trkpt lat="45.04875" lon="5.98745">
        <ele>1034.9</ele>
        <time>2061-01-03T16:20:35Z</time>
      </trkpt>
      <trkpt lat="45.04872" lon="5.98732">
        <ele>1035.6</ele>
        <time>2061-01-03T16:20:40Z</time>
      </trkpt>
      <trkpt lat="45.04867" lon="5.9872">
        <ele>1036.8</ele>
        <time>2061-01-03T16:20:45Z</time>
      </trkpt>
      <trkpt lat="45.04861" lon="5.98711">
        <ele>1037.9</ele>
        <time>2061-01-03T16:20:50Z</time>
      </trkpt>
      <trkpt lat="45.04852" lon="5.98704">
        <ele>1038.6</ele>
        <time>2061-01-03T16:20:55Z</time>
      </trkpt>
      <trkpt lat="45.04843" lon="5.987">
        <ele>1039.5</ele>
        <time>2061-01-03T16:21:00Z</time>
      </trkpt>
      <trkpt lat="45.04833" lon="5.98698">
        <ele>1040.3</ele>
        <time>2061-01-03T16:21:05Z</time>
      </trkpt>
      <trkpt lat="45.04823" lon="5.98696">
        <ele>1041.1</ele>
        <time>2061-01-03T16:21:10Z</time>
      </trkpt>
      <trkpt lat="45.04813" lon="5.98694">
        <ele>1041.8</ele>
        <time>2061-01-03T16:21:15Z</time>
      </trkpt>
      <trkpt lat="45.04803" lon="5.9869">
        <ele>1042.5</ele>
        <time>2061-01-03T16:21:20Z</time>
      </trkpt>
      <trkpt lat="45.04793" lon="5.98686">
        <ele>1043.2</ele>
        <time>2061-01-03T16:21:25Z</time>
      </trkpt>
      <trkpt lat="45.04784" lon="5.98684">
        <ele>1043.7</ele>
        <time>2061-01-03T16:21:29Z</time>
      </trkpt>
      <trkpt lat="45.04773" lon="5.98683">
        <ele>1044.6</ele>
        <time>2061-01-03T16:21:34Z</time>
      </trkpt>
      <trkpt lat="45.04763" lon="5.98685">
        <ele>1045.5</ele>
        <time>2061-01-03T16:21:38Z</time>
      </trkpt>
      <trkpt lat="45.04755" lon="5.9869">
        <ele>1046.2</ele>
        <time>2061-01-03T16:21:42Z</time>
      </trkpt>
      <trkpt lat="45.04745" lon="5.98698">
        <ele>1046.9</ele>
        <time>2061-01-03T16:21:47Z</time>
      </trkpt>
      <trkpt lat="45.04737" lon="5.98707">
        <ele>1047.4</ele>
        <time>2061-01-03T16:21:52Z</time>
      </trkpt>
      <trkpt lat="45.04727" lon="5.9872">
        <ele>1047</ele>
        <time>2061-01-03T16:21:58Z</time>
      </trkpt>
      <trkpt lat="45.04719" lon="5.98728">
        <ele>1048.5</ele>
        <time>2061-01-03T16:22:03Z</time>
      </trkpt>
      <trkpt lat="45.04713" lon="5.98737">
        <ele>1049</ele>
        <time>2061-01-03T16:22:08Z</time>
      </trkpt>
      <trkpt lat="45.04706" lon="5.98746">
        <ele>1049.8</ele>
        <time>2061-01-03T16:22:13Z</time>
      </trkpt>
      <trkpt lat="45.047" lon="5.98756">
        <ele>1050.8</ele>
        <time>2061-01-03T16:22:18Z</time>
      </trkpt>
      <trkpt lat="45.04694" lon="5.98767">
        <ele>1051.9</ele>
        <time>2061-01-03T16:22:24Z</time>
      </trkpt>
      <trkpt lat="45.04691" lon="5.98781">
        <ele>1053.3</ele>
        <time>2061-01-03T16:22:30Z</time>
      </trkpt>
      <trkpt lat="45.04687" lon="5.98793">
        <ele>1054.4</ele>
        <time>2061-01-03T16:22:35Z</time>
      </trkpt>
      <trkpt lat="45.04682" lon="5.98803">
        <ele>1055.3</ele>
        <time>2061-01-03T16:22:40Z</time>
      </trkpt>
      <trkpt lat="45.04674" lon="5.98811">
        <ele>1056.3</ele>
        <time>2061-01-03T16:22:45Z</time>
      </trkpt>
      <trkpt lat="45.04665" lon="5.98819">
        <ele>1057.5</ele>
        <time>2061-01-03T16:22:50Z</time>
      </trkpt>
      <trkpt lat="45.04659" lon="5.98827">
        <ele>1058.3</ele>
        <time>2061-01-03T16:22:55Z</time>
      </trkpt>
      <trkpt lat="45.04652" lon="5.98839">
        <ele>1059.2</ele>
        <time>2061-01-03T16:23:01Z</time>
      </trkpt>
      <trkpt lat="45.04644" lon="5.9885">
        <ele>1060.3</ele>
        <time>2061-01-03T16:23:07Z</time>
      </trkpt>
      <trkpt lat="45.04639" lon="5.9886">
        <ele>1061.5</ele>
        <time>2061-01-03T16:23:12Z</time>
      </trkpt>
      <trkpt lat="45.04635" lon="5.98872">
        <ele>1062.4</ele>
        <time>2061-01-03T16:23:17Z</time>
      </trkpt>
      <trkpt lat="45.04634" lon="5.98886">
        <ele>1063.2</ele>
        <time>2061-01-03T16:23:22Z</time>
      </trkpt>
      <trkpt lat="45.04643" lon="5.98894">
        <ele>1064.2</ele>
        <time>2061-01-03T16:23:27Z</time>
      </trkpt>
      <trkpt lat="45.04651" lon="5.98887">
        <ele>1065.5</ele>
        <time>2061-01-03T16:23:32Z</time>
      </trkpt>
      <trkpt lat="45.04653" lon="5.98874">
        <ele>1066.4</ele>
        <time>2061-01-03T16:23:37Z</time>
      </trkpt>
      <trkpt lat="45.04658" lon="5.98861">
        <ele>1067.3</ele>
        <time>2061-01-03T16:23:42Z</time>
      </trkpt>
      <trkpt lat="45.04666" lon="5.98853">
        <ele>1067.9</ele>
        <time>2061-01-03T16:23:47Z</time>
      </trkpt>
      <trkpt lat="45.04675" lon="5.98846">
        <ele>1068.1</ele>
        <time>2061-01-03T16:23:52Z</time>
      </trkpt>
      <trkpt lat="45.04685" lon="5.98841">
        <ele>1068.8</ele>
        <time>2061-01-03T16:23:57Z</time>
      </trkpt>
      <trkpt lat="45.04695" lon="5.98836">
        <ele>1069.4</ele>
        <time>2061-01-03T16:24:02Z</time>
      </trkpt>
      <trkpt lat="45.04704" lon="5.9883">
        <ele>1070.3</ele>
        <time>2061-01-03T16:24:07Z</time>
      </trkpt>
      <trkpt lat="45.04713" lon="5.98823">
        <ele>1071.2</ele>
        <time>2061-01-03T16:24:13Z</time>
      </trkpt>
      <trkpt lat="45.04721" lon="5.98817">
        <ele>1072.1</ele>
        <time>2061-01-03T16:24:18Z</time>
      </trkpt>
      <trkpt lat="45.0473" lon="5.98812">
        <ele>1072.8</ele>
        <time>2061-01-03T16:24:23Z</time>
      </trkpt>
      <trkpt lat="45.04739" lon="5.98808">
        <ele>1073.4</ele>
        <time>2061-01-03T16:24:28Z</time>
      </trkpt>
      <trkpt lat="45.04749" lon="5.98807">
        <ele>1074.1</ele>
        <time>2061-01-03T16:24:33Z</time>
      </trkpt>
      <trkpt lat="45.04758" lon="5.98807">
        <ele>1074.9</ele>
        <time>2061-01-03T16:24:38Z</time>
      </trkpt>
      <trkpt lat="45.04767" lon="5.9881">
        <ele>1075.7</ele>
        <time>2061-01-03T16:24:43Z</time>
      </trkpt>
      <trkpt lat="45.04776" lon="5.98818">
        <ele>1076.6</ele>
        <time>2061-01-03T16:24:49Z</time>
      </trkpt>
      <trkpt lat="45.04783" lon="5.98825">
        <ele>1077.7</ele>
        <time>2061-01-03T16:24:55Z</time>
      </trkpt>
      <trkpt lat="45.04792" lon="5.98833">
        <ele>1078.9</ele>
        <time>2061-01-03T16:25:02Z</time>
      </trkpt>
      <trkpt lat="45.04798" lon="5.98843">
        <ele>1080.6</ele>
        <time>2061-01-03T16:25:09Z</time>
      </trkpt>
      <trkpt lat="45.04805" lon="5.98852">
        <ele>1081.8</ele>
        <time>2061-01-03T16:25:15Z</time>
      </trkpt>
      <trkpt lat="45.04814" lon="5.98857">
        <ele>1082.6</ele>
        <time>2061-01-03T16:25:20Z</time>
      </trkpt>
      <trkpt lat="45.04823" lon="5.98864">
        <ele>1083.3</ele>
        <time>2061-01-03T16:25:25Z</time>
      </trkpt>
      <trkpt lat="45.04832" lon="5.9887">
        <ele>1084.1</ele>
        <time>2061-01-03T16:25:29Z</time>
      </trkpt>
      <trkpt lat="45.04841" lon="5.98876">
        <ele>1084.8</ele>
        <time>2061-01-03T16:25:33Z</time>
      </trkpt>
      <trkpt lat="45.04849" lon="5.98883">
        <ele>1085.3</ele>
        <time>2061-01-03T16:25:37Z</time>
      </trkpt>
      <trkpt lat="45.04855" lon="5.98895">
        <ele>1085.8</ele>
        <time>2061-01-03T16:25:42Z</time>
      </trkpt>
      <trkpt lat="45.04849" lon="5.98884">
        <ele>1087.5</ele>
        <time>2061-01-03T16:25:52Z</time>
      </trkpt>
      <trkpt lat="45.04841" lon="5.98876">
        <ele>1088.6</ele>
        <time>2061-01-03T16:25:58Z</time>
      </trkpt>
      <trkpt lat="45.0483" lon="5.98873">
        <ele>1089.7</ele>
        <time>2061-01-03T16:26:04Z</time>
      </trkpt>
      <trkpt lat="45.04822" lon="5.98868">
        <ele>1090.3</ele>
        <time>2061-01-03T16:26:09Z</time>
      </trkpt>
      <trkpt lat="45.04813" lon="5.98862">
        <ele>1091.4</ele>
        <time>2061-01-03T16:26:14Z</time>
      </trkpt>
      <trkpt lat="45.04803" lon="5.98857">
        <ele>1092.2</ele>
        <time>2061-01-03T16:26:19Z</time>
      </trkpt>
      <trkpt lat="45.04793" lon="5.98853">
        <ele>1092.9</ele>
        <time>2061-01-03T16:26:24Z</time>
      </trkpt>
      <trkpt lat="45.04783" lon="5.98849">
        <ele>1093.5</ele>
        <time>2061-01-03T16:26:29Z</time>
      </trkpt>
      <trkpt lat="45.04773" lon="5.98846">
        <ele>1094.3</ele>
        <time>2061-01-03T16:26:34Z</time>
      </trkpt>
      <trkpt lat="45.04763" lon="5.98846">
        <ele>1095.1</ele>
        <time>2061-01-03T16:26:39Z</time>
      </trkpt>
      <trkpt lat="45.04753" lon="5.98851">
        <ele>1095.7</ele>
        <time>2061-01-03T16:26:44Z</time>
      </trkpt>
      <trkpt lat="45.04744" lon="5.9886">
        <ele>1096.6</ele>
        <time>2061-01-03T16:26:49Z</time>
      </trkpt>
      <trkpt lat="45.04737" lon="5.98869">
        <ele>1097.4</ele>
        <time>2061-01-03T16:26:54Z</time>
      </trkpt>
      <trkpt lat="45.04729" lon="5.98879">
        <ele>1098.3</ele>
        <time>2061-01-03T16:26:59Z</time>
      </trkpt>
      <trkpt lat="45.04722" lon="5.98888">
        <ele>1099.2</ele>
        <time>2061-01-03T16:27:04Z</time>
      </trkpt>
      <trkpt lat="45.04715" lon="5.98897">
        <ele>1100</ele>
        <time>2061-01-03T16:27:09Z</time>
      </trkpt>
      <trkpt lat="45.04708" lon="5.98906">
        <ele>1100.9</ele>
        <time>2061-01-03T16:27:14Z</time>
      </trkpt>
      <trkpt lat="45.04702" lon="5.98916">
        <ele>1102.1</ele>
        <time>2061-01-03T16:27:19Z</time>
      </trkpt>
      <trkpt lat="45.04696" lon="5.98928">
        <ele>1103.5</ele>
        <time>2061-01-03T16:27:24Z</time>
      </trkpt>
      <trkpt lat="45.04691" lon="5.9894">
        <ele>1104.4</ele>
        <time>2061-01-03T16:27:29Z</time>
      </trkpt>
      <trkpt lat="45.04685" lon="5.98952">
        <ele>1105.2</ele>
        <time>2061-01-03T16:27:34Z</time>
      </trkpt>
      <trkpt lat="45.0468" lon="5.98965">
        <ele>1105.7</ele>
        <time>2061-01-03T16:27:39Z</time>
      </trkpt>
      <trkpt lat="45.04682" lon="5.98978">
        <ele>1106.4</ele>
        <time>2061-01-03T16:27:44Z</time>
      </trkpt>
      <trkpt lat="45.04691" lon="5.98976">
        <ele>1107.4</ele>
        <time>2061-01-03T16:27:49Z</time>
      </trkpt>
      <trkpt lat="45.04695" lon="5.98965">
        <ele>1108</ele>
        <time>2061-01-03T16:27:54Z</time>
      </trkpt>
      <trkpt lat="45.047" lon="5.98953">
        <ele>1108.4</ele>
        <time>2061-01-03T16:27:59Z</time>
      </trkpt>
      <trkpt lat="45.04706" lon="5.98941">
        <ele>1109.1</ele>
        <time>2061-01-03T16:28:05Z</time>
      </trkpt>
      <trkpt lat="45.04713" lon="5.98932">
        <ele>1109.8</ele>
        <time>2061-01-03T16:28:10Z</time>
      </trkpt>
      <trkpt lat="45.04721" lon="5.98925">
        <ele>1110.5</ele>
        <time>2061-01-03T16:28:15Z</time>
      </trkpt>
      <trkpt lat="45.04729" lon="5.98919">
        <ele>1111.5</ele>
        <time>2061-01-03T16:28:20Z</time>
      </trkpt>
      <trkpt lat="45.04737" lon="5.98912">
        <ele>1112.6</ele>
        <time>2061-01-03T16:28:25Z</time>
      </trkpt>
      <trkpt lat="45.04746" lon="5.98907">
        <ele>1113.4</ele>
        <time>2061-01-03T16:28:30Z</time>
      </trkpt>
      <trkpt lat="45.04755" lon="5.98903">
        <ele>1114.2</ele>
        <time>2061-01-03T16:28:35Z</time>
      </trkpt>
      <trkpt lat="45.04765" lon="5.98899">
        <ele>1115.5</ele>
        <time>2061-01-03T16:28:41Z</time>
      </trkpt>
      <trkpt lat="45.04775" lon="5.98901">
        <ele>1116.4</ele>
        <time>2061-01-03T16:28:47Z</time>
      </trkpt>
      <trkpt lat="45.04783" lon="5.98908">
        <ele>1116.9</ele>
        <time>2061-01-03T16:28:53Z</time>
      </trkpt>
      <trkpt lat="45.04791" lon="5.98916">
        <ele>1117.4</ele>
        <time>2061-01-03T16:28:59Z</time>
      </trkpt>
      <trkpt lat="45.04798" lon="5.98924">
        <ele>1117.9</ele>
        <time>2061-01-03T16:29:05Z</time>
      </trkpt>
      <trkpt lat="45.04805" lon="5.98934">
        <ele>1118.7</ele>
        <time>2061-01-03T16:29:11Z</time>
      </trkpt>
      <trkpt lat="45.04812" lon="5.98944">
        <ele>1119.9</ele>
        <time>2061-01-03T16:29:18Z</time>
      </trkpt>
      <trkpt lat="45.04819" lon="5.98955">
        <ele>1121.6</ele>
        <time>2061-01-03T16:29:25Z</time>
      </trkpt>
      <trkpt lat="45.04826" lon="5.98965">
        <ele>1122.5</ele>
        <time>2061-01-03T16:29:32Z</time>
      </trkpt>
      <trkpt lat="45.0483" lon="5.98977">
        <ele>1123.9</ele>
        <time>2061-01-03T16:29:39Z</time>
      </trkpt>
      <trkpt lat="45.04832" lon="5.98991">
        <ele>1124.9</ele>
        <time>2061-01-03T16:29:46Z</time>
      </trkpt>
      <trkpt lat="45.04833" lon="5.99005">
        <ele>1125.8</ele>
        <time>2061-01-03T16:29:52Z</time>
      </trkpt>
      <trkpt lat="45.04835" lon="5.99018">
        <ele>1126.4</ele>
        <time>2061-01-03T16:29:58Z</time>
      </trkpt>
      <trkpt lat="45.04838" lon="5.99033">
        <ele>1127.6</ele>
        <time>2061-01-03T16:30:05Z</time>
      </trkpt>
      <trkpt lat="45.04841" lon="5.99046">
        <ele>1129.2</ele>
        <time>2061-01-03T16:30:12Z</time>
      </trkpt>
      <trkpt lat="45.04847" lon="5.99057">
        <ele>1130.2</ele>
        <time>2061-01-03T16:30:18Z</time>
      </trkpt>
      <trkpt lat="45.04854" lon="5.99068">
        <ele>1131.4</ele>
        <time>2061-01-03T16:30:26Z</time>
      </trkpt>
      <trkpt lat="45.04862" lon="5.99077">
        <ele>1132.3</ele>
        <time>2061-01-03T16:30:33Z</time>
      </trkpt>
      <trkpt lat="45.0487" lon="5.99085">
        <ele>1132.9</ele>
        <time>2061-01-03T16:30:39Z</time>
      </trkpt>
      <trkpt lat="45.04881" lon="5.99093">
        <ele>1133</ele>
        <time>2061-01-03T16:30:45Z</time>
      </trkpt>
      <trkpt lat="45.04889" lon="5.99099">
        <ele>1134</ele>
        <time>2061-01-03T16:30:50Z</time>
      </trkpt>
      <trkpt lat="45.04902" lon="5.99105">
        <ele>1135</ele>
        <time>2061-01-03T16:30:55Z</time>
      </trkpt>
      <trkpt lat="45.04911" lon="5.9911">
        <ele>1136</ele>
        <time>2061-01-03T16:30:59Z</time>
      </trkpt>
      <trkpt lat="45.0492" lon="5.99115">
        <ele>1137</ele>
        <time>2061-01-03T16:31:03Z</time>
      </trkpt>
      <trkpt lat="45.04929" lon="5.99122">
        <ele>1137</ele>
        <time>2061-01-03T16:31:07Z</time>
      </trkpt>
      <trkpt lat="45.04945" lon="5.99133">
        <ele>1138</ele>
        <time>2061-01-03T16:31:15Z</time>
      </trkpt>
      <trkpt lat="45.04955" lon="5.99136">
        <ele>1139</ele>
        <time>2061-01-03T16:31:19Z</time>
      </trkpt>
      <trkpt lat="45.04965" lon="5.99139">
        <ele>1139</ele>
        <time>2061-01-03T16:31:23Z</time>
      </trkpt>
      <trkpt lat="45.04974" lon="5.99141">
        <ele>1140</ele>
        <time>2061-01-03T16:31:27Z</time>
      </trkpt>
      <trkpt lat="45.0499" lon="5.99151">
        <ele>1141</ele>
        <time>2061-01-03T16:31:35Z</time>
      </trkpt>
      <trkpt lat="45.04998" lon="5.99159">
        <ele>1142.8</ele>
        <time>2061-01-03T16:31:41Z</time>
      </trkpt>
      <trkpt lat="45.05003" lon="5.9917">
        <ele>1143.6</ele>
        <time>2061-01-03T16:31:47Z</time>
      </trkpt>
      <trkpt lat="45.04989" lon="5.99168">
        <ele>1145</ele>
        <time>2061-01-03T16:31:57Z</time>
      </trkpt>
      <trkpt lat="45.04976" lon="5.99161">
        <ele>1146</ele>
        <time>2061-01-03T16:32:05Z</time>
      </trkpt>
      <trkpt lat="45.04964" lon="5.9916">
        <ele>1148</ele>
        <time>2061-01-03T16:32:13Z</time>
      </trkpt>
      <trkpt lat="45.04952" lon="5.99158">
        <ele>1149</ele>
        <time>2061-01-03T16:32:21Z</time>
      </trkpt>
      <trkpt lat="45.0494" lon="5.99158">
        <ele>1150</ele>
        <time>2061-01-03T16:32:29Z</time>
      </trkpt>
      <trkpt lat="45.04926" lon="5.99155">
        <ele>1151</ele>
        <time>2061-01-03T16:32:37Z</time>
      </trkpt>
      <trkpt lat="45.04911" lon="5.99154">
        <ele>1152</ele>
        <time>2061-01-03T16:32:45Z</time>
      </trkpt>
      <trkpt lat="45.049" lon="5.99151">
        <ele>1153.6</ele>
        <time>2061-01-03T16:32:52Z</time>
      </trkpt>
      <trkpt lat="45.04891" lon="5.99146">
        <ele>1154.7</ele>
        <time>2061-01-03T16:32:57Z</time>
      </trkpt>
      <trkpt lat="45.04878" lon="5.9914">
        <ele>1155</ele>
        <time>2061-01-03T16:33:04Z</time>
      </trkpt>
      <trkpt lat="45.04866" lon="5.99132">
        <ele>1156</ele>
        <time>2061-01-03T16:33:12Z</time>
      </trkpt>
      <trkpt lat="45.04856" lon="5.99125">
        <ele>1158</ele>
        <time>2061-01-03T16:33:18Z</time>
      </trkpt>
      <trkpt lat="45.04849" lon="5.99117">
        <ele>1159.1</ele>
        <time>2061-01-03T16:33:22Z</time>
      </trkpt>
      <trkpt lat="45.04842" lon="5.99108">
        <ele>1160</ele>
        <time>2061-01-03T16:33:26Z</time>
      </trkpt>
      <trkpt lat="45.04835" lon="5.99101">
        <ele>1160.7</ele>
        <time>2061-01-03T16:33:30Z</time>
      </trkpt>
      <trkpt lat="45.04825" lon="5.99093">
        <ele>1161.5</ele>
        <time>2061-01-03T16:33:35Z</time>
      </trkpt>
      <trkpt lat="45.04816" lon="5.99084">
        <ele>1162.3</ele>
        <time>2061-01-03T16:33:40Z</time>
      </trkpt>
      <trkpt lat="45.04809" lon="5.99074">
        <ele>1163</ele>
        <time>2061-01-03T16:33:45Z</time>
      </trkpt>
      <trkpt lat="45.04802" lon="5.99063">
        <ele>1163.5</ele>
        <time>2061-01-03T16:33:50Z</time>
      </trkpt>
      <trkpt lat="45.04795" lon="5.99052">
        <ele>1164.4</ele>
        <time>2061-01-03T16:33:56Z</time>
      </trkpt>
      <trkpt lat="45.04788" lon="5.99043">
        <ele>1165.4</ele>
        <time>2061-01-03T16:34:01Z</time>
      </trkpt>
      <trkpt lat="45.04779" lon="5.9904">
        <ele>1166</ele>
        <time>2061-01-03T16:34:06Z</time>
      </trkpt>
      <trkpt lat="45.04771" lon="5.99048">
        <ele>1166.9</ele>
        <time>2061-01-03T16:34:11Z</time>
      </trkpt>
      <trkpt lat="45.04765" lon="5.99058">
        <ele>1167.5</ele>
        <time>2061-01-03T16:34:16Z</time>
      </trkpt>
      <trkpt lat="45.0476" lon="5.9907">
        <ele>1168.2</ele>
        <time>2061-01-03T16:34:22Z</time>
      </trkpt>
      <trkpt lat="45.04768" lon="5.99077">
        <ele>1169.1</ele>
        <time>2061-01-03T16:34:29Z</time>
      </trkpt>
      <trkpt lat="45.04775" lon="5.99066">
        <ele>1170.2</ele>
        <time>2061-01-03T16:34:36Z</time>
      </trkpt>
      <trkpt lat="45.04784" lon="5.99061">
        <ele>1171.4</ele>
        <time>2061-01-03T16:34:43Z</time>
      </trkpt>
      <trkpt lat="45.04791" lon="5.99072">
        <ele>1172.4</ele>
        <time>2061-01-03T16:34:50Z</time>
      </trkpt>
      <trkpt lat="45.04797" lon="5.99083">
        <ele>1173.7</ele>
        <time>2061-01-03T16:34:57Z</time>
      </trkpt>
      <trkpt lat="45.04803" lon="5.99094">
        <ele>1174.9</ele>
        <time>2061-01-03T16:35:04Z</time>
      </trkpt>
      <trkpt lat="45.04809" lon="5.99106">
        <ele>1175.9</ele>
        <time>2061-01-03T16:35:11Z</time>
      </trkpt>
      <trkpt lat="45.04816" lon="5.99116">
        <ele>1176.6</ele>
        <time>2061-01-03T16:35:17Z</time>
      </trkpt>
      <trkpt lat="45.04823" lon="5.99126">
        <ele>1177.4</ele>
        <time>2061-01-03T16:35:23Z</time>
      </trkpt>
      <trkpt lat="45.04831" lon="5.99134">
        <ele>1178.5</ele>
        <time>2061-01-03T16:35:29Z</time>
      </trkpt>
      <trkpt lat="45.04837" lon="5.99144">
        <ele>1179.6</ele>
        <time>2061-01-03T16:35:36Z</time>
      </trkpt>
      <trkpt lat="45.04843" lon="5.99155">
        <ele>1180.9</ele>
        <time>2061-01-03T16:35:44Z</time>
      </trkpt>
      <trkpt lat="45.04849" lon="5.99167">
        <ele>1182</ele>
        <time>2061-01-03T16:35:51Z</time>
      </trkpt>
      <trkpt lat="45.04854" lon="5.99177">
        <ele>1183</ele>
        <time>2061-01-03T16:35:57Z</time>
      </trkpt>
      <trkpt lat="45.04863" lon="5.99184">
        <ele>1183.8</ele>
        <time>2061-01-03T16:36:02Z</time>
      </trkpt>
      <trkpt lat="45.04871" lon="5.99189">
        <ele>1184.4</ele>
        <time>2061-01-03T16:36:07Z</time>
      </trkpt>
      <trkpt lat="45.0488" lon="5.99196">
        <ele>1185.3</ele>
        <time>2061-01-03T16:36:12Z</time>
      </trkpt>
      <trkpt lat="45.04888" lon="5.99203">
        <ele>1186.3</ele>
        <time>2061-01-03T16:36:17Z</time>
      </trkpt>
      <trkpt lat="45.04897" lon="5.99207">
        <ele>1187.1</ele>
        <time>2061-01-03T16:36:22Z</time>
      </trkpt>
      <trkpt lat="45.04912" lon="5.99212">
        <ele>1188</ele>
        <time>2061-01-03T16:36:30Z</time>
      </trkpt>
      <trkpt lat="45.04922" lon="5.99217">
        <ele>1189.4</ele>
        <time>2061-01-03T16:36:36Z</time>
      </trkpt>
      <trkpt lat="45.04931" lon="5.99222">
        <ele>1190</ele>
        <time>2061-01-03T16:36:41Z</time>
      </trkpt>
      <trkpt lat="45.0494" lon="5.99228">
        <ele>1191</ele>
        <time>2061-01-03T16:36:46Z</time>
      </trkpt>
      <trkpt lat="45.04949" lon="5.99233">
        <ele>1191.9</ele>
        <time>2061-01-03T16:36:51Z</time>
      </trkpt>
      <trkpt lat="45.04957" lon="5.99239">
        <ele>1192.5</ele>
        <time>2061-01-03T16:36:56Z</time>
      </trkpt>
      <trkpt lat="45.04966" lon="5.99244">
        <ele>1193.1</ele>
        <time>2061-01-03T16:37:01Z</time>
      </trkpt>
      <trkpt lat="45.04975" lon="5.9925">
        <ele>1193.9</ele>
        <time>2061-01-03T16:37:06Z</time>
      </trkpt>
      <trkpt lat="45.04984" lon="5.99256">
        <ele>1194.5</ele>
        <time>2061-01-03T16:37:11Z</time>
      </trkpt>
      <trkpt lat="45.04992" lon="5.99263">
        <ele>1195.7</ele>
        <time>2061-01-03T16:37:16Z</time>
      </trkpt>
      <trkpt lat="45.05002" lon="5.99269">
        <ele>1196.4</ele>
        <time>2061-01-03T16:37:21Z</time>
      </trkpt>
      <trkpt lat="45.0501" lon="5.99276">
        <ele>1197.2</ele>
        <time>2061-01-03T16:37:26Z</time>
      </trkpt>
      <trkpt lat="45.05019" lon="5.99285">
        <ele>1198.1</ele>
        <time>2061-01-03T16:37:31Z</time>
      </trkpt>
      <trkpt lat="45.05027" lon="5.99294">
        <ele>1198.8</ele>
        <time>2061-01-03T16:37:36Z</time>
      </trkpt>
      <trkpt lat="45.05033" lon="5.99304">
        <ele>1199.5</ele>
        <time>2061-01-03T16:37:41Z</time>
      </trkpt>
      <trkpt lat="45.05039" lon="5.99315">
        <ele>1200.1</ele>
        <time>2061-01-03T16:37:46Z</time>
      </trkpt>
      <trkpt lat="45.05044" lon="5.99327">
        <ele>1200.9</ele>
        <time>2061-01-03T16:37:51Z</time>
      </trkpt>
      <trkpt lat="45.05051" lon="5.99336">
        <ele>1201.9</ele>
        <time>2061-01-03T16:37:56Z</time>
      </trkpt>
      <trkpt lat="45.0506" lon="5.99344">
        <ele>1202.8</ele>
        <time>2061-01-03T16:38:01Z</time>
      </trkpt>
      <trkpt lat="45.05067" lon="5.99354">
        <ele>1203.4</ele>
        <time>2061-01-03T16:38:06Z</time>
      </trkpt>
      <trkpt lat="45.05068" lon="5.99367">
        <ele>1204.1</ele>
        <time>2061-01-03T16:38:11Z</time>
      </trkpt>
      <trkpt lat="45.05058" lon="5.99367">
        <ele>1205</ele>
        <time>2061-01-03T16:38:18Z</time>
      </trkpt>
      <trkpt lat="45.05052" lon="5.99356">
        <ele>1205.7</ele>
        <time>2061-01-03T16:38:24Z</time>
      </trkpt>
      <trkpt lat="45.05044" lon="5.99346">
        <ele>1206.6</ele>
        <time>2061-01-03T16:38:30Z</time>
      </trkpt>
      <trkpt lat="45.05037" lon="5.99337">
        <ele>1207.4</ele>
        <time>2061-01-03T16:38:35Z</time>
      </trkpt>
      <trkpt lat="45.05031" lon="5.99327">
        <ele>1208.2</ele>
        <time>2061-01-03T16:38:40Z</time>
      </trkpt>
      <trkpt lat="45.05024" lon="5.99319">
        <ele>1209.1</ele>
        <time>2061-01-03T16:38:45Z</time>
      </trkpt>
      <trkpt lat="45.05015" lon="5.99313">
        <ele>1209.8</ele>
        <time>2061-01-03T16:38:50Z</time>
      </trkpt>
      <trkpt lat="45.05006" lon="5.99308">
        <ele>1210.5</ele>
        <time>2061-01-03T16:38:55Z</time>
      </trkpt>
      <trkpt lat="45.04996" lon="5.99307">
        <ele>1211.5</ele>
        <time>2061-01-03T16:39:01Z</time>
      </trkpt>
      <trkpt lat="45.04985" lon="5.99305">
        <ele>1212.6</ele>
        <time>2061-01-03T16:39:08Z</time>
      </trkpt>
      <trkpt lat="45.04975" lon="5.99304">
        <ele>1213.6</ele>
        <time>2061-01-03T16:39:15Z</time>
      </trkpt>
      <trkpt lat="45.04966" lon="5.99303">
        <ele>1214.5</ele>
        <time>2061-01-03T16:39:21Z</time>
      </trkpt>
      <trkpt lat="45.04957" lon="5.993">
        <ele>1215.3</ele>
        <time>2061-01-03T16:39:27Z</time>
      </trkpt>
      <trkpt lat="45.04947" lon="5.99298">
        <ele>1216.8</ele>
        <time>2061-01-03T16:39:34Z</time>
      </trkpt>
      <trkpt lat="45.04937" lon="5.99295">
        <ele>1217.9</ele>
        <time>2061-01-03T16:39:41Z</time>
      </trkpt>
      <trkpt lat="45.04928" lon="5.99291">
        <ele>1218.7</ele>
        <time>2061-01-03T16:39:47Z</time>
      </trkpt>
      <trkpt lat="45.04919" lon="5.99286">
        <ele>1219.7</ele>
        <time>2061-01-03T16:39:53Z</time>
      </trkpt>
      <trkpt lat="45.04909" lon="5.99283">
        <ele>1220.4</ele>
        <time>2061-01-03T16:39:59Z</time>
      </trkpt>
      <trkpt lat="45.04899" lon="5.99279">
        <ele>1221.3</ele>
        <time>2061-01-03T16:40:05Z</time>
      </trkpt>
      <trkpt lat="45.04889" lon="5.99276">
        <ele>1222.3</ele>
        <time>2061-01-03T16:40:11Z</time>
      </trkpt>
      <trkpt lat="45.0488" lon="5.99273">
        <ele>1223.1</ele>
        <time>2061-01-03T16:40:16Z</time>
      </trkpt>
      <trkpt lat="45.0487" lon="5.9927">
        <ele>1223.9</ele>
        <time>2061-01-03T16:40:21Z</time>
      </trkpt>
      <trkpt lat="45.0486" lon="5.99266">
        <ele>1224.7</ele>
        <time>2061-01-03T16:40:27Z</time>
      </trkpt>
      <trkpt lat="45.04851" lon="5.99261">
        <ele>1225.4</ele>
        <time>2061-01-03T16:40:33Z</time>
      </trkpt>
      <trkpt lat="45.04841" lon="5.99257">
        <ele>1226.6</ele>
        <time>2061-01-03T16:40:39Z</time>
      </trkpt>
      <trkpt lat="45.04832" lon="5.99252">
        <ele>1227.4</ele>
        <time>2061-01-03T16:40:45Z</time>
      </trkpt>
      <trkpt lat="45.04823" lon="5.99248">
        <ele>1228</ele>
        <time>2061-01-03T16:40:51Z</time>
      </trkpt>
      <trkpt lat="45.04814" lon="5.99243">
        <ele>1229</ele>
        <time>2061-01-03T16:40:57Z</time>
      </trkpt>
      <trkpt lat="45.04804" lon="5.9924">
        <ele>1230</ele>
        <time>2061-01-03T16:41:03Z</time>
      </trkpt>
      <trkpt lat="45.04793" lon="5.99238">
        <ele>1230.9</ele>
        <time>2061-01-03T16:41:09Z</time>
      </trkpt>
      <trkpt lat="45.04784" lon="5.99237">
        <ele>1231.8</ele>
        <time>2061-01-03T16:41:15Z</time>
      </trkpt>
      <trkpt lat="45.04773" lon="5.99238">
        <ele>1232.7</ele>
        <time>2061-01-03T16:41:21Z</time>
      </trkpt>
      <trkpt lat="45.04765" lon="5.99242">
        <ele>1233.6</ele>
        <time>2061-01-03T16:41:26Z</time>
      </trkpt>
      <trkpt lat="45.04756" lon="5.99246">
        <ele>1234.1</ele>
        <time>2061-01-03T16:41:31Z</time>
      </trkpt>
      <trkpt lat="45.04748" lon="5.99251">
        <ele>1234.6</ele>
        <time>2061-01-03T16:41:36Z</time>
      </trkpt>
      <trkpt lat="45.04741" lon="5.99261">
        <ele>1235.2</ele>
        <time>2061-01-03T16:41:42Z</time>
      </trkpt>
      <trkpt lat="45.04735" lon="5.99271">
        <ele>1236</ele>
        <time>2061-01-03T16:41:48Z</time>
      </trkpt>
      <trkpt lat="45.0473" lon="5.99283">
        <ele>1236.9</ele>
        <time>2061-01-03T16:41:54Z</time>
      </trkpt>
      <trkpt lat="45.04727" lon="5.99297">
        <ele>1237.6</ele>
        <time>2061-01-03T16:42:00Z</time>
      </trkpt>
      <trkpt lat="45.04724" lon="5.9931">
        <ele>1238.4</ele>
        <time>2061-01-03T16:42:05Z</time>
      </trkpt>
      <trkpt lat="45.04719" lon="5.99322">
        <ele>1239.2</ele>
        <time>2061-01-03T16:42:10Z</time>
      </trkpt>
      <trkpt lat="45.04712" lon="5.99331">
        <ele>1240.4</ele>
        <time>2061-01-03T16:42:16Z</time>
      </trkpt>
      <trkpt lat="45.04705" lon="5.99339">
        <ele>1241.3</ele>
        <time>2061-01-03T16:42:22Z</time>
      </trkpt>
      <trkpt lat="45.04696" lon="5.99346">
        <ele>1242.1</ele>
        <time>2061-01-03T16:42:28Z</time>
      </trkpt>
      <trkpt lat="45.04688" lon="5.99353">
        <ele>1242.9</ele>
        <time>2061-01-03T16:42:34Z</time>
      </trkpt>
      <trkpt lat="45.04681" lon="5.99362">
        <ele>1243.8</ele>
        <time>2061-01-03T16:42:40Z</time>
      </trkpt>
      <trkpt lat="45.04672" lon="5.99371">
        <ele>1244.8</ele>
        <time>2061-01-03T16:42:46Z</time>
      </trkpt>
      <trkpt lat="45.04664" lon="5.99379">
        <ele>1245.6</ele>
        <time>2061-01-03T16:42:52Z</time>
      </trkpt>
      <trkpt lat="45.04657" lon="5.99391">
        <ele>1246.4</ele>
        <time>2061-01-03T16:42:58Z</time>
      </trkpt>
      <trkpt lat="45.04653" lon="5.99404">
        <ele>1247.3</ele>
        <time>2061-01-03T16:43:04Z</time>
      </trkpt>
      <trkpt lat="45.04649" lon="5.99417">
        <ele>1248.5</ele>
        <time>2061-01-03T16:43:10Z</time>
      </trkpt>
      <trkpt lat="45.04644" lon="5.99428">
        <ele>1249.5</ele>
        <time>2061-01-03T16:43:16Z</time>
      </trkpt>
      <trkpt lat="45.04638" lon="5.99439">
        <ele>1250.6</ele>
        <time>2061-01-03T16:43:22Z</time>
      </trkpt>
      <trkpt lat="45.04631" lon="5.99447">
        <ele>1251.3</ele>
        <time>2061-01-03T16:43:28Z</time>
      </trkpt>
      <trkpt lat="45.04624" lon="5.99457">
        <ele>1252.2</ele>
        <time>2061-01-03T16:43:34Z</time>
      </trkpt>
      <trkpt lat="45.04616" lon="5.99466">
        <ele>1253</ele>
        <time>2061-01-03T16:43:40Z</time>
      </trkpt>
      <trkpt lat="45.04607" lon="5.99473">
        <ele>1253.8</ele>
        <time>2061-01-03T16:43:46Z</time>
      </trkpt>
      <trkpt lat="45.04598" lon="5.9948">
        <ele>1254.7</ele>
        <time>2061-01-03T16:43:52Z</time>
      </trkpt>
      <trkpt lat="45.0459" lon="5.99488">
        <ele>1255.5</ele>
        <time>2061-01-03T16:43:58Z</time>
      </trkpt>
      <trkpt lat="45.04583" lon="5.99497">
        <ele>1256.2</ele>
        <time>2061-01-03T16:44:04Z</time>
      </trkpt>
      <trkpt lat="45.04575" lon="5.99507">
        <ele>1257.6</ele>
        <time>2061-01-03T16:44:11Z</time>
      </trkpt>
      <trkpt lat="45.04569" lon="5.99519">
        <ele>1258.4</ele>
        <time>2061-01-03T16:44:17Z</time>
      </trkpt>
      <trkpt lat="45.04565" lon="5.9953">
        <ele>1259.1</ele>
        <time>2061-01-03T16:44:22Z</time>
      </trkpt>
      <trkpt lat="45.0456" lon="5.99542">
        <ele>1259.7</ele>
        <time>2061-01-03T16:44:27Z</time>
      </trkpt>
      <trkpt lat="45.04557" lon="5.99556">
        <ele>1260.3</ele>
        <time>2061-01-03T16:44:33Z</time>
      </trkpt>
      <trkpt lat="45.04552" lon="5.99568">
        <ele>1260.9</ele>
        <time>2061-01-03T16:44:39Z</time>
      </trkpt>
      <trkpt lat="45.0455" lon="5.99581">
        <ele>1261.8</ele>
        <time>2061-01-03T16:44:45Z</time>
      </trkpt>
      <trkpt lat="45.04552" lon="5.99594">
        <ele>1262.8</ele>
        <time>2061-01-03T16:44:51Z</time>
      </trkpt>
      <trkpt lat="45.04549" lon="5.99608">
        <ele>1263.9</ele>
        <time>2061-01-03T16:44:57Z</time>
      </trkpt>
      <trkpt lat="45.04546" lon="5.9962">
        <ele>1264.6</ele>
        <time>2061-01-03T16:45:02Z</time>
      </trkpt>
      <trkpt lat="45.04541" lon="5.99631">
        <ele>1265.7</ele>
        <time>2061-01-03T16:45:07Z</time>
      </trkpt>
      <trkpt lat="45.04531" lon="5.99635">
        <ele>1266</ele>
        <time>2061-01-03T16:45:13Z</time>
      </trkpt>
      <trkpt lat="45.04519" lon="5.99623">
        <ele>1267</ele>
        <time>2061-01-03T16:45:21Z</time>
      </trkpt>
      <trkpt lat="45.04507" lon="5.99621">
        <ele>1268</ele>
        <time>2061-01-03T16:45:29Z</time>
      </trkpt>
      <trkpt lat="45.04498" lon="5.99627">
        <ele>1268</ele>
        <time>2061-01-03T16:45:37Z</time>
      </trkpt>
      <trkpt lat="45.04486" lon="5.99635">
        <ele>1269</ele>
        <time>2061-01-03T16:45:45Z</time>
      </trkpt>
      <trkpt lat="45.04473" lon="5.99637">
        <ele>1269</ele>
        <time>2061-01-03T16:45:53Z</time>
      </trkpt>
      <trkpt lat="45.0446" lon="5.99639">
        <ele>1270</ele>
        <time>2061-01-03T16:46:01Z</time>
      </trkpt>
      <trkpt lat="45.04448" lon="5.99643">
        <ele>1271</ele>
        <time>2061-01-03T16:46:09Z</time>
      </trkpt>
      <trkpt lat="45.04436" lon="5.99645">
        <ele>1272</ele>
        <time>2061-01-03T16:46:17Z</time>
      </trkpt>
      <trkpt lat="45.04423" lon="5.99653">
        <ele>1273</ele>
        <time>2061-01-03T16:46:25Z</time>
      </trkpt>
      <trkpt lat="45.04411" lon="5.99664">
        <ele>1275</ele>
        <time>2061-01-03T16:46:33Z</time>
      </trkpt>
      <trkpt lat="45.04399" lon="5.99672">
        <ele>1276</ele>
        <time>2061-01-03T16:46:41Z</time>
      </trkpt>
      <trkpt lat="45.04387" lon="5.99678">
        <ele>1277</ele>
        <time>2061-01-03T16:46:49Z</time>
      </trkpt>
      <trkpt lat="45.04375" lon="5.99679">
        <ele>1279</ele>
        <time>2061-01-03T16:46:57Z</time>
      </trkpt>
      <trkpt lat="45.04362" lon="5.99679">
        <ele>1280</ele>
        <time>2061-01-03T16:47:05Z</time>
      </trkpt>
      <trkpt lat="45.04349" lon="5.99679">
        <ele>1282</ele>
        <time>2061-01-03T16:47:13Z</time>
      </trkpt>
      <trkpt lat="45.04337" lon="5.99684">
        <ele>1283</ele>
        <time>2061-01-03T16:47:21Z</time>
      </trkpt>
      <trkpt lat="45.04325" lon="5.99691">
        <ele>1285</ele>
        <time>2061-01-03T16:47:29Z</time>
      </trkpt>
      <trkpt lat="45.04312" lon="5.99696">
        <ele>1286</ele>
        <time>2061-01-03T16:47:37Z</time>
      </trkpt>
      <trkpt lat="45.043" lon="5.99697">
        <ele>1288</ele>
        <time>2061-01-03T16:47:45Z</time>
      </trkpt>
      <trkpt lat="45.04288" lon="5.99701">
        <ele>1289</ele>
        <time>2061-01-03T16:47:53Z</time>
      </trkpt>
      <trkpt lat="45.04279" lon="5.99704">
        <ele>1291.3</ele>
        <time>2061-01-03T16:47:59Z</time>
      </trkpt>
      <trkpt lat="45.04269" lon="5.99709">
        <ele>1292.5</ele>
        <time>2061-01-03T16:48:05Z</time>
      </trkpt>
      <trkpt lat="45.0426" lon="5.99714">
        <ele>1293.2</ele>
        <time>2061-01-03T16:48:10Z</time>
      </trkpt>
      <trkpt lat="45.0425" lon="5.9972">
        <ele>1294.1</ele>
        <time>2061-01-03T16:48:15Z</time>
      </trkpt>
      <trkpt lat="45.0424" lon="5.99727">
        <ele>1295.1</ele>
        <time>2061-01-03T16:48:20Z</time>
      </trkpt>
      <trkpt lat="45.04231" lon="5.99734">
        <ele>1295.9</ele>
        <time>2061-01-03T16:48:25Z</time>
      </trkpt>
      <trkpt lat="45.04223" lon="5.99742">
        <ele>1296.6</ele>
        <time>2061-01-03T16:48:30Z</time>
      </trkpt>
      <trkpt lat="45.04214" lon="5.9975">
        <ele>1297.3</ele>
        <time>2061-01-03T16:48:35Z</time>
      </trkpt>
      <trkpt lat="45.04206" lon="5.99759">
        <ele>1298.3</ele>
        <time>2061-01-03T16:48:40Z</time>
      </trkpt>
      <trkpt lat="45.042" lon="5.99769">
        <ele>1299</ele>
        <time>2061-01-03T16:48:45Z</time>
      </trkpt>
      <trkpt lat="45.04199" lon="5.99782">
        <ele>1302.1</ele>
        <time>2061-01-03T16:49:19Z</time>
      </trkpt>
      <trkpt lat="45.04206" lon="5.99792">
        <ele>1302.3</ele>
        <time>2061-01-03T16:50:27Z</time>
      </trkpt>
      <trkpt lat="45.04199" lon="5.99783">
        <ele>1303.3</ele>
        <time>2061-01-03T16:55:03Z</time>
      </trkpt>
      <trkpt lat="45.04207" lon="5.99788">
        <ele>1303.4</ele>
        <time>2061-01-03T16:57:55Z</time>
      </trkpt>
      <trkpt lat="45.04201" lon="5.99799">
        <ele>1303.9</ele>
        <time>2061-01-03T16:58:53Z</time>
      </trkpt>
      <trkpt lat="45.04202" lon="5.99812">
        <ele>1304</ele>
        <time>2061-01-03T16:59:01Z</time>
      </trkpt>
      <trkpt lat="45.04204" lon="5.99826">
        <ele>1304.2</ele>
        <time>2061-01-03T16:59:08Z</time>
      </trkpt>
      <trkpt lat="45.04206" lon="5.9984">
        <ele>1304.4</ele>
        <time>2061-01-03T16:59:14Z</time>
      </trkpt>
      <trkpt lat="45.04212" lon="5.99852">
        <ele>1304</ele>
        <time>2061-01-03T16:59:20Z</time>
      </trkpt>
      <trkpt lat="45.04219" lon="5.99867">
        <ele>1306</ele>
        <time>2061-01-03T16:59:28Z</time>
      </trkpt>
      <trkpt lat="45.04227" lon="5.9988">
        <ele>1307</ele>
        <time>2061-01-03T16:59:36Z</time>
      </trkpt>
      <trkpt lat="45.04236" lon="5.99894">
        <ele>1308</ele>
        <time>2061-01-03T16:59:44Z</time>
      </trkpt>
      <trkpt lat="45.04242" lon="5.99911">
        <ele>1309</ele>
        <time>2061-01-03T16:59:52Z</time>
      </trkpt>
      <trkpt lat="45.04244" lon="5.99929">
        <ele>1309</ele>
        <time>2061-01-03T17:00:00Z</time>
      </trkpt>
      <trkpt lat="45.04241" lon="5.99945">
        <ele>1310</ele>
        <time>2061-01-03T17:00:08Z</time>
      </trkpt>
      <trkpt lat="45.04234" lon="5.99961">
        <ele>1312.3</ele>
        <time>2061-01-03T17:00:15Z</time>
      </trkpt>
      <trkpt lat="45.04231" lon="5.99974">
        <ele>1313</ele>
        <time>2061-01-03T17:00:21Z</time>
      </trkpt>
      <trkpt lat="45.04222" lon="5.99983">
        <ele>1314</ele>
        <time>2061-01-03T17:00:29Z</time>
      </trkpt>
      <trkpt lat="45.04208" lon="5.99982">
        <ele>1315</ele>
        <time>2061-01-03T17:00:37Z</time>
      </trkpt>
      <trkpt lat="45.04198" lon="5.99986">
        <ele>1315.9</ele>
        <time>2061-01-03T17:00:44Z</time>
      </trkpt>
      <trkpt lat="45.04189" lon="5.9999">
        <ele>1316.5</ele>
        <time>2061-01-03T17:00:49Z</time>
      </trkpt>
      <trkpt lat="45.04181" lon="5.99998">
        <ele>1317.5</ele>
        <time>2061-01-03T17:00:56Z</time>
      </trkpt>
      <trkpt lat="45.04174" lon="6.00007">
        <ele>1318.5</ele>
        <time>2061-01-03T17:01:02Z</time>
      </trkpt>
      <trkpt lat="45.04167" lon="6.00016">
        <ele>1319.1</ele>
        <time>2061-01-03T17:01:08Z</time>
      </trkpt>
      <trkpt lat="45.0416" lon="6.00031">
        <ele>1319</ele>
        <time>2061-01-03T17:01:16Z</time>
      </trkpt>
      <trkpt lat="45.04155" lon="6.0005">
        <ele>1320</ele>
        <time>2061-01-03T17:01:24Z</time>
      </trkpt>
      <trkpt lat="45.04155" lon="6.00072">
        <ele>1321</ele>
        <time>2061-01-03T17:01:32Z</time>
      </trkpt>
      <trkpt lat="45.04158" lon="6.00093">
        <ele>1323</ele>
        <time>2061-01-03T17:01:40Z</time>
      </trkpt>
      <trkpt lat="45.04161" lon="6.00109">
        <ele>1324.3</ele>
        <time>2061-01-03T17:01:47Z</time>
      </trkpt>
      <trkpt lat="45.04166" lon="6.00119">
        <ele>1325</ele>
        <time>2061-01-03T17:01:52Z</time>
      </trkpt>
      <trkpt lat="45.04172" lon="6.00132">
        <ele>1325.8</ele>
        <time>2061-01-03T17:01:58Z</time>
      </trkpt>
      <trkpt lat="45.04176" lon="6.00144">
        <ele>1326.4</ele>
        <time>2061-01-03T17:02:03Z</time>
      </trkpt>
      <trkpt lat="45.04179" lon="6.00157">
        <ele>1327.3</ele>
        <time>2061-01-03T17:02:10Z</time>
      </trkpt>
      <trkpt lat="45.04172" lon="6.00166">
        <ele>1328.5</ele>
        <time>2061-01-03T17:02:18Z</time>
      </trkpt>
      <trkpt lat="45.04161" lon="6.00165">
        <ele>1329.4</ele>
        <time>2061-01-03T17:02:24Z</time>
      </trkpt>
      <trkpt lat="45.04153" lon="6.00161">
        <ele>1330</ele>
        <time>2061-01-03T17:02:29Z</time>
      </trkpt>
      <trkpt lat="45.04145" lon="6.00154">
        <ele>1330.8</ele>
        <time>2061-01-03T17:02:34Z</time>
      </trkpt>
      <trkpt lat="45.04137" lon="6.00145">
        <ele>1331.6</ele>
        <time>2061-01-03T17:02:39Z</time>
      </trkpt>
      <trkpt lat="45.04131" lon="6.00136">
        <ele>1332.4</ele>
        <time>2061-01-03T17:02:44Z</time>
      </trkpt>
      <trkpt lat="45.04123" lon="6.00129">
        <ele>1333.2</ele>
        <time>2061-01-03T17:02:50Z</time>
      </trkpt>
      <trkpt lat="45.04112" lon="6.00131">
        <ele>1334</ele>
        <time>2061-01-03T17:02:56Z</time>
      </trkpt>
      <trkpt lat="45.04104" lon="6.00136">
        <ele>1334.5</ele>
        <time>2061-01-03T17:03:01Z</time>
      </trkpt>
      <trkpt lat="45.04095" lon="6.00143">
        <ele>1335.4</ele>
        <time>2061-01-03T17:03:07Z</time>
      </trkpt>
      <trkpt lat="45.04086" lon="6.00148">
        <ele>1336.6</ele>
        <time>2061-01-03T17:03:14Z</time>
      </trkpt>
      <trkpt lat="45.04077" lon="6.00154">
        <ele>1337.9</ele>
        <time>2061-01-03T17:03:21Z</time>
      </trkpt>
      <trkpt lat="45.04069" lon="6.00164">
        <ele>1338.8</ele>
        <time>2061-01-03T17:03:28Z</time>
      </trkpt>
      <trkpt lat="45.04064" lon="6.00176">
        <ele>1339.3</ele>
        <time>2061-01-03T17:03:32Z</time>
      </trkpt>
      <trkpt lat="45.04059" lon="6.00187">
        <ele>1340.4</ele>
        <time>2061-01-03T17:03:38Z</time>
      </trkpt>
      <trkpt lat="45.04054" lon="6.00201">
        <ele>1341.7</ele>
        <time>2061-01-03T17:03:45Z</time>
      </trkpt>
      <trkpt lat="45.04048" lon="6.00211">
        <ele>1342.6</ele>
        <time>2061-01-03T17:03:51Z</time>
      </trkpt>
      <trkpt lat="45.04042" lon="6.00222">
        <ele>1344</ele>
        <time>2061-01-03T17:03:57Z</time>
      </trkpt>
      <trkpt lat="45.04035" lon="6.00231">
        <ele>1344.9</ele>
        <time>2061-01-03T17:04:03Z</time>
      </trkpt>
      <trkpt lat="45.04027" lon="6.0024">
        <ele>1345.7</ele>
        <time>2061-01-03T17:04:09Z</time>
      </trkpt>
      <trkpt lat="45.0402" lon="6.00248">
        <ele>1346.3</ele>
        <time>2061-01-03T17:04:14Z</time>
      </trkpt>
      <trkpt lat="45.04012" lon="6.00258">
        <ele>1346.8</ele>
        <time>2061-01-03T17:04:20Z</time>
      </trkpt>
      <trkpt lat="45.04004" lon="6.00268">
        <ele>1347.9</ele>
        <time>2061-01-03T17:04:26Z</time>
      </trkpt>
      <trkpt lat="45.03997" lon="6.00277">
        <ele>1348.7</ele>
        <time>2061-01-03T17:04:32Z</time>
      </trkpt>
      <trkpt lat="45.03989" lon="6.00287">
        <ele>1349.7</ele>
        <time>2061-01-03T17:04:39Z</time>
      </trkpt>
      <trkpt lat="45.03982" lon="6.00296">
        <ele>1350.4</ele>
        <time>2061-01-03T17:04:45Z</time>
      </trkpt>
      <trkpt lat="45.03975" lon="6.00306">
        <ele>1351</ele>
        <time>2061-01-03T17:04:51Z</time>
      </trkpt>
      <trkpt lat="45.03967" lon="6.00315">
        <ele>1352</ele>
        <time>2061-01-03T17:04:57Z</time>
      </trkpt>
      <trkpt lat="45.03958" lon="6.00323">
        <ele>1353</ele>
        <time>2061-01-03T17:05:03Z</time>
      </trkpt>
      <trkpt lat="45.03949" lon="6.00329">
        <ele>1353.7</ele>
        <time>2061-01-03T17:05:09Z</time>
      </trkpt>
      <trkpt lat="45.03941" lon="6.00335">
        <ele>1354.5</ele>
        <time>2061-01-03T17:05:15Z</time>
      </trkpt>
      <trkpt lat="45.03933" lon="6.00344">
        <ele>1355.7</ele>
        <time>2061-01-03T17:05:22Z</time>
      </trkpt>
      <trkpt lat="45.03927" lon="6.00354">
        <ele>1356.8</ele>
        <time>2061-01-03T17:05:28Z</time>
      </trkpt>
      <trkpt lat="45.03924" lon="6.00367">
        <ele>1357.8</ele>
        <time>2061-01-03T17:05:34Z</time>
      </trkpt>
      <trkpt lat="45.03918" lon="6.00377">
        <ele>1359</ele>
        <time>2061-01-03T17:05:40Z</time>
      </trkpt>
      <trkpt lat="45.03909" lon="6.00385">
        <ele>1360.2</ele>
        <time>2061-01-03T17:05:46Z</time>
      </trkpt>
      <trkpt lat="45.03902" lon="6.00395">
        <ele>1361.3</ele>
        <time>2061-01-03T17:05:53Z</time>
      </trkpt>
      <trkpt lat="45.03893" lon="6.00402">
        <ele>1362.2</ele>
        <time>2061-01-03T17:06:00Z</time>
      </trkpt>
      <trkpt lat="45.03885" lon="6.00406">
        <ele>1363.1</ele>
        <time>2061-01-03T17:06:05Z</time>
      </trkpt>
      <trkpt lat="45.03877" lon="6.00417">
        <ele>1363.8</ele>
        <time>2061-01-03T17:06:11Z</time>
      </trkpt>
      <trkpt lat="45.03872" lon="6.00428">
        <ele>1364.4</ele>
        <time>2061-01-03T17:06:18Z</time>
      </trkpt>
      <trkpt lat="45.0387" lon="6.00441">
        <ele>1365.4</ele>
        <time>2061-01-03T17:06:25Z</time>
      </trkpt>
      <trkpt lat="45.03866" lon="6.00455">
        <ele>1366.6</ele>
        <time>2061-01-03T17:06:32Z</time>
      </trkpt>
      <trkpt lat="45.03859" lon="6.00465">
        <ele>1367.3</ele>
        <time>2061-01-03T17:06:37Z</time>
      </trkpt>
      <trkpt lat="45.03851" lon="6.00471">
        <ele>1367.9</ele>
        <time>2061-01-03T17:06:41Z</time>
      </trkpt>
      <trkpt lat="45.03841" lon="6.00474">
        <ele>1369</ele>
        <time>2061-01-03T17:06:46Z</time>
      </trkpt>
      <trkpt lat="45.03832" lon="6.00474">
        <ele>1370</ele>
        <time>2061-01-03T17:06:51Z</time>
      </trkpt>
      <trkpt lat="45.03822" lon="6.00473">
        <ele>1371.3</ele>
        <time>2061-01-03T17:06:57Z</time>
      </trkpt>
      <trkpt lat="45.03812" lon="6.0047">
        <ele>1372.2</ele>
        <time>2061-01-03T17:07:03Z</time>
      </trkpt>
      <trkpt lat="45.03803" lon="6.00468">
        <ele>1373.1</ele>
        <time>2061-01-03T17:07:09Z</time>
      </trkpt>
      <trkpt lat="45.03793" lon="6.00465">
        <ele>1374</ele>
        <time>2061-01-03T17:07:16Z</time>
      </trkpt>
      <trkpt lat="45.03783" lon="6.00462">
        <ele>1375.1</ele>
        <time>2061-01-03T17:07:23Z</time>
      </trkpt>
      <trkpt lat="45.03773" lon="6.0046">
        <ele>1376.1</ele>
        <time>2061-01-03T17:07:29Z</time>
      </trkpt>
      <trkpt lat="45.03764" lon="6.00457">
        <ele>1377.1</ele>
        <time>2061-01-03T17:07:35Z</time>
      </trkpt>
      <trkpt lat="45.03755" lon="6.00453">
        <ele>1378.1</ele>
        <time>2061-01-03T17:07:41Z</time>
      </trkpt>
      <trkpt lat="45.03745" lon="6.00449">
        <ele>1379.4</ele>
        <time>2061-01-03T17:07:47Z</time>
      </trkpt>
      <trkpt lat="45.03736" lon="6.00446">
        <ele>1380.5</ele>
        <time>2061-01-03T17:07:53Z</time>
      </trkpt>
      <trkpt lat="45.03727" lon="6.00448">
        <ele>1381.2</ele>
        <time>2061-01-03T17:07:58Z</time>
      </trkpt>
      <trkpt lat="45.03717" lon="6.0045">
        <ele>1382</ele>
        <time>2061-01-03T17:08:04Z</time>
      </trkpt>
      <trkpt lat="45.03708" lon="6.00453">
        <ele>1382.6</ele>
        <time>2061-01-03T17:08:10Z</time>
      </trkpt>
      <trkpt lat="45.03699" lon="6.00455">
        <ele>1383.2</ele>
        <time>2061-01-03T17:08:17Z</time>
      </trkpt>
      <trkpt lat="45.0369" lon="6.00463">
        <ele>1384</ele>
        <time>2061-01-03T17:08:24Z</time>
      </trkpt>
      <trkpt lat="45.03682" lon="6.0047">
        <ele>1384.5</ele>
        <time>2061-01-03T17:08:29Z</time>
      </trkpt>
      <trkpt lat="45.03674" lon="6.00477">
        <ele>1385.5</ele>
        <time>2061-01-03T17:08:35Z</time>
      </trkpt>
      <trkpt lat="45.03665" lon="6.00485">
        <ele>1386.2</ele>
        <time>2061-01-03T17:08:41Z</time>
      </trkpt>
      <trkpt lat="45.03656" lon="6.00493">
        <ele>1387.2</ele>
        <time>2061-01-03T17:08:46Z</time>
      </trkpt>
      <trkpt lat="45.03648" lon="6.00499">
        <ele>1388.2</ele>
        <time>2061-01-03T17:08:52Z</time>
      </trkpt>
      <trkpt lat="45.03639" lon="6.0051">
        <ele>1389.1</ele>
        <time>2061-01-03T17:08:59Z</time>
      </trkpt>
      <trkpt lat="45.0363" lon="6.00518">
        <ele>1390.1</ele>
        <time>2061-01-03T17:09:06Z</time>
      </trkpt>
      <trkpt lat="45.03622" lon="6.00525">
        <ele>1390.8</ele>
        <time>2061-01-03T17:09:12Z</time>
      </trkpt>
      <trkpt lat="45.03614" lon="6.00534">
        <ele>1391.7</ele>
        <time>2061-01-03T17:09:18Z</time>
      </trkpt>
      <trkpt lat="45.03606" lon="6.00542">
        <ele>1392.7</ele>
        <time>2061-01-03T17:09:24Z</time>
      </trkpt>
      <trkpt lat="45.03598" lon="6.00551">
        <ele>1393.3</ele>
        <time>2061-01-03T17:09:30Z</time>
      </trkpt>
      <trkpt lat="45.03592" lon="6.00562">
        <ele>1394.4</ele>
        <time>2061-01-03T17:09:36Z</time>
      </trkpt>
      <trkpt lat="45.03602" lon="6.00568">
        <ele>1395.8</ele>
        <time>2061-01-03T17:09:43Z</time>
      </trkpt>
      <trkpt lat="45.03611" lon="6.00564">
        <ele>1396.6</ele>
        <time>2061-01-03T17:09:48Z</time>
      </trkpt>
      <trkpt lat="45.03619" lon="6.00558">
        <ele>1397.3</ele>
        <time>2061-01-03T17:09:53Z</time>
      </trkpt>
      <trkpt lat="45.03628" lon="6.00552">
        <ele>1397.9</ele>
        <time>2061-01-03T17:09:59Z</time>
      </trkpt>
      <trkpt lat="45.03637" lon="6.00549">
        <ele>1399</ele>
        <time>2061-01-03T17:10:06Z</time>
      </trkpt>
      <trkpt lat="45.03647" lon="6.00545">
        <ele>1399.9</ele>
        <time>2061-01-03T17:10:13Z</time>
      </trkpt>
      <trkpt lat="45.03656" lon="6.00542">
        <ele>1400.6</ele>
        <time>2061-01-03T17:10:19Z</time>
      </trkpt>
      <trkpt lat="45.03665" lon="6.00538">
        <ele>1401</ele>
        <time>2061-01-03T17:10:25Z</time>
      </trkpt>
      <trkpt lat="45.03674" lon="6.00534">
        <ele>1401.7</ele>
        <time>2061-01-03T17:10:31Z</time>
      </trkpt>
      <trkpt lat="45.03683" lon="6.00532">
        <ele>1402.4</ele>
        <time>2061-01-03T17:10:37Z</time>
      </trkpt>
      <trkpt lat="45.03692" lon="6.00529">
        <ele>1403.7</ele>
        <time>2061-01-03T17:10:43Z</time>
      </trkpt>
      <trkpt lat="45.03703" lon="6.00526">
        <ele>1404.8</ele>
        <time>2061-01-03T17:10:51Z</time>
      </trkpt>
      <trkpt lat="45.03712" lon="6.00524">
        <ele>1405.9</ele>
        <time>2061-01-03T17:10:57Z</time>
      </trkpt>
      <trkpt lat="45.03721" lon="6.00524">
        <ele>1406.9</ele>
        <time>2061-01-03T17:11:03Z</time>
      </trkpt>
      <trkpt lat="45.03731" lon="6.00523">
        <ele>1407.6</ele>
        <time>2061-01-03T17:11:09Z</time>
      </trkpt>
      <trkpt lat="45.03741" lon="6.00522">
        <ele>1408.1</ele>
        <time>2061-01-03T17:11:15Z</time>
      </trkpt>
      <trkpt lat="45.03751" lon="6.00523">
        <ele>1409.1</ele>
        <time>2061-01-03T17:11:21Z</time>
      </trkpt>
      <trkpt lat="45.03761" lon="6.00522">
        <ele>1410.1</ele>
        <time>2061-01-03T17:11:27Z</time>
      </trkpt>
      <trkpt lat="45.03772" lon="6.00522">
        <ele>1411</ele>
        <time>2061-01-03T17:11:33Z</time>
      </trkpt>
      <trkpt lat="45.03781" lon="6.00521">
        <ele>1411.8</ele>
        <time>2061-01-03T17:11:38Z</time>
      </trkpt>
      <trkpt lat="45.03792" lon="6.00524">
        <ele>1412.8</ele>
        <time>2061-01-03T17:11:44Z</time>
      </trkpt>
      <trkpt lat="45.03802" lon="6.00527">
        <ele>1413.9</ele>
        <time>2061-01-03T17:11:50Z</time>
      </trkpt>
      <trkpt lat="45.03811" lon="6.00533">
        <ele>1414.5</ele>
        <time>2061-01-03T17:11:55Z</time>
      </trkpt>
      <trkpt lat="45.03819" lon="6.0054">
        <ele>1415</ele>
        <time>2061-01-03T17:12:00Z</time>
      </trkpt>
      <trkpt lat="45.03821" lon="6.00553">
        <ele>1415.5</ele>
        <time>2061-01-03T17:12:06Z</time>
      </trkpt>
      <trkpt lat="45.03811" lon="6.00551">
        <ele>1416.4</ele>
        <time>2061-01-03T17:12:12Z</time>
      </trkpt>
      <trkpt lat="45.03801" lon="6.00549">
        <ele>1417.5</ele>
        <time>2061-01-03T17:12:18Z</time>
      </trkpt>
      <trkpt lat="45.03791" lon="6.00548">
        <ele>1418.6</ele>
        <time>2061-01-03T17:12:24Z</time>
      </trkpt>
      <trkpt lat="45.03782" lon="6.00547">
        <ele>1419.2</ele>
        <time>2061-01-03T17:12:29Z</time>
      </trkpt>
      <trkpt lat="45.03772" lon="6.00546">
        <ele>1420.2</ele>
        <time>2061-01-03T17:12:34Z</time>
      </trkpt>
      <trkpt lat="45.03763" lon="6.00547">
        <ele>1420.9</ele>
        <time>2061-01-03T17:12:39Z</time>
      </trkpt>
      <trkpt lat="45.03753" lon="6.00548">
        <ele>1422</ele>
        <time>2061-01-03T17:12:45Z</time>
      </trkpt>
      <trkpt lat="45.03743" lon="6.0055">
        <ele>1422.8</ele>
        <time>2061-01-03T17:12:51Z</time>
      </trkpt>
      <trkpt lat="45.03734" lon="6.00554">
        <ele>1423.7</ele>
        <time>2061-01-03T17:12:57Z</time>
      </trkpt>
      <trkpt lat="45.03724" lon="6.00559">
        <ele>1424.5</ele>
        <time>2061-01-03T17:13:03Z</time>
      </trkpt>
      <trkpt lat="45.03715" lon="6.00565">
        <ele>1425.8</ele>
        <time>2061-01-03T17:13:09Z</time>
      </trkpt>
      <trkpt lat="45.03705" lon="6.00569">
        <ele>1427.2</ele>
        <time>2061-01-03T17:13:16Z</time>
      </trkpt>
      <trkpt lat="45.03696" lon="6.00576">
        <ele>1428.1</ele>
        <time>2061-01-03T17:13:23Z</time>
      </trkpt>
      <trkpt lat="45.03688" lon="6.00582">
        <ele>1429</ele>
        <time>2061-01-03T17:13:28Z</time>
      </trkpt>
      <trkpt lat="45.03678" lon="6.0059">
        <ele>1430</ele>
        <time>2061-01-03T17:13:34Z</time>
      </trkpt>
      <trkpt lat="45.03669" lon="6.00598">
        <ele>1431</ele>
        <time>2061-01-03T17:13:39Z</time>
      </trkpt>
      <trkpt lat="45.03661" lon="6.00605">
        <ele>1432</ele>
        <time>2061-01-03T17:13:44Z</time>
      </trkpt>
      <trkpt lat="45.03652" lon="6.00612">
        <ele>1432.9</ele>
        <time>2061-01-03T17:13:50Z</time>
      </trkpt>
      <trkpt lat="45.03644" lon="6.00619">
        <ele>1433.7</ele>
        <time>2061-01-03T17:13:55Z</time>
      </trkpt>
      <trkpt lat="45.03634" lon="6.00628">
        <ele>1434.7</ele>
        <time>2061-01-03T17:14:02Z</time>
      </trkpt>
      <trkpt lat="45.03625" lon="6.00636">
        <ele>1435.9</ele>
        <time>2061-01-03T17:14:09Z</time>
      </trkpt>
      <trkpt lat="45.03617" lon="6.00643">
        <ele>1436.8</ele>
        <time>2061-01-03T17:14:16Z</time>
      </trkpt>
      <trkpt lat="45.03605" lon="6.00655">
        <ele>1437</ele>
        <time>2061-01-03T17:14:23Z</time>
      </trkpt>
      <trkpt lat="45.03597" lon="6.00671">
        <ele>1439.3</ele>
        <time>2061-01-03T17:14:30Z</time>
      </trkpt>
      <trkpt lat="45.03589" lon="6.0068">
        <ele>1440.4</ele>
        <time>2061-01-03T17:14:35Z</time>
      </trkpt>
      <trkpt lat="45.03578" lon="6.00689">
        <ele>1441</ele>
        <time>2061-01-03T17:14:41Z</time>
      </trkpt>
      <trkpt lat="45.03568" lon="6.00698">
        <ele>1442.7</ele>
        <time>2061-01-03T17:14:48Z</time>
      </trkpt>
      <trkpt lat="45.03561" lon="6.00707">
        <ele>1443.4</ele>
        <time>2061-01-03T17:14:55Z</time>
      </trkpt>
      <trkpt lat="45.03558" lon="6.00721">
        <ele>1444.5</ele>
        <time>2061-01-03T17:15:02Z</time>
      </trkpt>
      <trkpt lat="45.03551" lon="6.00731">
        <ele>1445.4</ele>
        <time>2061-01-03T17:15:08Z</time>
      </trkpt>
      <trkpt lat="45.03543" lon="6.00741">
        <ele>1446</ele>
        <time>2061-01-03T17:15:13Z</time>
      </trkpt>
      <trkpt lat="45.03535" lon="6.00749">
        <ele>1447</ele>
        <time>2061-01-03T17:15:18Z</time>
      </trkpt>
      <trkpt lat="45.03527" lon="6.00759">
        <ele>1448</ele>
        <time>2061-01-03T17:15:23Z</time>
      </trkpt>
      <trkpt lat="45.03521" lon="6.00769">
        <ele>1448.9</ele>
        <time>2061-01-03T17:15:27Z</time>
      </trkpt>
      <trkpt lat="45.03515" lon="6.0078">
        <ele>1449.8</ele>
        <time>2061-01-03T17:15:32Z</time>
      </trkpt>
      <trkpt lat="45.03509" lon="6.00792">
        <ele>1450.5</ele>
        <time>2061-01-03T17:15:37Z</time>
      </trkpt>
      <trkpt lat="45.03504" lon="6.00804">
        <ele>1451.8</ele>
        <time>2061-01-03T17:15:43Z</time>
      </trkpt>
      <trkpt lat="45.03498" lon="6.00817">
        <ele>1452.7</ele>
        <time>2061-01-03T17:15:49Z</time>
      </trkpt>
      <trkpt lat="45.03488" lon="6.00823">
        <ele>1453</ele>
        <time>2061-01-03T17:15:58Z</time>
      </trkpt>
      <trkpt lat="45.03479" lon="6.0083">
        <ele>1455.3</ele>
        <time>2061-01-03T17:16:05Z</time>
      </trkpt>
      <trkpt lat="45.03471" lon="6.00837">
        <ele>1456.1</ele>
        <time>2061-01-03T17:16:10Z</time>
      </trkpt>
      <trkpt lat="45.03462" lon="6.00843">
        <ele>1456</ele>
        <time>2061-01-03T17:16:14Z</time>
      </trkpt>
      <trkpt lat="45.03453" lon="6.0085">
        <ele>1457.8</ele>
        <time>2061-01-03T17:16:20Z</time>
      </trkpt>
      <trkpt lat="45.03445" lon="6.00856">
        <ele>1458.8</ele>
        <time>2061-01-03T17:16:25Z</time>
      </trkpt>
      <trkpt lat="45.03435" lon="6.00867">
        <ele>1459</ele>
        <time>2061-01-03T17:16:31Z</time>
      </trkpt>
      <trkpt lat="45.03426" lon="6.00883">
        <ele>1461</ele>
        <time>2061-01-03T17:16:39Z</time>
      </trkpt>
      <trkpt lat="45.03416" lon="6.00897">
        <ele>1462.4</ele>
        <time>2061-01-03T17:16:46Z</time>
      </trkpt>
      <trkpt lat="45.03409" lon="6.00906">
        <ele>1463.3</ele>
        <time>2061-01-03T17:16:50Z</time>
      </trkpt>
      <trkpt lat="45.03401" lon="6.00916">
        <ele>1464.5</ele>
        <time>2061-01-03T17:16:55Z</time>
      </trkpt>
      <trkpt lat="45.03393" lon="6.00926">
        <ele>1465.8</ele>
        <time>2061-01-03T17:17:00Z</time>
      </trkpt>
      <trkpt lat="45.03385" lon="6.00935">
        <ele>1466.7</ele>
        <time>2061-01-03T17:17:05Z</time>
      </trkpt>
      <trkpt lat="45.03377" lon="6.00944">
        <ele>1467.4</ele>
        <time>2061-01-03T17:17:10Z</time>
      </trkpt>
      <trkpt lat="45.03369" lon="6.00954">
        <ele>1468.1</ele>
        <time>2061-01-03T17:17:15Z</time>
      </trkpt>
      <trkpt lat="45.03364" lon="6.00965">
        <ele>1469</ele>
        <time>2061-01-03T17:17:21Z</time>
      </trkpt>
      <trkpt lat="45.03357" lon="6.00977">
        <ele>1469.9</ele>
        <time>2061-01-03T17:17:27Z</time>
      </trkpt>
      <trkpt lat="45.03354" lon="6.0099">
        <ele>1470.9</ele>
        <time>2061-01-03T17:17:33Z</time>
      </trkpt>
      <trkpt lat="45.0335" lon="6.01002">
        <ele>1471.9</ele>
        <time>2061-01-03T17:17:40Z</time>
      </trkpt>
      <trkpt lat="45.03346" lon="6.01016">
        <ele>1472.9</ele>
        <time>2061-01-03T17:17:47Z</time>
      </trkpt>
      <trkpt lat="45.03341" lon="6.01027">
        <ele>1473.5</ele>
        <time>2061-01-03T17:17:53Z</time>
      </trkpt>
      <trkpt lat="45.03337" lon="6.0104">
        <ele>1474.1</ele>
        <time>2061-01-03T17:18:00Z</time>
      </trkpt>
      <trkpt lat="45.03332" lon="6.01051">
        <ele>1475</ele>
        <time>2061-01-03T17:18:06Z</time>
      </trkpt>
      <trkpt lat="45.03328" lon="6.01063">
        <ele>1475.9</ele>
        <time>2061-01-03T17:18:12Z</time>
      </trkpt>
      <trkpt lat="45.03326" lon="6.01076">
        <ele>1477.1</ele>
        <time>2061-01-03T17:18:18Z</time>
      </trkpt>
      <trkpt lat="45.03324" lon="6.0109">
        <ele>1478.2</ele>
        <time>2061-01-03T17:18:23Z</time>
      </trkpt>
      <trkpt lat="45.03322" lon="6.01102">
        <ele>1478.9</ele>
        <time>2061-01-03T17:18:28Z</time>
      </trkpt>
      <trkpt lat="45.03319" lon="6.01116">
        <ele>1479.7</ele>
        <time>2061-01-03T17:18:34Z</time>
      </trkpt>
      <trkpt lat="45.03318" lon="6.01129">
        <ele>1480.6</ele>
        <time>2061-01-03T17:18:40Z</time>
      </trkpt>
      <trkpt lat="45.03318" lon="6.01142">
        <ele>1481.5</ele>
        <time>2061-01-03T17:18:46Z</time>
      </trkpt>
      <trkpt lat="45.03309" lon="6.01147">
        <ele>1482.3</ele>
        <time>2061-01-03T17:18:52Z</time>
      </trkpt>
      <trkpt lat="45.033" lon="6.01149">
        <ele>1482.9</ele>
        <time>2061-01-03T17:18:57Z</time>
      </trkpt>
      <trkpt lat="45.0329" lon="6.01152">
        <ele>1483.7</ele>
        <time>2061-01-03T17:19:02Z</time>
      </trkpt>
      <trkpt lat="45.0328" lon="6.01155">
        <ele>1484.9</ele>
        <time>2061-01-03T17:19:07Z</time>
      </trkpt>
      <trkpt lat="45.03269" lon="6.01158">
        <ele>1485.7</ele>
        <time>2061-01-03T17:19:13Z</time>
      </trkpt>
      <trkpt lat="45.03261" lon="6.01163">
        <ele>1486.2</ele>
        <time>2061-01-03T17:19:17Z</time>
      </trkpt>
      <trkpt lat="45.03252" lon="6.01171">
        <ele>1487.3</ele>
        <time>2061-01-03T17:19:23Z</time>
      </trkpt>
      <trkpt lat="45.03244" lon="6.01179">
        <ele>1488.5</ele>
        <time>2061-01-03T17:19:29Z</time>
      </trkpt>
      <trkpt lat="45.03236" lon="6.01189">
        <ele>1489.3</ele>
        <time>2061-01-03T17:19:34Z</time>
      </trkpt>
      <trkpt lat="45.03227" lon="6.01198">
        <ele>1490.7</ele>
        <time>2061-01-03T17:19:40Z</time>
      </trkpt>
      <trkpt lat="45.03219" lon="6.01205">
        <ele>1491.5</ele>
        <time>2061-01-03T17:19:44Z</time>
      </trkpt>
      <trkpt lat="45.0321" lon="6.01213">
        <ele>1492.3</ele>
        <time>2061-01-03T17:19:49Z</time>
      </trkpt>
      <trkpt lat="45.03203" lon="6.01222">
        <ele>1492.9</ele>
        <time>2061-01-03T17:19:54Z</time>
      </trkpt>
      <trkpt lat="45.03196" lon="6.01232">
        <ele>1493.7</ele>
        <time>2061-01-03T17:19:59Z</time>
      </trkpt>
      <trkpt lat="45.03188" lon="6.01243">
        <ele>1494.4</ele>
        <time>2061-01-03T17:20:04Z</time>
      </trkpt>
      <trkpt lat="45.0318" lon="6.01252">
        <ele>1494.9</ele>
        <time>2061-01-03T17:20:08Z</time>
      </trkpt>
      <trkpt lat="45.03171" lon="6.01259">
        <ele>1495.5</ele>
        <time>2061-01-03T17:20:12Z</time>
      </trkpt>
      <trkpt lat="45.03162" lon="6.01266">
        <ele>1496</ele>
        <time>2061-01-03T17:20:16Z</time>
      </trkpt>
      <trkpt lat="45.03162" lon="6.01279">
        <ele>1496.7</ele>
        <time>2061-01-03T17:20:21Z</time>
      </trkpt>
      <trkpt lat="45.03172" lon="6.01282">
        <ele>1497.4</ele>
        <time>2061-01-03T17:20:27Z</time>
      </trkpt>
      <trkpt lat="45.03181" lon="6.01279">
        <ele>1498.7</ele>
        <time>2061-01-03T17:20:32Z</time>
      </trkpt>
      <trkpt lat="45.0319" lon="6.01275">
        <ele>1499.7</ele>
        <time>2061-01-03T17:20:37Z</time>
      </trkpt>
      <trkpt lat="45.03199" lon="6.0127">
        <ele>1500.4</ele>
        <time>2061-01-03T17:20:42Z</time>
      </trkpt>
      <trkpt lat="45.03209" lon="6.01265">
        <ele>1501.6</ele>
        <time>2061-01-03T17:20:47Z</time>
      </trkpt>
      <trkpt lat="45.03218" lon="6.01261">
        <ele>1502.8</ele>
        <time>2061-01-03T17:20:52Z</time>
      </trkpt>
      <trkpt lat="45.03228" lon="6.01255">
        <ele>1503.7</ele>
        <time>2061-01-03T17:20:57Z</time>
      </trkpt>
      <trkpt lat="45.03237" lon="6.01249">
        <ele>1504.3</ele>
        <time>2061-01-03T17:21:02Z</time>
      </trkpt>
      <trkpt lat="45.03246" lon="6.01244">
        <ele>1504.8</ele>
        <time>2061-01-03T17:21:07Z</time>
      </trkpt>
      <trkpt lat="45.03256" lon="6.01238">
        <ele>1506</ele>
        <time>2061-01-03T17:21:13Z</time>
      </trkpt>
      <trkpt lat="45.03266" lon="6.01233">
        <ele>1507.1</ele>
        <time>2061-01-03T17:21:19Z</time>
      </trkpt>
      <trkpt lat="45.03277" lon="6.0123">
        <ele>1508.1</ele>
        <time>2061-01-03T17:21:25Z</time>
      </trkpt>
      <trkpt lat="45.03287" lon="6.01229">
        <ele>1509</ele>
        <time>2061-01-03T17:21:31Z</time>
      </trkpt>
      <trkpt lat="45.03297" lon="6.01228">
        <ele>1510.3</ele>
        <time>2061-01-03T17:21:37Z</time>
      </trkpt>
      <trkpt lat="45.03308" lon="6.01232">
        <ele>1511.1</ele>
        <time>2061-01-03T17:21:43Z</time>
      </trkpt>
      <trkpt lat="45.03317" lon="6.01237">
        <ele>1511.9</ele>
        <time>2061-01-03T17:21:48Z</time>
      </trkpt>
      <trkpt lat="45.03327" lon="6.01242">
        <ele>1512.6</ele>
        <time>2061-01-03T17:21:53Z</time>
      </trkpt>
      <trkpt lat="45.03337" lon="6.0124">
        <ele>1513</ele>
        <time>2061-01-03T17:21:58Z</time>
      </trkpt>
      <trkpt lat="45.03344" lon="6.01233">
        <ele>1514.1</ele>
        <time>2061-01-03T17:22:04Z</time>
      </trkpt>
      <trkpt lat="45.0335" lon="6.01222">
        <ele>1515.2</ele>
        <time>2061-01-03T17:22:09Z</time>
      </trkpt>
      <trkpt lat="45.03355" lon="6.01209">
        <ele>1516.5</ele>
        <time>2061-01-03T17:22:15Z</time>
      </trkpt>
      <trkpt lat="45.0336" lon="6.01197">
        <ele>1517.3</ele>
        <time>2061-01-03T17:22:21Z</time>
      </trkpt>
      <trkpt lat="45.03365" lon="6.01184">
        <ele>1517.9</ele>
        <time>2061-01-03T17:22:27Z</time>
      </trkpt>
      <trkpt lat="45.03369" lon="6.01172">
        <ele>1518.8</ele>
        <time>2061-01-03T17:22:32Z</time>
      </trkpt>
      <trkpt lat="45.03374" lon="6.01161">
        <ele>1519.8</ele>
        <time>2061-01-03T17:22:37Z</time>
      </trkpt>
      <trkpt lat="45.03379" lon="6.0115">
        <ele>1520.4</ele>
        <time>2061-01-03T17:22:42Z</time>
      </trkpt>
      <trkpt lat="45.03386" lon="6.0114">
        <ele>1521</ele>
        <time>2061-01-03T17:22:47Z</time>
      </trkpt>
      <trkpt lat="45.03393" lon="6.0113">
        <ele>1521.6</ele>
        <time>2061-01-03T17:22:52Z</time>
      </trkpt>
      <trkpt lat="45.03399" lon="6.0112">
        <ele>1522.4</ele>
        <time>2061-01-03T17:22:57Z</time>
      </trkpt>
      <trkpt lat="45.03407" lon="6.01111">
        <ele>1523.2</ele>
        <time>2061-01-03T17:23:02Z</time>
      </trkpt>
      <trkpt lat="45.03414" lon="6.011">
        <ele>1524.1</ele>
        <time>2061-01-03T17:23:07Z</time>
      </trkpt>
      <trkpt lat="45.03422" lon="6.0109">
        <ele>1525</ele>
        <time>2061-01-03T17:23:12Z</time>
      </trkpt>
      <trkpt lat="45.0343" lon="6.01079">
        <ele>1526.2</ele>
        <time>2061-01-03T17:23:17Z</time>
      </trkpt>
      <trkpt lat="45.03438" lon="6.01068">
        <ele>1527.2</ele>
        <time>2061-01-03T17:23:22Z</time>
      </trkpt>
      <trkpt lat="45.03446" lon="6.01058">
        <ele>1527.9</ele>
        <time>2061-01-03T17:23:27Z</time>
      </trkpt>
      <trkpt lat="45.03453" lon="6.01047">
        <ele>1528.4</ele>
        <time>2061-01-03T17:23:32Z</time>
      </trkpt>
      <trkpt lat="45.03462" lon="6.01038">
        <ele>1529.2</ele>
        <time>2061-01-03T17:23:37Z</time>
      </trkpt>
      <trkpt lat="45.0347" lon="6.01029">
        <ele>1530.2</ele>
        <time>2061-01-03T17:23:42Z</time>
      </trkpt>
      <trkpt lat="45.03479" lon="6.01021">
        <ele>1530.9</ele>
        <time>2061-01-03T17:23:47Z</time>
      </trkpt>
      <trkpt lat="45.03488" lon="6.01014">
        <ele>1531.5</ele>
        <time>2061-01-03T17:23:52Z</time>
      </trkpt>
      <trkpt lat="45.03497" lon="6.01007">
        <ele>1532.2</ele>
        <time>2061-01-03T17:23:57Z</time>
      </trkpt>
      <trkpt lat="45.03506" lon="6.00999">
        <ele>1533.2</ele>
        <time>2061-01-03T17:24:02Z</time>
      </trkpt>
      <trkpt lat="45.03515" lon="6.0099">
        <ele>1534</ele>
        <time>2061-01-03T17:24:07Z</time>
      </trkpt>
      <trkpt lat="45.03523" lon="6.00983">
        <ele>1534.7</ele>
        <time>2061-01-03T17:24:12Z</time>
      </trkpt>
      <trkpt lat="45.03518" lon="6.00995">
        <ele>1537.8</ele>
        <time>2061-01-03T17:24:25Z</time>
      </trkpt>
      <trkpt lat="45.0351" lon="6.01">
        <ele>1539.1</ele>
        <time>2061-01-03T17:24:31Z</time>
      </trkpt>
      <trkpt lat="45.03502" lon="6.0101">
        <ele>1540.1</ele>
        <time>2061-01-03T17:24:38Z</time>
      </trkpt>
      <trkpt lat="45.03495" lon="6.01019">
        <ele>1541.2</ele>
        <time>2061-01-03T17:24:45Z</time>
      </trkpt>
      <trkpt lat="45.03488" lon="6.01029">
        <ele>1542.2</ele>
        <time>2061-01-03T17:24:50Z</time>
      </trkpt>
      <trkpt lat="45.03481" lon="6.01039">
        <ele>1543</ele>
        <time>2061-01-03T17:24:55Z</time>
      </trkpt>
      <trkpt lat="45.03475" lon="6.01051">
        <ele>1543.5</ele>
        <time>2061-01-03T17:25:00Z</time>
      </trkpt>
      <trkpt lat="45.03468" lon="6.01064">
        <ele>1544</ele>
        <time>2061-01-03T17:25:05Z</time>
      </trkpt>
      <trkpt lat="45.03463" lon="6.01076">
        <ele>1544.6</ele>
        <time>2061-01-03T17:25:10Z</time>
      </trkpt>
      <trkpt lat="45.03458" lon="6.01088">
        <ele>1545.6</ele>
        <time>2061-01-03T17:25:15Z</time>
      </trkpt>
      <trkpt lat="45.03453" lon="6.011">
        <ele>1546.4</ele>
        <time>2061-01-03T17:25:20Z</time>
      </trkpt>
      <trkpt lat="45.03447" lon="6.01111">
        <ele>1547.2</ele>
        <time>2061-01-03T17:25:25Z</time>
      </trkpt>
      <trkpt lat="45.03441" lon="6.01122">
        <ele>1547.8</ele>
        <time>2061-01-03T17:25:30Z</time>
      </trkpt>
      <trkpt lat="45.03436" lon="6.01134">
        <ele>1548.4</ele>
        <time>2061-01-03T17:25:35Z</time>
      </trkpt>
      <trkpt lat="45.03431" lon="6.01147">
        <ele>1549.2</ele>
        <time>2061-01-03T17:25:40Z</time>
      </trkpt>
      <trkpt lat="45.03426" lon="6.01161">
        <ele>1550.1</ele>
        <time>2061-01-03T17:25:45Z</time>
      </trkpt>
      <trkpt lat="45.03422" lon="6.01173">
        <ele>1550.9</ele>
        <time>2061-01-03T17:25:49Z</time>
      </trkpt>
      <trkpt lat="45.03418" lon="6.01186">
        <ele>1551.9</ele>
        <time>2061-01-03T17:25:54Z</time>
      </trkpt>
      <trkpt lat="45.03414" lon="6.01197">
        <ele>1552.9</ele>
        <time>2061-01-03T17:25:59Z</time>
      </trkpt>
      <trkpt lat="45.03411" lon="6.0121">
        <ele>1553.6</ele>
        <time>2061-01-03T17:26:04Z</time>
      </trkpt>
      <trkpt lat="45.03409" lon="6.01223">
        <ele>1554.3</ele>
        <time>2061-01-03T17:26:09Z</time>
      </trkpt>
      <trkpt lat="45.03409" lon="6.01236">
        <ele>1555.1</ele>
        <time>2061-01-03T17:26:14Z</time>
      </trkpt>
      <trkpt lat="45.03411" lon="6.01249">
        <ele>1555.8</ele>
        <time>2061-01-03T17:26:20Z</time>
      </trkpt>
      <trkpt lat="45.03414" lon="6.01261">
        <ele>1556.4</ele>
        <time>2061-01-03T17:26:25Z</time>
      </trkpt>
      <trkpt lat="45.03418" lon="6.01275">
        <ele>1557.4</ele>
        <time>2061-01-03T17:26:30Z</time>
      </trkpt>
      <trkpt lat="45.03423" lon="6.01289">
        <ele>1558.2</ele>
        <time>2061-01-03T17:26:35Z</time>
      </trkpt>
      <trkpt lat="45.03424" lon="6.01302">
        <ele>1559</ele>
        <time>2061-01-03T17:26:41Z</time>
      </trkpt>
      <trkpt lat="45.03418" lon="6.01313">
        <ele>1560.2</ele>
        <time>2061-01-03T17:26:46Z</time>
      </trkpt>
      <trkpt lat="45.03412" lon="6.01325">
        <ele>1561.1</ele>
        <time>2061-01-03T17:26:51Z</time>
      </trkpt>
      <trkpt lat="45.03408" lon="6.01339">
        <ele>1561.9</ele>
        <time>2061-01-03T17:26:56Z</time>
      </trkpt>
      <trkpt lat="45.03404" lon="6.01352">
        <ele>1562.8</ele>
        <time>2061-01-03T17:27:01Z</time>
      </trkpt>
      <trkpt lat="45.03399" lon="6.01364">
        <ele>1563.6</ele>
        <time>2061-01-03T17:27:07Z</time>
      </trkpt>
      <trkpt lat="45.03392" lon="6.01374">
        <ele>1564.9</ele>
        <time>2061-01-03T17:27:13Z</time>
      </trkpt>
      <trkpt lat="45.03385" lon="6.01384">
        <ele>1565.6</ele>
        <time>2061-01-03T17:27:18Z</time>
      </trkpt>
      <trkpt lat="45.03378" lon="6.01393">
        <ele>1566.3</ele>
        <time>2061-01-03T17:27:23Z</time>
      </trkpt>
      <trkpt lat="45.0337" lon="6.01403">
        <ele>1567.1</ele>
        <time>2061-01-03T17:27:28Z</time>
      </trkpt>
      <trkpt lat="45.03362" lon="6.01412">
        <ele>1568.3</ele>
        <time>2061-01-03T17:27:33Z</time>
      </trkpt>
      <trkpt lat="45.03354" lon="6.01421">
        <ele>1569.1</ele>
        <time>2061-01-03T17:27:38Z</time>
      </trkpt>
      <trkpt lat="45.03345" lon="6.01427">
        <ele>1569.7</ele>
        <time>2061-01-03T17:27:43Z</time>
      </trkpt>
      <trkpt lat="45.03335" lon="6.01433">
        <ele>1570.4</ele>
        <time>2061-01-03T17:27:49Z</time>
      </trkpt>
      <trkpt lat="45.03326" lon="6.0144">
        <ele>1571.3</ele>
        <time>2061-01-03T17:27:55Z</time>
      </trkpt>
      <trkpt lat="45.03317" lon="6.01445">
        <ele>1572.8</ele>
        <time>2061-01-03T17:28:01Z</time>
      </trkpt>
      <trkpt lat="45.03308" lon="6.01449">
        <ele>1573.6</ele>
        <time>2061-01-03T17:28:06Z</time>
      </trkpt>
      <trkpt lat="45.03299" lon="6.01452">
        <ele>1574.1</ele>
        <time>2061-01-03T17:28:11Z</time>
      </trkpt>
      <trkpt lat="45.0329" lon="6.01456">
        <ele>1574.6</ele>
        <time>2061-01-03T17:28:16Z</time>
      </trkpt>
      <trkpt lat="45.0328" lon="6.01462">
        <ele>1575.2</ele>
        <time>2061-01-03T17:28:21Z</time>
      </trkpt>
      <trkpt lat="45.03272" lon="6.01468">
        <ele>1575.8</ele>
        <time>2061-01-03T17:28:26Z</time>
      </trkpt>
      <trkpt lat="45.03264" lon="6.01474">
        <ele>1576.5</ele>
        <time>2061-01-03T17:28:31Z</time>
      </trkpt>
      <trkpt lat="45.03256" lon="6.01482">
        <ele>1577.2</ele>
        <time>2061-01-03T17:28:36Z</time>
      </trkpt>
      <trkpt lat="45.03248" lon="6.01491">
        <ele>1578.2</ele>
        <time>2061-01-03T17:28:42Z</time>
      </trkpt>
      <trkpt lat="45.03242" lon="6.015">
        <ele>1579.2</ele>
        <time>2061-01-03T17:28:48Z</time>
      </trkpt>
      <trkpt lat="45.03234" lon="6.01509">
        <ele>1580</ele>
        <time>2061-01-03T17:28:53Z</time>
      </trkpt>
      <trkpt lat="45.03227" lon="6.01518">
        <ele>1580.7</ele>
        <time>2061-01-03T17:28:58Z</time>
      </trkpt>
      <trkpt lat="45.03219" lon="6.01528">
        <ele>1581.5</ele>
        <time>2061-01-03T17:29:04Z</time>
      </trkpt>
      <trkpt lat="45.03211" lon="6.01536">
        <ele>1582.4</ele>
        <time>2061-01-03T17:29:09Z</time>
      </trkpt>
      <trkpt lat="45.03202" lon="6.01544">
        <ele>1583.2</ele>
        <time>2061-01-03T17:29:15Z</time>
      </trkpt>
      <trkpt lat="45.03194" lon="6.01551">
        <ele>1584.1</ele>
        <time>2061-01-03T17:29:20Z</time>
      </trkpt>
      <trkpt lat="45.03186" lon="6.01558">
        <ele>1584.9</ele>
        <time>2061-01-03T17:29:25Z</time>
      </trkpt>
      <trkpt lat="45.03177" lon="6.01564">
        <ele>1585.6</ele>
        <time>2061-01-03T17:29:31Z</time>
      </trkpt>
      <trkpt lat="45.03168" lon="6.01571">
        <ele>1586.2</ele>
        <time>2061-01-03T17:29:37Z</time>
      </trkpt>
      <trkpt lat="45.03158" lon="6.01576">
        <ele>1586.8</ele>
        <time>2061-01-03T17:29:43Z</time>
      </trkpt>
      <trkpt lat="45.0315" lon="6.01579">
        <ele>1587.6</ele>
        <time>2061-01-03T17:29:49Z</time>
      </trkpt>
      <trkpt lat="45.0314" lon="6.01584">
        <ele>1589.1</ele>
        <time>2061-01-03T17:29:55Z</time>
      </trkpt>
      <trkpt lat="45.03131" lon="6.01589">
        <ele>1590</ele>
        <time>2061-01-03T17:30:00Z</time>
      </trkpt>
      <trkpt lat="45.03121" lon="6.01595">
        <ele>1590.7</ele>
        <time>2061-01-03T17:30:06Z</time>
      </trkpt>
      <trkpt lat="45.03113" lon="6.016">
        <ele>1591.1</ele>
        <time>2061-01-03T17:30:11Z</time>
      </trkpt>
      <trkpt lat="45.03103" lon="6.01607">
        <ele>1592.1</ele>
        <time>2061-01-03T17:30:17Z</time>
      </trkpt>
      <trkpt lat="45.03094" lon="6.01612">
        <ele>1592.7</ele>
        <time>2061-01-03T17:30:22Z</time>
      </trkpt>
      <trkpt lat="45.03086" lon="6.01618">
        <ele>1593.2</ele>
        <time>2061-01-03T17:30:27Z</time>
      </trkpt>
      <trkpt lat="45.03077" lon="6.01622">
        <ele>1593.8</ele>
        <time>2061-01-03T17:30:32Z</time>
      </trkpt>
      <trkpt lat="45.03067" lon="6.01627">
        <ele>1594.7</ele>
        <time>2061-01-03T17:30:38Z</time>
      </trkpt>
      <trkpt lat="45.03058" lon="6.01631">
        <ele>1595.5</ele>
        <time>2061-01-03T17:30:44Z</time>
      </trkpt>
      <trkpt lat="45.03048" lon="6.01636">
        <ele>1596.1</ele>
        <time>2061-01-03T17:30:49Z</time>
      </trkpt>
      <trkpt lat="45.03039" lon="6.01642">
        <ele>1596.9</ele>
        <time>2061-01-03T17:30:54Z</time>
      </trkpt>
      <trkpt lat="45.0303" lon="6.01648">
        <ele>1597.8</ele>
        <time>2061-01-03T17:30:59Z</time>
      </trkpt>
      <trkpt lat="45.0302" lon="6.01655">
        <ele>1598.8</ele>
        <time>2061-01-03T17:31:04Z</time>
      </trkpt>
      <trkpt lat="45.03012" lon="6.01665">
        <ele>1599.7</ele>
        <time>2061-01-03T17:31:10Z</time>
      </trkpt>
      <trkpt lat="45.03005" lon="6.01676">
        <ele>1600.6</ele>
        <time>2061-01-03T17:31:16Z</time>
      </trkpt>
      <trkpt lat="45.02998" lon="6.01687">
        <ele>1601.2</ele>
        <time>2061-01-03T17:31:21Z</time>
      </trkpt>
      <trkpt lat="45.0299" lon="6.01694">
        <ele>1602</ele>
        <time>2061-01-03T17:31:26Z</time>
      </trkpt>
      <trkpt lat="45.0298" lon="6.01694">
        <ele>1603.1</ele>
        <time>2061-01-03T17:31:32Z</time>
      </trkpt>
      <trkpt lat="45.02973" lon="6.01702">
        <ele>1605.3</ele>
        <time>2061-01-03T17:32:34Z</time>
      </trkpt>
      <trkpt lat="45.02965" lon="6.0171">
        <ele>1605.9</ele>
        <time>2061-01-03T17:32:44Z</time>
      </trkpt>
      <trkpt lat="45.02973" lon="6.01705">
        <ele>1606</ele>
        <time>2061-01-03T17:33:12Z</time>
      </trkpt>
      <trkpt lat="45.02981" lon="6.01699">
        <ele>1605.9</ele>
        <time>2061-01-03T17:33:35Z</time>
      </trkpt>
      <trkpt lat="45.0299" lon="6.01701">
        <ele>1606.3</ele>
        <time>2061-01-03T17:34:10Z</time>
      </trkpt>
      <trkpt lat="45.03" lon="6.01699">
        <ele>1606.2</ele>
        <time>2061-01-03T17:34:26Z</time>
      </trkpt>
      <trkpt lat="45.03009" lon="6.017">
        <ele>1606.2</ele>
        <time>2061-01-03T17:35:02Z</time>
      </trkpt>
      <trkpt lat="45.03017" lon="6.01706">
        <ele>1605.9</ele>
        <time>2061-01-03T17:37:01Z</time>
      </trkpt>
      <trkpt lat="45.03025" lon="6.01711">
        <ele>1605.9</ele>
        <time>2061-01-03T17:37:43Z</time>
      </trkpt>
      <trkpt lat="45.03019" lon="6.01721">
        <ele>1606.3</ele>
        <time>2061-01-03T17:38:04Z</time>
      </trkpt>
      <trkpt lat="45.03009" lon="6.01727">
        <ele>1606.4</ele>
        <time>2061-01-03T17:38:11Z</time>
      </trkpt>
      <trkpt lat="45.02999" lon="6.01729">
        <ele>1607</ele>
        <time>2061-01-03T17:38:17Z</time>
      </trkpt>
      <trkpt lat="45.02989" lon="6.01732">
        <ele>1607.8</ele>
        <time>2061-01-03T17:38:23Z</time>
      </trkpt>
      <trkpt lat="45.0298" lon="6.01734">
        <ele>1608.5</ele>
        <time>2061-01-03T17:38:29Z</time>
      </trkpt>
      <trkpt lat="45.02969" lon="6.01735">
        <ele>1609.4</ele>
        <time>2061-01-03T17:38:35Z</time>
      </trkpt>
      <trkpt lat="45.0296" lon="6.01736">
        <ele>1609.9</ele>
        <time>2061-01-03T17:38:40Z</time>
      </trkpt>
      <trkpt lat="45.02949" lon="6.01735">
        <ele>1610.4</ele>
        <time>2061-01-03T17:38:46Z</time>
      </trkpt>
      <trkpt lat="45.0294" lon="6.01733">
        <ele>1610.7</ele>
        <time>2061-01-03T17:38:51Z</time>
      </trkpt>
      <trkpt lat="45.02931" lon="6.01731">
        <ele>1611.1</ele>
        <time>2061-01-03T17:38:56Z</time>
      </trkpt>
      <trkpt lat="45.02922" lon="6.01729">
        <ele>1611.8</ele>
        <time>2061-01-03T17:39:01Z</time>
      </trkpt>
      <trkpt lat="45.02913" lon="6.01727">
        <ele>1612.3</ele>
        <time>2061-01-03T17:39:06Z</time>
      </trkpt>
      <trkpt lat="45.02903" lon="6.01726">
        <ele>1613</ele>
        <time>2061-01-03T17:39:11Z</time>
      </trkpt>
      <trkpt lat="45.02893" lon="6.01726">
        <ele>1613.7</ele>
        <time>2061-01-03T17:39:16Z</time>
      </trkpt>
      <trkpt lat="45.02884" lon="6.01727">
        <ele>1614.2</ele>
        <time>2061-01-03T17:39:21Z</time>
      </trkpt>
      <trkpt lat="45.02874" lon="6.0173">
        <ele>1615</ele>
        <time>2061-01-03T17:39:27Z</time>
      </trkpt>
      <trkpt lat="45.02864" lon="6.01736">
        <ele>1616.3</ele>
        <time>2061-01-03T17:39:33Z</time>
      </trkpt>
      <trkpt lat="45.02855" lon="6.01743">
        <ele>1617.5</ele>
        <time>2061-01-03T17:39:39Z</time>
      </trkpt>
      <trkpt lat="45.02845" lon="6.01749">
        <ele>1618.3</ele>
        <time>2061-01-03T17:39:45Z</time>
      </trkpt>
      <trkpt lat="45.02835" lon="6.01752">
        <ele>1619.1</ele>
        <time>2061-01-03T17:39:51Z</time>
      </trkpt>
      <trkpt lat="45.02826" lon="6.01752">
        <ele>1619.8</ele>
        <time>2061-01-03T17:39:56Z</time>
      </trkpt>
      <trkpt lat="45.02817" lon="6.01752">
        <ele>1620.5</ele>
        <time>2061-01-03T17:40:01Z</time>
      </trkpt>
      <trkpt lat="45.02808" lon="6.01751">
        <ele>1621.2</ele>
        <time>2061-01-03T17:40:06Z</time>
      </trkpt>
      <trkpt lat="45.02798" lon="6.01756">
        <ele>1622</ele>
        <time>2061-01-03T17:40:12Z</time>
      </trkpt>
      <trkpt lat="45.02803" lon="6.01767">
        <ele>1622.7</ele>
        <time>2061-01-03T17:40:19Z</time>
      </trkpt>
      <trkpt lat="45.02813" lon="6.01769">
        <ele>1623.5</ele>
        <time>2061-01-03T17:40:25Z</time>
      </trkpt>
      <trkpt lat="45.02824" lon="6.0177">
        <ele>1624.6</ele>
        <time>2061-01-03T17:40:31Z</time>
      </trkpt>
      <trkpt lat="45.02834" lon="6.01772">
        <ele>1625.4</ele>
        <time>2061-01-03T17:40:37Z</time>
      </trkpt>
      <trkpt lat="45.02843" lon="6.01775">
        <ele>1625.9</ele>
        <time>2061-01-03T17:40:42Z</time>
      </trkpt>
      <trkpt lat="45.02853" lon="6.01778">
        <ele>1626.7</ele>
        <time>2061-01-03T17:40:48Z</time>
      </trkpt>
      <trkpt lat="45.02863" lon="6.0178">
        <ele>1627.8</ele>
        <time>2061-01-03T17:40:55Z</time>
      </trkpt>
      <trkpt lat="45.02872" lon="6.01783">
        <ele>1628.9</ele>
        <time>2061-01-03T17:41:02Z</time>
      </trkpt>
      <trkpt lat="45.02881" lon="6.01789">
        <ele>1630</ele>
        <time>2061-01-03T17:41:10Z</time>
      </trkpt>
      <trkpt lat="45.02888" lon="6.01799">
        <ele>1631.2</ele>
        <time>2061-01-03T17:41:17Z</time>
      </trkpt>
      <trkpt lat="45.02892" lon="6.0181">
        <ele>1631.9</ele>
        <time>2061-01-03T17:41:23Z</time>
      </trkpt>
      <trkpt lat="45.02898" lon="6.01821">
        <ele>1632.9</ele>
        <time>2061-01-03T17:41:29Z</time>
      </trkpt>
      <trkpt lat="45.02904" lon="6.01834">
        <ele>1634</ele>
        <time>2061-01-03T17:41:36Z</time>
      </trkpt>
      <trkpt lat="45.02909" lon="6.01845">
        <ele>1635.5</ele>
        <time>2061-01-03T17:41:43Z</time>
      </trkpt>
      <trkpt lat="45.02916" lon="6.01857">
        <ele>1636.7</ele>
        <time>2061-01-03T17:41:50Z</time>
      </trkpt>
      <trkpt lat="45.02921" lon="6.01868">
        <ele>1637.7</ele>
        <time>2061-01-03T17:41:56Z</time>
      </trkpt>
      <trkpt lat="45.02927" lon="6.01879">
        <ele>1638.5</ele>
        <time>2061-01-03T17:42:03Z</time>
      </trkpt>
      <trkpt lat="45.02934" lon="6.01892">
        <ele>1639</ele>
        <time>2061-01-03T17:42:10Z</time>
      </trkpt>
      <trkpt lat="45.02942" lon="6.01907">
        <ele>1640</ele>
        <time>2061-01-03T17:42:18Z</time>
      </trkpt>
      <trkpt lat="45.02951" lon="6.01923">
        <ele>1642</ele>
        <time>2061-01-03T17:42:26Z</time>
      </trkpt>
      <trkpt lat="45.0296" lon="6.01939">
        <ele>1642</ele>
        <time>2061-01-03T17:42:34Z</time>
      </trkpt>
      <trkpt lat="45.0297" lon="6.01953">
        <ele>1643</ele>
        <time>2061-01-03T17:42:42Z</time>
      </trkpt>
      <trkpt lat="45.02982" lon="6.01965">
        <ele>1644</ele>
        <time>2061-01-03T17:42:50Z</time>
      </trkpt>
      <trkpt lat="45.02995" lon="6.01974">
        <ele>1646</ele>
        <time>2061-01-03T17:42:58Z</time>
      </trkpt>
      <trkpt lat="45.03006" lon="6.01977">
        <ele>1647.6</ele>
        <time>2061-01-03T17:43:05Z</time>
      </trkpt>
      <trkpt lat="45.03015" lon="6.01977">
        <ele>1648</ele>
        <time>2061-01-03T17:43:10Z</time>
      </trkpt>
      <trkpt lat="45.03025" lon="6.01973">
        <ele>1648.8</ele>
        <time>2061-01-03T17:43:16Z</time>
      </trkpt>
      <trkpt lat="45.03035" lon="6.0197">
        <ele>1649.8</ele>
        <time>2061-01-03T17:43:22Z</time>
      </trkpt>
      <trkpt lat="45.03044" lon="6.01966">
        <ele>1650.6</ele>
        <time>2061-01-03T17:43:27Z</time>
      </trkpt>
      <trkpt lat="45.03053" lon="6.01959">
        <ele>1651.6</ele>
        <time>2061-01-03T17:43:33Z</time>
      </trkpt>
      <trkpt lat="45.03062" lon="6.01952">
        <ele>1652.5</ele>
        <time>2061-01-03T17:43:38Z</time>
      </trkpt>
      <trkpt lat="45.0307" lon="6.01946">
        <ele>1653.6</ele>
        <time>2061-01-03T17:43:43Z</time>
      </trkpt>
      <trkpt lat="45.03079" lon="6.01939">
        <ele>1654.8</ele>
        <time>2061-01-03T17:43:49Z</time>
      </trkpt>
      <trkpt lat="45.03087" lon="6.01931">
        <ele>1655.7</ele>
        <time>2061-01-03T17:43:55Z</time>
      </trkpt>
      <trkpt lat="45.03096" lon="6.01927">
        <ele>1656.5</ele>
        <time>2061-01-03T17:44:00Z</time>
      </trkpt>
      <trkpt lat="45.03106" lon="6.01923">
        <ele>1657.2</ele>
        <time>2061-01-03T17:44:06Z</time>
      </trkpt>
      <trkpt lat="45.03116" lon="6.01918">
        <ele>1658</ele>
        <time>2061-01-03T17:44:12Z</time>
      </trkpt>
      <trkpt lat="45.03125" lon="6.01914">
        <ele>1659.3</ele>
        <time>2061-01-03T17:44:17Z</time>
      </trkpt>
      <trkpt lat="45.03135" lon="6.01909">
        <ele>1660.5</ele>
        <time>2061-01-03T17:44:23Z</time>
      </trkpt>
      <trkpt lat="45.03145" lon="6.01904">
        <ele>1661.3</ele>
        <time>2061-01-03T17:44:29Z</time>
      </trkpt>
      <trkpt lat="45.03154" lon="6.01899">
        <ele>1662.2</ele>
        <time>2061-01-03T17:44:35Z</time>
      </trkpt>
      <trkpt lat="45.03163" lon="6.01893">
        <ele>1663.1</ele>
        <time>2061-01-03T17:44:41Z</time>
      </trkpt>
      <trkpt lat="45.03171" lon="6.01886">
        <ele>1664.1</ele>
        <time>2061-01-03T17:44:46Z</time>
      </trkpt>
      <trkpt lat="45.03178" lon="6.01878">
        <ele>1664.8</ele>
        <time>2061-01-03T17:44:51Z</time>
      </trkpt>
      <trkpt lat="45.03186" lon="6.01871">
        <ele>1665.3</ele>
        <time>2061-01-03T17:44:56Z</time>
      </trkpt>
      <trkpt lat="45.03193" lon="6.01863">
        <ele>1666</ele>
        <time>2061-01-03T17:45:01Z</time>
      </trkpt>
      <trkpt lat="45.032" lon="6.01853">
        <ele>1667</ele>
        <time>2061-01-03T17:45:06Z</time>
      </trkpt>
      <trkpt lat="45.03207" lon="6.01843">
        <ele>1667.9</ele>
        <time>2061-01-03T17:45:11Z</time>
      </trkpt>
      <trkpt lat="45.03214" lon="6.01834">
        <ele>1668.5</ele>
        <time>2061-01-03T17:45:16Z</time>
      </trkpt>
      <trkpt lat="45.03222" lon="6.01825">
        <ele>1669.4</ele>
        <time>2061-01-03T17:45:21Z</time>
      </trkpt>
      <trkpt lat="45.03232" lon="6.01821">
        <ele>1670.1</ele>
        <time>2061-01-03T17:45:26Z</time>
      </trkpt>
      <trkpt lat="45.03242" lon="6.01821">
        <ele>1670.6</ele>
        <time>2061-01-03T17:45:32Z</time>
      </trkpt>
      <trkpt lat="45.03251" lon="6.0182">
        <ele>1671.9</ele>
        <time>2061-01-03T17:45:38Z</time>
      </trkpt>
      <trkpt lat="45.03261" lon="6.01819">
        <ele>1672.8</ele>
        <time>2061-01-03T17:45:44Z</time>
      </trkpt>
      <trkpt lat="45.03271" lon="6.01818">
        <ele>1673.8</ele>
        <time>2061-01-03T17:45:51Z</time>
      </trkpt>
      <trkpt lat="45.0328" lon="6.01818">
        <ele>1674.6</ele>
        <time>2061-01-03T17:45:57Z</time>
      </trkpt>
      <trkpt lat="45.0329" lon="6.01818">
        <ele>1675.2</ele>
        <time>2061-01-03T17:46:03Z</time>
      </trkpt>
      <trkpt lat="45.03299" lon="6.01816">
        <ele>1675.8</ele>
        <time>2061-01-03T17:46:08Z</time>
      </trkpt>
      <trkpt lat="45.03308" lon="6.01812">
        <ele>1676.7</ele>
        <time>2061-01-03T17:46:13Z</time>
      </trkpt>
      <trkpt lat="45.03317" lon="6.01809">
        <ele>1677.7</ele>
        <time>2061-01-03T17:46:18Z</time>
      </trkpt>
      <trkpt lat="45.03327" lon="6.01806">
        <ele>1678.8</ele>
        <time>2061-01-03T17:46:25Z</time>
      </trkpt>
      <trkpt lat="45.03336" lon="6.01804">
        <ele>1679.4</ele>
        <time>2061-01-03T17:46:30Z</time>
      </trkpt>
      <trkpt lat="45.03346" lon="6.01801">
        <ele>1679.8</ele>
        <time>2061-01-03T17:46:35Z</time>
      </trkpt>
      <trkpt lat="45.03355" lon="6.018">
        <ele>1680.1</ele>
        <time>2061-01-03T17:46:40Z</time>
      </trkpt>
      <trkpt lat="45.03365" lon="6.018">
        <ele>1681.1</ele>
        <time>2061-01-03T17:46:45Z</time>
      </trkpt>
      <trkpt lat="45.03374" lon="6.01799">
        <ele>1682</ele>
        <time>2061-01-03T17:46:50Z</time>
      </trkpt>
      <trkpt lat="45.03384" lon="6.01799">
        <ele>1682.7</ele>
        <time>2061-01-03T17:46:55Z</time>
      </trkpt>
      <trkpt lat="45.03395" lon="6.01797">
        <ele>1683.3</ele>
        <time>2061-01-03T17:47:01Z</time>
      </trkpt>
      <trkpt lat="45.03404" lon="6.01796">
        <ele>1683.8</ele>
        <time>2061-01-03T17:47:06Z</time>
      </trkpt>
      <trkpt lat="45.03414" lon="6.01794">
        <ele>1684.4</ele>
        <time>2061-01-03T17:47:11Z</time>
      </trkpt>
      <trkpt lat="45.03424" lon="6.0179">
        <ele>1685.2</ele>
        <time>2061-01-03T17:47:17Z</time>
      </trkpt>
      <trkpt lat="45.03433" lon="6.01787">
        <ele>1686.4</ele>
        <time>2061-01-03T17:47:24Z</time>
      </trkpt>
      <trkpt lat="45.03442" lon="6.01785">
        <ele>1687.3</ele>
        <time>2061-01-03T17:47:31Z</time>
      </trkpt>
      <trkpt lat="45.03452" lon="6.01783">
        <ele>1688.6</ele>
        <time>2061-01-03T17:47:40Z</time>
      </trkpt>
      <trkpt lat="45.03461" lon="6.01779">
        <ele>1690</ele>
        <time>2061-01-03T17:47:47Z</time>
      </trkpt>
      <trkpt lat="45.03469" lon="6.0177">
        <ele>1691.1</ele>
        <time>2061-01-03T17:47:54Z</time>
      </trkpt>
      <trkpt lat="45.03479" lon="6.01764">
        <ele>1692.2</ele>
        <time>2061-01-03T17:48:01Z</time>
      </trkpt>
      <trkpt lat="45.03487" lon="6.01759">
        <ele>1693.1</ele>
        <time>2061-01-03T17:48:08Z</time>
      </trkpt>
      <trkpt lat="45.03497" lon="6.01758">
        <ele>1694.4</ele>
        <time>2061-01-03T17:48:15Z</time>
      </trkpt>
      <trkpt lat="45.03504" lon="6.01767">
        <ele>1695.8</ele>
        <time>2061-01-03T17:48:23Z</time>
      </trkpt>
      <trkpt lat="45.03504" lon="6.01781">
        <ele>1697.2</ele>
        <time>2061-01-03T17:48:31Z</time>
      </trkpt>
      <trkpt lat="45.03506" lon="6.01794">
        <ele>1698.6</ele>
        <time>2061-01-03T17:48:39Z</time>
      </trkpt>
      <trkpt lat="45.03507" lon="6.01807">
        <ele>1699.7</ele>
        <time>2061-01-03T17:48:47Z</time>
      </trkpt>
      <trkpt lat="45.03509" lon="6.0182">
        <ele>1701</ele>
        <time>2061-01-03T17:48:55Z</time>
      </trkpt>
      <trkpt lat="45.03512" lon="6.01833">
        <ele>1702.6</ele>
        <time>2061-01-03T17:49:03Z</time>
      </trkpt>
      <trkpt lat="45.03518" lon="6.01843">
        <ele>1703.9</ele>
        <time>2061-01-03T17:49:10Z</time>
      </trkpt>
      <trkpt lat="45.03519" lon="6.0183">
        <ele>1705.4</ele>
        <time>2061-01-03T17:49:19Z</time>
      </trkpt>
      <trkpt lat="45.03521" lon="6.01817">
        <ele>1706.4</ele>
        <time>2061-01-03T17:49:26Z</time>
      </trkpt>
      <trkpt lat="45.03527" lon="6.01806">
        <ele>1707.2</ele>
        <time>2061-01-03T17:49:32Z</time>
      </trkpt>
      <trkpt lat="45.03534" lon="6.01797">
        <ele>1707.8</ele>
        <time>2061-01-03T17:49:38Z</time>
      </trkpt>
      <trkpt lat="45.03541" lon="6.0179">
        <ele>1708.4</ele>
        <time>2061-01-03T17:49:44Z</time>
      </trkpt>
      <trkpt lat="45.03551" lon="6.01788">
        <ele>1709.1</ele>
        <time>2061-01-03T17:49:51Z</time>
      </trkpt>
      <trkpt lat="45.03554" lon="6.01801">
        <ele>1710.1</ele>
        <time>2061-01-03T17:49:59Z</time>
      </trkpt>
      <trkpt lat="45.03549" lon="6.01813">
        <ele>1711</ele>
        <time>2061-01-03T17:50:06Z</time>
      </trkpt>
      <trkpt lat="45.03547" lon="6.01826">
        <ele>1712.1</ele>
        <time>2061-01-03T17:50:13Z</time>
      </trkpt>
      <trkpt lat="45.03554" lon="6.01833">
        <ele>1713.1</ele>
        <time>2061-01-03T17:50:21Z</time>
      </trkpt>
      <trkpt lat="45.03562" lon="6.01826">
        <ele>1714.3</ele>
        <time>2061-01-03T17:50:28Z</time>
      </trkpt>
      <trkpt lat="45.03571" lon="6.0182">
        <ele>1715.7</ele>
        <time>2061-01-03T17:50:35Z</time>
      </trkpt>
      <trkpt lat="45.03574" lon="6.01832">
        <ele>1717.4</ele>
        <time>2061-01-03T17:50:46Z</time>
      </trkpt>
      <trkpt lat="45.03571" lon="6.01845">
        <ele>1718.2</ele>
        <time>2061-01-03T17:50:51Z</time>
      </trkpt>
      <trkpt lat="45.03571" lon="6.0186">
        <ele>1719</ele>
        <time>2061-01-03T17:50:56Z</time>
      </trkpt>
      <trkpt lat="45.03574" lon="6.01874">
        <ele>1719.4</ele>
        <time>2061-01-03T17:51:01Z</time>
      </trkpt>
      <trkpt lat="45.03578" lon="6.01888">
        <ele>1719.9</ele>
        <time>2061-01-03T17:51:07Z</time>
      </trkpt>
      <trkpt lat="45.03583" lon="6.019">
        <ele>1720.4</ele>
        <time>2061-01-03T17:51:13Z</time>
      </trkpt>
      <trkpt lat="45.03588" lon="6.01913">
        <ele>1720.9</ele>
        <time>2061-01-03T17:51:19Z</time>
      </trkpt>
      <trkpt lat="45.03594" lon="6.01926">
        <ele>1721.4</ele>
        <time>2061-01-03T17:51:25Z</time>
      </trkpt>
      <trkpt lat="45.03599" lon="6.01938">
        <ele>1722.3</ele>
        <time>2061-01-03T17:51:31Z</time>
      </trkpt>
      <trkpt lat="45.03604" lon="6.01951">
        <ele>1723.2</ele>
        <time>2061-01-03T17:51:37Z</time>
      </trkpt>
      <trkpt lat="45.0361" lon="6.01963">
        <ele>1724.1</ele>
        <time>2061-01-03T17:51:43Z</time>
      </trkpt>
      <trkpt lat="45.03615" lon="6.01976">
        <ele>1724.8</ele>
        <time>2061-01-03T17:51:49Z</time>
      </trkpt>
      <trkpt lat="45.03615" lon="6.01989">
        <ele>1726.8</ele>
        <time>2061-01-03T17:52:04Z</time>
      </trkpt>
      <trkpt lat="45.0362" lon="6.02">
        <ele>1726.6</ele>
        <time>2061-01-03T17:59:19Z</time>
      </trkpt>
      <trkpt lat="45.03629" lon="6.02002">
        <ele>1727.3</ele>
        <time>2061-01-03T18:01:05Z</time>
      </trkpt>
      <trkpt lat="45.03621" lon="6.01995">
        <ele>1726.8</ele>
        <time>2061-01-03T18:02:36Z</time>
      </trkpt>
      <trkpt lat="45.03629" lon="6.02004">
        <ele>1727.7</ele>
        <time>2061-01-03T18:06:01Z</time>
      </trkpt>
      <trkpt lat="45.03639" lon="6.02003">
        <ele>1727.6</ele>
        <time>2061-01-03T18:06:04Z</time>
      </trkpt>
      <trkpt lat="45.0365" lon="6.01997">
        <ele>1727.5</ele>
        <time>2061-01-03T18:06:07Z</time>
      </trkpt>
      <trkpt lat="45.03662" lon="6.01989">
        <ele>1726.8</ele>
        <time>2061-01-03T18:06:10Z</time>
      </trkpt>
      <trkpt lat="45.03671" lon="6.01981">
        <ele>1726.2</ele>
        <time>2061-01-03T18:06:12Z</time>
      </trkpt>
      <trkpt lat="45.03681" lon="6.0197">
        <ele>1725.8</ele>
        <time>2061-01-03T18:06:14Z</time>
      </trkpt>
      <trkpt lat="45.03688" lon="6.01958">
        <ele>1725</ele>
        <time>2061-01-03T18:06:16Z</time>
      </trkpt>
      <trkpt lat="45.03697" lon="6.01949">
        <ele>1724.3</ele>
        <time>2061-01-03T18:06:18Z</time>
      </trkpt>
      <trkpt lat="45.03707" lon="6.01946">
        <ele>1723.5</ele>
        <time>2061-01-03T18:06:20Z</time>
      </trkpt>
      <trkpt lat="45.03718" lon="6.01944">
        <ele>1722.6</ele>
        <time>2061-01-03T18:06:22Z</time>
      </trkpt>
      <trkpt lat="45.03727" lon="6.0194">
        <ele>1721.9</ele>
        <time>2061-01-03T18:06:24Z</time>
      </trkpt>
      <trkpt lat="45.03741" lon="6.01935">
        <ele>1720.3</ele>
        <time>2061-01-03T18:06:27Z</time>
      </trkpt>
      <trkpt lat="45.03752" lon="6.01933">
        <ele>1719.3</ele>
        <time>2061-01-03T18:06:29Z</time>
      </trkpt>
      <trkpt lat="45.03762" lon="6.0193">
        <ele>1718.1</ele>
        <time>2061-01-03T18:06:31Z</time>
      </trkpt>
      <trkpt lat="45.03776" lon="6.01925">
        <ele>1716.9</ele>
        <time>2061-01-03T18:06:33Z</time>
      </trkpt>
      <trkpt lat="45.03789" lon="6.01921">
        <ele>1715.2</ele>
        <time>2061-01-03T18:06:35Z</time>
      </trkpt>
      <trkpt lat="45.03801" lon="6.01918">
        <ele>1713.4</ele>
        <time>2061-01-03T18:06:37Z</time>
      </trkpt>
      <trkpt lat="45.0381" lon="6.01915">
        <ele>1711.7</ele>
        <time>2061-01-03T18:06:39Z</time>
      </trkpt>
      <trkpt lat="45.03821" lon="6.01902">
        <ele>1709.3</ele>
        <time>2061-01-03T18:06:42Z</time>
      </trkpt>
      <trkpt lat="45.03828" lon="6.01889">
        <ele>1707.8</ele>
        <time>2061-01-03T18:06:44Z</time>
      </trkpt>
      <trkpt lat="45.03837" lon="6.0188">
        <ele>1706.3</ele>
        <time>2061-01-03T18:06:46Z</time>
      </trkpt>
      <trkpt lat="45.03846" lon="6.0187">
        <ele>1704.8</ele>
        <time>2061-01-03T18:06:48Z</time>
      </trkpt>
      <trkpt lat="45.03856" lon="6.01858">
        <ele>1703.4</ele>
        <time>2061-01-03T18:06:50Z</time>
      </trkpt>
      <trkpt lat="45.03866" lon="6.0185">
        <ele>1702.1</ele>
        <time>2061-01-03T18:06:52Z</time>
      </trkpt>
      <trkpt lat="45.03875" lon="6.01844">
        <ele>1700.4</ele>
        <time>2061-01-03T18:06:54Z</time>
      </trkpt>
      <trkpt lat="45.03882" lon="6.01835">
        <ele>1698.9</ele>
        <time>2061-01-03T18:06:56Z</time>
      </trkpt>
      <trkpt lat="45.03894" lon="6.01829">
        <ele>1695.8</ele>
        <time>2061-01-03T18:07:00Z</time>
      </trkpt>
      <trkpt lat="45.03903" lon="6.0183">
        <ele>1694.2</ele>
        <time>2061-01-03T18:07:02Z</time>
      </trkpt>
      <trkpt lat="45.03914" lon="6.01827">
        <ele>1692.9</ele>
        <time>2061-01-03T18:07:04Z</time>
      </trkpt>
      <trkpt lat="45.03925" lon="6.01824">
        <ele>1691.5</ele>
        <time>2061-01-03T18:07:06Z</time>
      </trkpt>
      <trkpt lat="45.03934" lon="6.01816">
        <ele>1690</ele>
        <time>2061-01-03T18:07:08Z</time>
      </trkpt>
      <trkpt lat="45.03941" lon="6.01803">
        <ele>1688.2</ele>
        <time>2061-01-03T18:07:10Z</time>
      </trkpt>
      <trkpt lat="45.03947" lon="6.01794">
        <ele>1686.6</ele>
        <time>2061-01-03T18:07:12Z</time>
      </trkpt>
      <trkpt lat="45.03956" lon="6.01785">
        <ele>1685.1</ele>
        <time>2061-01-03T18:07:14Z</time>
      </trkpt>
      <trkpt lat="45.03966" lon="6.01779">
        <ele>1683.6</ele>
        <time>2061-01-03T18:07:16Z</time>
      </trkpt>
      <trkpt lat="45.03974" lon="6.01774">
        <ele>1682.1</ele>
        <time>2061-01-03T18:07:18Z</time>
      </trkpt>
      <trkpt lat="45.03983" lon="6.01767">
        <ele>1680.4</ele>
        <time>2061-01-03T18:07:20Z</time>
      </trkpt>
      <trkpt lat="45.03993" lon="6.01763">
        <ele>1677.8</ele>
        <time>2061-01-03T18:07:23Z</time>
      </trkpt>
      <trkpt lat="45.04003" lon="6.01762">
        <ele>1675.4</ele>
        <time>2061-01-03T18:07:26Z</time>
      </trkpt>
      <trkpt lat="45.04014" lon="6.01761">
        <ele>1674</ele>
        <time>2061-01-03T18:07:28Z</time>
      </trkpt>
      <trkpt lat="45.04026" lon="6.01764">
        <ele>1672.2</ele>
        <time>2061-01-03T18:07:30Z</time>
      </trkpt>
      <trkpt lat="45.04038" lon="6.01767">
        <ele>1670.7</ele>
        <time>2061-01-03T18:07:32Z</time>
      </trkpt>
      <trkpt lat="45.04049" lon="6.01769">
        <ele>1669.3</ele>
        <time>2061-01-03T18:07:34Z</time>
      </trkpt>
      <trkpt lat="45.0406" lon="6.01772">
        <ele>1667.7</ele>
        <time>2061-01-03T18:07:36Z</time>
      </trkpt>
      <trkpt lat="45.04072" lon="6.01777">
        <ele>1666.1</ele>
        <time>2061-01-03T18:07:38Z</time>
      </trkpt>
      <trkpt lat="45.04082" lon="6.01783">
        <ele>1664.4</ele>
        <time>2061-01-03T18:07:40Z</time>
      </trkpt>
      <trkpt lat="45.04091" lon="6.0179">
        <ele>1662.7</ele>
        <time>2061-01-03T18:07:42Z</time>
      </trkpt>
      <trkpt lat="45.04103" lon="6.018">
        <ele>1660.1</ele>
        <time>2061-01-03T18:07:45Z</time>
      </trkpt>
      <trkpt lat="45.04112" lon="6.01808">
        <ele>1658.5</ele>
        <time>2061-01-03T18:07:47Z</time>
      </trkpt>
      <trkpt lat="45.04121" lon="6.01817">
        <ele>1656.7</ele>
        <time>2061-01-03T18:07:49Z</time>
      </trkpt>
      <trkpt lat="45.0413" lon="6.01825">
        <ele>1655</ele>
        <time>2061-01-03T18:07:51Z</time>
      </trkpt>
      <trkpt lat="45.04137" lon="6.01833">
        <ele>1653.4</ele>
        <time>2061-01-03T18:07:53Z</time>
      </trkpt>
      <trkpt lat="45.04145" lon="6.01845">
        <ele>1651.1</ele>
        <time>2061-01-03T18:07:56Z</time>
      </trkpt>
      <trkpt lat="45.04153" lon="6.01855">
        <ele>1647.7</ele>
        <time>2061-01-03T18:08:00Z</time>
      </trkpt>
      <trkpt lat="45.04162" lon="6.01861">
        <ele>1645.1</ele>
        <time>2061-01-03T18:08:04Z</time>
      </trkpt>
      <trkpt lat="45.04171" lon="6.01865">
        <ele>1642.9</ele>
        <time>2061-01-03T18:08:08Z</time>
      </trkpt>
      <trkpt lat="45.04182" lon="6.01867">
        <ele>1640.7</ele>
        <time>2061-01-03T18:08:12Z</time>
      </trkpt>
      <trkpt lat="45.04188" lon="6.01877">
        <ele>1630.4</ele>
        <time>2061-01-03T18:09:12Z</time>
      </trkpt>
      <trkpt lat="45.04196" lon="6.01886">
        <ele>1628</ele>
        <time>2061-01-03T18:09:29Z</time>
      </trkpt>
      <trkpt lat="45.04206" lon="6.0189">
        <ele>1625.4</ele>
        <time>2061-01-03T18:09:37Z</time>
      </trkpt>
      <trkpt lat="45.04212" lon="6.01879">
        <ele>1621.8</ele>
        <time>2061-01-03T18:09:46Z</time>
      </trkpt>
      <trkpt lat="45.04221" lon="6.01886">
        <ele>1619.3</ele>
        <time>2061-01-03T18:09:53Z</time>
      </trkpt>
      <trkpt lat="45.0423" lon="6.0189">
        <ele>1618.2</ele>
        <time>2061-01-03T18:09:56Z</time>
      </trkpt>
      <trkpt lat="45.04242" lon="6.01886">
        <ele>1617.1</ele>
        <time>2061-01-03T18:09:59Z</time>
      </trkpt>
      <trkpt lat="45.04252" lon="6.01879">
        <ele>1615.7</ele>
        <time>2061-01-03T18:10:02Z</time>
      </trkpt>
      <trkpt lat="45.0426" lon="6.01872">
        <ele>1613.6</ele>
        <time>2061-01-03T18:10:06Z</time>
      </trkpt>
      <trkpt lat="45.04268" lon="6.01865">
        <ele>1611.6</ele>
        <time>2061-01-03T18:10:10Z</time>
      </trkpt>
      <trkpt lat="45.04277" lon="6.01856">
        <ele>1608.8</ele>
        <time>2061-01-03T18:10:15Z</time>
      </trkpt>
      <trkpt lat="45.04287" lon="6.01863">
        <ele>1605.3</ele>
        <time>2061-01-03T18:10:21Z</time>
      </trkpt>
      <trkpt lat="45.04296" lon="6.01874">
        <ele>1603.8</ele>
        <time>2061-01-03T18:10:24Z</time>
      </trkpt>
      <trkpt lat="45.04304" lon="6.01881">
        <ele>1602.4</ele>
        <time>2061-01-03T18:10:27Z</time>
      </trkpt>
      <trkpt lat="45.04314" lon="6.01879">
        <ele>1601.1</ele>
        <time>2061-01-03T18:10:30Z</time>
      </trkpt>
      <trkpt lat="45.04323" lon="6.01871">
        <ele>1599.8</ele>
        <time>2061-01-03T18:10:33Z</time>
      </trkpt>
      <trkpt lat="45.04329" lon="6.01855">
        <ele>1598.5</ele>
        <time>2061-01-03T18:10:36Z</time>
      </trkpt>
      <trkpt lat="45.04334" lon="6.01841">
        <ele>1596.1</ele>
        <time>2061-01-03T18:10:40Z</time>
      </trkpt>
      <trkpt lat="45.04339" lon="6.01831">
        <ele>1587.9</ele>
        <time>2061-01-03T18:11:03Z</time>
      </trkpt>
      <trkpt lat="45.04346" lon="6.01841">
        <ele>1586.1</ele>
        <time>2061-01-03T18:11:12Z</time>
      </trkpt>
      <trkpt lat="45.04354" lon="6.0183">
        <ele>1583.8</ele>
        <time>2061-01-03T18:11:21Z</time>
      </trkpt>
      <trkpt lat="45.04358" lon="6.01818">
        <ele>1580.6</ele>
        <time>2061-01-03T18:11:30Z</time>
      </trkpt>
      <trkpt lat="45.04362" lon="6.01833">
        <ele>1577.9</ele>
        <time>2061-01-03T18:11:41Z</time>
      </trkpt>
      <trkpt lat="45.04367" lon="6.01845">
        <ele>1576.6</ele>
        <time>2061-01-03T18:11:46Z</time>
      </trkpt>
      <trkpt lat="45.04372" lon="6.01856">
        <ele>1573.6</ele>
        <time>2061-01-03T18:12:00Z</time>
      </trkpt>
      <trkpt lat="45.04377" lon="6.01867">
        <ele>1572.7</ele>
        <time>2061-01-03T18:12:10Z</time>
      </trkpt>
      <trkpt lat="45.04386" lon="6.01864">
        <ele>1571.2</ele>
        <time>2061-01-03T18:12:25Z</time>
      </trkpt>
      <trkpt lat="45.04388" lon="6.01852">
        <ele>1570.5</ele>
        <time>2061-01-03T18:12:29Z</time>
      </trkpt>
      <trkpt lat="45.04392" lon="6.01864">
        <ele>1566.2</ele>
        <time>2061-01-03T18:12:44Z</time>
      </trkpt>
      <trkpt lat="45.04402" lon="6.0186">
        <ele>1562.1</ele>
        <time>2061-01-03T18:12:58Z</time>
      </trkpt>
      <trkpt lat="45.04408" lon="6.01849">
        <ele>1560.9</ele>
        <time>2061-01-03T18:13:03Z</time>
      </trkpt>
      <trkpt lat="45.04411" lon="6.01861">
        <ele>1558.1</ele>
        <time>2061-01-03T18:13:16Z</time>
      </trkpt>
      <trkpt lat="45.04411" lon="6.01874">
        <ele>1556</ele>
        <time>2061-01-03T18:13:22Z</time>
      </trkpt>
      <trkpt lat="45.0442" lon="6.0187">
        <ele>1551.8</ele>
        <time>2061-01-03T18:13:36Z</time>
      </trkpt>
      <trkpt lat="45.04427" lon="6.01878">
        <ele>1546.4</ele>
        <time>2061-01-03T18:14:01Z</time>
      </trkpt>
      <trkpt lat="45.04435" lon="6.01873">
        <ele>1542.1</ele>
        <time>2061-01-03T18:14:24Z</time>
      </trkpt>
      <trkpt lat="45.0444" lon="6.01886">
        <ele>1539.3</ele>
        <time>2061-01-03T18:14:39Z</time>
      </trkpt>
      <trkpt lat="45.04449" lon="6.01889">
        <ele>1535.3</ele>
        <time>2061-01-03T18:14:58Z</time>
      </trkpt>
      <trkpt lat="45.04451" lon="6.01903">
        <ele>1530.7</ele>
        <time>2061-01-03T18:15:17Z</time>
      </trkpt>
      <trkpt lat="45.0446" lon="6.01898">
        <ele>1527.2</ele>
        <time>2061-01-03T18:15:33Z</time>
      </trkpt>
      <trkpt lat="45.04465" lon="6.01909">
        <ele>1520.1</ele>
        <time>2061-01-03T18:16:03Z</time>
      </trkpt>
      <trkpt lat="45.04471" lon="6.01918">
        <ele>1515.7</ele>
        <time>2061-01-03T18:16:27Z</time>
      </trkpt>
      <trkpt lat="45.04481" lon="6.01914">
        <ele>1513.1</ele>
        <time>2061-01-03T18:16:51Z</time>
      </trkpt>
      <trkpt lat="45.04485" lon="6.01901">
        <ele>1511.9</ele>
        <time>2061-01-03T18:16:56Z</time>
      </trkpt>
      <trkpt lat="45.0449" lon="6.01887">
        <ele>1510</ele>
        <time>2061-01-03T18:17:01Z</time>
      </trkpt>
      <trkpt lat="45.04495" lon="6.01876">
        <ele>1504.8</ele>
        <time>2061-01-03T18:17:14Z</time>
      </trkpt>
      <trkpt lat="45.04498" lon="6.01891">
        <ele>1503.4</ele>
        <time>2061-01-03T18:17:19Z</time>
      </trkpt>
      <trkpt lat="45.045" lon="6.01905">
        <ele>1502.5</ele>
        <time>2061-01-03T18:17:23Z</time>
      </trkpt>
      <trkpt lat="45.04505" lon="6.01917">
        <ele>1501.6</ele>
        <time>2061-01-03T18:17:26Z</time>
      </trkpt>
      <trkpt lat="45.04507" lon="6.0193">
        <ele>1499.1</ele>
        <time>2061-01-03T18:17:32Z</time>
      </trkpt>
      <trkpt lat="45.04499" lon="6.01938">
        <ele>1496.7</ele>
        <time>2061-01-03T18:17:37Z</time>
      </trkpt>
      <trkpt lat="45.04491" lon="6.01945">
        <ele>1494.5</ele>
        <time>2061-01-03T18:17:42Z</time>
      </trkpt>
      <trkpt lat="45.04495" lon="6.01958">
        <ele>1486.6</ele>
        <time>2061-01-03T18:18:06Z</time>
      </trkpt>
      <trkpt lat="45.04502" lon="6.01968">
        <ele>1478</ele>
        <time>2061-01-03T18:18:43Z</time>
      </trkpt>
      <trkpt lat="45.04511" lon="6.01966">
        <ele>1475.9</ele>
        <time>2061-01-03T18:18:53Z</time>
      </trkpt>
      <trkpt lat="45.04507" lon="6.01978">
        <ele>1471.1</ele>
        <time>2061-01-03T18:19:15Z</time>
      </trkpt>
      <trkpt lat="45.04513" lon="6.01988">
        <ele>1456.9</ele>
        <time>2061-01-03T18:20:58Z</time>
      </trkpt>
      <trkpt lat="45.04512" lon="6.02">
        <ele>1452.1</ele>
        <time>2061-01-03T18:21:40Z</time>
      </trkpt>
      <trkpt lat="45.0452" lon="6.01993">
        <ele>1449.1</ele>
        <time>2061-01-03T18:22:12Z</time>
      </trkpt>
      <trkpt lat="45.04516" lon="6.02005">
        <ele>1443.9</ele>
        <time>2061-01-03T18:22:46Z</time>
      </trkpt>
      <trkpt lat="45.04525" lon="6.02006">
        <ele>1441.4</ele>
        <time>2061-01-03T18:22:55Z</time>
      </trkpt>
      <trkpt lat="45.04534" lon="6.02003">
        <ele>1438.6</ele>
        <time>2061-01-03T18:23:02Z</time>
      </trkpt>
      <trkpt lat="45.04543" lon="6.02">
        <ele>1435.9</ele>
        <time>2061-01-03T18:23:08Z</time>
      </trkpt>
      <trkpt lat="45.04547" lon="6.02012">
        <ele>1424.9</ele>
        <time>2061-01-03T18:24:12Z</time>
      </trkpt>
      <trkpt lat="45.04542" lon="6.02024">
        <ele>1424</ele>
        <time>2061-01-03T18:24:26Z</time>
      </trkpt>
      <trkpt lat="45.04536" lon="6.02033">
        <ele>1423.4</ele>
        <time>2061-01-03T18:24:29Z</time>
      </trkpt>
      <trkpt lat="45.04528" lon="6.0204">
        <ele>1422.9</ele>
        <time>2061-01-03T18:24:32Z</time>
      </trkpt>
      <trkpt lat="45.04524" lon="6.02052">
        <ele>1421.6</ele>
        <time>2061-01-03T18:24:36Z</time>
      </trkpt>
      <trkpt lat="45.04531" lon="6.0206">
        <ele>1420.2</ele>
        <time>2061-01-03T18:24:40Z</time>
      </trkpt>
      <trkpt lat="45.04541" lon="6.02057">
        <ele>1417.8</ele>
        <time>2061-01-03T18:24:45Z</time>
      </trkpt>
      <trkpt lat="45.04551" lon="6.02056">
        <ele>1413.9</ele>
        <time>2061-01-03T18:24:52Z</time>
      </trkpt>
      <trkpt lat="45.0456" lon="6.02053">
        <ele>1409.7</ele>
        <time>2061-01-03T18:25:02Z</time>
      </trkpt>
      <trkpt lat="45.04569" lon="6.02052">
        <ele>1402.1</ele>
        <time>2061-01-03T18:25:43Z</time>
      </trkpt>
      <trkpt lat="45.04578" lon="6.02049">
        <ele>1401</ele>
        <time>2061-01-03T18:26:20Z</time>
      </trkpt>
      <trkpt lat="45.04589" lon="6.02044">
        <ele>1400.6</ele>
        <time>2061-01-03T18:26:24Z</time>
      </trkpt>
      <trkpt lat="45.04598" lon="6.02041">
        <ele>1399.4</ele>
        <time>2061-01-03T18:26:27Z</time>
      </trkpt>
      <trkpt lat="45.04608" lon="6.02038">
        <ele>1397.8</ele>
        <time>2061-01-03T18:26:30Z</time>
      </trkpt>
      <trkpt lat="45.04618" lon="6.02036">
        <ele>1395.8</ele>
        <time>2061-01-03T18:26:34Z</time>
      </trkpt>
      <trkpt lat="45.04628" lon="6.02034">
        <ele>1392.9</ele>
        <time>2061-01-03T18:26:40Z</time>
      </trkpt>
      <trkpt lat="45.04638" lon="6.02033">
        <ele>1390.2</ele>
        <time>2061-01-03T18:26:45Z</time>
      </trkpt>
      <trkpt lat="45.0464" lon="6.02045">
        <ele>1383</ele>
        <time>2061-01-03T18:26:59Z</time>
      </trkpt>
      <trkpt lat="45.04632" lon="6.02053">
        <ele>1381.3</ele>
        <time>2061-01-03T18:27:02Z</time>
      </trkpt>
      <trkpt lat="45.04624" lon="6.0206">
        <ele>1378.9</ele>
        <time>2061-01-03T18:27:06Z</time>
      </trkpt>
      <trkpt lat="45.04618" lon="6.0207">
        <ele>1375.7</ele>
        <time>2061-01-03T18:27:10Z</time>
      </trkpt>
      <trkpt lat="45.04613" lon="6.02083">
        <ele>1372.8</ele>
        <time>2061-01-03T18:27:14Z</time>
      </trkpt>
      <trkpt lat="45.04609" lon="6.02095">
        <ele>1370</ele>
        <time>2061-01-03T18:27:18Z</time>
      </trkpt>
      <trkpt lat="45.04605" lon="6.02107">
        <ele>1367.5</ele>
        <time>2061-01-03T18:27:22Z</time>
      </trkpt>
      <trkpt lat="45.04598" lon="6.02114">
        <ele>1365.5</ele>
        <time>2061-01-03T18:27:25Z</time>
      </trkpt>
      <trkpt lat="45.0459" lon="6.02123">
        <ele>1364.2</ele>
        <time>2061-01-03T18:27:27Z</time>
      </trkpt>
      <trkpt lat="45.04583" lon="6.02132">
        <ele>1362.7</ele>
        <time>2061-01-03T18:27:29Z</time>
      </trkpt>
      <trkpt lat="45.04574" lon="6.02144">
        <ele>1360.4</ele>
        <time>2061-01-03T18:27:32Z</time>
      </trkpt>
      <trkpt lat="45.04566" lon="6.0215">
        <ele>1359</ele>
        <time>2061-01-03T18:27:34Z</time>
      </trkpt>
      <trkpt lat="45.04557" lon="6.02159">
        <ele>1356.4</ele>
        <time>2061-01-03T18:27:37Z</time>
      </trkpt>
      <trkpt lat="45.0455" lon="6.02168">
        <ele>1353.3</ele>
        <time>2061-01-03T18:27:41Z</time>
      </trkpt>
      <trkpt lat="45.0456" lon="6.0217">
        <ele>1348.8</ele>
        <time>2061-01-03T18:27:48Z</time>
      </trkpt>
      <trkpt lat="45.0457" lon="6.02172">
        <ele>1342.9</ele>
        <time>2061-01-03T18:27:56Z</time>
      </trkpt>
      <trkpt lat="45.04567" lon="6.02184">
        <ele>1338.7</ele>
        <time>2061-01-03T18:28:03Z</time>
      </trkpt>
      <trkpt lat="45.04575" lon="6.0219">
        <ele>1335.4</ele>
        <time>2061-01-03T18:28:09Z</time>
      </trkpt>
      <trkpt lat="45.04587" lon="6.0219">
        <ele>1332.9</ele>
        <time>2061-01-03T18:28:13Z</time>
      </trkpt>
      <trkpt lat="45.04596" lon="6.02185">
        <ele>1330.2</ele>
        <time>2061-01-03T18:28:17Z</time>
      </trkpt>
      <trkpt lat="45.04596" lon="6.02199">
        <ele>1323.5</ele>
        <time>2061-01-03T18:28:27Z</time>
      </trkpt>
      <trkpt lat="45.04605" lon="6.02203">
        <ele>1318.6</ele>
        <time>2061-01-03T18:28:35Z</time>
      </trkpt>
      <trkpt lat="45.04613" lon="6.02193">
        <ele>1316.9</ele>
        <time>2061-01-03T18:28:38Z</time>
      </trkpt>
      <trkpt lat="45.04622" lon="6.02183">
        <ele>1314.1</ele>
        <time>2061-01-03T18:28:42Z</time>
      </trkpt>
      <trkpt lat="45.04632" lon="6.02176">
        <ele>1312</ele>
        <time>2061-01-03T18:28:45Z</time>
      </trkpt>
      <trkpt lat="45.04629" lon="6.02191">
        <ele>1303.6</ele>
        <time>2061-01-03T18:28:58Z</time>
      </trkpt>
      <trkpt lat="45.04626" lon="6.02204">
        <ele>1300.1</ele>
        <time>2061-01-03T18:29:03Z</time>
      </trkpt>
      <trkpt lat="45.04637" lon="6.02197">
        <ele>1295.6</ele>
        <time>2061-01-03T18:29:10Z</time>
      </trkpt>
      <trkpt lat="45.04645" lon="6.02188">
        <ele>1293.2</ele>
        <time>2061-01-03T18:29:14Z</time>
      </trkpt>
      <trkpt lat="45.04654" lon="6.02186">
        <ele>1285.1</ele>
        <time>2061-01-03T18:29:35Z</time>
      </trkpt>
      <trkpt lat="45.04663" lon="6.02181">
        <ele>1281.8</ele>
        <time>2061-01-03T18:30:03Z</time>
      </trkpt>
      <trkpt lat="45.04654" lon="6.02192">
        <ele>1280.2</ele>
        <time>2061-01-03T18:30:12Z</time>
      </trkpt>
      <trkpt lat="45.04657" lon="6.02205">
        <ele>1272.2</ele>
        <time>2061-01-03T18:30:33Z</time>
      </trkpt>
      <trkpt lat="45.04653" lon="6.02218">
        <ele>1268.9</ele>
        <time>2061-01-03T18:30:38Z</time>
      </trkpt>
      <trkpt lat="45.04664" lon="6.02216">
        <ele>1264.3</ele>
        <time>2061-01-03T18:30:47Z</time>
      </trkpt>
      <trkpt lat="45.0467" lon="6.02227">
        <ele>1255.8</ele>
        <time>2061-01-03T18:31:04Z</time>
      </trkpt>
      <trkpt lat="45.04679" lon="6.02231">
        <ele>1249.3</ele>
        <time>2061-01-03T18:31:19Z</time>
      </trkpt>
      <trkpt lat="45.04686" lon="6.02223">
        <ele>1247.3</ele>
        <time>2061-01-03T18:31:24Z</time>
      </trkpt>
      <trkpt lat="45.04695" lon="6.0223">
        <ele>1239.1</ele>
        <time>2061-01-03T18:31:42Z</time>
      </trkpt>
      <trkpt lat="45.0469" lon="6.02242">
        <ele>1231.2</ele>
        <time>2061-01-03T18:31:59Z</time>
      </trkpt>
      <trkpt lat="45.047" lon="6.02242">
        <ele>1226.9</ele>
        <time>2061-01-03T18:32:09Z</time>
      </trkpt>
      <trkpt lat="45.04696" lon="6.02255">
        <ele>1220.8</ele>
        <time>2061-01-03T18:32:23Z</time>
      </trkpt>
      <trkpt lat="45.04705" lon="6.0226">
        <ele>1216</ele>
        <time>2061-01-03T18:32:33Z</time>
      </trkpt>
      <trkpt lat="45.04716" lon="6.02258">
        <ele>1213.2</ele>
        <time>2061-01-03T18:32:38Z</time>
      </trkpt>
      <trkpt lat="45.04722" lon="6.02268">
        <ele>1202.1</ele>
        <time>2061-01-03T18:32:58Z</time>
      </trkpt>
      <trkpt lat="45.04731" lon="6.02266">
        <ele>1197.4</ele>
        <time>2061-01-03T18:33:14Z</time>
      </trkpt>
      <trkpt lat="45.04726" lon="6.02277">
        <ele>1193</ele>
        <time>2061-01-03T18:33:27Z</time>
      </trkpt>
      <trkpt lat="45.0472" lon="6.02286">
        <ele>1184.4</ele>
        <time>2061-01-03T18:33:58Z</time>
      </trkpt>
      <trkpt lat="45.04712" lon="6.02291">
        <ele>1183.7</ele>
        <time>2061-01-03T18:34:05Z</time>
      </trkpt>
      <trkpt lat="45.04721" lon="6.02293">
        <ele>1182.6</ele>
        <time>2061-01-03T18:34:13Z</time>
      </trkpt>
      <trkpt lat="45.0473" lon="6.0229">
        <ele>1181.5</ele>
        <time>2061-01-03T18:34:17Z</time>
      </trkpt>
      <trkpt lat="45.0474" lon="6.02285">
        <ele>1179.3</ele>
        <time>2061-01-03T18:34:22Z</time>
      </trkpt>
      <trkpt lat="45.04743" lon="6.02272">
        <ele>1177.7</ele>
        <time>2061-01-03T18:34:25Z</time>
      </trkpt>
      <trkpt lat="45.04745" lon="6.02259">
        <ele>1175.7</ele>
        <time>2061-01-03T18:34:29Z</time>
      </trkpt>
      <trkpt lat="45.04754" lon="6.02253">
        <ele>1173.8</ele>
        <time>2061-01-03T18:34:33Z</time>
      </trkpt>
      <trkpt lat="45.04766" lon="6.02249">
        <ele>1172.3</ele>
        <time>2061-01-03T18:34:36Z</time>
      </trkpt>
      <trkpt lat="45.04776" lon="6.02246">
        <ele>1171.5</ele>
        <time>2061-01-03T18:34:38Z</time>
      </trkpt>
      <trkpt lat="45.04786" lon="6.02241">
        <ele>1170.2</ele>
        <time>2061-01-03T18:34:41Z</time>
      </trkpt>
      <trkpt lat="45.04796" lon="6.02232">
        <ele>1168</ele>
        <time>2061-01-03T18:34:45Z</time>
      </trkpt>
      <trkpt lat="45.04802" lon="6.02221">
        <ele>1166.2</ele>
        <time>2061-01-03T18:34:48Z</time>
      </trkpt>
      <trkpt lat="45.04806" lon="6.0221">
        <ele>1164.4</ele>
        <time>2061-01-03T18:34:51Z</time>
      </trkpt>
      <trkpt lat="45.04813" lon="6.022">
        <ele>1162</ele>
        <time>2061-01-03T18:34:55Z</time>
      </trkpt>
      <trkpt lat="45.04824" lon="6.02197">
        <ele>1159.8</ele>
        <time>2061-01-03T18:34:59Z</time>
      </trkpt>
      <trkpt lat="45.04833" lon="6.02195">
        <ele>1158</ele>
        <time>2061-01-03T18:35:02Z</time>
      </trkpt>
      <trkpt lat="45.04843" lon="6.02193">
        <ele>1156.5</ele>
        <time>2061-01-03T18:35:05Z</time>
      </trkpt>
      <trkpt lat="45.04853" lon="6.02192">
        <ele>1154.3</ele>
        <time>2061-01-03T18:35:09Z</time>
      </trkpt>
      <trkpt lat="45.04862" lon="6.02191">
        <ele>1152.2</ele>
        <time>2061-01-03T18:35:13Z</time>
      </trkpt>
      <trkpt lat="45.04871" lon="6.02185">
        <ele>1150.8</ele>
        <time>2061-01-03T18:35:16Z</time>
      </trkpt>
      <trkpt lat="45.0488" lon="6.02178">
        <ele>1148.7</ele>
        <time>2061-01-03T18:35:20Z</time>
      </trkpt>
      <trkpt lat="45.0489" lon="6.02173">
        <ele>1145.3</ele>
        <time>2061-01-03T18:35:26Z</time>
      </trkpt>
      <trkpt lat="45.04899" lon="6.02169">
        <ele>1142.4</ele>
        <time>2061-01-03T18:35:31Z</time>
      </trkpt>
      <trkpt lat="45.04908" lon="6.0216">
        <ele>1139.2</ele>
        <time>2061-01-03T18:35:36Z</time>
      </trkpt>
      <trkpt lat="45.04917" lon="6.02153">
        <ele>1136.3</ele>
        <time>2061-01-03T18:35:41Z</time>
      </trkpt>
      <trkpt lat="45.04925" lon="6.02146">
        <ele>1132.2</ele>
        <time>2061-01-03T18:35:47Z</time>
      </trkpt>
      <trkpt lat="45.04923" lon="6.02159">
        <ele>1123.2</ele>
        <time>2061-01-03T18:36:02Z</time>
      </trkpt>
      <trkpt lat="45.04916" lon="6.02169">
        <ele>1121.4</ele>
        <time>2061-01-03T18:36:05Z</time>
      </trkpt>
      <trkpt lat="45.04923" lon="6.02177">
        <ele>1114.3</ele>
        <time>2061-01-03T18:36:16Z</time>
      </trkpt>
      <trkpt lat="45.04932" lon="6.02171">
        <ele>1111.8</ele>
        <time>2061-01-03T18:36:20Z</time>
      </trkpt>
      <trkpt lat="45.04942" lon="6.02164">
        <ele>1107.2</ele>
        <time>2061-01-03T18:36:27Z</time>
      </trkpt>
      <trkpt lat="45.0495" lon="6.02157">
        <ele>1103.5</ele>
        <time>2061-01-03T18:36:33Z</time>
      </trkpt>
      <trkpt lat="45.04957" lon="6.02167">
        <ele>1094.3</ele>
        <time>2061-01-03T18:36:48Z</time>
      </trkpt>
      <trkpt lat="45.04955" lon="6.02181">
        <ele>1089.9</ele>
        <time>2061-01-03T18:36:56Z</time>
      </trkpt>
      <trkpt lat="45.04964" lon="6.02184">
        <ele>1083</ele>
        <time>2061-01-03T18:37:13Z</time>
      </trkpt>
      <trkpt lat="45.04974" lon="6.02185">
        <ele>1079.5</ele>
        <time>2061-01-03T18:37:32Z</time>
      </trkpt>
      <trkpt lat="45.04982" lon="6.0219">
        <ele>1077.1</ele>
        <time>2061-01-03T18:38:19Z</time>
      </trkpt>
      <trkpt lat="45.04991" lon="6.02185">
        <ele>1072.9</ele>
        <time>2061-01-03T18:40:45Z</time>
      </trkpt>
      <trkpt lat="45.04996" lon="6.02174">
        <ele>1071.4</ele>
        <time>2061-01-03T18:40:51Z</time>
      </trkpt>
      <trkpt lat="45.05003" lon="6.02162">
        <ele>1069.5</ele>
        <time>2061-01-03T18:40:56Z</time>
      </trkpt>
      <trkpt lat="45.05008" lon="6.0215">
        <ele>1066.8</ele>
        <time>2061-01-03T18:41:01Z</time>
      </trkpt>
      <trkpt lat="45.05017" lon="6.02145">
        <ele>1053.3</ele>
        <time>2061-01-03T18:41:31Z</time>
      </trkpt>
      <trkpt lat="45.05026" lon="6.02139">
        <ele>1051.5</ele>
        <time>2061-01-03T18:41:38Z</time>
      </trkpt>
      <trkpt lat="45.05035" lon="6.02138">
        <ele>1048.9</ele>
        <time>2061-01-03T18:41:45Z</time>
      </trkpt>
      <trkpt lat="45.05028" lon="6.02149">
        <ele>1047</ele>
        <time>2061-01-03T18:41:50Z</time>
      </trkpt>
      <trkpt lat="45.05038" lon="6.02154">
        <ele>1039.8</ele>
        <time>2061-01-03T18:42:05Z</time>
      </trkpt>
      <trkpt lat="45.05048" lon="6.02153">
        <ele>1037.3</ele>
        <time>2061-01-03T18:42:09Z</time>
      </trkpt>
      <trkpt lat="45.05043" lon="6.02164">
        <ele>1031.6</ele>
        <time>2061-01-03T18:42:19Z</time>
      </trkpt>
      <trkpt lat="45.05052" lon="6.02173">
        <ele>1024.7</ele>
        <time>2061-01-03T18:42:31Z</time>
      </trkpt>
      <trkpt lat="45.05061" lon="6.02176">
        <ele>1021.7</ele>
        <time>2061-01-03T18:42:36Z</time>
      </trkpt>
      <trkpt lat="45.05064" lon="6.02188">
        <ele>1007.6</ele>
        <time>2061-01-03T18:43:10Z</time>
      </trkpt>
      <trkpt lat="45.05073" lon="6.02191">
        <ele>1005.3</ele>
        <time>2061-01-03T18:43:15Z</time>
      </trkpt>
      <trkpt lat="45.05081" lon="6.02185">
        <ele>997.8</ele>
        <time>2061-01-03T18:43:30Z</time>
      </trkpt>
      <trkpt lat="45.0509" lon="6.02185">
        <ele>991.4</ele>
        <time>2061-01-03T18:44:00Z</time>
      </trkpt>
      <trkpt lat="45.05095" lon="6.02196">
        <ele>989.2</ele>
        <time>2061-01-03T18:44:09Z</time>
      </trkpt>
      <trkpt lat="45.05087" lon="6.02203">
        <ele>987.5</ele>
        <time>2061-01-03T18:44:15Z</time>
      </trkpt>
      <trkpt lat="45.05095" lon="6.02209">
        <ele>977.1</ele>
        <time>2061-01-03T18:45:05Z</time>
      </trkpt>
      <trkpt lat="45.05105" lon="6.02211">
        <ele>972.1</ele>
        <time>2061-01-03T18:45:24Z</time>
      </trkpt>
      <trkpt lat="45.05115" lon="6.02208">
        <ele>969.4</ele>
        <time>2061-01-03T18:45:31Z</time>
      </trkpt>
      <trkpt lat="45.05125" lon="6.02212">
        <ele>965</ele>
        <time>2061-01-03T18:45:44Z</time>
      </trkpt>
      <trkpt lat="45.0512" lon="6.02226">
        <ele>960.5</ele>
        <time>2061-01-03T18:45:55Z</time>
      </trkpt>
      <trkpt lat="45.05111" lon="6.02229">
        <ele>958.9</ele>
        <time>2061-01-03T18:45:58Z</time>
      </trkpt>
      <trkpt lat="45.05101" lon="6.02235">
        <ele>956.3</ele>
        <time>2061-01-03T18:46:03Z</time>
      </trkpt>
      <trkpt lat="45.05093" lon="6.02241">
        <ele>953.5</ele>
        <time>2061-01-03T18:46:08Z</time>
      </trkpt>
      <trkpt lat="45.05102" lon="6.02247">
        <ele>947.5</ele>
        <time>2061-01-03T18:46:20Z</time>
      </trkpt>
      <trkpt lat="45.05113" lon="6.02248">
        <ele>945.4</ele>
        <time>2061-01-03T18:46:24Z</time>
      </trkpt>
      <trkpt lat="45.05122" lon="6.02246">
        <ele>942.3</ele>
        <time>2061-01-03T18:46:29Z</time>
      </trkpt>
      <trkpt lat="45.05116" lon="6.02256">
        <ele>937.2</ele>
        <time>2061-01-03T18:46:39Z</time>
      </trkpt>
      <trkpt lat="45.05107" lon="6.02264">
        <ele>935.4</ele>
        <time>2061-01-03T18:46:43Z</time>
      </trkpt>
      <trkpt lat="45.05101" lon="6.02272">
        <ele>932.5</ele>
        <time>2061-01-03T18:46:48Z</time>
      </trkpt>
      <trkpt lat="45.0511" lon="6.02274">
        <ele>926.7</ele>
        <time>2061-01-03T18:47:00Z</time>
      </trkpt>
      <trkpt lat="45.05119" lon="6.02277">
        <ele>922</ele>
        <time>2061-01-03T18:47:24Z</time>
      </trkpt>
      <trkpt lat="45.05128" lon="6.02281">
        <ele>920.7</ele>
        <time>2061-01-03T18:47:49Z</time>
      </trkpt>
      <trkpt lat="45.05138" lon="6.02282">
        <ele>920.3</ele>
        <time>2061-01-03T18:47:52Z</time>
      </trkpt>
      <trkpt lat="45.05148" lon="6.02273">
        <ele>919</ele>
        <time>2061-01-03T18:47:56Z</time>
      </trkpt>
      <trkpt lat="45.05156" lon="6.02263">
        <ele>917.6</ele>
        <time>2061-01-03T18:47:59Z</time>
      </trkpt>
      <trkpt lat="45.05164" lon="6.02258">
        <ele>914.6</ele>
        <time>2061-01-03T18:48:04Z</time>
      </trkpt>
      <trkpt lat="45.05165" lon="6.0227">
        <ele>910.4</ele>
        <time>2061-01-03T18:48:11Z</time>
      </trkpt>
      <trkpt lat="45.05175" lon="6.0227">
        <ele>902.4</ele>
        <time>2061-01-03T18:48:29Z</time>
      </trkpt>
      <trkpt lat="45.05175" lon="6.02283">
        <ele>899.9</ele>
        <time>2061-01-03T18:48:36Z</time>
      </trkpt>
      <trkpt lat="45.05183" lon="6.02291">
        <ele>895.8</ele>
        <time>2061-01-03T18:48:45Z</time>
      </trkpt>
      <trkpt lat="45.0519" lon="6.02303">
        <ele>893.8</ele>
        <time>2061-01-03T18:48:49Z</time>
      </trkpt>
      <trkpt lat="45.05198" lon="6.02309">
        <ele>891.7</ele>
        <time>2061-01-03T18:48:52Z</time>
      </trkpt>
      <trkpt lat="45.05208" lon="6.02315">
        <ele>879</ele>
        <time>2061-01-03T18:49:58Z</time>
      </trkpt>
      <trkpt lat="45.05216" lon="6.02321">
        <ele>879</ele>
        <time>2061-01-03T18:50:01Z</time>
      </trkpt>
      <trkpt lat="45.05225" lon="6.02328">
        <ele>878.8</ele>
        <time>2061-01-03T18:50:03Z</time>
      </trkpt>
      <trkpt lat="45.05235" lon="6.02334">
        <ele>878.7</ele>
        <time>2061-01-03T18:50:05Z</time>
      </trkpt>
      <trkpt lat="45.05244" lon="6.02337">
        <ele>878.3</ele>
        <time>2061-01-03T18:50:07Z</time>
      </trkpt>
      <trkpt lat="45.05257" lon="6.02337">
        <ele>877.8</ele>
        <time>2061-01-03T18:50:09Z</time>
      </trkpt>
      <trkpt lat="45.05269" lon="6.0234">
        <ele>877.2</ele>
        <time>2061-01-03T18:50:11Z</time>
      </trkpt>
      <trkpt lat="45.0528" lon="6.02341">
        <ele>876.6</ele>
        <time>2061-01-03T18:50:13Z</time>
      </trkpt>
      <trkpt lat="45.0529" lon="6.02341">
        <ele>875.9</ele>
        <time>2061-01-03T18:50:15Z</time>
      </trkpt>
      <trkpt lat="45.05303" lon="6.02343">
        <ele>874.4</ele>
        <time>2061-01-03T18:50:18Z</time>
      </trkpt>
      <trkpt lat="45.05313" lon="6.02344">
        <ele>873</ele>
        <time>2061-01-03T18:50:20Z</time>
      </trkpt>
      <trkpt lat="45.05324" lon="6.02345">
        <ele>871.4</ele>
        <time>2061-01-03T18:50:22Z</time>
      </trkpt>
      <trkpt lat="45.05336" lon="6.02346">
        <ele>869.8</ele>
        <time>2061-01-03T18:50:24Z</time>
      </trkpt>
      <trkpt lat="45.05348" lon="6.0234">
        <ele>867.9</ele>
        <time>2061-01-03T18:50:26Z</time>
      </trkpt>
      <trkpt lat="45.05361" lon="6.02334">
        <ele>866.3</ele>
        <time>2061-01-03T18:50:28Z</time>
      </trkpt>
      <trkpt lat="45.05371" lon="6.02328">
        <ele>863.8</ele>
        <time>2061-01-03T18:50:31Z</time>
      </trkpt>
      <trkpt lat="45.0538" lon="6.02321">
        <ele>860.7</ele>
        <time>2061-01-03T18:50:36Z</time>
      </trkpt>
      <trkpt lat="45.05389" lon="6.02317">
        <ele>855</ele>
        <time>2061-01-03T18:50:53Z</time>
      </trkpt>
      <trkpt lat="45.05398" lon="6.02317">
        <ele>852.1</ele>
        <time>2061-01-03T18:51:10Z</time>
      </trkpt>
      <trkpt lat="45.0541" lon="6.02321">
        <ele>851</ele>
        <time>2061-01-03T18:51:16Z</time>
      </trkpt>
      <trkpt lat="45.05419" lon="6.02326">
        <ele>850.2</ele>
        <time>2061-01-03T18:51:20Z</time>
      </trkpt>
      <trkpt lat="45.05431" lon="6.02326">
        <ele>848.9</ele>
        <time>2061-01-03T18:51:24Z</time>
      </trkpt>
      <trkpt lat="45.05442" lon="6.02324">
        <ele>847.7</ele>
        <time>2061-01-03T18:51:28Z</time>
      </trkpt>
      <trkpt lat="45.05451" lon="6.02325">
        <ele>846.1</ele>
        <time>2061-01-03T18:51:32Z</time>
      </trkpt>
      <trkpt lat="45.05459" lon="6.02333">
        <ele>840.9</ele>
        <time>2061-01-03T18:51:49Z</time>
      </trkpt>
      <trkpt lat="45.05469" lon="6.02333">
        <ele>839.8</ele>
        <time>2061-01-03T18:51:54Z</time>
      </trkpt>
      <trkpt lat="45.05478" lon="6.02333">
        <ele>838.6</ele>
        <time>2061-01-03T18:51:59Z</time>
      </trkpt>
      <trkpt lat="45.05488" lon="6.02333">
        <ele>837.9</ele>
        <time>2061-01-03T18:52:03Z</time>
      </trkpt>
      <trkpt lat="45.05499" lon="6.02333">
        <ele>836.8</ele>
        <time>2061-01-03T18:52:06Z</time>
      </trkpt>
      <trkpt lat="45.05511" lon="6.02337">
        <ele>835.9</ele>
        <time>2061-01-03T18:52:09Z</time>
      </trkpt>
      <trkpt lat="45.0552" lon="6.02346">
        <ele>835.2</ele>
        <time>2061-01-03T18:52:12Z</time>
      </trkpt>
      <trkpt lat="45.0553" lon="6.0235">
        <ele>834</ele>
        <time>2061-01-03T18:52:16Z</time>
      </trkpt>
      <trkpt lat="45.05541" lon="6.02355">
        <ele>832.9</ele>
        <time>2061-01-03T18:52:20Z</time>
      </trkpt>
      <trkpt lat="45.05551" lon="6.02361">
        <ele>832.3</ele>
        <time>2061-01-03T18:52:23Z</time>
      </trkpt>
      <trkpt lat="45.0556" lon="6.02369">
        <ele>831.8</ele>
        <time>2061-01-03T18:52:26Z</time>
      </trkpt>
      <trkpt lat="45.05571" lon="6.02375">
        <ele>831.2</ele>
        <time>2061-01-03T18:52:30Z</time>
      </trkpt>
      <trkpt lat="45.05581" lon="6.02379">
        <ele>830.6</ele>
        <time>2061-01-03T18:52:34Z</time>
      </trkpt>
      <trkpt lat="45.0559" lon="6.02384">
        <ele>827.6</ele>
        <time>2061-01-03T18:53:04Z</time>
      </trkpt>
      <trkpt lat="45.05599" lon="6.0239">
        <ele>826.7</ele>
        <time>2061-01-03T18:53:28Z</time>
      </trkpt>
      <trkpt lat="45.05596" lon="6.02402">
        <ele>825.3</ele>
        <time>2061-01-03T18:53:59Z</time>
      </trkpt>
      <trkpt lat="45.05588" lon="6.0241">
        <ele>824.4</ele>
        <time>2061-01-03T18:54:36Z</time>
      </trkpt>
      <trkpt lat="45.05588" lon="6.02425">
        <ele>824.6</ele>
        <time>2061-01-03T18:54:53Z</time>
      </trkpt>
      <trkpt lat="45.05594" lon="6.02439">
        <ele>824.3</ele>
        <time>2061-01-03T18:54:56Z</time>
      </trkpt>
      <trkpt lat="45.05601" lon="6.02448">
        <ele>824</ele>
        <time>2061-01-03T18:54:59Z</time>
      </trkpt>
      <trkpt lat="45.05609" lon="6.02456">
        <ele>823.4</ele>
        <time>2061-01-03T18:55:03Z</time>
      </trkpt>
      <trkpt lat="45.05617" lon="6.02464">
        <ele>822.2</ele>
        <time>2061-01-03T18:55:08Z</time>
      </trkpt>
      <trkpt lat="45.05625" lon="6.0247">
        <ele>818.3</ele>
        <time>2061-01-03T18:55:34Z</time>
      </trkpt>
      <trkpt lat="45.05635" lon="6.02477">
        <ele>818</ele>
        <time>2061-01-03T18:55:39Z</time>
      </trkpt>
      <trkpt lat="45.05645" lon="6.02484">
        <ele>817.7</ele>
        <time>2061-01-03T18:55:42Z</time>
      </trkpt>
      <trkpt lat="45.05653" lon="6.02491">
        <ele>816.9</ele>
        <time>2061-01-03T18:55:48Z</time>
      </trkpt>
      <trkpt lat="45.05662" lon="6.02494">
        <ele>813.4</ele>
        <time>2061-01-03T18:56:41Z</time>
      </trkpt>
      <trkpt lat="45.05669" lon="6.02501">
        <ele>812.3</ele>
        <time>2061-01-03T18:57:32Z</time>
      </trkpt>
      <trkpt lat="45.05678" lon="6.02505">
        <ele>812.2</ele>
        <time>2061-01-03T18:57:37Z</time>
      </trkpt>
      <trkpt lat="45.05688" lon="6.02506">
        <ele>812.1</ele>
        <time>2061-01-03T18:57:40Z</time>
      </trkpt>
      <trkpt lat="45.057" lon="6.02507">
        <ele>811.7</ele>
        <time>2061-01-03T18:57:43Z</time>
      </trkpt>
      <trkpt lat="45.05709" lon="6.02508">
        <ele>811.3</ele>
        <time>2061-01-03T18:57:45Z</time>
      </trkpt>
      <trkpt lat="45.05719" lon="6.02509">
        <ele>810.7</ele>
        <time>2061-01-03T18:57:47Z</time>
      </trkpt>
      <trkpt lat="45.0573" lon="6.0251">
        <ele>810</ele>
        <time>2061-01-03T18:57:49Z</time>
      </trkpt>
      <trkpt lat="45.0574" lon="6.0251">
        <ele>809.2</ele>
        <time>2061-01-03T18:57:51Z</time>
      </trkpt>
      <trkpt lat="45.05751" lon="6.02507">
        <ele>807.7</ele>
        <time>2061-01-03T18:57:54Z</time>
      </trkpt>
      <trkpt lat="45.0576" lon="6.02505">
        <ele>805.7</ele>
        <time>2061-01-03T18:57:59Z</time>
      </trkpt>
      <trkpt lat="45.05772" lon="6.02508">
        <ele>803.6</ele>
        <time>2061-01-03T18:58:04Z</time>
      </trkpt>
      <trkpt lat="45.05786" lon="6.02511">
        <ele>802.7</ele>
        <time>2061-01-03T18:58:07Z</time>
      </trkpt>
      <trkpt lat="45.05796" lon="6.02511">
        <ele>801.9</ele>
        <time>2061-01-03T18:58:09Z</time>
      </trkpt>
      <trkpt lat="45.05808" lon="6.0251">
        <ele>801.2</ele>
        <time>2061-01-03T18:58:11Z</time>
      </trkpt>
      <trkpt lat="45.05818" lon="6.02509">
        <ele>800.5</ele>
        <time>2061-01-03T18:58:13Z</time>
      </trkpt>
      <trkpt lat="45.05828" lon="6.02509">
        <ele>799.9</ele>
        <time>2061-01-03T18:58:15Z</time>
      </trkpt>
      <trkpt lat="45.05838" lon="6.02509">
        <ele>799.2</ele>
        <time>2061-01-03T18:58:17Z</time>
      </trkpt>
      <trkpt lat="45.05849" lon="6.02509">
        <ele>798.4</ele>
        <time>2061-01-03T18:58:19Z</time>
      </trkpt>
      <trkpt lat="45.05861" lon="6.02509">
        <ele>797.7</ele>
        <time>2061-01-03T18:58:21Z</time>
      </trkpt>
      <trkpt lat="45.05874" lon="6.02511">
        <ele>797.1</ele>
        <time>2061-01-03T18:58:23Z</time>
      </trkpt>
      <trkpt lat="45.05885" lon="6.02513">
        <ele>796.5</ele>
        <time>2061-01-03T18:58:25Z</time>
      </trkpt>
      <trkpt lat="45.05895" lon="6.02513">
        <ele>795.9</ele>
        <time>2061-01-03T18:58:27Z</time>
      </trkpt>
      <trkpt lat="45.05904" lon="6.02513">
        <ele>795.5</ele>
        <time>2061-01-03T18:58:29Z</time>
      </trkpt>
      <trkpt lat="45.05917" lon="6.0251">
        <ele>794.8</ele>
        <time>2061-01-03T18:58:32Z</time>
      </trkpt>
      <trkpt lat="45.05929" lon="6.02502">
        <ele>794</ele>
        <time>2061-01-03T18:58:35Z</time>
      </trkpt>
      <trkpt lat="45.05936" lon="6.02493">
        <ele>793.4</ele>
        <time>2061-01-03T18:58:37Z</time>
      </trkpt>
      <trkpt lat="45.05943" lon="6.02484">
        <ele>793</ele>
        <time>2061-01-03T18:58:39Z</time>
      </trkpt>
      <trkpt lat="45.05949" lon="6.02476">
        <ele>792.6</ele>
        <time>2061-01-03T18:58:41Z</time>
      </trkpt>
      <trkpt lat="45.05956" lon="6.02466">
        <ele>792.2</ele>
        <time>2061-01-03T18:58:43Z</time>
      </trkpt>
      <trkpt lat="45.05963" lon="6.02457">
        <ele>791.9</ele>
        <time>2061-01-03T18:58:45Z</time>
      </trkpt>
      <trkpt lat="45.05969" lon="6.02448">
        <ele>791.5</ele>
        <time>2061-01-03T18:58:47Z</time>
      </trkpt>
      <trkpt lat="45.05977" lon="6.02431">
        <ele>790.9</ele>
        <time>2061-01-03T18:58:50Z</time>
      </trkpt>
      <trkpt lat="45.05984" lon="6.0242">
        <ele>790.6</ele>
        <time>2061-01-03T18:58:52Z</time>
      </trkpt>
      <trkpt lat="45.05991" lon="6.02409">
        <ele>790.3</ele>
        <time>2061-01-03T18:58:54Z</time>
      </trkpt>
      <trkpt lat="45.05999" lon="6.024">
        <ele>790</ele>
        <time>2061-01-03T18:58:56Z</time>
      </trkpt>
      <trkpt lat="45.06009" lon="6.02392">
        <ele>789.7</ele>
        <time>2061-01-03T18:58:59Z</time>
      </trkpt>
      <trkpt lat="45.06019" lon="6.02386">
        <ele>789.4</ele>
        <time>2061-01-03T18:59:02Z</time>
      </trkpt>
      <trkpt lat="45.06029" lon="6.02379">
        <ele>789.2</ele>
        <time>2061-01-03T18:59:05Z</time>
      </trkpt>
      <trkpt lat="45.06039" lon="6.02373">
        <ele>789</ele>
        <time>2061-01-03T18:59:08Z</time>
      </trkpt>
      <trkpt lat="45.0605" lon="6.02368">
        <ele>788.9</ele>
        <time>2061-01-03T18:59:11Z</time>
      </trkpt>
      <trkpt lat="45.06059" lon="6.02365">
        <ele>788.9</ele>
        <time>2061-01-03T18:59:13Z</time>
      </trkpt>
      <trkpt lat="45.06068" lon="6.02362">
        <ele>788.8</ele>
        <time>2061-01-03T18:59:15Z</time>
      </trkpt>
      <trkpt lat="45.0608" lon="6.02358">
        <ele>788.8</ele>
        <time>2061-01-03T18:59:18Z</time>
      </trkpt>
      <trkpt lat="45.06089" lon="6.02356">
        <ele>788.8</ele>
        <time>2061-01-03T18:59:21Z</time>
      </trkpt>
      <trkpt lat="45.06099" lon="6.02356">
        <ele>789.2</ele>
        <time>2061-01-03T18:59:25Z</time>
      </trkpt>
      <trkpt lat="45.06109" lon="6.02353">
        <ele>789.7</ele>
        <time>2061-01-03T18:59:29Z</time>
      </trkpt>
      <trkpt lat="45.06119" lon="6.02347">
        <ele>790.2</ele>
        <time>2061-01-03T18:59:33Z</time>
      </trkpt>
      <trkpt lat="45.0613" lon="6.02341">
        <ele>790.7</ele>
        <time>2061-01-03T18:59:37Z</time>
      </trkpt>
      <trkpt lat="45.06142" lon="6.02337">
        <ele>790.9</ele>
        <time>2061-01-03T18:59:40Z</time>
      </trkpt>
      <trkpt lat="45.06154" lon="6.02332">
        <ele>791.1</ele>
        <time>2061-01-03T18:59:43Z</time>
      </trkpt>
      <trkpt lat="45.06164" lon="6.02329">
        <ele>791.2</ele>
        <time>2061-01-03T18:59:45Z</time>
      </trkpt>
      <trkpt lat="45.06175" lon="6.02323">
        <ele>791.2</ele>
        <time>2061-01-03T18:59:48Z</time>
      </trkpt>
      <trkpt lat="45.06187" lon="6.02315">
        <ele>791</ele>
        <time>2061-01-03T18:59:51Z</time>
      </trkpt>
      <trkpt lat="45.06198" lon="6.02304">
        <ele>790.7</ele>
        <time>2061-01-03T18:59:54Z</time>
      </trkpt>
      <trkpt lat="45.06205" lon="6.02296">
        <ele>790.4</ele>
        <time>2061-01-03T18:59:56Z</time>
      </trkpt>
      <trkpt lat="45.06212" lon="6.02287">
        <ele>790.1</ele>
        <time>2061-01-03T18:59:58Z</time>
      </trkpt>
      <trkpt lat="45.0622" lon="6.02278">
        <ele>789.9</ele>
        <time>2061-01-03T19:00:00Z</time>
      </trkpt>
      <trkpt lat="45.06228" lon="6.0227">
        <ele>789.8</ele>
        <time>2061-01-03T19:00:02Z</time>
      </trkpt>
      <trkpt lat="45.06237" lon="6.02262">
        <ele>789.7</ele>
        <time>2061-01-03T19:00:05Z</time>
      </trkpt>
      <trkpt lat="45.06246" lon="6.02255">
        <ele>789.5</ele>
        <time>2061-01-03T19:00:08Z</time>
      </trkpt>
      <trkpt lat="45.06255" lon="6.02249">
        <ele>789.3</ele>
        <time>2061-01-03T19:00:11Z</time>
      </trkpt>
      <trkpt lat="45.06264" lon="6.02242">
        <ele>789.1</ele>
        <time>2061-01-03T19:00:14Z</time>
      </trkpt>
      <trkpt lat="45.06274" lon="6.02236">
        <ele>789</ele>
        <time>2061-01-03T19:00:17Z</time>
      </trkpt>
      <trkpt lat="45.06283" lon="6.02228">
        <ele>788.8</ele>
        <time>2061-01-03T19:00:20Z</time>
      </trkpt>
      <trkpt lat="45.06293" lon="6.0222">
        <ele>788.7</ele>
        <time>2061-01-03T19:00:23Z</time>
      </trkpt>
      <trkpt lat="45.06301" lon="6.02212">
        <ele>788.6</ele>
        <time>2061-01-03T19:00:26Z</time>
      </trkpt>
      <trkpt lat="45.06311" lon="6.02202">
        <ele>788.5</ele>
        <time>2061-01-03T19:00:30Z</time>
      </trkpt>
      <trkpt lat="45.06319" lon="6.02191">
        <ele>788.8</ele>
        <time>2061-01-03T19:00:34Z</time>
      </trkpt>
      <trkpt lat="45.06326" lon="6.02181">
        <ele>789.1</ele>
        <time>2061-01-03T19:00:38Z</time>
      </trkpt>
      <trkpt lat="45.06332" lon="6.02171">
        <ele>789.4</ele>
        <time>2061-01-03T19:00:42Z</time>
      </trkpt>
      <trkpt lat="45.06339" lon="6.0216">
        <ele>789.8</ele>
        <time>2061-01-03T19:00:46Z</time>
      </trkpt>
      <trkpt lat="45.06346" lon="6.02149">
        <ele>790.6</ele>
        <time>2061-01-03T19:00:51Z</time>
      </trkpt>
      <trkpt lat="45.06353" lon="6.0214">
        <ele>791.1</ele>
        <time>2061-01-03T19:00:55Z</time>
      </trkpt>
      <trkpt lat="45.06361" lon="6.02131">
        <ele>791.9</ele>
        <time>2061-01-03T19:01:01Z</time>
      </trkpt>
      <trkpt lat="45.06368" lon="6.02122">
        <ele>792.7</ele>
        <time>2061-01-03T19:01:06Z</time>
      </trkpt>
      <trkpt lat="45.06376" lon="6.02112">
        <ele>793.8</ele>
        <time>2061-01-03T19:01:11Z</time>
      </trkpt>
      <trkpt lat="45.06383" lon="6.02103">
        <ele>794.6</ele>
        <time>2061-01-03T19:01:16Z</time>
      </trkpt>
      <trkpt lat="45.0639" lon="6.02095">
        <ele>795.1</ele>
        <time>2061-01-03T19:01:20Z</time>
      </trkpt>
      <trkpt lat="45.06398" lon="6.02087">
        <ele>795.7</ele>
        <time>2061-01-03T19:01:24Z</time>
      </trkpt>
      <trkpt lat="45.06406" lon="6.02076">
        <ele>796.6</ele>
        <time>2061-01-03T19:01:28Z</time>
      </trkpt>
      <trkpt lat="45.06412" lon="6.02065">
        <ele>797</ele>
        <time>2061-01-03T19:01:31Z</time>
      </trkpt>
      <trkpt lat="45.06418" lon="6.02054">
        <ele>797.6</ele>
        <time>2061-01-03T19:01:35Z</time>
      </trkpt>
      <trkpt lat="45.06425" lon="6.02043">
        <ele>798</ele>
        <time>2061-01-03T19:01:39Z</time>
      </trkpt>
      <trkpt lat="45.0643" lon="6.02028">
        <ele>798.2</ele>
        <time>2061-01-03T19:01:43Z</time>
      </trkpt>
      <trkpt lat="45.06435" lon="6.02017">
        <ele>798.5</ele>
        <time>2061-01-03T19:01:46Z</time>
      </trkpt>
      <trkpt lat="45.06442" lon="6.02003">
        <ele>798.7</ele>
        <time>2061-01-03T19:01:50Z</time>
      </trkpt>
      <trkpt lat="45.0645" lon="6.01992">
        <ele>798.9</ele>
        <time>2061-01-03T19:01:53Z</time>
      </trkpt>
      <trkpt lat="45.06459" lon="6.01986">
        <ele>799</ele>
        <time>2061-01-03T19:01:55Z</time>
      </trkpt>
      <trkpt lat="45.0647" lon="6.01982">
        <ele>798.9</ele>
        <time>2061-01-03T19:01:57Z</time>
      </trkpt>
      <trkpt lat="45.0648" lon="6.01978">
        <ele>798.8</ele>
        <time>2061-01-03T19:01:59Z</time>
      </trkpt>
      <trkpt lat="45.0649" lon="6.01972">
        <ele>798.6</ele>
        <time>2061-01-03T19:02:02Z</time>
      </trkpt>
      <trkpt lat="45.06498" lon="6.01967">
        <ele>798.4</ele>
        <time>2061-01-03T19:02:05Z</time>
      </trkpt>
      <trkpt lat="45.06507" lon="6.01963">
        <ele>798.4</ele>
        <time>2061-01-03T19:02:07Z</time>
      </trkpt>
      <trkpt lat="45.06518" lon="6.01958">
        <ele>798.3</ele>
        <time>2061-01-03T19:02:09Z</time>
      </trkpt>
      <trkpt lat="45.06531" lon="6.01952">
        <ele>798.1</ele>
        <time>2061-01-03T19:02:11Z</time>
      </trkpt>
      <trkpt lat="45.06543" lon="6.01949">
        <ele>797.9</ele>
        <time>2061-01-03T19:02:13Z</time>
      </trkpt>
      <trkpt lat="45.06554" lon="6.01949">
        <ele>797.5</ele>
        <time>2061-01-03T19:02:15Z</time>
      </trkpt>
      <trkpt lat="45.06566" lon="6.0195">
        <ele>797</ele>
        <time>2061-01-03T19:02:18Z</time>
      </trkpt>
      <trkpt lat="45.06577" lon="6.01947">
        <ele>796.6</ele>
        <time>2061-01-03T19:02:21Z</time>
      </trkpt>
      <trkpt lat="45.06589" lon="6.01943">
        <ele>796.3</ele>
        <time>2061-01-03T19:02:24Z</time>
      </trkpt>
      <trkpt lat="45.06599" lon="6.01938">
        <ele>796</ele>
        <time>2061-01-03T19:02:27Z</time>
      </trkpt>
      <trkpt lat="45.06609" lon="6.01935">
        <ele>795.8</ele>
        <time>2061-01-03T19:02:30Z</time>
      </trkpt>
      <trkpt lat="45.06622" lon="6.01933">
        <ele>795.6</ele>
        <time>2061-01-03T19:02:33Z</time>
      </trkpt>
      <trkpt lat="45.06633" lon="6.01932">
        <ele>795.3</ele>
        <time>2061-01-03T19:02:36Z</time>
      </trkpt>
      <trkpt lat="45.06643" lon="6.01931">
        <ele>795</ele>
        <time>2061-01-03T19:02:38Z</time>
      </trkpt>
      <trkpt lat="45.06655" lon="6.0193">
        <ele>794.6</ele>
        <time>2061-01-03T19:02:40Z</time>
      </trkpt>
      <trkpt lat="45.06667" lon="6.01929">
        <ele>794.3</ele>
        <time>2061-01-03T19:02:42Z</time>
      </trkpt>
      <trkpt lat="45.06679" lon="6.01927">
        <ele>793.9</ele>
        <time>2061-01-03T19:02:44Z</time>
      </trkpt>
      <trkpt lat="45.06693" lon="6.01927">
        <ele>793.6</ele>
        <time>2061-01-03T19:02:46Z</time>
      </trkpt>
      <trkpt lat="45.06707" lon="6.01926">
        <ele>793.4</ele>
        <time>2061-01-03T19:02:48Z</time>
      </trkpt>
      <trkpt lat="45.0672" lon="6.01926">
        <ele>793.2</ele>
        <time>2061-01-03T19:02:50Z</time>
      </trkpt>
      <trkpt lat="45.06732" lon="6.01925">
        <ele>793</ele>
        <time>2061-01-03T19:02:52Z</time>
      </trkpt>
      <trkpt lat="45.06745" lon="6.01926">
        <ele>792.8</ele>
        <time>2061-01-03T19:02:54Z</time>
      </trkpt>
      <trkpt lat="45.06755" lon="6.01927">
        <ele>792.6</ele>
        <time>2061-01-03T19:02:56Z</time>
      </trkpt>
      <trkpt lat="45.06765" lon="6.01928">
        <ele>792.5</ele>
        <time>2061-01-03T19:02:58Z</time>
      </trkpt>
      <trkpt lat="45.06777" lon="6.01928">
        <ele>792.3</ele>
        <time>2061-01-03T19:03:01Z</time>
      </trkpt>
      <trkpt lat="45.0679" lon="6.01926">
        <ele>792.1</ele>
        <time>2061-01-03T19:03:04Z</time>
      </trkpt>
      <trkpt lat="45.068" lon="6.01924">
        <ele>791.8</ele>
        <time>2061-01-03T19:03:06Z</time>
      </trkpt>
      <trkpt lat="45.06809" lon="6.01922">
        <ele>791.5</ele>
        <time>2061-01-03T19:03:08Z</time>
      </trkpt>
      <trkpt lat="45.06818" lon="6.01921">
        <ele>791.3</ele>
        <time>2061-01-03T19:03:10Z</time>
      </trkpt>
      <trkpt lat="45.06829" lon="6.0192">
        <ele>791.1</ele>
        <time>2061-01-03T19:03:12Z</time>
      </trkpt>
      <trkpt lat="45.0684" lon="6.0192">
        <ele>790.9</ele>
        <time>2061-01-03T19:03:14Z</time>
      </trkpt>
      <trkpt lat="45.06851" lon="6.01923">
        <ele>790.7</ele>
        <time>2061-01-03T19:03:17Z</time>
      </trkpt>
      <trkpt lat="45.06863" lon="6.01927">
        <ele>790.5</ele>
        <time>2061-01-03T19:03:20Z</time>
      </trkpt>
      <trkpt lat="45.06874" lon="6.01929">
        <ele>790.2</ele>
        <time>2061-01-03T19:03:22Z</time>
      </trkpt>
      <trkpt lat="45.06887" lon="6.01931">
        <ele>790</ele>
        <time>2061-01-03T19:03:24Z</time>
      </trkpt>
      <trkpt lat="45.06899" lon="6.01934">
        <ele>789.7</ele>
        <time>2061-01-03T19:03:26Z</time>
      </trkpt>
      <trkpt lat="45.06911" lon="6.01936">
        <ele>789.4</ele>
        <time>2061-01-03T19:03:28Z</time>
      </trkpt>
      <trkpt lat="45.06923" lon="6.01933">
        <ele>789.1</ele>
        <time>2061-01-03T19:03:30Z</time>
      </trkpt>
      <trkpt lat="45.06934" lon="6.0193">
        <ele>788.8</ele>
        <time>2061-01-03T19:03:32Z</time>
      </trkpt>
      <trkpt lat="45.06946" lon="6.01926">
        <ele>788.6</ele>
        <time>2061-01-03T19:03:34Z</time>
      </trkpt>
      <trkpt lat="45.06957" lon="6.01922">
        <ele>788.4</ele>
        <time>2061-01-03T19:03:36Z</time>
      </trkpt>
      <trkpt lat="45.06968" lon="6.01919">
        <ele>788.2</ele>
        <time>2061-01-03T19:03:38Z</time>
      </trkpt>
      <trkpt lat="45.06977" lon="6.0192">
        <ele>788</ele>
        <time>2061-01-03T19:03:40Z</time>
      </trkpt>
      <trkpt lat="45.0699" lon="6.01919">
        <ele>787.8</ele>
        <time>2061-01-03T19:03:43Z</time>
      </trkpt>
      <trkpt lat="45.06999" lon="6.01916">
        <ele>787.6</ele>
        <time>2061-01-03T19:03:45Z</time>
      </trkpt>
      <trkpt lat="45.07009" lon="6.01912">
        <ele>787.5</ele>
        <time>2061-01-03T19:03:47Z</time>
      </trkpt>
      <trkpt lat="45.07022" lon="6.0191">
        <ele>787.4</ele>
        <time>2061-01-03T19:03:50Z</time>
      </trkpt>
      <trkpt lat="45.07033" lon="6.01913">
        <ele>787.3</ele>
        <time>2061-01-03T19:03:53Z</time>
      </trkpt>
      <trkpt lat="45.07046" lon="6.01911">
        <ele>787.3</ele>
        <time>2061-01-03T19:03:56Z</time>
      </trkpt>
      <trkpt lat="45.07059" lon="6.01908">
        <ele>787.5</ele>
        <time>2061-01-03T19:03:59Z</time>
      </trkpt>
      <trkpt lat="45.07071" lon="6.01903">
        <ele>787.7</ele>
        <time>2061-01-03T19:04:02Z</time>
      </trkpt>
      <trkpt lat="45.0708" lon="6.01898">
        <ele>787.9</ele>
        <time>2061-01-03T19:04:04Z</time>
      </trkpt>
      <trkpt lat="45.07092" lon="6.01888">
        <ele>788.1</ele>
        <time>2061-01-03T19:04:07Z</time>
      </trkpt>
      <trkpt lat="45.07101" lon="6.01881">
        <ele>788.2</ele>
        <time>2061-01-03T19:04:09Z</time>
      </trkpt>
      <trkpt lat="45.07109" lon="6.01875">
        <ele>788.3</ele>
        <time>2061-01-03T19:04:11Z</time>
      </trkpt>
      <trkpt lat="45.07117" lon="6.01868">
        <ele>788.4</ele>
        <time>2061-01-03T19:04:13Z</time>
      </trkpt>
      <trkpt lat="45.07126" lon="6.01858">
        <ele>788.7</ele>
        <time>2061-01-03T19:04:16Z</time>
      </trkpt>
      <trkpt lat="45.07137" lon="6.01847">
        <ele>788.9</ele>
        <time>2061-01-03T19:04:19Z</time>
      </trkpt>
      <trkpt lat="45.07143" lon="6.01837">
        <ele>789.1</ele>
        <time>2061-01-03T19:04:22Z</time>
      </trkpt>
      <trkpt lat="45.07144" lon="6.01822">
        <ele>789.2</ele>
        <time>2061-01-03T19:04:27Z</time>
      </trkpt>
      <trkpt lat="45.07149" lon="6.01806">
        <ele>789.3</ele>
        <time>2061-01-03T19:04:31Z</time>
      </trkpt>
      <trkpt lat="45.07156" lon="6.01795">
        <ele>789.4</ele>
        <time>2061-01-03T19:04:35Z</time>
      </trkpt>
      <trkpt lat="45.07163" lon="6.01781">
        <ele>789.5</ele>
        <time>2061-01-03T19:04:39Z</time>
      </trkpt>
      <trkpt lat="45.07165" lon="6.01765">
        <ele>789.6</ele>
        <time>2061-01-03T19:04:43Z</time>
      </trkpt>
      <trkpt lat="45.07167" lon="6.01753">
        <ele>789.7</ele>
        <time>2061-01-03T19:04:46Z</time>
      </trkpt>
      <trkpt lat="45.07171" lon="6.01741">
        <ele>789.7</ele>
        <time>2061-01-03T19:04:49Z</time>
      </trkpt>
      <trkpt lat="45.07177" lon="6.01731">
        <ele>789.9</ele>
        <time>2061-01-03T19:04:52Z</time>
      </trkpt>
      <trkpt lat="45.07185" lon="6.0172">
        <ele>790.1</ele>
        <time>2061-01-03T19:04:56Z</time>
      </trkpt>
      <trkpt lat="45.07191" lon="6.01711">
        <ele>790.3</ele>
        <time>2061-01-03T19:05:02Z</time>
      </trkpt>
      <trkpt lat="45.07199" lon="6.01718">
        <ele>790.4</ele>
        <time>2061-01-03T19:05:08Z</time>
      </trkpt>
      <trkpt lat="45.07206" lon="6.01728">
        <ele>790.8</ele>
        <time>2061-01-03T19:10:54Z</time>
      </trkpt>
      <trkpt lat="45.07204" lon="6.01743">
        <ele>790.7</ele>
        <time>2061-01-03T19:11:00Z</time>
      </trkpt>
      <trkpt lat="45.07203" lon="6.01757">
        <ele>790.7</ele>
        <time>2061-01-03T19:11:04Z</time>
      </trkpt>
      <trkpt lat="45.07203" lon="6.01772">
        <ele>790.7</ele>
        <time>2061-01-03T19:11:08Z</time>
      </trkpt>
      <trkpt lat="45.07203" lon="6.01785">
        <ele>790.8</ele>
        <time>2061-01-03T19:11:13Z</time>
      </trkpt>
      <trkpt lat="45.07207" lon="6.01799">
        <ele>791.1</ele>
        <time>2061-01-03T19:11:21Z</time>
      </trkpt>
      <trkpt lat="45.07215" lon="6.01806">
        <ele>791.2</ele>
        <time>2061-01-03T19:11:24Z</time>
      </trkpt>
      <trkpt lat="45.07225" lon="6.01805">
        <ele>791.3</ele>
        <time>2061-01-03T19:11:27Z</time>
      </trkpt>
      <trkpt lat="45.07235" lon="6.01797">
        <ele>791.3</ele>
        <time>2061-01-03T19:11:30Z</time>
      </trkpt>
      <trkpt lat="45.07245" lon="6.01789">
        <ele>791.2</ele>
        <time>2061-01-03T19:11:33Z</time>
      </trkpt>
      <trkpt lat="45.07256" lon="6.0178">
        <ele>791.3</ele>
        <time>2061-01-03T19:11:36Z</time>
      </trkpt>
      <trkpt lat="45.07267" lon="6.01772">
        <ele>791.3</ele>
        <time>2061-01-03T19:11:39Z</time>
      </trkpt>
      <trkpt lat="45.07278" lon="6.01763">
        <ele>791.4</ele>
        <time>2061-01-03T19:11:42Z</time>
      </trkpt>
      <trkpt lat="45.07289" lon="6.01754">
        <ele>791.4</ele>
        <time>2061-01-03T19:11:45Z</time>
      </trkpt>
      <trkpt lat="45.073" lon="6.01744">
        <ele>791.4</ele>
        <time>2061-01-03T19:11:48Z</time>
      </trkpt>
      <trkpt lat="45.07311" lon="6.01735">
        <ele>791.3</ele>
        <time>2061-01-03T19:11:51Z</time>
      </trkpt>
      <trkpt lat="45.07322" lon="6.01726">
        <ele>791.4</ele>
        <time>2061-01-03T19:11:54Z</time>
      </trkpt>
      <trkpt lat="45.07332" lon="6.01716">
        <ele>791.5</ele>
        <time>2061-01-03T19:11:57Z</time>
      </trkpt>
      <trkpt lat="45.07342" lon="6.01706">
        <ele>791.6</ele>
        <time>2061-01-03T19:12:00Z</time>
      </trkpt>
      <trkpt lat="45.07352" lon="6.01697">
        <ele>791.9</ele>
        <time>2061-01-03T19:12:03Z</time>
      </trkpt>
      <trkpt lat="45.07363" lon="6.01687">
        <ele>792.3</ele>
        <time>2061-01-03T19:12:06Z</time>
      </trkpt>
      <trkpt lat="45.07374" lon="6.01679">
        <ele>792.9</ele>
        <time>2061-01-03T19:12:09Z</time>
      </trkpt>
    </trkseg>
  </trk>
</gpx>